<?xml version="1.0" encoding="UTF-8" standalone="no" ?>
<gpx xmlns="http://www.topografix.com/GPX/1/1" xmlns:xsi="http://www.w3.org/2001/XMLSchema-instance" xsi:schemaLocation="http://www.topografix.com/GPX/1/1 http://www.topografix.com/GPX/1/1/gpx.xsd" version="1.1" creator="VisuGPX - https://www.visugpx.com">
  <metadata>
    <name>Ballade à Saou</name>
    <desc><![CDATA[première montée au refuge des Princes, descendre en suivant la  descente du deuxième passage. après c\'est la montée de l\'autre coté. que des chemins forestiers roulant et la descente en partie sur sentier. ]]></desc>
  </metadata>
  <trk>
    <name><![CDATA[21-JUIN-15 15-05-02-S1-MNT-F]]></name>
    <trkseg>
      <trkpt lat="44.64618" lon="5.06066">
        <ele>326.509949</ele>
        <time>2015-06-21T08:25:03Z</time>
      </trkpt>
      <trkpt lat="44.64602" lon="5.06071">
        <ele>325.279205</ele>
        <time>2015-06-21T08:25:07Z</time>
      </trkpt>
      <trkpt lat="44.64586" lon="5.06076">
        <ele>324.003754</ele>
        <time>2015-06-21T08:25:12Z</time>
      </trkpt>
      <trkpt lat="44.64579" lon="5.06077">
        <ele>323.566254</ele>
        <time>2015-06-21T08:25:14Z</time>
      </trkpt>
      <trkpt lat="44.64575" lon="5.0608">
        <ele>323.213745</ele>
        <time>2015-06-21T08:25:17Z</time>
      </trkpt>
      <trkpt lat="44.64574" lon="5.06084">
        <ele>323.149994</ele>
        <time>2015-06-21T08:25:18Z</time>
      </trkpt>
      <trkpt lat="44.64576" lon="5.06104">
        <ele>322.976257</ele>
        <time>2015-06-21T08:25:22Z</time>
      </trkpt>
      <trkpt lat="44.64582" lon="5.06136">
        <ele>322.910004</ele>
        <time>2015-06-21T08:25:28Z</time>
      </trkpt>
      <trkpt lat="44.64582" lon="5.06141">
        <ele>322.818756</ele>
        <time>2015-06-21T08:25:29Z</time>
      </trkpt>
      <trkpt lat="44.64561" lon="5.06205">
        <ele>320.999268</ele>
        <time>2015-06-21T08:25:42Z</time>
      </trkpt>
      <trkpt lat="44.64561" lon="5.06211">
        <ele>320.958923</ele>
        <time>2015-06-21T08:25:43Z</time>
      </trkpt>
      <trkpt lat="44.64561" lon="5.06217">
        <ele>320.931274</ele>
        <time>2015-06-21T08:25:44Z</time>
      </trkpt>
      <trkpt lat="44.6458" lon="5.06266">
        <ele>321.01886</ele>
        <time>2015-06-21T08:25:55Z</time>
      </trkpt>
      <trkpt lat="44.64589" lon="5.06318">
        <ele>321.523224</ele>
        <time>2015-06-21T08:26:06Z</time>
      </trkpt>
      <trkpt lat="44.64608" lon="5.06364">
        <ele>324.160797</ele>
        <time>2015-06-21T08:26:17Z</time>
      </trkpt>
      <trkpt lat="44.64634" lon="5.06405">
        <ele>326.762909</ele>
        <time>2015-06-21T08:26:29Z</time>
      </trkpt>
      <trkpt lat="44.64665" lon="5.06454">
        <ele>329.645386</ele>
        <time>2015-06-21T08:26:42Z</time>
      </trkpt>
      <trkpt lat="44.64699" lon="5.06503">
        <ele>332.040009</ele>
        <time>2015-06-21T08:26:56Z</time>
      </trkpt>
      <trkpt lat="44.64724" lon="5.06553">
        <ele>333.922485</ele>
        <time>2015-06-21T08:27:09Z</time>
      </trkpt>
      <trkpt lat="44.64742" lon="5.06623">
        <ele>335.234985</ele>
        <time>2015-06-21T08:27:25Z</time>
      </trkpt>
      <trkpt lat="44.64761" lon="5.06704">
        <ele>335.525024</ele>
        <time>2015-06-21T08:27:43Z</time>
      </trkpt>
      <trkpt lat="44.64775" lon="5.06759">
        <ele>336.16626</ele>
        <time>2015-06-21T08:27:56Z</time>
      </trkpt>
      <trkpt lat="44.64783" lon="5.06818">
        <ele>336.359985</ele>
        <time>2015-06-21T08:28:09Z</time>
      </trkpt>
      <trkpt lat="44.64789" lon="5.06885">
        <ele>336.09491</ele>
        <time>2015-06-21T08:28:22Z</time>
      </trkpt>
      <trkpt lat="44.6479" lon="5.06952">
        <ele>336</ele>
        <time>2015-06-21T08:28:36Z</time>
      </trkpt>
      <trkpt lat="44.64795" lon="5.0702">
        <ele>336.750977</ele>
        <time>2015-06-21T08:28:51Z</time>
      </trkpt>
      <trkpt lat="44.64808" lon="5.07084">
        <ele>337.57251</ele>
        <time>2015-06-21T08:29:05Z</time>
      </trkpt>
      <trkpt lat="44.64824" lon="5.07147">
        <ele>337.367523</ele>
        <time>2015-06-21T08:29:19Z</time>
      </trkpt>
      <trkpt lat="44.64846" lon="5.07198">
        <ele>338.330566</ele>
        <time>2015-06-21T08:29:32Z</time>
      </trkpt>
      <trkpt lat="44.64873" lon="5.07252">
        <ele>338.931244</ele>
        <time>2015-06-21T08:29:46Z</time>
      </trkpt>
      <trkpt lat="44.649" lon="5.07305">
        <ele>341.870453</ele>
        <time>2015-06-21T08:29:59Z</time>
      </trkpt>
      <trkpt lat="44.64923" lon="5.07374">
        <ele>345.041016</ele>
        <time>2015-06-21T08:30:14Z</time>
      </trkpt>
      <trkpt lat="44.64934" lon="5.07449">
        <ele>348.827484</ele>
        <time>2015-06-21T08:30:31Z</time>
      </trkpt>
      <trkpt lat="44.64943" lon="5.07513">
        <ele>351.390015</ele>
        <time>2015-06-21T08:30:46Z</time>
      </trkpt>
      <trkpt lat="44.64955" lon="5.0759">
        <ele>354.809814</ele>
        <time>2015-06-21T08:31:04Z</time>
      </trkpt>
      <trkpt lat="44.64965" lon="5.07659">
        <ele>356.058563</ele>
        <time>2015-06-21T08:31:20Z</time>
      </trkpt>
      <trkpt lat="44.64973" lon="5.07734">
        <ele>356.97644</ele>
        <time>2015-06-21T08:31:37Z</time>
      </trkpt>
      <trkpt lat="44.64981" lon="5.07802">
        <ele>358.855316</ele>
        <time>2015-06-21T08:31:52Z</time>
      </trkpt>
      <trkpt lat="44.65003" lon="5.07868">
        <ele>357.916046</ele>
        <time>2015-06-21T08:32:07Z</time>
      </trkpt>
      <trkpt lat="44.65035" lon="5.0793">
        <ele>358.065277</ele>
        <time>2015-06-21T08:32:23Z</time>
      </trkpt>
      <trkpt lat="44.65062" lon="5.07986">
        <ele>359.294037</ele>
        <time>2015-06-21T08:32:37Z</time>
      </trkpt>
      <trkpt lat="44.65092" lon="5.08049">
        <ele>359.861755</ele>
        <time>2015-06-21T08:32:53Z</time>
      </trkpt>
      <trkpt lat="44.65115" lon="5.08109">
        <ele>360.049591</ele>
        <time>2015-06-21T08:33:07Z</time>
      </trkpt>
      <trkpt lat="44.65138" lon="5.08182">
        <ele>359.925598</ele>
        <time>2015-06-21T08:33:23Z</time>
      </trkpt>
      <trkpt lat="44.65158" lon="5.08244">
        <ele>360.018219</ele>
        <time>2015-06-21T08:33:37Z</time>
      </trkpt>
      <trkpt lat="44.65174" lon="5.08319">
        <ele>362.240448</ele>
        <time>2015-06-21T08:33:54Z</time>
      </trkpt>
      <trkpt lat="44.65186" lon="5.08402">
        <ele>362.712524</ele>
        <time>2015-06-21T08:34:12Z</time>
      </trkpt>
      <trkpt lat="44.65201" lon="5.08472">
        <ele>362.986511</ele>
        <time>2015-06-21T08:34:28Z</time>
      </trkpt>
      <trkpt lat="44.65225" lon="5.08535">
        <ele>365.9841</ele>
        <time>2015-06-21T08:34:43Z</time>
      </trkpt>
      <trkpt lat="44.65243" lon="5.08594">
        <ele>365.802948</ele>
        <time>2015-06-21T08:34:56Z</time>
      </trkpt>
      <trkpt lat="44.65258" lon="5.08657">
        <ele>365.511383</ele>
        <time>2015-06-21T08:35:10Z</time>
      </trkpt>
      <trkpt lat="44.65286" lon="5.0873">
        <ele>366.555359</ele>
        <time>2015-06-21T08:35:27Z</time>
      </trkpt>
      <trkpt lat="44.65312" lon="5.088">
        <ele>369.407684</ele>
        <time>2015-06-21T08:35:43Z</time>
      </trkpt>
      <trkpt lat="44.65316" lon="5.08811">
        <ele>369.455017</ele>
        <time>2015-06-21T08:35:45Z</time>
      </trkpt>
      <trkpt lat="44.65332" lon="5.08853">
        <ele>370.514832</ele>
        <time>2015-06-21T08:35:53Z</time>
      </trkpt>
      <trkpt lat="44.65334" lon="5.08859">
        <ele>371.072235</ele>
        <time>2015-06-21T08:35:54Z</time>
      </trkpt>
      <trkpt lat="44.65335" lon="5.08865">
        <ele>371.390289</ele>
        <time>2015-06-21T08:35:55Z</time>
      </trkpt>
      <trkpt lat="44.65344" lon="5.08905">
        <ele>372.295227</ele>
        <time>2015-06-21T08:36:02Z</time>
      </trkpt>
      <trkpt lat="44.65352" lon="5.0896">
        <ele>372.591187</ele>
        <time>2015-06-21T08:36:11Z</time>
      </trkpt>
      <trkpt lat="44.65354" lon="5.08979">
        <ele>372.049286</ele>
        <time>2015-06-21T08:36:14Z</time>
      </trkpt>
      <trkpt lat="44.65354" lon="5.08986">
        <ele>371.861969</ele>
        <time>2015-06-21T08:36:15Z</time>
      </trkpt>
      <trkpt lat="44.65355" lon="5.08992">
        <ele>371.694397</ele>
        <time>2015-06-21T08:36:16Z</time>
      </trkpt>
      <trkpt lat="44.65357" lon="5.09004">
        <ele>371.409943</ele>
        <time>2015-06-21T08:36:18Z</time>
      </trkpt>
      <trkpt lat="44.65366" lon="5.09066">
        <ele>369.678497</ele>
        <time>2015-06-21T08:36:28Z</time>
      </trkpt>
      <trkpt lat="44.65368" lon="5.09072">
        <ele>369.667419</ele>
        <time>2015-06-21T08:36:29Z</time>
      </trkpt>
      <trkpt lat="44.65382" lon="5.09157">
        <ele>373.550323</ele>
        <time>2015-06-21T08:36:45Z</time>
      </trkpt>
      <trkpt lat="44.65396" lon="5.09228">
        <ele>377.754425</ele>
        <time>2015-06-21T08:36:59Z</time>
      </trkpt>
      <trkpt lat="44.65398" lon="5.09303">
        <ele>377.513641</ele>
        <time>2015-06-21T08:37:13Z</time>
      </trkpt>
      <trkpt lat="44.65412" lon="5.09375">
        <ele>380.738922</ele>
        <time>2015-06-21T08:37:26Z</time>
      </trkpt>
      <trkpt lat="44.65416" lon="5.09386">
        <ele>381.328796</ele>
        <time>2015-06-21T08:37:28Z</time>
      </trkpt>
      <trkpt lat="44.65427" lon="5.09403">
        <ele>381.037781</ele>
        <time>2015-06-21T08:37:32Z</time>
      </trkpt>
      <trkpt lat="44.65452" lon="5.09438">
        <ele>385.400848</ele>
        <time>2015-06-21T08:37:40Z</time>
      </trkpt>
      <trkpt lat="44.65456" lon="5.09447">
        <ele>386.856354</ele>
        <time>2015-06-21T08:37:42Z</time>
      </trkpt>
      <trkpt lat="44.65463" lon="5.09467">
        <ele>385.584534</ele>
        <time>2015-06-21T08:37:46Z</time>
      </trkpt>
      <trkpt lat="44.6546" lon="5.09517">
        <ele>399.251801</ele>
        <time>2015-06-21T08:37:57Z</time>
      </trkpt>
      <trkpt lat="44.65465" lon="5.09568">
        <ele>413.550201</ele>
        <time>2015-06-21T08:38:08Z</time>
      </trkpt>
      <trkpt lat="44.65491" lon="5.09606">
        <ele>394.991394</ele>
        <time>2015-06-21T08:38:20Z</time>
      </trkpt>
      <trkpt lat="44.65535" lon="5.09656">
        <ele>384.377777</ele>
        <time>2015-06-21T08:38:35Z</time>
      </trkpt>
      <trkpt lat="44.65575" lon="5.0971">
        <ele>389.903503</ele>
        <time>2015-06-21T08:38:50Z</time>
      </trkpt>
      <trkpt lat="44.65598" lon="5.09754">
        <ele>393.266541</ele>
        <time>2015-06-21T08:39:02Z</time>
      </trkpt>
      <trkpt lat="44.65616" lon="5.09796">
        <ele>392.571167</ele>
        <time>2015-06-21T08:39:13Z</time>
      </trkpt>
      <trkpt lat="44.65621" lon="5.09817">
        <ele>392.953094</ele>
        <time>2015-06-21T08:39:19Z</time>
      </trkpt>
      <trkpt lat="44.65624" lon="5.09821">
        <ele>392.893433</ele>
        <time>2015-06-21T08:39:20Z</time>
      </trkpt>
      <trkpt lat="44.65627" lon="5.09825">
        <ele>392.800568</ele>
        <time>2015-06-21T08:39:21Z</time>
      </trkpt>
      <trkpt lat="44.65629" lon="5.0983">
        <ele>392.832703</ele>
        <time>2015-06-21T08:39:22Z</time>
      </trkpt>
      <trkpt lat="44.65631" lon="5.09834">
        <ele>392.870178</ele>
        <time>2015-06-21T08:39:23Z</time>
      </trkpt>
      <trkpt lat="44.65633" lon="5.09838">
        <ele>392.811066</ele>
        <time>2015-06-21T08:39:24Z</time>
      </trkpt>
      <trkpt lat="44.65643" lon="5.09875">
        <ele>392.266235</ele>
        <time>2015-06-21T08:39:33Z</time>
      </trkpt>
      <trkpt lat="44.65644" lon="5.09879">
        <ele>392.263763</ele>
        <time>2015-06-21T08:39:34Z</time>
      </trkpt>
      <trkpt lat="44.65644" lon="5.09884">
        <ele>392.198761</ele>
        <time>2015-06-21T08:39:35Z</time>
      </trkpt>
      <trkpt lat="44.65645" lon="5.09889">
        <ele>392.128754</ele>
        <time>2015-06-21T08:39:36Z</time>
      </trkpt>
      <trkpt lat="44.65645" lon="5.09893">
        <ele>392.143738</ele>
        <time>2015-06-21T08:39:37Z</time>
      </trkpt>
      <trkpt lat="44.65646" lon="5.09897">
        <ele>392.157501</ele>
        <time>2015-06-21T08:39:38Z</time>
      </trkpt>
      <trkpt lat="44.65646" lon="5.09951">
        <ele>392.327789</ele>
        <time>2015-06-21T08:39:49Z</time>
      </trkpt>
      <trkpt lat="44.65636" lon="5.10016">
        <ele>394.994171</ele>
        <time>2015-06-21T08:40:03Z</time>
      </trkpt>
      <trkpt lat="44.65632" lon="5.10066">
        <ele>397.472992</ele>
        <time>2015-06-21T08:40:13Z</time>
      </trkpt>
      <trkpt lat="44.65634" lon="5.10118">
        <ele>399.782257</ele>
        <time>2015-06-21T08:40:24Z</time>
      </trkpt>
      <trkpt lat="44.6564" lon="5.10183">
        <ele>402.406586</ele>
        <time>2015-06-21T08:40:38Z</time>
      </trkpt>
      <trkpt lat="44.65644" lon="5.10241">
        <ele>404.367981</ele>
        <time>2015-06-21T08:40:51Z</time>
      </trkpt>
      <trkpt lat="44.65658" lon="5.10291">
        <ele>402.325073</ele>
        <time>2015-06-21T08:41:03Z</time>
      </trkpt>
      <trkpt lat="44.65671" lon="5.10334">
        <ele>402.065979</ele>
        <time>2015-06-21T08:41:13Z</time>
      </trkpt>
      <trkpt lat="44.65674" lon="5.1039">
        <ele>404.820068</ele>
        <time>2015-06-21T08:41:25Z</time>
      </trkpt>
      <trkpt lat="44.6567" lon="5.10456">
        <ele>409.89801</ele>
        <time>2015-06-21T08:41:39Z</time>
      </trkpt>
      <trkpt lat="44.65672" lon="5.10514">
        <ele>409.677948</ele>
        <time>2015-06-21T08:41:52Z</time>
      </trkpt>
      <trkpt lat="44.65675" lon="5.1056">
        <ele>407.309998</ele>
        <time>2015-06-21T08:42:01Z</time>
      </trkpt>
      <trkpt lat="44.65667" lon="5.10623">
        <ele>411.084991</ele>
        <time>2015-06-21T08:42:14Z</time>
      </trkpt>
      <trkpt lat="44.65658" lon="5.10696">
        <ele>415.970734</ele>
        <time>2015-06-21T08:42:29Z</time>
      </trkpt>
      <trkpt lat="44.6565" lon="5.1074">
        <ele>417.840576</ele>
        <time>2015-06-21T08:42:39Z</time>
      </trkpt>
      <trkpt lat="44.65662" lon="5.10794">
        <ele>412.921295</ele>
        <time>2015-06-21T08:42:50Z</time>
      </trkpt>
      <trkpt lat="44.65665" lon="5.10846">
        <ele>411.368469</ele>
        <time>2015-06-21T08:43:02Z</time>
      </trkpt>
      <trkpt lat="44.65671" lon="5.10898">
        <ele>408.914886</ele>
        <time>2015-06-21T08:43:13Z</time>
      </trkpt>
      <trkpt lat="44.65684" lon="5.10972">
        <ele>406.459991</ele>
        <time>2015-06-21T08:43:27Z</time>
      </trkpt>
      <trkpt lat="44.65684" lon="5.11016">
        <ele>407.434998</ele>
        <time>2015-06-21T08:43:39Z</time>
      </trkpt>
      <trkpt lat="44.65684" lon="5.11018">
        <ele>407.461243</ele>
        <time>2015-06-21T08:43:52Z</time>
      </trkpt>
      <trkpt lat="44.65685" lon="5.11018">
        <ele>407.461243</ele>
        <time>2015-06-21T08:44:19Z</time>
      </trkpt>
      <trkpt lat="44.65684" lon="5.11018">
        <ele>407.462494</ele>
        <time>2015-06-21T08:44:49Z</time>
      </trkpt>
      <trkpt lat="44.65684" lon="5.11018">
        <ele>407.464996</ele>
        <time>2015-06-21T08:45:20Z</time>
      </trkpt>
      <trkpt lat="44.65683" lon="5.11018">
        <ele>407.457489</ele>
        <time>2015-06-21T08:45:53Z</time>
      </trkpt>
      <trkpt lat="44.65683" lon="5.11018">
        <ele>407.464996</ele>
        <time>2015-06-21T08:46:01Z</time>
      </trkpt>
      <trkpt lat="44.65683" lon="5.11018">
        <ele>407.466248</ele>
        <time>2015-06-21T08:46:02Z</time>
      </trkpt>
      <trkpt lat="44.65683" lon="5.11019">
        <ele>407.472504</ele>
        <time>2015-06-21T08:46:12Z</time>
      </trkpt>
      <trkpt lat="44.65683" lon="5.11019">
        <ele>407.473755</ele>
        <time>2015-06-21T08:46:15Z</time>
      </trkpt>
      <trkpt lat="44.65683" lon="5.11019">
        <ele>407.473755</ele>
        <time>2015-06-21T08:46:16Z</time>
      </trkpt>
      <trkpt lat="44.65683" lon="5.11019">
        <ele>407.475006</ele>
        <time>2015-06-21T08:46:17Z</time>
      </trkpt>
      <trkpt lat="44.65683" lon="5.11019">
        <ele>407.475006</ele>
        <time>2015-06-21T08:46:18Z</time>
      </trkpt>
      <trkpt lat="44.65683" lon="5.11019">
        <ele>407.476257</ele>
        <time>2015-06-21T08:46:20Z</time>
      </trkpt>
      <trkpt lat="44.65683" lon="5.11019">
        <ele>407.476257</ele>
        <time>2015-06-21T08:46:21Z</time>
      </trkpt>
      <trkpt lat="44.65684" lon="5.11021">
        <ele>407.501251</ele>
        <time>2015-06-21T08:46:34Z</time>
      </trkpt>
      <trkpt lat="44.65684" lon="5.11022">
        <ele>407.526245</ele>
        <time>2015-06-21T08:46:35Z</time>
      </trkpt>
      <trkpt lat="44.65684" lon="5.11024">
        <ele>407.556244</ele>
        <time>2015-06-21T08:46:36Z</time>
      </trkpt>
      <trkpt lat="44.65684" lon="5.11026">
        <ele>407.588745</ele>
        <time>2015-06-21T08:46:37Z</time>
      </trkpt>
      <trkpt lat="44.65684" lon="5.11028">
        <ele>407.617493</ele>
        <time>2015-06-21T08:46:38Z</time>
      </trkpt>
      <trkpt lat="44.65684" lon="5.1103">
        <ele>407.642487</ele>
        <time>2015-06-21T08:46:39Z</time>
      </trkpt>
      <trkpt lat="44.65683" lon="5.11034">
        <ele>407.720001</ele>
        <time>2015-06-21T08:46:44Z</time>
      </trkpt>
      <trkpt lat="44.65682" lon="5.11033">
        <ele>407.706238</ele>
        <time>2015-06-21T08:46:45Z</time>
      </trkpt>
      <trkpt lat="44.65682" lon="5.11028">
        <ele>407.619995</ele>
        <time>2015-06-21T08:46:53Z</time>
      </trkpt>
      <trkpt lat="44.65681" lon="5.11026">
        <ele>407.591248</ele>
        <time>2015-06-21T08:46:54Z</time>
      </trkpt>
      <trkpt lat="44.65677" lon="5.11025">
        <ele>407.832336</ele>
        <time>2015-06-21T08:46:56Z</time>
      </trkpt>
      <trkpt lat="44.65676" lon="5.11025">
        <ele>408.409149</ele>
        <time>2015-06-21T08:46:57Z</time>
      </trkpt>
      <trkpt lat="44.6566" lon="5.11022">
        <ele>413.326263</ele>
        <time>2015-06-21T08:47:07Z</time>
      </trkpt>
      <trkpt lat="44.65655" lon="5.1103">
        <ele>414.838745</ele>
        <time>2015-06-21T08:47:18Z</time>
      </trkpt>
      <trkpt lat="44.65654" lon="5.1103">
        <ele>415.448029</ele>
        <time>2015-06-21T08:47:22Z</time>
      </trkpt>
      <trkpt lat="44.6565" lon="5.11029">
        <ele>416.588074</ele>
        <time>2015-06-21T08:47:32Z</time>
      </trkpt>
      <trkpt lat="44.6565" lon="5.1103">
        <ele>416.593262</ele>
        <time>2015-06-21T08:47:34Z</time>
      </trkpt>
      <trkpt lat="44.65652" lon="5.11038">
        <ele>415.966064</ele>
        <time>2015-06-21T08:47:44Z</time>
      </trkpt>
      <trkpt lat="44.65652" lon="5.11038">
        <ele>415.966064</ele>
        <time>2015-06-21T08:47:45Z</time>
      </trkpt>
      <trkpt lat="44.65651" lon="5.1104">
        <ele>416.227753</ele>
        <time>2015-06-21T08:47:56Z</time>
      </trkpt>
      <trkpt lat="44.65651" lon="5.11047">
        <ele>416.203339</ele>
        <time>2015-06-21T08:48:00Z</time>
      </trkpt>
      <trkpt lat="44.65647" lon="5.11059">
        <ele>417.755005</ele>
        <time>2015-06-21T08:48:05Z</time>
      </trkpt>
      <trkpt lat="44.6564" lon="5.11073">
        <ele>420.132507</ele>
        <time>2015-06-21T08:48:11Z</time>
      </trkpt>
      <trkpt lat="44.65642" lon="5.1108">
        <ele>419.792511</ele>
        <time>2015-06-21T08:48:22Z</time>
      </trkpt>
      <trkpt lat="44.65643" lon="5.11087">
        <ele>419.532501</ele>
        <time>2015-06-21T08:48:36Z</time>
      </trkpt>
      <trkpt lat="44.65645" lon="5.11103">
        <ele>419.227509</ele>
        <time>2015-06-21T08:48:41Z</time>
      </trkpt>
      <trkpt lat="44.65645" lon="5.11111">
        <ele>419.472504</ele>
        <time>2015-06-21T08:48:44Z</time>
      </trkpt>
      <trkpt lat="44.65644" lon="5.11129">
        <ele>419.910492</ele>
        <time>2015-06-21T08:48:50Z</time>
      </trkpt>
      <trkpt lat="44.65639" lon="5.11167">
        <ele>421.173828</ele>
        <time>2015-06-21T08:49:02Z</time>
      </trkpt>
      <trkpt lat="44.65629" lon="5.112">
        <ele>422.256409</ele>
        <time>2015-06-21T08:49:12Z</time>
      </trkpt>
      <trkpt lat="44.65617" lon="5.11231">
        <ele>424.403229</ele>
        <time>2015-06-21T08:49:24Z</time>
      </trkpt>
      <trkpt lat="44.65615" lon="5.11236">
        <ele>424.86319</ele>
        <time>2015-06-21T08:49:39Z</time>
      </trkpt>
      <trkpt lat="44.65614" lon="5.11236">
        <ele>425.218903</ele>
        <time>2015-06-21T08:50:05Z</time>
      </trkpt>
      <trkpt lat="44.65614" lon="5.11236">
        <ele>425.295197</ele>
        <time>2015-06-21T08:50:33Z</time>
      </trkpt>
      <trkpt lat="44.65613" lon="5.11237">
        <ele>425.481995</ele>
        <time>2015-06-21T08:50:51Z</time>
      </trkpt>
      <trkpt lat="44.65614" lon="5.11238">
        <ele>425.224243</ele>
        <time>2015-06-21T08:51:16Z</time>
      </trkpt>
      <trkpt lat="44.65614" lon="5.11241">
        <ele>425.038177</ele>
        <time>2015-06-21T08:51:21Z</time>
      </trkpt>
      <trkpt lat="44.65612" lon="5.1125">
        <ele>425.288849</ele>
        <time>2015-06-21T08:51:25Z</time>
      </trkpt>
      <trkpt lat="44.65612" lon="5.11257">
        <ele>425.139984</ele>
        <time>2015-06-21T08:51:27Z</time>
      </trkpt>
      <trkpt lat="44.6561" lon="5.11262">
        <ele>425.531891</ele>
        <time>2015-06-21T08:51:29Z</time>
      </trkpt>
      <trkpt lat="44.65605" lon="5.11275">
        <ele>426.4198</ele>
        <time>2015-06-21T08:51:34Z</time>
      </trkpt>
      <trkpt lat="44.656" lon="5.11288">
        <ele>427.520508</ele>
        <time>2015-06-21T08:51:40Z</time>
      </trkpt>
      <trkpt lat="44.65598" lon="5.11296">
        <ele>427.514648</ele>
        <time>2015-06-21T08:51:43Z</time>
      </trkpt>
      <trkpt lat="44.65594" lon="5.11333">
        <ele>426.556</ele>
        <time>2015-06-21T08:51:52Z</time>
      </trkpt>
      <trkpt lat="44.65588" lon="5.11359">
        <ele>426.374115</ele>
        <time>2015-06-21T08:51:59Z</time>
      </trkpt>
      <trkpt lat="44.65574" lon="5.11405">
        <ele>426.63501</ele>
        <time>2015-06-21T08:52:11Z</time>
      </trkpt>
      <trkpt lat="44.65572" lon="5.11416">
        <ele>426.651245</ele>
        <time>2015-06-21T08:52:13Z</time>
      </trkpt>
      <trkpt lat="44.65571" lon="5.11421">
        <ele>426.727509</ele>
        <time>2015-06-21T08:52:14Z</time>
      </trkpt>
      <trkpt lat="44.6557" lon="5.11426">
        <ele>426.95816</ele>
        <time>2015-06-21T08:52:15Z</time>
      </trkpt>
      <trkpt lat="44.65569" lon="5.11429">
        <ele>427.072235</ele>
        <time>2015-06-21T08:52:16Z</time>
      </trkpt>
      <trkpt lat="44.65568" lon="5.11433">
        <ele>427.12616</ele>
        <time>2015-06-21T08:52:17Z</time>
      </trkpt>
      <trkpt lat="44.65559" lon="5.11471">
        <ele>427.747742</ele>
        <time>2015-06-21T08:52:27Z</time>
      </trkpt>
      <trkpt lat="44.65559" lon="5.11475">
        <ele>427.434753</ele>
        <time>2015-06-21T08:52:28Z</time>
      </trkpt>
      <trkpt lat="44.65558" lon="5.1148">
        <ele>427.369202</ele>
        <time>2015-06-21T08:52:29Z</time>
      </trkpt>
      <trkpt lat="44.65557" lon="5.11484">
        <ele>427.257965</ele>
        <time>2015-06-21T08:52:30Z</time>
      </trkpt>
      <trkpt lat="44.65557" lon="5.1149">
        <ele>426.970978</ele>
        <time>2015-06-21T08:52:31Z</time>
      </trkpt>
      <trkpt lat="44.65557" lon="5.11495">
        <ele>426.877502</ele>
        <time>2015-06-21T08:52:32Z</time>
      </trkpt>
      <trkpt lat="44.65556" lon="5.11499">
        <ele>426.882355</ele>
        <time>2015-06-21T08:52:33Z</time>
      </trkpt>
      <trkpt lat="44.65543" lon="5.11549">
        <ele>427.282288</ele>
        <time>2015-06-21T08:52:45Z</time>
      </trkpt>
      <trkpt lat="44.65534" lon="5.11576">
        <ele>427.294434</ele>
        <time>2015-06-21T08:52:53Z</time>
      </trkpt>
      <trkpt lat="44.65534" lon="5.11579">
        <ele>427.020691</ele>
        <time>2015-06-21T08:52:54Z</time>
      </trkpt>
      <trkpt lat="44.65533" lon="5.11582">
        <ele>426.949158</ele>
        <time>2015-06-21T08:52:55Z</time>
      </trkpt>
      <trkpt lat="44.65521" lon="5.11614">
        <ele>428.620087</ele>
        <time>2015-06-21T08:53:04Z</time>
      </trkpt>
      <trkpt lat="44.6552" lon="5.11651">
        <ele>425.842377</ele>
        <time>2015-06-21T08:53:13Z</time>
      </trkpt>
      <trkpt lat="44.65518" lon="5.11654">
        <ele>426.126068</ele>
        <time>2015-06-21T08:53:14Z</time>
      </trkpt>
      <trkpt lat="44.65517" lon="5.11657">
        <ele>426.482117</ele>
        <time>2015-06-21T08:53:15Z</time>
      </trkpt>
      <trkpt lat="44.65516" lon="5.1166">
        <ele>426.557373</ele>
        <time>2015-06-21T08:53:16Z</time>
      </trkpt>
      <trkpt lat="44.65516" lon="5.11663">
        <ele>426.42395</ele>
        <time>2015-06-21T08:53:17Z</time>
      </trkpt>
      <trkpt lat="44.65516" lon="5.11666">
        <ele>426.102325</ele>
        <time>2015-06-21T08:53:18Z</time>
      </trkpt>
      <trkpt lat="44.65516" lon="5.1167">
        <ele>425.795349</ele>
        <time>2015-06-21T08:53:19Z</time>
      </trkpt>
      <trkpt lat="44.65516" lon="5.11673">
        <ele>425.352905</ele>
        <time>2015-06-21T08:53:20Z</time>
      </trkpt>
      <trkpt lat="44.65517" lon="5.11676">
        <ele>424.82135</ele>
        <time>2015-06-21T08:53:21Z</time>
      </trkpt>
      <trkpt lat="44.65517" lon="5.11678">
        <ele>424.721161</ele>
        <time>2015-06-21T08:53:22Z</time>
      </trkpt>
      <trkpt lat="44.65517" lon="5.11681">
        <ele>424.615234</ele>
        <time>2015-06-21T08:53:23Z</time>
      </trkpt>
      <trkpt lat="44.65516" lon="5.11685">
        <ele>424.61972</ele>
        <time>2015-06-21T08:53:24Z</time>
      </trkpt>
      <trkpt lat="44.65515" lon="5.11691">
        <ele>424.872223</ele>
        <time>2015-06-21T08:53:26Z</time>
      </trkpt>
      <trkpt lat="44.65513" lon="5.11693">
        <ele>425.391144</ele>
        <time>2015-06-21T08:53:27Z</time>
      </trkpt>
      <trkpt lat="44.65511" lon="5.11695">
        <ele>425.894318</ele>
        <time>2015-06-21T08:53:28Z</time>
      </trkpt>
      <trkpt lat="44.6551" lon="5.11698">
        <ele>426.397095</ele>
        <time>2015-06-21T08:53:29Z</time>
      </trkpt>
      <trkpt lat="44.65508" lon="5.11701">
        <ele>426.823669</ele>
        <time>2015-06-21T08:53:30Z</time>
      </trkpt>
      <trkpt lat="44.65506" lon="5.11704">
        <ele>427.119751</ele>
        <time>2015-06-21T08:53:31Z</time>
      </trkpt>
      <trkpt lat="44.65505" lon="5.11706">
        <ele>427.455414</ele>
        <time>2015-06-21T08:53:32Z</time>
      </trkpt>
      <trkpt lat="44.65499" lon="5.11717">
        <ele>428.360992</ele>
        <time>2015-06-21T08:53:41Z</time>
      </trkpt>
      <trkpt lat="44.65499" lon="5.11717">
        <ele>428.562683</ele>
        <time>2015-06-21T08:53:42Z</time>
      </trkpt>
      <trkpt lat="44.65499" lon="5.11717">
        <ele>428.631805</ele>
        <time>2015-06-21T08:53:43Z</time>
      </trkpt>
      <trkpt lat="44.65498" lon="5.11717">
        <ele>428.695099</ele>
        <time>2015-06-21T08:53:44Z</time>
      </trkpt>
      <trkpt lat="44.65498" lon="5.11717">
        <ele>428.924988</ele>
        <time>2015-06-21T08:53:49Z</time>
      </trkpt>
      <trkpt lat="44.65498" lon="5.11717">
        <ele>428.924988</ele>
        <time>2015-06-21T08:53:50Z</time>
      </trkpt>
      <trkpt lat="44.65498" lon="5.11718">
        <ele>428.913116</ele>
        <time>2015-06-21T08:53:56Z</time>
      </trkpt>
      <trkpt lat="44.65498" lon="5.11718">
        <ele>428.907196</ele>
        <time>2015-06-21T08:53:57Z</time>
      </trkpt>
      <trkpt lat="44.65498" lon="5.11718">
        <ele>428.866821</ele>
        <time>2015-06-21T08:53:58Z</time>
      </trkpt>
      <trkpt lat="44.65498" lon="5.11718">
        <ele>428.866821</ele>
        <time>2015-06-21T08:53:59Z</time>
      </trkpt>
      <trkpt lat="44.65498" lon="5.11718">
        <ele>428.860901</ele>
        <time>2015-06-21T08:54:00Z</time>
      </trkpt>
      <trkpt lat="44.65498" lon="5.11718">
        <ele>428.85498</ele>
        <time>2015-06-21T08:54:02Z</time>
      </trkpt>
      <trkpt lat="44.65498" lon="5.11718">
        <ele>428.877502</ele>
        <time>2015-06-21T08:54:03Z</time>
      </trkpt>
      <trkpt lat="44.65496" lon="5.11721">
        <ele>429.043182</ele>
        <time>2015-06-21T08:54:06Z</time>
      </trkpt>
      <trkpt lat="44.65496" lon="5.11723">
        <ele>428.969879</ele>
        <time>2015-06-21T08:54:07Z</time>
      </trkpt>
      <trkpt lat="44.65495" lon="5.11726">
        <ele>428.952179</ele>
        <time>2015-06-21T08:54:08Z</time>
      </trkpt>
      <trkpt lat="44.65494" lon="5.11728">
        <ele>429.018555</ele>
        <time>2015-06-21T08:54:09Z</time>
      </trkpt>
      <trkpt lat="44.65492" lon="5.11733">
        <ele>429.240845</ele>
        <time>2015-06-21T08:54:11Z</time>
      </trkpt>
      <trkpt lat="44.65491" lon="5.11735">
        <ele>429.296204</ele>
        <time>2015-06-21T08:54:12Z</time>
      </trkpt>
      <trkpt lat="44.6549" lon="5.11739">
        <ele>429.1604</ele>
        <time>2015-06-21T08:54:13Z</time>
      </trkpt>
      <trkpt lat="44.65477" lon="5.1178">
        <ele>427.986328</ele>
        <time>2015-06-21T08:54:24Z</time>
      </trkpt>
      <trkpt lat="44.65475" lon="5.11783">
        <ele>428.025238</ele>
        <time>2015-06-21T08:54:25Z</time>
      </trkpt>
      <trkpt lat="44.65475" lon="5.11788">
        <ele>427.783142</ele>
        <time>2015-06-21T08:54:26Z</time>
      </trkpt>
      <trkpt lat="44.65473" lon="5.11812">
        <ele>426.181458</ele>
        <time>2015-06-21T08:54:32Z</time>
      </trkpt>
      <trkpt lat="44.65473" lon="5.11814">
        <ele>425.999481</ele>
        <time>2015-06-21T08:54:33Z</time>
      </trkpt>
      <trkpt lat="44.65472" lon="5.11832">
        <ele>425.63559</ele>
        <time>2015-06-21T08:54:38Z</time>
      </trkpt>
      <trkpt lat="44.65471" lon="5.11836">
        <ele>425.698273</ele>
        <time>2015-06-21T08:54:39Z</time>
      </trkpt>
      <trkpt lat="44.6547" lon="5.11839">
        <ele>425.768311</ele>
        <time>2015-06-21T08:54:40Z</time>
      </trkpt>
      <trkpt lat="44.65469" lon="5.11841">
        <ele>425.903046</ele>
        <time>2015-06-21T08:54:41Z</time>
      </trkpt>
      <trkpt lat="44.65467" lon="5.11844">
        <ele>426.199921</ele>
        <time>2015-06-21T08:54:42Z</time>
      </trkpt>
      <trkpt lat="44.65465" lon="5.11847">
        <ele>426.444275</ele>
        <time>2015-06-21T08:54:43Z</time>
      </trkpt>
      <trkpt lat="44.65464" lon="5.1185">
        <ele>426.485352</ele>
        <time>2015-06-21T08:54:44Z</time>
      </trkpt>
      <trkpt lat="44.65457" lon="5.11867">
        <ele>427.452789</ele>
        <time>2015-06-21T08:54:50Z</time>
      </trkpt>
      <trkpt lat="44.65456" lon="5.11869">
        <ele>427.732697</ele>
        <time>2015-06-21T08:54:51Z</time>
      </trkpt>
      <trkpt lat="44.65454" lon="5.11869">
        <ele>428.022217</ele>
        <time>2015-06-21T08:54:52Z</time>
      </trkpt>
      <trkpt lat="44.65453" lon="5.11868">
        <ele>428.315002</ele>
        <time>2015-06-21T08:54:53Z</time>
      </trkpt>
      <trkpt lat="44.6544" lon="5.11865">
        <ele>431.035919</ele>
        <time>2015-06-21T08:55:02Z</time>
      </trkpt>
      <trkpt lat="44.65431" lon="5.1187">
        <ele>432.657501</ele>
        <time>2015-06-21T08:55:08Z</time>
      </trkpt>
      <trkpt lat="44.65428" lon="5.11872">
        <ele>433.259613</ele>
        <time>2015-06-21T08:55:10Z</time>
      </trkpt>
      <trkpt lat="44.65427" lon="5.11873">
        <ele>433.597076</ele>
        <time>2015-06-21T08:55:11Z</time>
      </trkpt>
      <trkpt lat="44.65415" lon="5.11883">
        <ele>436.23761</ele>
        <time>2015-06-21T08:55:20Z</time>
      </trkpt>
      <trkpt lat="44.65393" lon="5.11905">
        <ele>440.0271</ele>
        <time>2015-06-21T08:55:32Z</time>
      </trkpt>
      <trkpt lat="44.65373" lon="5.11928">
        <ele>443.737488</ele>
        <time>2015-06-21T08:55:42Z</time>
      </trkpt>
      <trkpt lat="44.65371" lon="5.11931">
        <ele>444.070007</ele>
        <time>2015-06-21T08:55:43Z</time>
      </trkpt>
      <trkpt lat="44.65364" lon="5.11957">
        <ele>443.490326</ele>
        <time>2015-06-21T08:55:50Z</time>
      </trkpt>
      <trkpt lat="44.65363" lon="5.11969">
        <ele>442.441681</ele>
        <time>2015-06-21T08:55:53Z</time>
      </trkpt>
      <trkpt lat="44.65356" lon="5.12">
        <ele>441.663086</ele>
        <time>2015-06-21T08:56:02Z</time>
      </trkpt>
      <trkpt lat="44.65355" lon="5.12012">
        <ele>441.095123</ele>
        <time>2015-06-21T08:56:05Z</time>
      </trkpt>
      <trkpt lat="44.65343" lon="5.12058">
        <ele>440.680786</ele>
        <time>2015-06-21T08:56:18Z</time>
      </trkpt>
      <trkpt lat="44.65338" lon="5.12078">
        <ele>440.040405</ele>
        <time>2015-06-21T08:56:24Z</time>
      </trkpt>
      <trkpt lat="44.65317" lon="5.12117">
        <ele>444.675415</ele>
        <time>2015-06-21T08:56:36Z</time>
      </trkpt>
      <trkpt lat="44.65306" lon="5.12146">
        <ele>447.784943</ele>
        <time>2015-06-21T08:56:45Z</time>
      </trkpt>
      <trkpt lat="44.65302" lon="5.12168">
        <ele>448.195923</ele>
        <time>2015-06-21T08:56:51Z</time>
      </trkpt>
      <trkpt lat="44.65297" lon="5.12185">
        <ele>448.369995</ele>
        <time>2015-06-21T08:56:56Z</time>
      </trkpt>
      <trkpt lat="44.65296" lon="5.12187">
        <ele>448.440002</ele>
        <time>2015-06-21T08:56:57Z</time>
      </trkpt>
      <trkpt lat="44.65296" lon="5.12193">
        <ele>448.089996</ele>
        <time>2015-06-21T08:56:58Z</time>
      </trkpt>
      <trkpt lat="44.6529" lon="5.1224">
        <ele>446.925842</ele>
        <time>2015-06-21T08:57:10Z</time>
      </trkpt>
      <trkpt lat="44.65279" lon="5.12274">
        <ele>450.571747</ele>
        <time>2015-06-21T08:57:19Z</time>
      </trkpt>
      <trkpt lat="44.65278" lon="5.12293">
        <ele>449.46991</ele>
        <time>2015-06-21T08:57:25Z</time>
      </trkpt>
      <trkpt lat="44.65276" lon="5.1233">
        <ele>446.516785</ele>
        <time>2015-06-21T08:57:32Z</time>
      </trkpt>
      <trkpt lat="44.65272" lon="5.12391">
        <ele>443.609375</ele>
        <time>2015-06-21T08:57:43Z</time>
      </trkpt>
      <trkpt lat="44.65266" lon="5.12419">
        <ele>444.152588</ele>
        <time>2015-06-21T08:57:50Z</time>
      </trkpt>
      <trkpt lat="44.65254" lon="5.12474">
        <ele>444.550507</ele>
        <time>2015-06-21T08:58:02Z</time>
      </trkpt>
      <trkpt lat="44.65248" lon="5.125">
        <ele>444.800995</ele>
        <time>2015-06-21T08:58:08Z</time>
      </trkpt>
      <trkpt lat="44.65238" lon="5.12543">
        <ele>444.378387</ele>
        <time>2015-06-21T08:58:19Z</time>
      </trkpt>
      <trkpt lat="44.65229" lon="5.12578">
        <ele>444.788727</ele>
        <time>2015-06-21T08:58:28Z</time>
      </trkpt>
      <trkpt lat="44.65219" lon="5.12605">
        <ele>446.394714</ele>
        <time>2015-06-21T08:58:36Z</time>
      </trkpt>
      <trkpt lat="44.65214" lon="5.1262">
        <ele>447.468994</ele>
        <time>2015-06-21T08:58:40Z</time>
      </trkpt>
      <trkpt lat="44.65205" lon="5.12638">
        <ele>448.96875</ele>
        <time>2015-06-21T08:58:45Z</time>
      </trkpt>
      <trkpt lat="44.65193" lon="5.12681">
        <ele>449.325714</ele>
        <time>2015-06-21T08:58:56Z</time>
      </trkpt>
      <trkpt lat="44.65172" lon="5.12714">
        <ele>454.776978</ele>
        <time>2015-06-21T08:59:06Z</time>
      </trkpt>
      <trkpt lat="44.65153" lon="5.12761">
        <ele>459.196136</ele>
        <time>2015-06-21T08:59:18Z</time>
      </trkpt>
      <trkpt lat="44.65141" lon="5.12802">
        <ele>460.522858</ele>
        <time>2015-06-21T08:59:28Z</time>
      </trkpt>
      <trkpt lat="44.65136" lon="5.12848">
        <ele>458.725616</ele>
        <time>2015-06-21T08:59:40Z</time>
      </trkpt>
      <trkpt lat="44.65132" lon="5.12879">
        <ele>460.097565</ele>
        <time>2015-06-21T08:59:50Z</time>
      </trkpt>
      <trkpt lat="44.65126" lon="5.12906">
        <ele>461.683441</ele>
        <time>2015-06-21T09:00:01Z</time>
      </trkpt>
      <trkpt lat="44.65126" lon="5.12932">
        <ele>462.247437</ele>
        <time>2015-06-21T09:00:11Z</time>
      </trkpt>
      <trkpt lat="44.65127" lon="5.12937">
        <ele>462.254059</ele>
        <time>2015-06-21T09:00:15Z</time>
      </trkpt>
      <trkpt lat="44.65127" lon="5.12937">
        <ele>462.235321</ele>
        <time>2015-06-21T09:00:16Z</time>
      </trkpt>
      <trkpt lat="44.65127" lon="5.12937">
        <ele>462.21228</ele>
        <time>2015-06-21T09:00:17Z</time>
      </trkpt>
      <trkpt lat="44.65127" lon="5.12937">
        <ele>462.18924</ele>
        <time>2015-06-21T09:00:18Z</time>
      </trkpt>
      <trkpt lat="44.65128" lon="5.12938">
        <ele>462.143188</ele>
        <time>2015-06-21T09:00:20Z</time>
      </trkpt>
      <trkpt lat="44.65128" lon="5.12938">
        <ele>462.143188</ele>
        <time>2015-06-21T09:00:21Z</time>
      </trkpt>
      <trkpt lat="44.65128" lon="5.12938">
        <ele>462.156403</ele>
        <time>2015-06-21T09:00:22Z</time>
      </trkpt>
      <trkpt lat="44.65128" lon="5.12938">
        <ele>462.142273</ele>
        <time>2015-06-21T09:00:23Z</time>
      </trkpt>
      <trkpt lat="44.65128" lon="5.12938">
        <ele>462.155487</ele>
        <time>2015-06-21T09:00:24Z</time>
      </trkpt>
      <trkpt lat="44.65128" lon="5.12938">
        <ele>462.164307</ele>
        <time>2015-06-21T09:00:25Z</time>
      </trkpt>
      <trkpt lat="44.65128" lon="5.12939">
        <ele>462.173126</ele>
        <time>2015-06-21T09:00:26Z</time>
      </trkpt>
      <trkpt lat="44.65128" lon="5.12939">
        <ele>462.145844</ele>
        <time>2015-06-21T09:00:27Z</time>
      </trkpt>
      <trkpt lat="44.65128" lon="5.12939">
        <ele>462.150269</ele>
        <time>2015-06-21T09:00:28Z</time>
      </trkpt>
      <trkpt lat="44.65128" lon="5.12939">
        <ele>462.213593</ele>
        <time>2015-06-21T09:00:30Z</time>
      </trkpt>
      <trkpt lat="44.65128" lon="5.12939">
        <ele>462.217987</ele>
        <time>2015-06-21T09:00:31Z</time>
      </trkpt>
      <trkpt lat="44.65127" lon="5.12939">
        <ele>462.249634</ele>
        <time>2015-06-21T09:00:32Z</time>
      </trkpt>
      <trkpt lat="44.65127" lon="5.12939">
        <ele>462.254028</ele>
        <time>2015-06-21T09:00:33Z</time>
      </trkpt>
      <trkpt lat="44.65127" lon="5.12939">
        <ele>462.281219</ele>
        <time>2015-06-21T09:00:34Z</time>
      </trkpt>
      <trkpt lat="44.65127" lon="5.12939">
        <ele>462.312805</ele>
        <time>2015-06-21T09:00:35Z</time>
      </trkpt>
      <trkpt lat="44.65126" lon="5.12938">
        <ele>462.470306</ele>
        <time>2015-06-21T09:00:48Z</time>
      </trkpt>
      <trkpt lat="44.65128" lon="5.12944">
        <ele>462.32196</ele>
        <time>2015-06-21T09:01:03Z</time>
      </trkpt>
      <trkpt lat="44.65128" lon="5.12975">
        <ele>463.939484</ele>
        <time>2015-06-21T09:01:12Z</time>
      </trkpt>
      <trkpt lat="44.65134" lon="5.13037">
        <ele>464.554993</ele>
        <time>2015-06-21T09:01:24Z</time>
      </trkpt>
      <trkpt lat="44.65142" lon="5.13075">
        <ele>463.21283</ele>
        <time>2015-06-21T09:01:33Z</time>
      </trkpt>
      <trkpt lat="44.65139" lon="5.13084">
        <ele>463.776611</ele>
        <time>2015-06-21T09:01:47Z</time>
      </trkpt>
      <trkpt lat="44.65139" lon="5.13085">
        <ele>463.891266</ele>
        <time>2015-06-21T09:01:52Z</time>
      </trkpt>
      <trkpt lat="44.65134" lon="5.13095">
        <ele>465.118011</ele>
        <time>2015-06-21T09:01:59Z</time>
      </trkpt>
      <trkpt lat="44.6513" lon="5.131">
        <ele>466.20282</ele>
        <time>2015-06-21T09:02:03Z</time>
      </trkpt>
      <trkpt lat="44.65111" lon="5.1312">
        <ele>471.106689</ele>
        <time>2015-06-21T09:02:16Z</time>
      </trkpt>
      <trkpt lat="44.65111" lon="5.13121">
        <ele>471.181152</ele>
        <time>2015-06-21T09:02:17Z</time>
      </trkpt>
      <trkpt lat="44.6511" lon="5.13121">
        <ele>471.218201</ele>
        <time>2015-06-21T09:02:18Z</time>
      </trkpt>
      <trkpt lat="44.65106" lon="5.13125">
        <ele>472.384308</ele>
        <time>2015-06-21T09:02:38Z</time>
      </trkpt>
      <trkpt lat="44.65089" lon="5.13134">
        <ele>476.435852</ele>
        <time>2015-06-21T09:02:50Z</time>
      </trkpt>
      <trkpt lat="44.65083" lon="5.13133">
        <ele>478.143188</ele>
        <time>2015-06-21T09:02:55Z</time>
      </trkpt>
      <trkpt lat="44.65081" lon="5.13134">
        <ele>478.991364</ele>
        <time>2015-06-21T09:02:58Z</time>
      </trkpt>
      <trkpt lat="44.65069" lon="5.13147">
        <ele>481.907135</ele>
        <time>2015-06-21T09:03:11Z</time>
      </trkpt>
      <trkpt lat="44.65066" lon="5.13148">
        <ele>482.844513</ele>
        <time>2015-06-21T09:03:21Z</time>
      </trkpt>
      <trkpt lat="44.65074" lon="5.1317">
        <ele>479.400757</ele>
        <time>2015-06-21T09:03:32Z</time>
      </trkpt>
      <trkpt lat="44.65074" lon="5.13171">
        <ele>479.147095</ele>
        <time>2015-06-21T09:03:34Z</time>
      </trkpt>
      <trkpt lat="44.65074" lon="5.13171">
        <ele>479.176788</ele>
        <time>2015-06-21T09:03:35Z</time>
      </trkpt>
      <trkpt lat="44.65074" lon="5.1317">
        <ele>479.235504</ele>
        <time>2015-06-21T09:03:38Z</time>
      </trkpt>
      <trkpt lat="44.65073" lon="5.13168">
        <ele>479.38147</ele>
        <time>2015-06-21T09:03:46Z</time>
      </trkpt>
      <trkpt lat="44.65073" lon="5.13168">
        <ele>479.328522</ele>
        <time>2015-06-21T09:03:47Z</time>
      </trkpt>
      <trkpt lat="44.65074" lon="5.13168">
        <ele>479.141205</ele>
        <time>2015-06-21T09:03:50Z</time>
      </trkpt>
      <trkpt lat="44.65074" lon="5.13168">
        <ele>478.954254</ele>
        <time>2015-06-21T09:03:53Z</time>
      </trkpt>
      <trkpt lat="44.65074" lon="5.13168">
        <ele>478.930359</ele>
        <time>2015-06-21T09:03:54Z</time>
      </trkpt>
      <trkpt lat="44.65074" lon="5.13167">
        <ele>478.825195</ele>
        <time>2015-06-21T09:03:56Z</time>
      </trkpt>
      <trkpt lat="44.65074" lon="5.13167">
        <ele>478.743927</ele>
        <time>2015-06-21T09:03:57Z</time>
      </trkpt>
      <trkpt lat="44.65075" lon="5.13168">
        <ele>478.674469</ele>
        <time>2015-06-21T09:03:59Z</time>
      </trkpt>
      <trkpt lat="44.65075" lon="5.13167">
        <ele>478.622009</ele>
        <time>2015-06-21T09:04:00Z</time>
      </trkpt>
      <trkpt lat="44.65075" lon="5.13168">
        <ele>478.424866</ele>
        <time>2015-06-21T09:04:05Z</time>
      </trkpt>
      <trkpt lat="44.65076" lon="5.13168">
        <ele>478.331421</ele>
        <time>2015-06-21T09:04:09Z</time>
      </trkpt>
      <trkpt lat="44.65076" lon="5.13168">
        <ele>478.342987</ele>
        <time>2015-06-21T09:04:10Z</time>
      </trkpt>
      <trkpt lat="44.65076" lon="5.13169">
        <ele>478.371429</ele>
        <time>2015-06-21T09:04:13Z</time>
      </trkpt>
      <trkpt lat="44.65076" lon="5.13167">
        <ele>478.221161</ele>
        <time>2015-06-21T09:04:16Z</time>
      </trkpt>
      <trkpt lat="44.6507" lon="5.13163">
        <ele>480.306366</ele>
        <time>2015-06-21T09:04:19Z</time>
      </trkpt>
      <trkpt lat="44.65067" lon="5.1316">
        <ele>481.450043</ele>
        <time>2015-06-21T09:04:21Z</time>
      </trkpt>
      <trkpt lat="44.65078" lon="5.13144">
        <ele>479.060577</ele>
        <time>2015-06-21T09:04:29Z</time>
      </trkpt>
      <trkpt lat="44.65083" lon="5.13138">
        <ele>477.775391</ele>
        <time>2015-06-21T09:04:32Z</time>
      </trkpt>
      <trkpt lat="44.65085" lon="5.13136">
        <ele>477.356415</ele>
        <time>2015-06-21T09:04:33Z</time>
      </trkpt>
      <trkpt lat="44.65099" lon="5.13116">
        <ele>475.036713</ele>
        <time>2015-06-21T09:04:41Z</time>
      </trkpt>
      <trkpt lat="44.65106" lon="5.131">
        <ele>473.63501</ele>
        <time>2015-06-21T09:04:47Z</time>
      </trkpt>
      <trkpt lat="44.651" lon="5.13063">
        <ele>475.756561</ele>
        <time>2015-06-21T09:04:57Z</time>
      </trkpt>
      <trkpt lat="44.65095" lon="5.13042">
        <ele>477.380249</ele>
        <time>2015-06-21T09:05:03Z</time>
      </trkpt>
      <trkpt lat="44.65087" lon="5.1302">
        <ele>477.578735</ele>
        <time>2015-06-21T09:05:12Z</time>
      </trkpt>
      <trkpt lat="44.6507" lon="5.13009">
        <ele>483.113464</ele>
        <time>2015-06-21T09:05:22Z</time>
      </trkpt>
      <trkpt lat="44.65061" lon="5.13005">
        <ele>485.761414</ele>
        <time>2015-06-21T09:05:34Z</time>
      </trkpt>
      <trkpt lat="44.65046" lon="5.13002">
        <ele>491.171509</ele>
        <time>2015-06-21T09:05:45Z</time>
      </trkpt>
      <trkpt lat="44.65039" lon="5.12998">
        <ele>493.876984</ele>
        <time>2015-06-21T09:05:51Z</time>
      </trkpt>
      <trkpt lat="44.65031" lon="5.12979">
        <ele>494.503967</ele>
        <time>2015-06-21T09:05:59Z</time>
      </trkpt>
      <trkpt lat="44.65011" lon="5.1294">
        <ele>507.209869</ele>
        <time>2015-06-21T09:06:07Z</time>
      </trkpt>
      <trkpt lat="44.65011" lon="5.12936">
        <ele>507.644135</ele>
        <time>2015-06-21T09:06:09Z</time>
      </trkpt>
      <trkpt lat="44.65016" lon="5.12925">
        <ele>505.819366</ele>
        <time>2015-06-21T09:06:14Z</time>
      </trkpt>
      <trkpt lat="44.65021" lon="5.1292">
        <ele>503.326202</ele>
        <time>2015-06-21T09:06:18Z</time>
      </trkpt>
      <trkpt lat="44.65033" lon="5.12914">
        <ele>495.700745</ele>
        <time>2015-06-21T09:06:24Z</time>
      </trkpt>
      <trkpt lat="44.65037" lon="5.12909">
        <ele>493.980927</ele>
        <time>2015-06-21T09:06:27Z</time>
      </trkpt>
      <trkpt lat="44.65044" lon="5.12904">
        <ele>492.139496</ele>
        <time>2015-06-21T09:06:31Z</time>
      </trkpt>
      <trkpt lat="44.65048" lon="5.12901">
        <ele>491.320404</ele>
        <time>2015-06-21T09:06:33Z</time>
      </trkpt>
      <trkpt lat="44.65055" lon="5.12889">
        <ele>491.891449</ele>
        <time>2015-06-21T09:06:38Z</time>
      </trkpt>
      <trkpt lat="44.65066" lon="5.12858">
        <ele>495.850403</ele>
        <time>2015-06-21T09:06:52Z</time>
      </trkpt>
      <trkpt lat="44.65065" lon="5.12841">
        <ele>499.857635</ele>
        <time>2015-06-21T09:06:58Z</time>
      </trkpt>
      <trkpt lat="44.65064" lon="5.12812">
        <ele>503.35672</ele>
        <time>2015-06-21T09:07:09Z</time>
      </trkpt>
      <trkpt lat="44.65064" lon="5.1281">
        <ele>503.995697</ele>
        <time>2015-06-21T09:07:10Z</time>
      </trkpt>
      <trkpt lat="44.6506" lon="5.12789">
        <ele>508.343445</ele>
        <time>2015-06-21T09:07:18Z</time>
      </trkpt>
      <trkpt lat="44.65062" lon="5.12774">
        <ele>506.611603</ele>
        <time>2015-06-21T09:07:23Z</time>
      </trkpt>
      <trkpt lat="44.65061" lon="5.12743">
        <ele>504.173615</ele>
        <time>2015-06-21T09:07:36Z</time>
      </trkpt>
      <trkpt lat="44.65049" lon="5.12729">
        <ele>509.177643</ele>
        <time>2015-06-21T09:07:46Z</time>
      </trkpt>
      <trkpt lat="44.65032" lon="5.12715">
        <ele>516.200012</ele>
        <time>2015-06-21T09:07:58Z</time>
      </trkpt>
      <trkpt lat="44.65012" lon="5.127">
        <ele>525.299988</ele>
        <time>2015-06-21T09:08:11Z</time>
      </trkpt>
      <trkpt lat="44.64997" lon="5.12684">
        <ele>530.647827</ele>
        <time>2015-06-21T09:08:22Z</time>
      </trkpt>
      <trkpt lat="44.64997" lon="5.12682">
        <ele>530.855713</ele>
        <time>2015-06-21T09:08:23Z</time>
      </trkpt>
      <trkpt lat="44.64999" lon="5.12679">
        <ele>530.21936</ele>
        <time>2015-06-21T09:08:25Z</time>
      </trkpt>
      <trkpt lat="44.6501" lon="5.12661">
        <ele>526.5</ele>
        <time>2015-06-21T09:08:33Z</time>
      </trkpt>
      <trkpt lat="44.6503" lon="5.12636">
        <ele>523.219788</ele>
        <time>2015-06-21T09:08:46Z</time>
      </trkpt>
      <trkpt lat="44.65032" lon="5.12633">
        <ele>523.25354</ele>
        <time>2015-06-21T09:08:47Z</time>
      </trkpt>
      <trkpt lat="44.65048" lon="5.12608">
        <ele>523.830078</ele>
        <time>2015-06-21T09:09:00Z</time>
      </trkpt>
      <trkpt lat="44.6505" lon="5.12606">
        <ele>523.753662</ele>
        <time>2015-06-21T09:09:01Z</time>
      </trkpt>
      <trkpt lat="44.65068" lon="5.1258">
        <ele>521.503479</ele>
        <time>2015-06-21T09:09:13Z</time>
      </trkpt>
      <trkpt lat="44.65089" lon="5.12557">
        <ele>519.188232</ele>
        <time>2015-06-21T09:09:24Z</time>
      </trkpt>
      <trkpt lat="44.65109" lon="5.12532">
        <ele>517.371155</ele>
        <time>2015-06-21T09:09:37Z</time>
      </trkpt>
      <trkpt lat="44.65117" lon="5.12512">
        <ele>513.875</ele>
        <time>2015-06-21T09:09:45Z</time>
      </trkpt>
      <trkpt lat="44.651" lon="5.1248">
        <ele>524.20575</ele>
        <time>2015-06-21T09:10:00Z</time>
      </trkpt>
      <trkpt lat="44.65077" lon="5.12467">
        <ele>531.145325</ele>
        <time>2015-06-21T09:10:13Z</time>
      </trkpt>
      <trkpt lat="44.65074" lon="5.12462">
        <ele>531.800476</ele>
        <time>2015-06-21T09:10:16Z</time>
      </trkpt>
      <trkpt lat="44.65048" lon="5.12446">
        <ele>539.678833</ele>
        <time>2015-06-21T09:10:31Z</time>
      </trkpt>
      <trkpt lat="44.6504" lon="5.12439">
        <ele>541.83136</ele>
        <time>2015-06-21T09:10:36Z</time>
      </trkpt>
      <trkpt lat="44.65033" lon="5.1242">
        <ele>543.132568</ele>
        <time>2015-06-21T09:10:46Z</time>
      </trkpt>
      <trkpt lat="44.65055" lon="5.12389">
        <ele>539.102539</ele>
        <time>2015-06-21T09:11:00Z</time>
      </trkpt>
      <trkpt lat="44.65065" lon="5.12362">
        <ele>539.588928</ele>
        <time>2015-06-21T09:11:12Z</time>
      </trkpt>
      <trkpt lat="44.65087" lon="5.12351">
        <ele>532.255188</ele>
        <time>2015-06-21T09:11:23Z</time>
      </trkpt>
      <trkpt lat="44.65098" lon="5.12337">
        <ele>531.065125</ele>
        <time>2015-06-21T09:11:31Z</time>
      </trkpt>
      <trkpt lat="44.65118" lon="5.12297">
        <ele>536.035889</ele>
        <time>2015-06-21T09:11:45Z</time>
      </trkpt>
      <trkpt lat="44.65134" lon="5.12279">
        <ele>532.755005</ele>
        <time>2015-06-21T09:11:54Z</time>
      </trkpt>
      <trkpt lat="44.65147" lon="5.12273">
        <ele>527.736267</ele>
        <time>2015-06-21T09:12:00Z</time>
      </trkpt>
      <trkpt lat="44.65172" lon="5.12262">
        <ele>515.776245</ele>
        <time>2015-06-21T09:12:10Z</time>
      </trkpt>
      <trkpt lat="44.65171" lon="5.12252">
        <ele>517.604248</ele>
        <time>2015-06-21T09:12:13Z</time>
      </trkpt>
      <trkpt lat="44.65166" lon="5.12236">
        <ele>523.386719</ele>
        <time>2015-06-21T09:12:17Z</time>
      </trkpt>
      <trkpt lat="44.65146" lon="5.12179">
        <ele>540.409607</ele>
        <time>2015-06-21T09:12:30Z</time>
      </trkpt>
      <trkpt lat="44.65145" lon="5.12171">
        <ele>541.542053</ele>
        <time>2015-06-21T09:12:32Z</time>
      </trkpt>
      <trkpt lat="44.65144" lon="5.12158">
        <ele>542.628906</ele>
        <time>2015-06-21T09:12:36Z</time>
      </trkpt>
      <trkpt lat="44.65145" lon="5.12152">
        <ele>541.878235</ele>
        <time>2015-06-21T09:12:38Z</time>
      </trkpt>
      <trkpt lat="44.65135" lon="5.12122">
        <ele>543.757874</ele>
        <time>2015-06-21T09:12:49Z</time>
      </trkpt>
      <trkpt lat="44.65129" lon="5.12114">
        <ele>545.592346</ele>
        <time>2015-06-21T09:12:53Z</time>
      </trkpt>
      <trkpt lat="44.65123" lon="5.1211">
        <ele>547.704468</ele>
        <time>2015-06-21T09:12:57Z</time>
      </trkpt>
      <trkpt lat="44.651" lon="5.12107">
        <ele>555.383484</ele>
        <time>2015-06-21T09:13:09Z</time>
      </trkpt>
      <trkpt lat="44.65087" lon="5.12105">
        <ele>558.7052</ele>
        <time>2015-06-21T09:13:18Z</time>
      </trkpt>
      <trkpt lat="44.65087" lon="5.12105">
        <ele>558.698425</ele>
        <time>2015-06-21T09:13:19Z</time>
      </trkpt>
      <trkpt lat="44.65087" lon="5.12105">
        <ele>558.75</ele>
        <time>2015-06-21T09:13:22Z</time>
      </trkpt>
      <trkpt lat="44.65087" lon="5.12105">
        <ele>558.756775</ele>
        <time>2015-06-21T09:13:24Z</time>
      </trkpt>
      <trkpt lat="44.65087" lon="5.12105">
        <ele>558.756775</ele>
        <time>2015-06-21T09:13:25Z</time>
      </trkpt>
      <trkpt lat="44.65087" lon="5.12105">
        <ele>558.75</ele>
        <time>2015-06-21T09:13:26Z</time>
      </trkpt>
      <trkpt lat="44.65087" lon="5.12105">
        <ele>558.75</ele>
        <time>2015-06-21T09:13:27Z</time>
      </trkpt>
      <trkpt lat="44.65087" lon="5.12105">
        <ele>558.743164</ele>
        <time>2015-06-21T09:13:28Z</time>
      </trkpt>
      <trkpt lat="44.65087" lon="5.12105">
        <ele>558.774353</ele>
        <time>2015-06-21T09:13:29Z</time>
      </trkpt>
      <trkpt lat="44.65087" lon="5.12105">
        <ele>558.722839</ele>
        <time>2015-06-21T09:13:30Z</time>
      </trkpt>
      <trkpt lat="44.65087" lon="5.12105">
        <ele>558.716003</ele>
        <time>2015-06-21T09:13:31Z</time>
      </trkpt>
      <trkpt lat="44.65087" lon="5.12105">
        <ele>558.733704</ele>
        <time>2015-06-21T09:13:32Z</time>
      </trkpt>
      <trkpt lat="44.65087" lon="5.12105">
        <ele>558.695618</ele>
        <time>2015-06-21T09:13:33Z</time>
      </trkpt>
      <trkpt lat="44.65087" lon="5.12105">
        <ele>558.713379</ele>
        <time>2015-06-21T09:13:34Z</time>
      </trkpt>
      <trkpt lat="44.65087" lon="5.12104">
        <ele>558.699768</ele>
        <time>2015-06-21T09:13:36Z</time>
      </trkpt>
      <trkpt lat="44.65087" lon="5.12104">
        <ele>558.661682</ele>
        <time>2015-06-21T09:13:40Z</time>
      </trkpt>
      <trkpt lat="44.65087" lon="5.12104">
        <ele>558.847168</ele>
        <time>2015-06-21T09:13:57Z</time>
      </trkpt>
      <trkpt lat="44.65086" lon="5.12104">
        <ele>558.909851</ele>
        <time>2015-06-21T09:13:59Z</time>
      </trkpt>
      <trkpt lat="44.65086" lon="5.12104">
        <ele>558.992615</ele>
        <time>2015-06-21T09:14:02Z</time>
      </trkpt>
      <trkpt lat="44.65086" lon="5.12104">
        <ele>559.037292</ele>
        <time>2015-06-21T09:14:03Z</time>
      </trkpt>
      <trkpt lat="44.65086" lon="5.12104">
        <ele>559.050659</ele>
        <time>2015-06-21T09:14:04Z</time>
      </trkpt>
      <trkpt lat="44.65086" lon="5.12104">
        <ele>559.088623</ele>
        <time>2015-06-21T09:14:05Z</time>
      </trkpt>
      <trkpt lat="44.65086" lon="5.12105">
        <ele>559.095276</ele>
        <time>2015-06-21T09:14:06Z</time>
      </trkpt>
      <trkpt lat="44.65086" lon="5.12105">
        <ele>559.095276</ele>
        <time>2015-06-21T09:14:07Z</time>
      </trkpt>
      <trkpt lat="44.65086" lon="5.12105">
        <ele>559.064026</ele>
        <time>2015-06-21T09:14:08Z</time>
      </trkpt>
      <trkpt lat="44.65086" lon="5.12105">
        <ele>559.070679</ele>
        <time>2015-06-21T09:14:09Z</time>
      </trkpt>
      <trkpt lat="44.65086" lon="5.12105">
        <ele>559.039429</ele>
        <time>2015-06-21T09:14:10Z</time>
      </trkpt>
      <trkpt lat="44.65086" lon="5.12105">
        <ele>559.039429</ele>
        <time>2015-06-21T09:14:11Z</time>
      </trkpt>
      <trkpt lat="44.65086" lon="5.12105">
        <ele>559.101929</ele>
        <time>2015-06-21T09:14:13Z</time>
      </trkpt>
      <trkpt lat="44.65071" lon="5.121">
        <ele>562.951294</ele>
        <time>2015-06-21T09:14:24Z</time>
      </trkpt>
      <trkpt lat="44.65068" lon="5.12088">
        <ele>563.648682</ele>
        <time>2015-06-21T09:14:29Z</time>
      </trkpt>
      <trkpt lat="44.65067" lon="5.12065">
        <ele>564.295105</ele>
        <time>2015-06-21T09:14:37Z</time>
      </trkpt>
      <trkpt lat="44.65068" lon="5.1206">
        <ele>564.092102</ele>
        <time>2015-06-21T09:14:39Z</time>
      </trkpt>
      <trkpt lat="44.65069" lon="5.12038">
        <ele>564.224426</ele>
        <time>2015-06-21T09:14:47Z</time>
      </trkpt>
      <trkpt lat="44.65071" lon="5.12029">
        <ele>564.067017</ele>
        <time>2015-06-21T09:14:51Z</time>
      </trkpt>
      <trkpt lat="44.65062" lon="5.12019">
        <ele>569.723022</ele>
        <time>2015-06-21T09:14:57Z</time>
      </trkpt>
      <trkpt lat="44.65053" lon="5.12024">
        <ele>573.599731</ele>
        <time>2015-06-21T09:15:01Z</time>
      </trkpt>
      <trkpt lat="44.65047" lon="5.1204">
        <ele>574.521301</ele>
        <time>2015-06-21T09:15:08Z</time>
      </trkpt>
      <trkpt lat="44.65036" lon="5.12055">
        <ele>577.6651</ele>
        <time>2015-06-21T09:15:16Z</time>
      </trkpt>
      <trkpt lat="44.65018" lon="5.12071">
        <ele>582.85614</ele>
        <time>2015-06-21T09:15:28Z</time>
      </trkpt>
      <trkpt lat="44.65002" lon="5.1209">
        <ele>586.013855</ele>
        <time>2015-06-21T09:15:40Z</time>
      </trkpt>
      <trkpt lat="44.64999" lon="5.12096">
        <ele>586.482056</ele>
        <time>2015-06-21T09:15:45Z</time>
      </trkpt>
      <trkpt lat="44.64997" lon="5.12101">
        <ele>586.847046</ele>
        <time>2015-06-21T09:15:48Z</time>
      </trkpt>
      <trkpt lat="44.64988" lon="5.12136">
        <ele>587.110229</ele>
        <time>2015-06-21T09:16:00Z</time>
      </trkpt>
      <trkpt lat="44.64987" lon="5.12146">
        <ele>586.460632</ele>
        <time>2015-06-21T09:16:04Z</time>
      </trkpt>
      <trkpt lat="44.64979" lon="5.12174">
        <ele>586.507385</ele>
        <time>2015-06-21T09:16:18Z</time>
      </trkpt>
      <trkpt lat="44.64966" lon="5.12198">
        <ele>588.014404</ele>
        <time>2015-06-21T09:16:31Z</time>
      </trkpt>
      <trkpt lat="44.64953" lon="5.12207">
        <ele>590.498352</ele>
        <time>2015-06-21T09:16:41Z</time>
      </trkpt>
      <trkpt lat="44.64931" lon="5.12211">
        <ele>595.610657</ele>
        <time>2015-06-21T09:16:54Z</time>
      </trkpt>
      <trkpt lat="44.64921" lon="5.12213">
        <ele>597.715027</ele>
        <time>2015-06-21T09:17:00Z</time>
      </trkpt>
      <trkpt lat="44.64897" lon="5.1222">
        <ele>602.890015</ele>
        <time>2015-06-21T09:17:13Z</time>
      </trkpt>
      <trkpt lat="44.64879" lon="5.12234">
        <ele>605.584229</ele>
        <time>2015-06-21T09:17:25Z</time>
      </trkpt>
      <trkpt lat="44.64871" lon="5.12243">
        <ele>606.788818</ele>
        <time>2015-06-21T09:17:31Z</time>
      </trkpt>
      <trkpt lat="44.64859" lon="5.12253">
        <ele>608.901123</ele>
        <time>2015-06-21T09:17:38Z</time>
      </trkpt>
      <trkpt lat="44.64855" lon="5.12256">
        <ele>609.768982</ele>
        <time>2015-06-21T09:17:41Z</time>
      </trkpt>
      <trkpt lat="44.64849" lon="5.12259">
        <ele>611.44812</ele>
        <time>2015-06-21T09:17:46Z</time>
      </trkpt>
      <trkpt lat="44.64844" lon="5.12262">
        <ele>612.954956</ele>
        <time>2015-06-21T09:17:50Z</time>
      </trkpt>
      <trkpt lat="44.64841" lon="5.12264">
        <ele>613.599609</ele>
        <time>2015-06-21T09:17:52Z</time>
      </trkpt>
      <trkpt lat="44.64832" lon="5.12272">
        <ele>616.094482</ele>
        <time>2015-06-21T09:17:58Z</time>
      </trkpt>
      <trkpt lat="44.64819" lon="5.12291">
        <ele>618.661438</ele>
        <time>2015-06-21T09:18:10Z</time>
      </trkpt>
      <trkpt lat="44.64811" lon="5.12307">
        <ele>619.994751</ele>
        <time>2015-06-21T09:18:19Z</time>
      </trkpt>
      <trkpt lat="44.64811" lon="5.1231">
        <ele>619.602539</ele>
        <time>2015-06-21T09:18:21Z</time>
      </trkpt>
      <trkpt lat="44.64797" lon="5.12338">
        <ele>621.584473</ele>
        <time>2015-06-21T09:18:34Z</time>
      </trkpt>
      <trkpt lat="44.64796" lon="5.1234">
        <ele>621.814575</ele>
        <time>2015-06-21T09:18:35Z</time>
      </trkpt>
      <trkpt lat="44.6479" lon="5.1236">
        <ele>621.19281</ele>
        <time>2015-06-21T09:18:42Z</time>
      </trkpt>
      <trkpt lat="44.64778" lon="5.12385">
        <ele>622.603943</ele>
        <time>2015-06-21T09:18:55Z</time>
      </trkpt>
      <trkpt lat="44.6477" lon="5.124">
        <ele>623.919983</ele>
        <time>2015-06-21T09:19:04Z</time>
      </trkpt>
      <trkpt lat="44.64767" lon="5.12411">
        <ele>623.356262</ele>
        <time>2015-06-21T09:19:09Z</time>
      </trkpt>
      <trkpt lat="44.64762" lon="5.12429">
        <ele>622.517517</ele>
        <time>2015-06-21T09:19:17Z</time>
      </trkpt>
      <trkpt lat="44.64745" lon="5.12457">
        <ele>625.265747</ele>
        <time>2015-06-21T09:19:32Z</time>
      </trkpt>
      <trkpt lat="44.64739" lon="5.12461">
        <ele>627.265625</ele>
        <time>2015-06-21T09:19:36Z</time>
      </trkpt>
      <trkpt lat="44.64722" lon="5.12473">
        <ele>633.372681</ele>
        <time>2015-06-21T09:19:48Z</time>
      </trkpt>
      <trkpt lat="44.64711" lon="5.12495">
        <ele>634.887573</ele>
        <time>2015-06-21T09:20:01Z</time>
      </trkpt>
      <trkpt lat="44.64707" lon="5.12501">
        <ele>635.57251</ele>
        <time>2015-06-21T09:20:04Z</time>
      </trkpt>
      <trkpt lat="44.64707" lon="5.1251">
        <ele>634.241638</ele>
        <time>2015-06-21T09:20:10Z</time>
      </trkpt>
      <trkpt lat="44.64698" lon="5.12533">
        <ele>635.499573</ele>
        <time>2015-06-21T09:20:23Z</time>
      </trkpt>
      <trkpt lat="44.64684" lon="5.12557">
        <ele>640.388245</ele>
        <time>2015-06-21T09:20:35Z</time>
      </trkpt>
      <trkpt lat="44.64677" lon="5.12574">
        <ele>642.140625</ele>
        <time>2015-06-21T09:20:47Z</time>
      </trkpt>
      <trkpt lat="44.64674" lon="5.12579">
        <ele>643.450012</ele>
        <time>2015-06-21T09:20:49Z</time>
      </trkpt>
      <trkpt lat="44.6467" lon="5.12592">
        <ele>644.255005</ele>
        <time>2015-06-21T09:20:54Z</time>
      </trkpt>
      <trkpt lat="44.64661" lon="5.12624">
        <ele>646.04248</ele>
        <time>2015-06-21T09:21:06Z</time>
      </trkpt>
      <trkpt lat="44.64656" lon="5.12639">
        <ele>647.012512</ele>
        <time>2015-06-21T09:21:17Z</time>
      </trkpt>
      <trkpt lat="44.64647" lon="5.12675">
        <ele>650.260132</ele>
        <time>2015-06-21T09:21:29Z</time>
      </trkpt>
      <trkpt lat="44.6464" lon="5.12695">
        <ele>653.331726</ele>
        <time>2015-06-21T09:21:39Z</time>
      </trkpt>
      <trkpt lat="44.64632" lon="5.12717">
        <ele>656.721985</ele>
        <time>2015-06-21T09:21:49Z</time>
      </trkpt>
      <trkpt lat="44.64627" lon="5.12735">
        <ele>658.389526</ele>
        <time>2015-06-21T09:21:59Z</time>
      </trkpt>
      <trkpt lat="44.64621" lon="5.12759">
        <ele>660.411316</ele>
        <time>2015-06-21T09:22:12Z</time>
      </trkpt>
      <trkpt lat="44.64621" lon="5.12761">
        <ele>660.377686</ele>
        <time>2015-06-21T09:22:13Z</time>
      </trkpt>
      <trkpt lat="44.64617" lon="5.12776">
        <ele>661.848816</ele>
        <time>2015-06-21T09:22:20Z</time>
      </trkpt>
      <trkpt lat="44.64615" lon="5.12799">
        <ele>662.76825</ele>
        <time>2015-06-21T09:22:31Z</time>
      </trkpt>
      <trkpt lat="44.64609" lon="5.12819">
        <ele>665.343811</ele>
        <time>2015-06-21T09:22:42Z</time>
      </trkpt>
      <trkpt lat="44.64609" lon="5.12825">
        <ele>665.165833</ele>
        <time>2015-06-21T09:22:54Z</time>
      </trkpt>
      <trkpt lat="44.64606" lon="5.12831">
        <ele>666.348328</ele>
        <time>2015-06-21T09:22:59Z</time>
      </trkpt>
      <trkpt lat="44.64604" lon="5.12841">
        <ele>667.719604</ele>
        <time>2015-06-21T09:23:04Z</time>
      </trkpt>
      <trkpt lat="44.64597" lon="5.1287">
        <ele>671.226379</ele>
        <time>2015-06-21T09:23:18Z</time>
      </trkpt>
      <trkpt lat="44.64595" lon="5.12889">
        <ele>672.905151</ele>
        <time>2015-06-21T09:23:28Z</time>
      </trkpt>
      <trkpt lat="44.64591" lon="5.12922">
        <ele>674.762085</ele>
        <time>2015-06-21T09:23:42Z</time>
      </trkpt>
      <trkpt lat="44.6459" lon="5.12928">
        <ele>675.110168</ele>
        <time>2015-06-21T09:23:45Z</time>
      </trkpt>
      <trkpt lat="44.64588" lon="5.12953">
        <ele>676.093933</ele>
        <time>2015-06-21T09:23:57Z</time>
      </trkpt>
      <trkpt lat="44.64587" lon="5.12957">
        <ele>676.384827</ele>
        <time>2015-06-21T09:24:00Z</time>
      </trkpt>
      <trkpt lat="44.64584" lon="5.12964">
        <ele>677.285889</ele>
        <time>2015-06-21T09:24:04Z</time>
      </trkpt>
      <trkpt lat="44.64579" lon="5.12992">
        <ele>677.762207</ele>
        <time>2015-06-21T09:24:18Z</time>
      </trkpt>
      <trkpt lat="44.64577" lon="5.13">
        <ele>677.837097</ele>
        <time>2015-06-21T09:24:22Z</time>
      </trkpt>
      <trkpt lat="44.64573" lon="5.13017">
        <ele>678.596252</ele>
        <time>2015-06-21T09:24:32Z</time>
      </trkpt>
      <trkpt lat="44.64571" lon="5.13023">
        <ele>678.987488</ele>
        <time>2015-06-21T09:24:35Z</time>
      </trkpt>
      <trkpt lat="44.64568" lon="5.13033">
        <ele>680.027527</ele>
        <time>2015-06-21T09:24:40Z</time>
      </trkpt>
      <trkpt lat="44.64556" lon="5.13057">
        <ele>683.92627</ele>
        <time>2015-06-21T09:24:54Z</time>
      </trkpt>
      <trkpt lat="44.64548" lon="5.13078">
        <ele>686.27887</ele>
        <time>2015-06-21T09:25:07Z</time>
      </trkpt>
      <trkpt lat="44.64546" lon="5.13083">
        <ele>686.883118</ele>
        <time>2015-06-21T09:25:11Z</time>
      </trkpt>
      <trkpt lat="44.64541" lon="5.13111">
        <ele>688.310608</ele>
        <time>2015-06-21T09:25:22Z</time>
      </trkpt>
      <trkpt lat="44.64539" lon="5.13126">
        <ele>688.758667</ele>
        <time>2015-06-21T09:25:28Z</time>
      </trkpt>
      <trkpt lat="44.64538" lon="5.13136">
        <ele>689.173279</ele>
        <time>2015-06-21T09:25:33Z</time>
      </trkpt>
      <trkpt lat="44.64537" lon="5.1316">
        <ele>689.01001</ele>
        <time>2015-06-21T09:25:46Z</time>
      </trkpt>
      <trkpt lat="44.64533" lon="5.13173">
        <ele>690.878723</ele>
        <time>2015-06-21T09:25:53Z</time>
      </trkpt>
      <trkpt lat="44.64524" lon="5.132">
        <ele>694.994995</ele>
        <time>2015-06-21T09:26:06Z</time>
      </trkpt>
      <trkpt lat="44.64521" lon="5.13215">
        <ele>697.184998</ele>
        <time>2015-06-21T09:26:12Z</time>
      </trkpt>
      <trkpt lat="44.64517" lon="5.13227">
        <ele>699.655029</ele>
        <time>2015-06-21T09:26:20Z</time>
      </trkpt>
      <trkpt lat="44.64509" lon="5.13255">
        <ele>704.929993</ele>
        <time>2015-06-21T09:26:33Z</time>
      </trkpt>
      <trkpt lat="44.64508" lon="5.13258">
        <ele>705.012512</ele>
        <time>2015-06-21T09:26:34Z</time>
      </trkpt>
      <trkpt lat="44.64502" lon="5.13291">
        <ele>709.511169</ele>
        <time>2015-06-21T09:26:50Z</time>
      </trkpt>
      <trkpt lat="44.64503" lon="5.13296">
        <ele>709.079895</ele>
        <time>2015-06-21T09:26:53Z</time>
      </trkpt>
      <trkpt lat="44.64507" lon="5.13306">
        <ele>707.464233</ele>
        <time>2015-06-21T09:27:09Z</time>
      </trkpt>
      <trkpt lat="44.6451" lon="5.13325">
        <ele>705.830933</ele>
        <time>2015-06-21T09:27:17Z</time>
      </trkpt>
      <trkpt lat="44.64507" lon="5.13357">
        <ele>708.984985</ele>
        <time>2015-06-21T09:27:30Z</time>
      </trkpt>
      <trkpt lat="44.64501" lon="5.13389">
        <ele>713.710022</ele>
        <time>2015-06-21T09:27:43Z</time>
      </trkpt>
      <trkpt lat="44.64497" lon="5.134">
        <ele>715.971252</ele>
        <time>2015-06-21T09:27:47Z</time>
      </trkpt>
      <trkpt lat="44.64496" lon="5.13404">
        <ele>717.186279</ele>
        <time>2015-06-21T09:27:49Z</time>
      </trkpt>
      <trkpt lat="44.64491" lon="5.13427">
        <ele>720.52356</ele>
        <time>2015-06-21T09:27:58Z</time>
      </trkpt>
      <trkpt lat="44.6449" lon="5.13446">
        <ele>721.873596</ele>
        <time>2015-06-21T09:28:06Z</time>
      </trkpt>
      <trkpt lat="44.64489" lon="5.13461">
        <ele>722.718811</ele>
        <time>2015-06-21T09:28:12Z</time>
      </trkpt>
      <trkpt lat="44.64488" lon="5.13482">
        <ele>724.265747</ele>
        <time>2015-06-21T09:28:21Z</time>
      </trkpt>
      <trkpt lat="44.64486" lon="5.1349">
        <ele>725.768738</ele>
        <time>2015-06-21T09:28:25Z</time>
      </trkpt>
      <trkpt lat="44.64485" lon="5.135">
        <ele>726.671875</ele>
        <time>2015-06-21T09:28:29Z</time>
      </trkpt>
      <trkpt lat="44.64483" lon="5.13517">
        <ele>728.299988</ele>
        <time>2015-06-21T09:28:36Z</time>
      </trkpt>
      <trkpt lat="44.64478" lon="5.13549">
        <ele>733.80127</ele>
        <time>2015-06-21T09:28:49Z</time>
      </trkpt>
      <trkpt lat="44.64466" lon="5.13576">
        <ele>742.8125</ele>
        <time>2015-06-21T09:29:02Z</time>
      </trkpt>
      <trkpt lat="44.64462" lon="5.13601">
        <ele>746.09552</ele>
        <time>2015-06-21T09:29:14Z</time>
      </trkpt>
      <trkpt lat="44.64467" lon="5.13638">
        <ele>745.555359</ele>
        <time>2015-06-21T09:29:28Z</time>
      </trkpt>
      <trkpt lat="44.64469" lon="5.13656">
        <ele>745.294983</ele>
        <time>2015-06-21T09:29:35Z</time>
      </trkpt>
      <trkpt lat="44.64468" lon="5.13691">
        <ele>748.147522</ele>
        <time>2015-06-21T09:29:48Z</time>
      </trkpt>
      <trkpt lat="44.64472" lon="5.13725">
        <ele>748.165894</ele>
        <time>2015-06-21T09:30:02Z</time>
      </trkpt>
      <trkpt lat="44.64474" lon="5.13732">
        <ele>747.070618</ele>
        <time>2015-06-21T09:30:05Z</time>
      </trkpt>
      <trkpt lat="44.64474" lon="5.1374">
        <ele>747.764038</ele>
        <time>2015-06-21T09:30:09Z</time>
      </trkpt>
      <trkpt lat="44.64473" lon="5.1375">
        <ele>748.702393</ele>
        <time>2015-06-21T09:30:14Z</time>
      </trkpt>
      <trkpt lat="44.64473" lon="5.1377">
        <ele>749.836487</ele>
        <time>2015-06-21T09:30:23Z</time>
      </trkpt>
      <trkpt lat="44.64469" lon="5.13785">
        <ele>752.606628</ele>
        <time>2015-06-21T09:30:30Z</time>
      </trkpt>
      <trkpt lat="44.64468" lon="5.13791">
        <ele>753.988831</ele>
        <time>2015-06-21T09:30:33Z</time>
      </trkpt>
      <trkpt lat="44.64468" lon="5.13814">
        <ele>754.470276</ele>
        <time>2015-06-21T09:30:42Z</time>
      </trkpt>
      <trkpt lat="44.64467" lon="5.13844">
        <ele>756.242065</ele>
        <time>2015-06-21T09:30:56Z</time>
      </trkpt>
      <trkpt lat="44.64467" lon="5.1386">
        <ele>756.890869</ele>
        <time>2015-06-21T09:31:02Z</time>
      </trkpt>
      <trkpt lat="44.64465" lon="5.13871">
        <ele>758.312805</ele>
        <time>2015-06-21T09:31:07Z</time>
      </trkpt>
      <trkpt lat="44.64467" lon="5.13887">
        <ele>757.839355</ele>
        <time>2015-06-21T09:31:13Z</time>
      </trkpt>
      <trkpt lat="44.64466" lon="5.139">
        <ele>758.772278</ele>
        <time>2015-06-21T09:31:18Z</time>
      </trkpt>
      <trkpt lat="44.64465" lon="5.13907">
        <ele>760.191467</ele>
        <time>2015-06-21T09:31:21Z</time>
      </trkpt>
      <trkpt lat="44.64461" lon="5.13932">
        <ele>763.317322</ele>
        <time>2015-06-21T09:31:32Z</time>
      </trkpt>
      <trkpt lat="44.64462" lon="5.13944">
        <ele>762.927979</ele>
        <time>2015-06-21T09:31:37Z</time>
      </trkpt>
      <trkpt lat="44.6446" lon="5.13977">
        <ele>764.329895</ele>
        <time>2015-06-21T09:31:51Z</time>
      </trkpt>
      <trkpt lat="44.64459" lon="5.13979">
        <ele>765.126953</ele>
        <time>2015-06-21T09:31:52Z</time>
      </trkpt>
      <trkpt lat="44.64454" lon="5.13998">
        <ele>767.360046</ele>
        <time>2015-06-21T09:32:01Z</time>
      </trkpt>
      <trkpt lat="44.64457" lon="5.14011">
        <ele>765.722229</ele>
        <time>2015-06-21T09:32:06Z</time>
      </trkpt>
      <trkpt lat="44.6446" lon="5.14026">
        <ele>763.5</ele>
        <time>2015-06-21T09:32:12Z</time>
      </trkpt>
      <trkpt lat="44.64459" lon="5.14029">
        <ele>763.8125</ele>
        <time>2015-06-21T09:32:14Z</time>
      </trkpt>
      <trkpt lat="44.64462" lon="5.14057">
        <ele>762.125</ele>
        <time>2015-06-21T09:32:27Z</time>
      </trkpt>
      <trkpt lat="44.64462" lon="5.14075">
        <ele>761.5625</ele>
        <time>2015-06-21T09:32:35Z</time>
      </trkpt>
      <trkpt lat="44.64449" lon="5.14092">
        <ele>768.158325</ele>
        <time>2015-06-21T09:32:48Z</time>
      </trkpt>
      <trkpt lat="44.64445" lon="5.14099">
        <ele>770.577576</ele>
        <time>2015-06-21T09:32:56Z</time>
      </trkpt>
      <trkpt lat="44.64438" lon="5.1413">
        <ele>773.089539</ele>
        <time>2015-06-21T09:33:07Z</time>
      </trkpt>
      <trkpt lat="44.64438" lon="5.14155">
        <ele>771.44751</ele>
        <time>2015-06-21T09:33:15Z</time>
      </trkpt>
      <trkpt lat="44.64437" lon="5.14176">
        <ele>769.063721</ele>
        <time>2015-06-21T09:33:24Z</time>
      </trkpt>
      <trkpt lat="44.64436" lon="5.14203">
        <ele>766.686279</ele>
        <time>2015-06-21T09:33:38Z</time>
      </trkpt>
      <trkpt lat="44.64422" lon="5.14229">
        <ele>767.586121</ele>
        <time>2015-06-21T09:33:53Z</time>
      </trkpt>
      <trkpt lat="44.64415" lon="5.14238">
        <ele>768.418579</ele>
        <time>2015-06-21T09:34:00Z</time>
      </trkpt>
      <trkpt lat="44.6441" lon="5.14243">
        <ele>770.108337</ele>
        <time>2015-06-21T09:34:04Z</time>
      </trkpt>
      <trkpt lat="44.64398" lon="5.14255">
        <ele>773.463379</ele>
        <time>2015-06-21T09:34:14Z</time>
      </trkpt>
      <trkpt lat="44.64386" lon="5.14269">
        <ele>776.505615</ele>
        <time>2015-06-21T09:34:22Z</time>
      </trkpt>
      <trkpt lat="44.64374" lon="5.1428">
        <ele>782.035828</ele>
        <time>2015-06-21T09:34:31Z</time>
      </trkpt>
      <trkpt lat="44.6437" lon="5.1429">
        <ele>782.989441</ele>
        <time>2015-06-21T09:34:38Z</time>
      </trkpt>
      <trkpt lat="44.64368" lon="5.14298">
        <ele>783.166565</ele>
        <time>2015-06-21T09:34:43Z</time>
      </trkpt>
      <trkpt lat="44.64366" lon="5.14336">
        <ele>780.013733</ele>
        <time>2015-06-21T09:34:58Z</time>
      </trkpt>
      <trkpt lat="44.64368" lon="5.14358">
        <ele>778.375488</ele>
        <time>2015-06-21T09:35:07Z</time>
      </trkpt>
      <trkpt lat="44.64368" lon="5.14361">
        <ele>778.357117</ele>
        <time>2015-06-21T09:35:08Z</time>
      </trkpt>
      <trkpt lat="44.64365" lon="5.14369">
        <ele>779.446472</ele>
        <time>2015-06-21T09:35:12Z</time>
      </trkpt>
      <trkpt lat="44.64356" lon="5.14392">
        <ele>783.953491</ele>
        <time>2015-06-21T09:35:24Z</time>
      </trkpt>
      <trkpt lat="44.64348" lon="5.14405">
        <ele>786.285217</ele>
        <time>2015-06-21T09:35:33Z</time>
      </trkpt>
      <trkpt lat="44.64346" lon="5.14408">
        <ele>786.948486</ele>
        <time>2015-06-21T09:35:37Z</time>
      </trkpt>
      <trkpt lat="44.6434" lon="5.14428">
        <ele>787.954102</ele>
        <time>2015-06-21T09:35:48Z</time>
      </trkpt>
      <trkpt lat="44.64336" lon="5.14449">
        <ele>787.105347</ele>
        <time>2015-06-21T09:35:55Z</time>
      </trkpt>
      <trkpt lat="44.64334" lon="5.14458">
        <ele>787.867126</ele>
        <time>2015-06-21T09:36:00Z</time>
      </trkpt>
      <trkpt lat="44.64334" lon="5.1447">
        <ele>788.565186</ele>
        <time>2015-06-21T09:36:06Z</time>
      </trkpt>
      <trkpt lat="44.64327" lon="5.14496">
        <ele>793.724792</ele>
        <time>2015-06-21T09:36:20Z</time>
      </trkpt>
      <trkpt lat="44.64329" lon="5.14502">
        <ele>792.878784</ele>
        <time>2015-06-21T09:36:23Z</time>
      </trkpt>
      <trkpt lat="44.64338" lon="5.14522">
        <ele>790.683655</ele>
        <time>2015-06-21T09:36:34Z</time>
      </trkpt>
      <trkpt lat="44.64344" lon="5.14529">
        <ele>789.460205</ele>
        <time>2015-06-21T09:36:39Z</time>
      </trkpt>
      <trkpt lat="44.64359" lon="5.14561">
        <ele>789.267517</ele>
        <time>2015-06-21T09:36:54Z</time>
      </trkpt>
      <trkpt lat="44.64367" lon="5.14594">
        <ele>789.911438</ele>
        <time>2015-06-21T09:37:07Z</time>
      </trkpt>
      <trkpt lat="44.64368" lon="5.14599">
        <ele>790.001526</ele>
        <time>2015-06-21T09:37:10Z</time>
      </trkpt>
      <trkpt lat="44.64367" lon="5.14608">
        <ele>790.648438</ele>
        <time>2015-06-21T09:37:14Z</time>
      </trkpt>
      <trkpt lat="44.64353" lon="5.14634">
        <ele>797.513855</ele>
        <time>2015-06-21T09:37:27Z</time>
      </trkpt>
      <trkpt lat="44.64344" lon="5.14641">
        <ele>801.350525</ele>
        <time>2015-06-21T09:37:33Z</time>
      </trkpt>
      <trkpt lat="44.64336" lon="5.14649">
        <ele>803.732422</ele>
        <time>2015-06-21T09:37:40Z</time>
      </trkpt>
      <trkpt lat="44.64334" lon="5.14651">
        <ele>804.365845</ele>
        <time>2015-06-21T09:37:42Z</time>
      </trkpt>
      <trkpt lat="44.64323" lon="5.14664">
        <ele>807.55249</ele>
        <time>2015-06-21T09:37:51Z</time>
      </trkpt>
      <trkpt lat="44.64304" lon="5.14676">
        <ele>814.505005</ele>
        <time>2015-06-21T09:38:04Z</time>
      </trkpt>
      <trkpt lat="44.64294" lon="5.14687">
        <ele>817.445007</ele>
        <time>2015-06-21T09:38:16Z</time>
      </trkpt>
      <trkpt lat="44.64293" lon="5.1469">
        <ele>817.492493</ele>
        <time>2015-06-21T09:38:18Z</time>
      </trkpt>
      <trkpt lat="44.64283" lon="5.1471">
        <ele>819.768188</ele>
        <time>2015-06-21T09:38:30Z</time>
      </trkpt>
      <trkpt lat="44.64275" lon="5.14726">
        <ele>821.893372</ele>
        <time>2015-06-21T09:38:42Z</time>
      </trkpt>
      <trkpt lat="44.64273" lon="5.14733">
        <ele>822.333374</ele>
        <time>2015-06-21T09:38:46Z</time>
      </trkpt>
      <trkpt lat="44.64279" lon="5.14748">
        <ele>817.439941</ele>
        <time>2015-06-21T09:38:52Z</time>
      </trkpt>
      <trkpt lat="44.64284" lon="5.14772">
        <ele>815.137573</ele>
        <time>2015-06-21T09:39:06Z</time>
      </trkpt>
      <trkpt lat="44.64298" lon="5.14794">
        <ele>815.260071</ele>
        <time>2015-06-21T09:39:19Z</time>
      </trkpt>
      <trkpt lat="44.64309" lon="5.14806">
        <ele>814.758179</ele>
        <time>2015-06-21T09:39:30Z</time>
      </trkpt>
      <trkpt lat="44.64333" lon="5.14836">
        <ele>816.502014</ele>
        <time>2015-06-21T09:39:44Z</time>
      </trkpt>
      <trkpt lat="44.64356" lon="5.14867">
        <ele>816.138672</ele>
        <time>2015-06-21T09:39:56Z</time>
      </trkpt>
      <trkpt lat="44.64361" lon="5.14885">
        <ele>817.804321</ele>
        <time>2015-06-21T09:40:03Z</time>
      </trkpt>
      <trkpt lat="44.64361" lon="5.1489">
        <ele>818.848938</ele>
        <time>2015-06-21T09:40:06Z</time>
      </trkpt>
      <trkpt lat="44.64358" lon="5.14898">
        <ele>820.647522</ele>
        <time>2015-06-21T09:40:10Z</time>
      </trkpt>
      <trkpt lat="44.64356" lon="5.14908">
        <ele>821.548706</ele>
        <time>2015-06-21T09:40:15Z</time>
      </trkpt>
      <trkpt lat="44.64344" lon="5.14933">
        <ele>826.951172</ele>
        <time>2015-06-21T09:40:28Z</time>
      </trkpt>
      <trkpt lat="44.6434" lon="5.14944">
        <ele>829.123657</ele>
        <time>2015-06-21T09:40:33Z</time>
      </trkpt>
      <trkpt lat="44.64339" lon="5.14956">
        <ele>830.177002</ele>
        <time>2015-06-21T09:40:39Z</time>
      </trkpt>
      <trkpt lat="44.64338" lon="5.14965">
        <ele>830.320007</ele>
        <time>2015-06-21T09:40:43Z</time>
      </trkpt>
      <trkpt lat="44.64332" lon="5.14997">
        <ele>833.02002</ele>
        <time>2015-06-21T09:40:58Z</time>
      </trkpt>
      <trkpt lat="44.64327" lon="5.15026">
        <ele>835.302368</ele>
        <time>2015-06-21T09:41:11Z</time>
      </trkpt>
      <trkpt lat="44.6433" lon="5.15055">
        <ele>833.398621</ele>
        <time>2015-06-21T09:41:25Z</time>
      </trkpt>
      <trkpt lat="44.64328" lon="5.15084">
        <ele>833.745178</ele>
        <time>2015-06-21T09:41:39Z</time>
      </trkpt>
      <trkpt lat="44.64328" lon="5.15088">
        <ele>833.497314</ele>
        <time>2015-06-21T09:41:41Z</time>
      </trkpt>
      <trkpt lat="44.64327" lon="5.15091">
        <ele>833.589478</ele>
        <time>2015-06-21T09:41:43Z</time>
      </trkpt>
      <trkpt lat="44.64325" lon="5.1512">
        <ele>832.765503</ele>
        <time>2015-06-21T09:41:57Z</time>
      </trkpt>
      <trkpt lat="44.64324" lon="5.15122">
        <ele>832.863525</ele>
        <time>2015-06-21T09:41:58Z</time>
      </trkpt>
      <trkpt lat="44.64324" lon="5.15127">
        <ele>832.978882</ele>
        <time>2015-06-21T09:42:00Z</time>
      </trkpt>
      <trkpt lat="44.64316" lon="5.1515">
        <ele>833.852539</ele>
        <time>2015-06-21T09:42:13Z</time>
      </trkpt>
      <trkpt lat="44.64314" lon="5.15154">
        <ele>833.700989</ele>
        <time>2015-06-21T09:42:15Z</time>
      </trkpt>
      <trkpt lat="44.64306" lon="5.15179">
        <ele>832.103027</ele>
        <time>2015-06-21T09:42:27Z</time>
      </trkpt>
      <trkpt lat="44.64297" lon="5.15168">
        <ele>837.796326</ele>
        <time>2015-06-21T09:42:39Z</time>
      </trkpt>
      <trkpt lat="44.64301" lon="5.15159">
        <ele>838.357605</ele>
        <time>2015-06-21T09:42:44Z</time>
      </trkpt>
      <trkpt lat="44.64308" lon="5.15136">
        <ele>839.323608</ele>
        <time>2015-06-21T09:42:56Z</time>
      </trkpt>
      <trkpt lat="44.64308" lon="5.15131">
        <ele>839.570007</ele>
        <time>2015-06-21T09:42:58Z</time>
      </trkpt>
      <trkpt lat="44.64307" lon="5.15107">
        <ele>842.075806</ele>
        <time>2015-06-21T09:43:10Z</time>
      </trkpt>
      <trkpt lat="44.64301" lon="5.15076">
        <ele>847.32373</ele>
        <time>2015-06-21T09:43:26Z</time>
      </trkpt>
      <trkpt lat="44.64291" lon="5.15047">
        <ele>853.408752</ele>
        <time>2015-06-21T09:43:40Z</time>
      </trkpt>
      <trkpt lat="44.64289" lon="5.15029">
        <ele>854.723755</ele>
        <time>2015-06-21T09:43:48Z</time>
      </trkpt>
      <trkpt lat="44.64288" lon="5.15023">
        <ele>855.568726</ele>
        <time>2015-06-21T09:43:51Z</time>
      </trkpt>
      <trkpt lat="44.64288" lon="5.15019">
        <ele>855.922485</ele>
        <time>2015-06-21T09:43:53Z</time>
      </trkpt>
      <trkpt lat="44.64279" lon="5.14991">
        <ele>859.256287</ele>
        <time>2015-06-21T09:44:06Z</time>
      </trkpt>
      <trkpt lat="44.64278" lon="5.14986">
        <ele>859.519653</ele>
        <time>2015-06-21T09:44:08Z</time>
      </trkpt>
      <trkpt lat="44.64276" lon="5.14968">
        <ele>859.802856</ele>
        <time>2015-06-21T09:44:16Z</time>
      </trkpt>
      <trkpt lat="44.6427" lon="5.14936">
        <ele>858.671204</ele>
        <time>2015-06-21T09:44:31Z</time>
      </trkpt>
      <trkpt lat="44.64267" lon="5.14919">
        <ele>856.911499</ele>
        <time>2015-06-21T09:44:41Z</time>
      </trkpt>
      <trkpt lat="44.64256" lon="5.14903">
        <ele>857.978577</ele>
        <time>2015-06-21T09:44:52Z</time>
      </trkpt>
      <trkpt lat="44.6425" lon="5.14898">
        <ele>859.313904</ele>
        <time>2015-06-21T09:44:56Z</time>
      </trkpt>
      <trkpt lat="44.64238" lon="5.14884">
        <ele>860.238464</ele>
        <time>2015-06-21T09:45:05Z</time>
      </trkpt>
      <trkpt lat="44.6422" lon="5.14868">
        <ele>863.938293</ele>
        <time>2015-06-21T09:45:19Z</time>
      </trkpt>
      <trkpt lat="44.64207" lon="5.1486">
        <ele>868.829346</ele>
        <time>2015-06-21T09:45:28Z</time>
      </trkpt>
      <trkpt lat="44.64194" lon="5.14839">
        <ele>870.886841</ele>
        <time>2015-06-21T09:45:41Z</time>
      </trkpt>
      <trkpt lat="44.64193" lon="5.14837">
        <ele>870.895447</ele>
        <time>2015-06-21T09:45:43Z</time>
      </trkpt>
      <trkpt lat="44.64188" lon="5.14812">
        <ele>869.559998</ele>
        <time>2015-06-21T09:45:57Z</time>
      </trkpt>
      <trkpt lat="44.64188" lon="5.14809">
        <ele>869.013733</ele>
        <time>2015-06-21T09:45:59Z</time>
      </trkpt>
      <trkpt lat="44.64182" lon="5.148">
        <ele>872.277954</ele>
        <time>2015-06-21T09:46:10Z</time>
      </trkpt>
      <trkpt lat="44.64182" lon="5.148">
        <ele>872.190186</ele>
        <time>2015-06-21T09:46:11Z</time>
      </trkpt>
      <trkpt lat="44.64184" lon="5.14794">
        <ele>870.119934</ele>
        <time>2015-06-21T09:46:30Z</time>
      </trkpt>
      <trkpt lat="44.64182" lon="5.14793">
        <ele>871.585022</ele>
        <time>2015-06-21T09:46:57Z</time>
      </trkpt>
      <trkpt lat="44.64181" lon="5.14793">
        <ele>872.324524</ele>
        <time>2015-06-21T09:47:31Z</time>
      </trkpt>
      <trkpt lat="44.6418" lon="5.14792">
        <ele>872.880066</ele>
        <time>2015-06-21T09:48:04Z</time>
      </trkpt>
      <trkpt lat="44.6418" lon="5.14792">
        <ele>872.880066</ele>
        <time>2015-06-21T09:48:05Z</time>
      </trkpt>
      <trkpt lat="44.64179" lon="5.14792">
        <ele>873.728943</ele>
        <time>2015-06-21T09:48:21Z</time>
      </trkpt>
      <trkpt lat="44.64177" lon="5.14792">
        <ele>875.158752</ele>
        <time>2015-06-21T09:48:37Z</time>
      </trkpt>
      <trkpt lat="44.64177" lon="5.14789">
        <ele>874.889404</ele>
        <time>2015-06-21T09:48:39Z</time>
      </trkpt>
      <trkpt lat="44.64179" lon="5.14781">
        <ele>872.586975</ele>
        <time>2015-06-21T09:48:43Z</time>
      </trkpt>
      <trkpt lat="44.64184" lon="5.14773">
        <ele>868.762024</ele>
        <time>2015-06-21T09:48:46Z</time>
      </trkpt>
      <trkpt lat="44.6419" lon="5.14759">
        <ele>863.044617</ele>
        <time>2015-06-21T09:48:50Z</time>
      </trkpt>
      <trkpt lat="44.64201" lon="5.14722">
        <ele>862.507874</ele>
        <time>2015-06-21T09:48:59Z</time>
      </trkpt>
      <trkpt lat="44.64213" lon="5.14691">
        <ele>859.892212</ele>
        <time>2015-06-21T09:49:06Z</time>
      </trkpt>
      <trkpt lat="44.64216" lon="5.14688">
        <ele>858.82312</ele>
        <time>2015-06-21T09:49:07Z</time>
      </trkpt>
      <trkpt lat="44.64228" lon="5.14678">
        <ele>852.88623</ele>
        <time>2015-06-21T09:49:11Z</time>
      </trkpt>
      <trkpt lat="44.6424" lon="5.14663">
        <ele>847.732178</ele>
        <time>2015-06-21T09:49:13Z</time>
      </trkpt>
      <trkpt lat="44.64242" lon="5.14658">
        <ele>847.617432</ele>
        <time>2015-06-21T09:49:14Z</time>
      </trkpt>
      <trkpt lat="44.64244" lon="5.14651">
        <ele>847.467773</ele>
        <time>2015-06-21T09:49:15Z</time>
      </trkpt>
      <trkpt lat="44.64244" lon="5.14637">
        <ele>848.930176</ele>
        <time>2015-06-21T09:49:16Z</time>
      </trkpt>
      <trkpt lat="44.64244" lon="5.14626">
        <ele>848.698608</ele>
        <time>2015-06-21T09:49:17Z</time>
      </trkpt>
      <trkpt lat="44.64245" lon="5.14617">
        <ele>847.920593</ele>
        <time>2015-06-21T09:49:18Z</time>
      </trkpt>
      <trkpt lat="44.64248" lon="5.14609">
        <ele>846.058472</ele>
        <time>2015-06-21T09:49:20Z</time>
      </trkpt>
      <trkpt lat="44.64251" lon="5.14603">
        <ele>844.305664</ele>
        <time>2015-06-21T09:49:21Z</time>
      </trkpt>
      <trkpt lat="44.64258" lon="5.14586">
        <ele>840.153137</ele>
        <time>2015-06-21T09:49:24Z</time>
      </trkpt>
      <trkpt lat="44.64259" lon="5.14577">
        <ele>838.863159</ele>
        <time>2015-06-21T09:49:26Z</time>
      </trkpt>
      <trkpt lat="44.64261" lon="5.14572">
        <ele>837.835388</ele>
        <time>2015-06-21T09:49:27Z</time>
      </trkpt>
      <trkpt lat="44.64262" lon="5.14557">
        <ele>835.64447</ele>
        <time>2015-06-21T09:49:28Z</time>
      </trkpt>
      <trkpt lat="44.64264" lon="5.14545">
        <ele>833.779907</ele>
        <time>2015-06-21T09:49:29Z</time>
      </trkpt>
      <trkpt lat="44.64266" lon="5.14534">
        <ele>831.46167</ele>
        <time>2015-06-21T09:49:30Z</time>
      </trkpt>
      <trkpt lat="44.64271" lon="5.14508">
        <ele>826.748047</ele>
        <time>2015-06-21T09:49:32Z</time>
      </trkpt>
      <trkpt lat="44.64284" lon="5.14463">
        <ele>817.844116</ele>
        <time>2015-06-21T09:49:36Z</time>
      </trkpt>
      <trkpt lat="44.64291" lon="5.14435">
        <ele>815.565002</ele>
        <time>2015-06-21T09:49:38Z</time>
      </trkpt>
      <trkpt lat="44.64303" lon="5.14382">
        <ele>815.049988</ele>
        <time>2015-06-21T09:49:42Z</time>
      </trkpt>
      <trkpt lat="44.64307" lon="5.14352">
        <ele>814.200012</ele>
        <time>2015-06-21T09:49:45Z</time>
      </trkpt>
      <trkpt lat="44.64307" lon="5.14343">
        <ele>814.549988</ele>
        <time>2015-06-21T09:49:46Z</time>
      </trkpt>
      <trkpt lat="44.64307" lon="5.14335">
        <ele>815.200012</ele>
        <time>2015-06-21T09:49:47Z</time>
      </trkpt>
      <trkpt lat="44.64302" lon="5.1431">
        <ele>820.349548</ele>
        <time>2015-06-21T09:49:50Z</time>
      </trkpt>
      <trkpt lat="44.64303" lon="5.14302">
        <ele>820.964478</ele>
        <time>2015-06-21T09:49:51Z</time>
      </trkpt>
      <trkpt lat="44.64304" lon="5.14294">
        <ele>821.492432</ele>
        <time>2015-06-21T09:49:52Z</time>
      </trkpt>
      <trkpt lat="44.64304" lon="5.14288">
        <ele>822.102722</ele>
        <time>2015-06-21T09:49:53Z</time>
      </trkpt>
      <trkpt lat="44.64305" lon="5.14285">
        <ele>822.235168</ele>
        <time>2015-06-21T09:49:54Z</time>
      </trkpt>
      <trkpt lat="44.64306" lon="5.14282">
        <ele>822.205933</ele>
        <time>2015-06-21T09:49:55Z</time>
      </trkpt>
      <trkpt lat="44.64306" lon="5.14278">
        <ele>822.209534</ele>
        <time>2015-06-21T09:49:56Z</time>
      </trkpt>
      <trkpt lat="44.64308" lon="5.14275">
        <ele>822.080383</ele>
        <time>2015-06-21T09:49:57Z</time>
      </trkpt>
      <trkpt lat="44.64333" lon="5.14236">
        <ele>815.200684</ele>
        <time>2015-06-21T09:50:06Z</time>
      </trkpt>
      <trkpt lat="44.64354" lon="5.14204">
        <ele>810.105652</ele>
        <time>2015-06-21T09:50:12Z</time>
      </trkpt>
      <trkpt lat="44.64367" lon="5.14182">
        <ele>806.989929</ele>
        <time>2015-06-21T09:50:16Z</time>
      </trkpt>
      <trkpt lat="44.64374" lon="5.14164">
        <ele>805.639832</ele>
        <time>2015-06-21T09:50:19Z</time>
      </trkpt>
      <trkpt lat="44.64377" lon="5.14151">
        <ele>805.726074</ele>
        <time>2015-06-21T09:50:21Z</time>
      </trkpt>
      <trkpt lat="44.64379" lon="5.14144">
        <ele>805.71875</ele>
        <time>2015-06-21T09:50:22Z</time>
      </trkpt>
      <trkpt lat="44.64387" lon="5.14121">
        <ele>802.885742</ele>
        <time>2015-06-21T09:50:26Z</time>
      </trkpt>
      <trkpt lat="44.64397" lon="5.14101">
        <ele>798.405151</ele>
        <time>2015-06-21T09:50:30Z</time>
      </trkpt>
      <trkpt lat="44.64408" lon="5.14086">
        <ele>792.809875</ele>
        <time>2015-06-21T09:50:33Z</time>
      </trkpt>
      <trkpt lat="44.6442" lon="5.14066">
        <ele>786.233093</ele>
        <time>2015-06-21T09:50:37Z</time>
      </trkpt>
      <trkpt lat="44.64431" lon="5.14046">
        <ele>779.363098</ele>
        <time>2015-06-21T09:50:41Z</time>
      </trkpt>
      <trkpt lat="44.64438" lon="5.14019">
        <ele>776.0625</ele>
        <time>2015-06-21T09:50:45Z</time>
      </trkpt>
      <trkpt lat="44.64443" lon="5.14">
        <ele>773.785645</ele>
        <time>2015-06-21T09:50:48Z</time>
      </trkpt>
      <trkpt lat="44.64445" lon="5.13965">
        <ele>773.553711</ele>
        <time>2015-06-21T09:50:56Z</time>
      </trkpt>
      <trkpt lat="44.64452" lon="5.13949">
        <ele>769.56897</ele>
        <time>2015-06-21T09:51:07Z</time>
      </trkpt>
      <trkpt lat="44.64452" lon="5.13942">
        <ele>769.355164</ele>
        <time>2015-06-21T09:51:09Z</time>
      </trkpt>
      <trkpt lat="44.64453" lon="5.13938">
        <ele>769.075562</ele>
        <time>2015-06-21T09:51:10Z</time>
      </trkpt>
      <trkpt lat="44.64453" lon="5.13933">
        <ele>768.546997</ele>
        <time>2015-06-21T09:51:11Z</time>
      </trkpt>
      <trkpt lat="44.64455" lon="5.13927">
        <ele>767.301636</ele>
        <time>2015-06-21T09:51:12Z</time>
      </trkpt>
      <trkpt lat="44.64458" lon="5.13921">
        <ele>765.231323</ele>
        <time>2015-06-21T09:51:13Z</time>
      </trkpt>
      <trkpt lat="44.64461" lon="5.13914">
        <ele>762.92572</ele>
        <time>2015-06-21T09:51:14Z</time>
      </trkpt>
      <trkpt lat="44.64463" lon="5.13908">
        <ele>761.2901</ele>
        <time>2015-06-21T09:51:15Z</time>
      </trkpt>
      <trkpt lat="44.64465" lon="5.13902">
        <ele>760.009888</ele>
        <time>2015-06-21T09:51:16Z</time>
      </trkpt>
      <trkpt lat="44.64468" lon="5.13881">
        <ele>756.634827</ele>
        <time>2015-06-21T09:51:19Z</time>
      </trkpt>
      <trkpt lat="44.64469" lon="5.13874">
        <ele>756.008789</ele>
        <time>2015-06-21T09:51:20Z</time>
      </trkpt>
      <trkpt lat="44.64471" lon="5.1385">
        <ele>753.169556</ele>
        <time>2015-06-21T09:51:24Z</time>
      </trkpt>
      <trkpt lat="44.64474" lon="5.13831">
        <ele>750.386902</ele>
        <time>2015-06-21T09:51:27Z</time>
      </trkpt>
      <trkpt lat="44.64475" lon="5.13801">
        <ele>749.103943</ele>
        <time>2015-06-21T09:51:31Z</time>
      </trkpt>
      <trkpt lat="44.64475" lon="5.13771">
        <ele>748.750366</ele>
        <time>2015-06-21T09:51:35Z</time>
      </trkpt>
      <trkpt lat="44.64475" lon="5.13755">
        <ele>748.023376</ele>
        <time>2015-06-21T09:51:37Z</time>
      </trkpt>
      <trkpt lat="44.64476" lon="5.13749">
        <ele>747.222473</ele>
        <time>2015-06-21T09:51:38Z</time>
      </trkpt>
      <trkpt lat="44.64476" lon="5.13743">
        <ele>746.317688</ele>
        <time>2015-06-21T09:51:39Z</time>
      </trkpt>
      <trkpt lat="44.64478" lon="5.13736">
        <ele>745.032959</ele>
        <time>2015-06-21T09:51:40Z</time>
      </trkpt>
      <trkpt lat="44.6448" lon="5.1373">
        <ele>743.255981</ele>
        <time>2015-06-21T09:51:41Z</time>
      </trkpt>
      <trkpt lat="44.64485" lon="5.13714">
        <ele>740.024353</ele>
        <time>2015-06-21T09:51:43Z</time>
      </trkpt>
      <trkpt lat="44.64486" lon="5.13706">
        <ele>738.899963</ele>
        <time>2015-06-21T09:51:44Z</time>
      </trkpt>
      <trkpt lat="44.64488" lon="5.13691">
        <ele>736.827515</ele>
        <time>2015-06-21T09:51:46Z</time>
      </trkpt>
      <trkpt lat="44.64491" lon="5.13669">
        <ele>733.746277</ele>
        <time>2015-06-21T09:51:49Z</time>
      </trkpt>
      <trkpt lat="44.64496" lon="5.13644">
        <ele>729.133728</ele>
        <time>2015-06-21T09:51:52Z</time>
      </trkpt>
      <trkpt lat="44.64499" lon="5.13622">
        <ele>725.510742</ele>
        <time>2015-06-21T09:51:54Z</time>
      </trkpt>
      <trkpt lat="44.64502" lon="5.13598">
        <ele>722.442688</ele>
        <time>2015-06-21T09:51:56Z</time>
      </trkpt>
      <trkpt lat="44.64504" lon="5.13561">
        <ele>718.869934</ele>
        <time>2015-06-21T09:51:59Z</time>
      </trkpt>
      <trkpt lat="44.64503" lon="5.13549">
        <ele>718.429688</ele>
        <time>2015-06-21T09:52:00Z</time>
      </trkpt>
      <trkpt lat="44.64502" lon="5.13525">
        <ele>717.57605</ele>
        <time>2015-06-21T09:52:02Z</time>
      </trkpt>
      <trkpt lat="44.64503" lon="5.13514">
        <ele>716.264099</ele>
        <time>2015-06-21T09:52:03Z</time>
      </trkpt>
      <trkpt lat="44.64509" lon="5.13483">
        <ele>711.724915</ele>
        <time>2015-06-21T09:52:06Z</time>
      </trkpt>
      <trkpt lat="44.64513" lon="5.13454">
        <ele>708.076965</ele>
        <time>2015-06-21T09:52:09Z</time>
      </trkpt>
      <trkpt lat="44.64518" lon="5.13436">
        <ele>704.807495</ele>
        <time>2015-06-21T09:52:11Z</time>
      </trkpt>
      <trkpt lat="44.64523" lon="5.1342">
        <ele>701.346252</ele>
        <time>2015-06-21T09:52:13Z</time>
      </trkpt>
      <trkpt lat="44.64524" lon="5.13412">
        <ele>700.288757</ele>
        <time>2015-06-21T09:52:14Z</time>
      </trkpt>
      <trkpt lat="44.64528" lon="5.13388">
        <ele>697.401245</ele>
        <time>2015-06-21T09:52:17Z</time>
      </trkpt>
      <trkpt lat="44.64529" lon="5.13365">
        <ele>695.946228</ele>
        <time>2015-06-21T09:52:20Z</time>
      </trkpt>
      <trkpt lat="44.64529" lon="5.13357">
        <ele>695.713745</ele>
        <time>2015-06-21T09:52:21Z</time>
      </trkpt>
      <trkpt lat="44.64528" lon="5.1335">
        <ele>695.901245</ele>
        <time>2015-06-21T09:52:22Z</time>
      </trkpt>
      <trkpt lat="44.64527" lon="5.13343">
        <ele>696.253723</ele>
        <time>2015-06-21T09:52:23Z</time>
      </trkpt>
      <trkpt lat="44.64526" lon="5.13337">
        <ele>696.767517</ele>
        <time>2015-06-21T09:52:24Z</time>
      </trkpt>
      <trkpt lat="44.64525" lon="5.13322">
        <ele>696.583191</ele>
        <time>2015-06-21T09:52:27Z</time>
      </trkpt>
      <trkpt lat="44.64526" lon="5.13319">
        <ele>695.946899</ele>
        <time>2015-06-21T09:52:28Z</time>
      </trkpt>
      <trkpt lat="44.64535" lon="5.13319">
        <ele>690.679871</ele>
        <time>2015-06-21T09:52:32Z</time>
      </trkpt>
      <trkpt lat="44.64547" lon="5.13338">
        <ele>684.811279</ele>
        <time>2015-06-21T09:52:35Z</time>
      </trkpt>
      <trkpt lat="44.64551" lon="5.13346">
        <ele>683.086243</ele>
        <time>2015-06-21T09:52:36Z</time>
      </trkpt>
      <trkpt lat="44.64561" lon="5.13364">
        <ele>678.586243</ele>
        <time>2015-06-21T09:52:39Z</time>
      </trkpt>
      <trkpt lat="44.64568" lon="5.13379">
        <ele>675.243774</ele>
        <time>2015-06-21T09:52:42Z</time>
      </trkpt>
      <trkpt lat="44.64578" lon="5.13408">
        <ele>671.559387</ele>
        <time>2015-06-21T09:52:48Z</time>
      </trkpt>
      <trkpt lat="44.64581" lon="5.1342">
        <ele>670.350586</ele>
        <time>2015-06-21T09:52:50Z</time>
      </trkpt>
      <trkpt lat="44.64586" lon="5.13435">
        <ele>669.275024</ele>
        <time>2015-06-21T09:52:52Z</time>
      </trkpt>
      <trkpt lat="44.64592" lon="5.13451">
        <ele>668.200012</ele>
        <time>2015-06-21T09:52:54Z</time>
      </trkpt>
      <trkpt lat="44.64599" lon="5.1349">
        <ele>666.433167</ele>
        <time>2015-06-21T09:52:58Z</time>
      </trkpt>
      <trkpt lat="44.6461" lon="5.13536">
        <ele>662.788757</ele>
        <time>2015-06-21T09:53:03Z</time>
      </trkpt>
      <trkpt lat="44.64617" lon="5.13566">
        <ele>659.896362</ele>
        <time>2015-06-21T09:53:08Z</time>
      </trkpt>
      <trkpt lat="44.64625" lon="5.13583">
        <ele>656.316589</ele>
        <time>2015-06-21T09:53:11Z</time>
      </trkpt>
      <trkpt lat="44.64637" lon="5.13614">
        <ele>653.60614</ele>
        <time>2015-06-21T09:53:15Z</time>
      </trkpt>
      <trkpt lat="44.64641" lon="5.1362">
        <ele>652.649597</ele>
        <time>2015-06-21T09:53:16Z</time>
      </trkpt>
      <trkpt lat="44.64644" lon="5.13627">
        <ele>651.983643</ele>
        <time>2015-06-21T09:53:17Z</time>
      </trkpt>
      <trkpt lat="44.64646" lon="5.13635">
        <ele>651.887146</ele>
        <time>2015-06-21T09:53:18Z</time>
      </trkpt>
      <trkpt lat="44.64653" lon="5.13656">
        <ele>650.367615</ele>
        <time>2015-06-21T09:53:21Z</time>
      </trkpt>
      <trkpt lat="44.64657" lon="5.13661">
        <ele>649.199951</ele>
        <time>2015-06-21T09:53:22Z</time>
      </trkpt>
      <trkpt lat="44.6466" lon="5.13667">
        <ele>648.266968</ele>
        <time>2015-06-21T09:53:23Z</time>
      </trkpt>
      <trkpt lat="44.64662" lon="5.13675">
        <ele>647.721436</ele>
        <time>2015-06-21T09:53:24Z</time>
      </trkpt>
      <trkpt lat="44.64664" lon="5.13684">
        <ele>647.447388</ele>
        <time>2015-06-21T09:53:25Z</time>
      </trkpt>
      <trkpt lat="44.64667" lon="5.13711">
        <ele>647.194702</ele>
        <time>2015-06-21T09:53:28Z</time>
      </trkpt>
      <trkpt lat="44.64676" lon="5.13744">
        <ele>641.466858</ele>
        <time>2015-06-21T09:53:32Z</time>
      </trkpt>
      <trkpt lat="44.64681" lon="5.13769">
        <ele>637.069397</ele>
        <time>2015-06-21T09:53:36Z</time>
      </trkpt>
      <trkpt lat="44.6469" lon="5.13769">
        <ele>633.867249</ele>
        <time>2015-06-21T09:53:42Z</time>
      </trkpt>
      <trkpt lat="44.64692" lon="5.13763">
        <ele>633.55304</ele>
        <time>2015-06-21T09:53:43Z</time>
      </trkpt>
      <trkpt lat="44.64695" lon="5.13753">
        <ele>633.679199</ele>
        <time>2015-06-21T09:53:44Z</time>
      </trkpt>
      <trkpt lat="44.64697" lon="5.13743">
        <ele>634.101563</ele>
        <time>2015-06-21T09:53:45Z</time>
      </trkpt>
      <trkpt lat="44.64698" lon="5.13733">
        <ele>634.837463</ele>
        <time>2015-06-21T09:53:46Z</time>
      </trkpt>
      <trkpt lat="44.647" lon="5.13722">
        <ele>635.523499</ele>
        <time>2015-06-21T09:53:47Z</time>
      </trkpt>
      <trkpt lat="44.64702" lon="5.13711">
        <ele>635.705872</ele>
        <time>2015-06-21T09:53:48Z</time>
      </trkpt>
      <trkpt lat="44.64707" lon="5.13688">
        <ele>633.240356</ele>
        <time>2015-06-21T09:53:50Z</time>
      </trkpt>
      <trkpt lat="44.64714" lon="5.1364">
        <ele>629.147888</ele>
        <time>2015-06-21T09:53:54Z</time>
      </trkpt>
      <trkpt lat="44.64715" lon="5.13629">
        <ele>627.71637</ele>
        <time>2015-06-21T09:53:55Z</time>
      </trkpt>
      <trkpt lat="44.64715" lon="5.13621">
        <ele>626.718079</ele>
        <time>2015-06-21T09:53:56Z</time>
      </trkpt>
      <trkpt lat="44.64714" lon="5.13613">
        <ele>626.271057</ele>
        <time>2015-06-21T09:53:57Z</time>
      </trkpt>
      <trkpt lat="44.64712" lon="5.13606">
        <ele>626.336731</ele>
        <time>2015-06-21T09:53:58Z</time>
      </trkpt>
      <trkpt lat="44.64708" lon="5.13601">
        <ele>627.121765</ele>
        <time>2015-06-21T09:53:59Z</time>
      </trkpt>
      <trkpt lat="44.64703" lon="5.13596">
        <ele>628.127258</ele>
        <time>2015-06-21T09:54:00Z</time>
      </trkpt>
      <trkpt lat="44.64694" lon="5.13588">
        <ele>630.481812</ele>
        <time>2015-06-21T09:54:02Z</time>
      </trkpt>
      <trkpt lat="44.6469" lon="5.13585">
        <ele>631.630798</ele>
        <time>2015-06-21T09:54:03Z</time>
      </trkpt>
      <trkpt lat="44.64688" lon="5.13579">
        <ele>632.275085</ele>
        <time>2015-06-21T09:54:04Z</time>
      </trkpt>
      <trkpt lat="44.64696" lon="5.1356">
        <ele>629.056213</ele>
        <time>2015-06-21T09:54:07Z</time>
      </trkpt>
      <trkpt lat="44.64702" lon="5.13555">
        <ele>626.869812</ele>
        <time>2015-06-21T09:54:08Z</time>
      </trkpt>
      <trkpt lat="44.64708" lon="5.13551">
        <ele>624.57782</ele>
        <time>2015-06-21T09:54:09Z</time>
      </trkpt>
      <trkpt lat="44.64714" lon="5.13546">
        <ele>622.245178</ele>
        <time>2015-06-21T09:54:10Z</time>
      </trkpt>
      <trkpt lat="44.64719" lon="5.13541">
        <ele>620.178589</ele>
        <time>2015-06-21T09:54:11Z</time>
      </trkpt>
      <trkpt lat="44.64736" lon="5.13527">
        <ele>613.462097</ele>
        <time>2015-06-21T09:54:14Z</time>
      </trkpt>
      <trkpt lat="44.64761" lon="5.13498">
        <ele>605.75592</ele>
        <time>2015-06-21T09:54:19Z</time>
      </trkpt>
      <trkpt lat="44.64764" lon="5.13488">
        <ele>605.086182</ele>
        <time>2015-06-21T09:54:20Z</time>
      </trkpt>
      <trkpt lat="44.64782" lon="5.13451">
        <ele>597.935669</ele>
        <time>2015-06-21T09:54:25Z</time>
      </trkpt>
      <trkpt lat="44.64783" lon="5.1344">
        <ele>597.673218</ele>
        <time>2015-06-21T09:54:26Z</time>
      </trkpt>
      <trkpt lat="44.6478" lon="5.13424">
        <ele>599.311768</ele>
        <time>2015-06-21T09:54:27Z</time>
      </trkpt>
      <trkpt lat="44.64774" lon="5.13409">
        <ele>601.818237</ele>
        <time>2015-06-21T09:54:28Z</time>
      </trkpt>
      <trkpt lat="44.64767" lon="5.13396">
        <ele>604.290771</ele>
        <time>2015-06-21T09:54:29Z</time>
      </trkpt>
      <trkpt lat="44.6476" lon="5.13385">
        <ele>606.624756</ele>
        <time>2015-06-21T09:54:30Z</time>
      </trkpt>
      <trkpt lat="44.64754" lon="5.13379">
        <ele>608.550903</ele>
        <time>2015-06-21T09:54:31Z</time>
      </trkpt>
      <trkpt lat="44.64749" lon="5.13372">
        <ele>609.824036</ele>
        <time>2015-06-21T09:54:32Z</time>
      </trkpt>
      <trkpt lat="44.64747" lon="5.13366">
        <ele>610.344971</ele>
        <time>2015-06-21T09:54:33Z</time>
      </trkpt>
      <trkpt lat="44.64747" lon="5.13359">
        <ele>610.106873</ele>
        <time>2015-06-21T09:54:34Z</time>
      </trkpt>
      <trkpt lat="44.64747" lon="5.13352">
        <ele>609.431274</ele>
        <time>2015-06-21T09:54:35Z</time>
      </trkpt>
      <trkpt lat="44.64748" lon="5.13344">
        <ele>608.748779</ele>
        <time>2015-06-21T09:54:36Z</time>
      </trkpt>
      <trkpt lat="44.64749" lon="5.13335">
        <ele>608.262512</ele>
        <time>2015-06-21T09:54:37Z</time>
      </trkpt>
      <trkpt lat="44.64749" lon="5.13315">
        <ele>607.52002</ele>
        <time>2015-06-21T09:54:39Z</time>
      </trkpt>
      <trkpt lat="44.64751" lon="5.13305">
        <ele>606.70752</ele>
        <time>2015-06-21T09:54:40Z</time>
      </trkpt>
      <trkpt lat="44.64754" lon="5.13295">
        <ele>605.612488</ele>
        <time>2015-06-21T09:54:41Z</time>
      </trkpt>
      <trkpt lat="44.64761" lon="5.13279">
        <ele>602.897522</ele>
        <time>2015-06-21T09:54:43Z</time>
      </trkpt>
      <trkpt lat="44.64769" lon="5.13253">
        <ele>600.682556</ele>
        <time>2015-06-21T09:54:46Z</time>
      </trkpt>
      <trkpt lat="44.6478" lon="5.13225">
        <ele>598.226807</ele>
        <time>2015-06-21T09:54:53Z</time>
      </trkpt>
      <trkpt lat="44.6478" lon="5.1322">
        <ele>598.255737</ele>
        <time>2015-06-21T09:54:54Z</time>
      </trkpt>
      <trkpt lat="44.64782" lon="5.13215">
        <ele>597.862244</ele>
        <time>2015-06-21T09:54:55Z</time>
      </trkpt>
      <trkpt lat="44.64784" lon="5.13209">
        <ele>597.209778</ele>
        <time>2015-06-21T09:54:56Z</time>
      </trkpt>
      <trkpt lat="44.64787" lon="5.13204">
        <ele>596.450073</ele>
        <time>2015-06-21T09:54:57Z</time>
      </trkpt>
      <trkpt lat="44.64792" lon="5.13191">
        <ele>594.90802</ele>
        <time>2015-06-21T09:54:59Z</time>
      </trkpt>
      <trkpt lat="44.64796" lon="5.13185">
        <ele>593.980652</ele>
        <time>2015-06-21T09:55:00Z</time>
      </trkpt>
      <trkpt lat="44.64799" lon="5.13178">
        <ele>593.008301</ele>
        <time>2015-06-21T09:55:01Z</time>
      </trkpt>
      <trkpt lat="44.64802" lon="5.13171">
        <ele>592.352783</ele>
        <time>2015-06-21T09:55:02Z</time>
      </trkpt>
      <trkpt lat="44.64803" lon="5.13163">
        <ele>592.136963</ele>
        <time>2015-06-21T09:55:03Z</time>
      </trkpt>
      <trkpt lat="44.64802" lon="5.13156">
        <ele>592.257568</ele>
        <time>2015-06-21T09:55:04Z</time>
      </trkpt>
      <trkpt lat="44.64801" lon="5.1315">
        <ele>592.544983</ele>
        <time>2015-06-21T09:55:05Z</time>
      </trkpt>
      <trkpt lat="44.64796" lon="5.13143">
        <ele>593.345032</ele>
        <time>2015-06-21T09:55:06Z</time>
      </trkpt>
      <trkpt lat="44.64791" lon="5.13136">
        <ele>594.400024</ele>
        <time>2015-06-21T09:55:07Z</time>
      </trkpt>
      <trkpt lat="44.64787" lon="5.1313">
        <ele>595.184998</ele>
        <time>2015-06-21T09:55:08Z</time>
      </trkpt>
      <trkpt lat="44.64782" lon="5.1312">
        <ele>595.98999</ele>
        <time>2015-06-21T09:55:10Z</time>
      </trkpt>
      <trkpt lat="44.64781" lon="5.13113">
        <ele>595.914978</ele>
        <time>2015-06-21T09:55:11Z</time>
      </trkpt>
      <trkpt lat="44.64786" lon="5.13093">
        <ele>593.205017</ele>
        <time>2015-06-21T09:55:14Z</time>
      </trkpt>
      <trkpt lat="44.64803" lon="5.13041">
        <ele>586.084595</ele>
        <time>2015-06-21T09:55:21Z</time>
      </trkpt>
      <trkpt lat="44.64805" lon="5.13025">
        <ele>584.67926</ele>
        <time>2015-06-21T09:55:23Z</time>
      </trkpt>
      <trkpt lat="44.64806" lon="5.13015">
        <ele>584.259644</ele>
        <time>2015-06-21T09:55:24Z</time>
      </trkpt>
      <trkpt lat="44.64806" lon="5.1299">
        <ele>583.661743</ele>
        <time>2015-06-21T09:55:26Z</time>
      </trkpt>
      <trkpt lat="44.64805" lon="5.12924">
        <ele>583.486877</ele>
        <time>2015-06-21T09:55:31Z</time>
      </trkpt>
      <trkpt lat="44.64803" lon="5.12903">
        <ele>584.026184</ele>
        <time>2015-06-21T09:55:33Z</time>
      </trkpt>
      <trkpt lat="44.64801" lon="5.12892">
        <ele>584.392517</ele>
        <time>2015-06-21T09:55:34Z</time>
      </trkpt>
      <trkpt lat="44.6479" lon="5.12833">
        <ele>586.25</ele>
        <time>2015-06-21T09:55:39Z</time>
      </trkpt>
      <trkpt lat="44.6479" lon="5.12823">
        <ele>585.984985</ele>
        <time>2015-06-21T09:55:40Z</time>
      </trkpt>
      <trkpt lat="44.64794" lon="5.12778">
        <ele>583.834961</ele>
        <time>2015-06-21T09:55:44Z</time>
      </trkpt>
      <trkpt lat="44.64794" lon="5.12729">
        <ele>583.193237</ele>
        <time>2015-06-21T09:55:49Z</time>
      </trkpt>
      <trkpt lat="44.64793" lon="5.1272">
        <ele>583.291199</ele>
        <time>2015-06-21T09:55:50Z</time>
      </trkpt>
      <trkpt lat="44.64791" lon="5.12647">
        <ele>585.227478</ele>
        <time>2015-06-21T09:55:57Z</time>
      </trkpt>
      <trkpt lat="44.64793" lon="5.12627">
        <ele>585.648438</ele>
        <time>2015-06-21T09:55:59Z</time>
      </trkpt>
      <trkpt lat="44.64797" lon="5.12619">
        <ele>585.153625</ele>
        <time>2015-06-21T09:56:00Z</time>
      </trkpt>
      <trkpt lat="44.64801" lon="5.12612">
        <ele>584.354614</ele>
        <time>2015-06-21T09:56:01Z</time>
      </trkpt>
      <trkpt lat="44.64805" lon="5.12607">
        <ele>583.491211</ele>
        <time>2015-06-21T09:56:02Z</time>
      </trkpt>
      <trkpt lat="44.64808" lon="5.12603">
        <ele>582.745178</ele>
        <time>2015-06-21T09:56:03Z</time>
      </trkpt>
      <trkpt lat="44.64812" lon="5.12599">
        <ele>581.978333</ele>
        <time>2015-06-21T09:56:04Z</time>
      </trkpt>
      <trkpt lat="44.64816" lon="5.12594">
        <ele>580.964478</ele>
        <time>2015-06-21T09:56:05Z</time>
      </trkpt>
      <trkpt lat="44.64821" lon="5.1259">
        <ele>579.824707</ele>
        <time>2015-06-21T09:56:06Z</time>
      </trkpt>
      <trkpt lat="44.64837" lon="5.12578">
        <ele>577.257507</ele>
        <time>2015-06-21T09:56:09Z</time>
      </trkpt>
      <trkpt lat="44.64842" lon="5.12574">
        <ele>576.713745</ele>
        <time>2015-06-21T09:56:10Z</time>
      </trkpt>
      <trkpt lat="44.64858" lon="5.12564">
        <ele>574.722473</ele>
        <time>2015-06-21T09:56:13Z</time>
      </trkpt>
      <trkpt lat="44.64862" lon="5.1256">
        <ele>574.41748</ele>
        <time>2015-06-21T09:56:14Z</time>
      </trkpt>
      <trkpt lat="44.64867" lon="5.12556">
        <ele>574.038757</ele>
        <time>2015-06-21T09:56:15Z</time>
      </trkpt>
      <trkpt lat="44.64872" lon="5.12551">
        <ele>573.650024</ele>
        <time>2015-06-21T09:56:16Z</time>
      </trkpt>
      <trkpt lat="44.64882" lon="5.12541">
        <ele>573.097656</ele>
        <time>2015-06-21T09:56:18Z</time>
      </trkpt>
      <trkpt lat="44.64886" lon="5.12536">
        <ele>573.049561</ele>
        <time>2015-06-21T09:56:19Z</time>
      </trkpt>
      <trkpt lat="44.6489" lon="5.12529">
        <ele>573.256409</ele>
        <time>2015-06-21T09:56:20Z</time>
      </trkpt>
      <trkpt lat="44.64893" lon="5.12523">
        <ele>573.404419</ele>
        <time>2015-06-21T09:56:21Z</time>
      </trkpt>
      <trkpt lat="44.64895" lon="5.12514">
        <ele>573.513611</ele>
        <time>2015-06-21T09:56:22Z</time>
      </trkpt>
      <trkpt lat="44.64896" lon="5.12505">
        <ele>573.687866</ele>
        <time>2015-06-21T09:56:23Z</time>
      </trkpt>
      <trkpt lat="44.64897" lon="5.12496">
        <ele>573.971069</ele>
        <time>2015-06-21T09:56:24Z</time>
      </trkpt>
      <trkpt lat="44.64897" lon="5.12475">
        <ele>575.023376</ele>
        <time>2015-06-21T09:56:26Z</time>
      </trkpt>
      <trkpt lat="44.64898" lon="5.12465">
        <ele>575.268616</ele>
        <time>2015-06-21T09:56:27Z</time>
      </trkpt>
      <trkpt lat="44.64899" lon="5.12455">
        <ele>575.278503</ele>
        <time>2015-06-21T09:56:28Z</time>
      </trkpt>
      <trkpt lat="44.64902" lon="5.12439">
        <ele>574.92865</ele>
        <time>2015-06-21T09:56:30Z</time>
      </trkpt>
      <trkpt lat="44.64906" lon="5.12424">
        <ele>573.99762</ele>
        <time>2015-06-21T09:56:32Z</time>
      </trkpt>
      <trkpt lat="44.64908" lon="5.12417">
        <ele>573.473145</ele>
        <time>2015-06-21T09:56:33Z</time>
      </trkpt>
      <trkpt lat="44.64921" lon="5.12371">
        <ele>572.472473</ele>
        <time>2015-06-21T09:56:39Z</time>
      </trkpt>
      <trkpt lat="44.64924" lon="5.12364">
        <ele>572.086243</ele>
        <time>2015-06-21T09:56:40Z</time>
      </trkpt>
      <trkpt lat="44.64932" lon="5.12351">
        <ele>571.411316</ele>
        <time>2015-06-21T09:56:42Z</time>
      </trkpt>
      <trkpt lat="44.64937" lon="5.12346">
        <ele>570.854004</ele>
        <time>2015-06-21T09:56:43Z</time>
      </trkpt>
      <trkpt lat="44.64943" lon="5.12341">
        <ele>570.319702</ele>
        <time>2015-06-21T09:56:44Z</time>
      </trkpt>
      <trkpt lat="44.64949" lon="5.12337">
        <ele>569.650024</ele>
        <time>2015-06-21T09:56:45Z</time>
      </trkpt>
      <trkpt lat="44.64956" lon="5.12334">
        <ele>568.922485</ele>
        <time>2015-06-21T09:56:46Z</time>
      </trkpt>
      <trkpt lat="44.64962" lon="5.12332">
        <ele>568.29248</ele>
        <time>2015-06-21T09:56:47Z</time>
      </trkpt>
      <trkpt lat="44.64968" lon="5.12329">
        <ele>567.655029</ele>
        <time>2015-06-21T09:56:48Z</time>
      </trkpt>
      <trkpt lat="44.64973" lon="5.12326">
        <ele>567.33252</ele>
        <time>2015-06-21T09:56:49Z</time>
      </trkpt>
      <trkpt lat="44.64978" lon="5.12323">
        <ele>567.19751</ele>
        <time>2015-06-21T09:56:50Z</time>
      </trkpt>
      <trkpt lat="44.64982" lon="5.1232">
        <ele>567.102478</ele>
        <time>2015-06-21T09:56:51Z</time>
      </trkpt>
      <trkpt lat="44.64986" lon="5.12317">
        <ele>567.157532</ele>
        <time>2015-06-21T09:56:52Z</time>
      </trkpt>
      <trkpt lat="44.64998" lon="5.1231">
        <ele>566.880005</ele>
        <time>2015-06-21T09:56:55Z</time>
      </trkpt>
      <trkpt lat="44.65002" lon="5.12306">
        <ele>566.932495</ele>
        <time>2015-06-21T09:56:56Z</time>
      </trkpt>
      <trkpt lat="44.65007" lon="5.12303">
        <ele>566.967529</ele>
        <time>2015-06-21T09:56:57Z</time>
      </trkpt>
      <trkpt lat="44.65011" lon="5.12299">
        <ele>566.965027</ele>
        <time>2015-06-21T09:56:58Z</time>
      </trkpt>
      <trkpt lat="44.65017" lon="5.12296">
        <ele>566.838135</ele>
        <time>2015-06-21T09:56:59Z</time>
      </trkpt>
      <trkpt lat="44.65051" lon="5.12267">
        <ele>565.534973</ele>
        <time>2015-06-21T09:57:05Z</time>
      </trkpt>
      <trkpt lat="44.65061" lon="5.12259">
        <ele>564.662476</ele>
        <time>2015-06-21T09:57:07Z</time>
      </trkpt>
      <trkpt lat="44.65069" lon="5.12244">
        <ele>564.341675</ele>
        <time>2015-06-21T09:57:13Z</time>
      </trkpt>
      <trkpt lat="44.6507" lon="5.12237">
        <ele>564.879333</ele>
        <time>2015-06-21T09:57:17Z</time>
      </trkpt>
      <trkpt lat="44.65074" lon="5.1221">
        <ele>565.954224</ele>
        <time>2015-06-21T09:57:26Z</time>
      </trkpt>
      <trkpt lat="44.65073" lon="5.12192">
        <ele>566.199158</ele>
        <time>2015-06-21T09:57:31Z</time>
      </trkpt>
      <trkpt lat="44.65073" lon="5.12192">
        <ele>566.28186</ele>
        <time>2015-06-21T09:57:32Z</time>
      </trkpt>
      <trkpt lat="44.65069" lon="5.12195">
        <ele>567.293579</ele>
        <time>2015-06-21T09:57:37Z</time>
      </trkpt>
      <trkpt lat="44.65068" lon="5.12196">
        <ele>567.620728</ele>
        <time>2015-06-21T09:57:38Z</time>
      </trkpt>
      <trkpt lat="44.65066" lon="5.12197">
        <ele>567.973083</ele>
        <time>2015-06-21T09:57:39Z</time>
      </trkpt>
      <trkpt lat="44.65065" lon="5.12199">
        <ele>568.361694</ele>
        <time>2015-06-21T09:57:40Z</time>
      </trkpt>
      <trkpt lat="44.65063" lon="5.122">
        <ele>568.745483</ele>
        <time>2015-06-21T09:57:41Z</time>
      </trkpt>
      <trkpt lat="44.65062" lon="5.12203">
        <ele>569.079651</ele>
        <time>2015-06-21T09:57:42Z</time>
      </trkpt>
      <trkpt lat="44.65061" lon="5.12214">
        <ele>569.245239</ele>
        <time>2015-06-21T09:57:45Z</time>
      </trkpt>
      <trkpt lat="44.65061" lon="5.12218">
        <ele>569.33313</ele>
        <time>2015-06-21T09:57:46Z</time>
      </trkpt>
      <trkpt lat="44.65061" lon="5.12226">
        <ele>568.543762</ele>
        <time>2015-06-21T09:57:47Z</time>
      </trkpt>
      <trkpt lat="44.65061" lon="5.12232">
        <ele>567.852478</ele>
        <time>2015-06-21T09:57:48Z</time>
      </trkpt>
      <trkpt lat="44.65061" lon="5.12239">
        <ele>567.11499</ele>
        <time>2015-06-21T09:57:49Z</time>
      </trkpt>
      <trkpt lat="44.6506" lon="5.12244">
        <ele>566.679993</ele>
        <time>2015-06-21T09:57:50Z</time>
      </trkpt>
      <trkpt lat="44.65058" lon="5.1225">
        <ele>566.255005</ele>
        <time>2015-06-21T09:57:51Z</time>
      </trkpt>
      <trkpt lat="44.65043" lon="5.1229">
        <ele>562.96875</ele>
        <time>2015-06-21T09:57:58Z</time>
      </trkpt>
      <trkpt lat="44.65026" lon="5.12325">
        <ele>558.691528</ele>
        <time>2015-06-21T09:58:04Z</time>
      </trkpt>
      <trkpt lat="44.65022" lon="5.1233">
        <ele>558.77533</ele>
        <time>2015-06-21T09:58:05Z</time>
      </trkpt>
      <trkpt lat="44.65018" lon="5.12334">
        <ele>559.095581</ele>
        <time>2015-06-21T09:58:06Z</time>
      </trkpt>
      <trkpt lat="44.65014" lon="5.12337">
        <ele>559.32251</ele>
        <time>2015-06-21T09:58:07Z</time>
      </trkpt>
      <trkpt lat="44.65009" lon="5.12339">
        <ele>559.462524</ele>
        <time>2015-06-21T09:58:08Z</time>
      </trkpt>
      <trkpt lat="44.65005" lon="5.12342">
        <ele>559.599976</ele>
        <time>2015-06-21T09:58:09Z</time>
      </trkpt>
      <trkpt lat="44.65001" lon="5.12345">
        <ele>559.678772</ele>
        <time>2015-06-21T09:58:10Z</time>
      </trkpt>
      <trkpt lat="44.64998" lon="5.12348">
        <ele>559.798767</ele>
        <time>2015-06-21T09:58:11Z</time>
      </trkpt>
      <trkpt lat="44.64974" lon="5.12367">
        <ele>560.505005</ele>
        <time>2015-06-21T09:58:17Z</time>
      </trkpt>
      <trkpt lat="44.64972" lon="5.12372">
        <ele>560.171265</ele>
        <time>2015-06-21T09:58:18Z</time>
      </trkpt>
      <trkpt lat="44.64969" lon="5.12376">
        <ele>559.835022</ele>
        <time>2015-06-21T09:58:19Z</time>
      </trkpt>
      <trkpt lat="44.64969" lon="5.12413">
        <ele>556.588623</ele>
        <time>2015-06-21T09:58:26Z</time>
      </trkpt>
      <trkpt lat="44.64972" lon="5.12428">
        <ele>557.103882</ele>
        <time>2015-06-21T09:58:29Z</time>
      </trkpt>
      <trkpt lat="44.64977" lon="5.12471">
        <ele>558.83136</ele>
        <time>2015-06-21T09:58:40Z</time>
      </trkpt>
      <trkpt lat="44.64976" lon="5.12478">
        <ele>559.279846</ele>
        <time>2015-06-21T09:58:42Z</time>
      </trkpt>
      <trkpt lat="44.64963" lon="5.12533">
        <ele>562.544556</ele>
        <time>2015-06-21T09:58:52Z</time>
      </trkpt>
      <trkpt lat="44.64953" lon="5.12572">
        <ele>556.745483</ele>
        <time>2015-06-21T09:59:00Z</time>
      </trkpt>
      <trkpt lat="44.64934" lon="5.1261">
        <ele>554.071228</ele>
        <time>2015-06-21T09:59:11Z</time>
      </trkpt>
      <trkpt lat="44.64928" lon="5.12623">
        <ele>553.474976</ele>
        <time>2015-06-21T09:59:22Z</time>
      </trkpt>
      <trkpt lat="44.64928" lon="5.12622">
        <ele>553.475037</ele>
        <time>2015-06-21T09:59:32Z</time>
      </trkpt>
      <trkpt lat="44.64931" lon="5.12626">
        <ele>552.349976</ele>
        <time>2015-06-21T09:59:35Z</time>
      </trkpt>
      <trkpt lat="44.64936" lon="5.12639">
        <ele>549.391235</ele>
        <time>2015-06-21T09:59:47Z</time>
      </trkpt>
      <trkpt lat="44.64937" lon="5.12638">
        <ele>549.368774</ele>
        <time>2015-06-21T09:59:50Z</time>
      </trkpt>
      <trkpt lat="44.64935" lon="5.12632">
        <ele>550.538757</ele>
        <time>2015-06-21T09:59:56Z</time>
      </trkpt>
      <trkpt lat="44.64929" lon="5.12631">
        <ele>551.83252</ele>
        <time>2015-06-21T10:00:06Z</time>
      </trkpt>
      <trkpt lat="44.64928" lon="5.12628">
        <ele>552.529968</ele>
        <time>2015-06-21T10:00:35Z</time>
      </trkpt>
      <trkpt lat="44.64927" lon="5.12628">
        <ele>552.631287</ele>
        <time>2015-06-21T10:00:38Z</time>
      </trkpt>
      <trkpt lat="44.64919" lon="5.12632">
        <ele>553.654968</ele>
        <time>2015-06-21T10:00:52Z</time>
      </trkpt>
      <trkpt lat="44.64913" lon="5.12641">
        <ele>553.606262</ele>
        <time>2015-06-21T10:01:05Z</time>
      </trkpt>
      <trkpt lat="44.64909" lon="5.12642">
        <ele>554.307007</ele>
        <time>2015-06-21T10:01:11Z</time>
      </trkpt>
      <trkpt lat="44.64899" lon="5.12651">
        <ele>555.3255</ele>
        <time>2015-06-21T10:01:16Z</time>
      </trkpt>
      <trkpt lat="44.64885" lon="5.12678">
        <ele>557.262024</ele>
        <time>2015-06-21T10:01:28Z</time>
      </trkpt>
      <trkpt lat="44.64885" lon="5.12681">
        <ele>557.18988</ele>
        <time>2015-06-21T10:01:29Z</time>
      </trkpt>
      <trkpt lat="44.64885" lon="5.12689">
        <ele>556.94574</ele>
        <time>2015-06-21T10:01:37Z</time>
      </trkpt>
      <trkpt lat="44.64887" lon="5.12726">
        <ele>556.031921</ele>
        <time>2015-06-21T10:01:50Z</time>
      </trkpt>
      <trkpt lat="44.64892" lon="5.12762">
        <ele>556.356262</ele>
        <time>2015-06-21T10:02:02Z</time>
      </trkpt>
      <trkpt lat="44.64892" lon="5.12766">
        <ele>556.375061</ele>
        <time>2015-06-21T10:02:04Z</time>
      </trkpt>
      <trkpt lat="44.649" lon="5.12781">
        <ele>555.215027</ele>
        <time>2015-06-21T10:02:13Z</time>
      </trkpt>
      <trkpt lat="44.64912" lon="5.12808">
        <ele>554.096497</ele>
        <time>2015-06-21T10:02:21Z</time>
      </trkpt>
      <trkpt lat="44.64913" lon="5.12817">
        <ele>554.436523</ele>
        <time>2015-06-21T10:02:30Z</time>
      </trkpt>
      <trkpt lat="44.64915" lon="5.12829">
        <ele>554.676697</ele>
        <time>2015-06-21T10:02:41Z</time>
      </trkpt>
      <trkpt lat="44.6491" lon="5.12839">
        <ele>556.370728</ele>
        <time>2015-06-21T10:02:46Z</time>
      </trkpt>
      <trkpt lat="44.64906" lon="5.12858">
        <ele>557.295227</ele>
        <time>2015-06-21T10:02:54Z</time>
      </trkpt>
      <trkpt lat="44.6491" lon="5.12877">
        <ele>555.718689</ele>
        <time>2015-06-21T10:02:59Z</time>
      </trkpt>
      <trkpt lat="44.64912" lon="5.12878">
        <ele>555.313293</ele>
        <time>2015-06-21T10:03:00Z</time>
      </trkpt>
      <trkpt lat="44.64911" lon="5.1289">
        <ele>555.119019</ele>
        <time>2015-06-21T10:03:03Z</time>
      </trkpt>
      <trkpt lat="44.64918" lon="5.12923">
        <ele>551.477783</ele>
        <time>2015-06-21T10:03:12Z</time>
      </trkpt>
      <trkpt lat="44.64905" lon="5.12962">
        <ele>553.719666</ele>
        <time>2015-06-21T10:03:23Z</time>
      </trkpt>
      <trkpt lat="44.64896" lon="5.12988">
        <ele>556.715027</ele>
        <time>2015-06-21T10:03:33Z</time>
      </trkpt>
      <trkpt lat="44.64895" lon="5.12995">
        <ele>557.005005</ele>
        <time>2015-06-21T10:03:39Z</time>
      </trkpt>
      <trkpt lat="44.64895" lon="5.12995">
        <ele>556.929993</ele>
        <time>2015-06-21T10:03:40Z</time>
      </trkpt>
      <trkpt lat="44.64896" lon="5.12995">
        <ele>556.787476</ele>
        <time>2015-06-21T10:03:42Z</time>
      </trkpt>
      <trkpt lat="44.64897" lon="5.12994">
        <ele>556.352478</ele>
        <time>2015-06-21T10:03:51Z</time>
      </trkpt>
      <trkpt lat="44.64897" lon="5.12994">
        <ele>556.352478</ele>
        <time>2015-06-21T10:03:52Z</time>
      </trkpt>
      <trkpt lat="44.64897" lon="5.12994">
        <ele>556.349976</ele>
        <time>2015-06-21T10:03:53Z</time>
      </trkpt>
      <trkpt lat="44.64897" lon="5.12994">
        <ele>556.419983</ele>
        <time>2015-06-21T10:03:56Z</time>
      </trkpt>
      <trkpt lat="44.64897" lon="5.12994">
        <ele>556.41748</ele>
        <time>2015-06-21T10:03:57Z</time>
      </trkpt>
      <trkpt lat="44.64897" lon="5.12994">
        <ele>556.487488</ele>
        <time>2015-06-21T10:03:59Z</time>
      </trkpt>
      <trkpt lat="44.64896" lon="5.12994">
        <ele>556.557495</ele>
        <time>2015-06-21T10:04:00Z</time>
      </trkpt>
      <trkpt lat="44.64896" lon="5.12994">
        <ele>556.627502</ele>
        <time>2015-06-21T10:04:02Z</time>
      </trkpt>
      <trkpt lat="44.64896" lon="5.12994">
        <ele>556.662476</ele>
        <time>2015-06-21T10:04:03Z</time>
      </trkpt>
      <trkpt lat="44.64896" lon="5.12994">
        <ele>556.702515</ele>
        <time>2015-06-21T10:04:06Z</time>
      </trkpt>
      <trkpt lat="44.64896" lon="5.12994">
        <ele>556.70752</ele>
        <time>2015-06-21T10:04:07Z</time>
      </trkpt>
      <trkpt lat="44.64896" lon="5.12994">
        <ele>556.712524</ele>
        <time>2015-06-21T10:04:08Z</time>
      </trkpt>
      <trkpt lat="44.64896" lon="5.12994">
        <ele>556.712524</ele>
        <time>2015-06-21T10:04:11Z</time>
      </trkpt>
      <trkpt lat="44.64896" lon="5.12994">
        <ele>556.679993</ele>
        <time>2015-06-21T10:04:12Z</time>
      </trkpt>
      <trkpt lat="44.64896" lon="5.12995">
        <ele>556.647522</ele>
        <time>2015-06-21T10:04:14Z</time>
      </trkpt>
      <trkpt lat="44.64896" lon="5.12995">
        <ele>556.612488</ele>
        <time>2015-06-21T10:04:15Z</time>
      </trkpt>
      <trkpt lat="44.64897" lon="5.13">
        <ele>556.404968</ele>
        <time>2015-06-21T10:04:29Z</time>
      </trkpt>
      <trkpt lat="44.64899" lon="5.13006">
        <ele>555.969971</ele>
        <time>2015-06-21T10:04:40Z</time>
      </trkpt>
      <trkpt lat="44.64905" lon="5.1302">
        <ele>554.57251</ele>
        <time>2015-06-21T10:04:52Z</time>
      </trkpt>
      <trkpt lat="44.64908" lon="5.13028">
        <ele>553.581543</ele>
        <time>2015-06-21T10:05:01Z</time>
      </trkpt>
      <trkpt lat="44.64911" lon="5.13032">
        <ele>552.921509</ele>
        <time>2015-06-21T10:05:03Z</time>
      </trkpt>
      <trkpt lat="44.64922" lon="5.13053">
        <ele>551.182251</ele>
        <time>2015-06-21T10:05:16Z</time>
      </trkpt>
      <trkpt lat="44.64927" lon="5.13059">
        <ele>549.710938</ele>
        <time>2015-06-21T10:05:26Z</time>
      </trkpt>
      <trkpt lat="44.64928" lon="5.13075">
        <ele>550.913269</ele>
        <time>2015-06-21T10:05:39Z</time>
      </trkpt>
      <trkpt lat="44.6492" lon="5.13092">
        <ele>555.996643</ele>
        <time>2015-06-21T10:05:51Z</time>
      </trkpt>
      <trkpt lat="44.64906" lon="5.13125">
        <ele>559.677734</ele>
        <time>2015-06-21T10:06:02Z</time>
      </trkpt>
      <trkpt lat="44.64905" lon="5.13166">
        <ele>556.170105</ele>
        <time>2015-06-21T10:06:12Z</time>
      </trkpt>
      <trkpt lat="44.64903" lon="5.13174">
        <ele>556.777222</ele>
        <time>2015-06-21T10:06:15Z</time>
      </trkpt>
      <trkpt lat="44.64892" lon="5.13195">
        <ele>560.516846</ele>
        <time>2015-06-21T10:06:27Z</time>
      </trkpt>
      <trkpt lat="44.64891" lon="5.13199">
        <ele>560.819397</ele>
        <time>2015-06-21T10:06:32Z</time>
      </trkpt>
      <trkpt lat="44.64883" lon="5.13228">
        <ele>563.492859</ele>
        <time>2015-06-21T10:06:43Z</time>
      </trkpt>
      <trkpt lat="44.64878" lon="5.1325">
        <ele>566.374817</ele>
        <time>2015-06-21T10:06:57Z</time>
      </trkpt>
      <trkpt lat="44.64875" lon="5.13261">
        <ele>568.039368</ele>
        <time>2015-06-21T10:07:01Z</time>
      </trkpt>
      <trkpt lat="44.64868" lon="5.13284">
        <ele>571.438965</ele>
        <time>2015-06-21T10:07:14Z</time>
      </trkpt>
      <trkpt lat="44.64867" lon="5.13297">
        <ele>572.218689</ele>
        <time>2015-06-21T10:07:25Z</time>
      </trkpt>
      <trkpt lat="44.64866" lon="5.13304">
        <ele>572.388184</ele>
        <time>2015-06-21T10:07:36Z</time>
      </trkpt>
      <trkpt lat="44.64876" lon="5.13308">
        <ele>569.031555</ele>
        <time>2015-06-21T10:07:40Z</time>
      </trkpt>
      <trkpt lat="44.64899" lon="5.13316">
        <ele>560.967102</ele>
        <time>2015-06-21T10:07:46Z</time>
      </trkpt>
      <trkpt lat="44.64913" lon="5.13324">
        <ele>554.326843</ele>
        <time>2015-06-21T10:07:54Z</time>
      </trkpt>
      <trkpt lat="44.64928" lon="5.13319">
        <ele>547.109802</ele>
        <time>2015-06-21T10:07:59Z</time>
      </trkpt>
      <trkpt lat="44.64938" lon="5.13317">
        <ele>542.250916</ele>
        <time>2015-06-21T10:08:01Z</time>
      </trkpt>
      <trkpt lat="44.64952" lon="5.13329">
        <ele>537.002197</ele>
        <time>2015-06-21T10:08:07Z</time>
      </trkpt>
      <trkpt lat="44.64963" lon="5.13331">
        <ele>534.217957</ele>
        <time>2015-06-21T10:08:10Z</time>
      </trkpt>
      <trkpt lat="44.64978" lon="5.13334">
        <ele>530.596008</ele>
        <time>2015-06-21T10:08:14Z</time>
      </trkpt>
      <trkpt lat="44.64986" lon="5.13336">
        <ele>528.374084</ele>
        <time>2015-06-21T10:08:17Z</time>
      </trkpt>
      <trkpt lat="44.64991" lon="5.13339">
        <ele>526.877563</ele>
        <time>2015-06-21T10:08:29Z</time>
      </trkpt>
      <trkpt lat="44.64991" lon="5.13339">
        <ele>526.895691</ele>
        <time>2015-06-21T10:08:32Z</time>
      </trkpt>
      <trkpt lat="44.64987" lon="5.13348">
        <ele>526.971252</ele>
        <time>2015-06-21T10:08:37Z</time>
      </trkpt>
      <trkpt lat="44.64983" lon="5.13354">
        <ele>526.22467</ele>
        <time>2015-06-21T10:08:40Z</time>
      </trkpt>
      <trkpt lat="44.64981" lon="5.13359">
        <ele>525.392517</ele>
        <time>2015-06-21T10:08:42Z</time>
      </trkpt>
      <trkpt lat="44.64977" lon="5.13368">
        <ele>523.802368</ele>
        <time>2015-06-21T10:08:47Z</time>
      </trkpt>
      <trkpt lat="44.64975" lon="5.13376">
        <ele>522.19165</ele>
        <time>2015-06-21T10:08:54Z</time>
      </trkpt>
      <trkpt lat="44.64969" lon="5.13392">
        <ele>519.764526</ele>
        <time>2015-06-21T10:08:59Z</time>
      </trkpt>
      <trkpt lat="44.64965" lon="5.13402">
        <ele>518.815613</ele>
        <time>2015-06-21T10:09:03Z</time>
      </trkpt>
      <trkpt lat="44.64964" lon="5.13405">
        <ele>518.294189</ele>
        <time>2015-06-21T10:09:04Z</time>
      </trkpt>
      <trkpt lat="44.64963" lon="5.1341">
        <ele>517.616211</ele>
        <time>2015-06-21T10:09:07Z</time>
      </trkpt>
      <trkpt lat="44.64962" lon="5.13418">
        <ele>517.470032</ele>
        <time>2015-06-21T10:09:12Z</time>
      </trkpt>
      <trkpt lat="44.64961" lon="5.13419">
        <ele>518.047302</ele>
        <time>2015-06-21T10:09:13Z</time>
      </trkpt>
      <trkpt lat="44.64951" lon="5.13435">
        <ele>522.228027</ele>
        <time>2015-06-21T10:09:19Z</time>
      </trkpt>
      <trkpt lat="44.64952" lon="5.13438">
        <ele>521.884644</ele>
        <time>2015-06-21T10:09:31Z</time>
      </trkpt>
      <trkpt lat="44.64953" lon="5.13437">
        <ele>521.495178</ele>
        <time>2015-06-21T10:09:41Z</time>
      </trkpt>
      <trkpt lat="44.64954" lon="5.13437">
        <ele>520.835144</ele>
        <time>2015-06-21T10:09:43Z</time>
      </trkpt>
      <trkpt lat="44.64958" lon="5.13438">
        <ele>519.253601</ele>
        <time>2015-06-21T10:09:50Z</time>
      </trkpt>
      <trkpt lat="44.6497" lon="5.13449">
        <ele>514.455322</ele>
        <time>2015-06-21T10:09:56Z</time>
      </trkpt>
      <trkpt lat="44.64983" lon="5.1346">
        <ele>509.724701</ele>
        <time>2015-06-21T10:10:01Z</time>
      </trkpt>
      <trkpt lat="44.64992" lon="5.1347">
        <ele>506.481873</ele>
        <time>2015-06-21T10:10:06Z</time>
      </trkpt>
      <trkpt lat="44.64996" lon="5.13472">
        <ele>505.103424</ele>
        <time>2015-06-21T10:10:08Z</time>
      </trkpt>
      <trkpt lat="44.65004" lon="5.13474">
        <ele>501.913757</ele>
        <time>2015-06-21T10:10:17Z</time>
      </trkpt>
      <trkpt lat="44.65002" lon="5.1347">
        <ele>502.461365</ele>
        <time>2015-06-21T10:10:26Z</time>
      </trkpt>
      <trkpt lat="44.65009" lon="5.13477">
        <ele>499.772522</ele>
        <time>2015-06-21T10:10:31Z</time>
      </trkpt>
      <trkpt lat="44.65011" lon="5.13479">
        <ele>499.618103</ele>
        <time>2015-06-21T10:10:32Z</time>
      </trkpt>
      <trkpt lat="44.6502" lon="5.13487">
        <ele>497.644623</ele>
        <time>2015-06-21T10:10:36Z</time>
      </trkpt>
      <trkpt lat="44.65026" lon="5.13488">
        <ele>495.409698</ele>
        <time>2015-06-21T10:10:38Z</time>
      </trkpt>
      <trkpt lat="44.6503" lon="5.13489">
        <ele>493.783386</ele>
        <time>2015-06-21T10:10:40Z</time>
      </trkpt>
      <trkpt lat="44.65036" lon="5.13492">
        <ele>492.073486</ele>
        <time>2015-06-21T10:10:42Z</time>
      </trkpt>
      <trkpt lat="44.65041" lon="5.13498">
        <ele>490.830414</ele>
        <time>2015-06-21T10:10:44Z</time>
      </trkpt>
      <trkpt lat="44.65044" lon="5.135">
        <ele>490.066376</ele>
        <time>2015-06-21T10:10:45Z</time>
      </trkpt>
      <trkpt lat="44.6505" lon="5.13519">
        <ele>490.160065</ele>
        <time>2015-06-21T10:10:52Z</time>
      </trkpt>
      <trkpt lat="44.6506" lon="5.13531">
        <ele>486.842133</ele>
        <time>2015-06-21T10:10:57Z</time>
      </trkpt>
      <trkpt lat="44.65087" lon="5.13574">
        <ele>476.20697</ele>
        <time>2015-06-21T10:11:08Z</time>
      </trkpt>
      <trkpt lat="44.65129" lon="5.13592">
        <ele>470.08374</ele>
        <time>2015-06-21T10:11:18Z</time>
      </trkpt>
      <trkpt lat="44.65143" lon="5.13584">
        <ele>470.239014</ele>
        <time>2015-06-21T10:11:22Z</time>
      </trkpt>
      <trkpt lat="44.65154" lon="5.13561">
        <ele>469.5578</ele>
        <time>2015-06-21T10:11:27Z</time>
      </trkpt>
      <trkpt lat="44.65157" lon="5.13556">
        <ele>469.373108</ele>
        <time>2015-06-21T10:11:28Z</time>
      </trkpt>
      <trkpt lat="44.65159" lon="5.13552">
        <ele>469.184174</ele>
        <time>2015-06-21T10:11:29Z</time>
      </trkpt>
      <trkpt lat="44.65161" lon="5.13547">
        <ele>468.966949</ele>
        <time>2015-06-21T10:11:30Z</time>
      </trkpt>
      <trkpt lat="44.65164" lon="5.13542">
        <ele>468.720612</ele>
        <time>2015-06-21T10:11:31Z</time>
      </trkpt>
      <trkpt lat="44.65191" lon="5.1346">
        <ele>471.19751</ele>
        <time>2015-06-21T10:11:45Z</time>
      </trkpt>
      <trkpt lat="44.65198" lon="5.134">
        <ele>469.717133</ele>
        <time>2015-06-21T10:11:52Z</time>
      </trkpt>
      <trkpt lat="44.65199" lon="5.13391">
        <ele>469.284546</ele>
        <time>2015-06-21T10:11:53Z</time>
      </trkpt>
      <trkpt lat="44.65212" lon="5.13288">
        <ele>467.219452</ele>
        <time>2015-06-21T10:12:05Z</time>
      </trkpt>
      <trkpt lat="44.65219" lon="5.13246">
        <ele>468.67337</ele>
        <time>2015-06-21T10:12:10Z</time>
      </trkpt>
      <trkpt lat="44.65226" lon="5.13156">
        <ele>466.013916</ele>
        <time>2015-06-21T10:12:21Z</time>
      </trkpt>
      <trkpt lat="44.65225" lon="5.13148">
        <ele>465.01178</ele>
        <time>2015-06-21T10:12:23Z</time>
      </trkpt>
      <trkpt lat="44.65224" lon="5.13145">
        <ele>464.241882</ele>
        <time>2015-06-21T10:12:24Z</time>
      </trkpt>
      <trkpt lat="44.65222" lon="5.13142">
        <ele>463.158447</ele>
        <time>2015-06-21T10:12:25Z</time>
      </trkpt>
      <trkpt lat="44.6522" lon="5.13139">
        <ele>462.160187</ele>
        <time>2015-06-21T10:12:26Z</time>
      </trkpt>
      <trkpt lat="44.65219" lon="5.13137">
        <ele>461.571136</ele>
        <time>2015-06-21T10:12:27Z</time>
      </trkpt>
      <trkpt lat="44.65219" lon="5.13133">
        <ele>461.2211</ele>
        <time>2015-06-21T10:12:28Z</time>
      </trkpt>
      <trkpt lat="44.65219" lon="5.13129">
        <ele>460.775787</ele>
        <time>2015-06-21T10:12:29Z</time>
      </trkpt>
      <trkpt lat="44.6522" lon="5.13064">
        <ele>454.764496</ele>
        <time>2015-06-21T10:12:40Z</time>
      </trkpt>
      <trkpt lat="44.65211" lon="5.13022">
        <ele>453.01001</ele>
        <time>2015-06-21T10:12:47Z</time>
      </trkpt>
      <trkpt lat="44.65203" lon="5.12963">
        <ele>451.494995</ele>
        <time>2015-06-21T10:12:58Z</time>
      </trkpt>
      <trkpt lat="44.65207" lon="5.12927">
        <ele>449.559998</ele>
        <time>2015-06-21T10:13:03Z</time>
      </trkpt>
      <trkpt lat="44.65212" lon="5.12914">
        <ele>448.697388</ele>
        <time>2015-06-21T10:13:05Z</time>
      </trkpt>
      <trkpt lat="44.65218" lon="5.12903">
        <ele>447.898315</ele>
        <time>2015-06-21T10:13:07Z</time>
      </trkpt>
      <trkpt lat="44.65221" lon="5.12898">
        <ele>447.530792</ele>
        <time>2015-06-21T10:13:08Z</time>
      </trkpt>
      <trkpt lat="44.65272" lon="5.12811">
        <ele>454.977509</ele>
        <time>2015-06-21T10:13:23Z</time>
      </trkpt>
      <trkpt lat="44.65298" lon="5.12765">
        <ele>457.646271</ele>
        <time>2015-06-21T10:13:30Z</time>
      </trkpt>
      <trkpt lat="44.6532" lon="5.12723">
        <ele>455.547485</ele>
        <time>2015-06-21T10:13:36Z</time>
      </trkpt>
      <trkpt lat="44.65332" lon="5.12694">
        <ele>455.384216</ele>
        <time>2015-06-21T10:13:40Z</time>
      </trkpt>
      <trkpt lat="44.6535" lon="5.12648">
        <ele>454.69693</ele>
        <time>2015-06-21T10:13:46Z</time>
      </trkpt>
      <trkpt lat="44.65357" lon="5.12623">
        <ele>453.933502</ele>
        <time>2015-06-21T10:13:49Z</time>
      </trkpt>
      <trkpt lat="44.65358" lon="5.12614">
        <ele>453.033447</ele>
        <time>2015-06-21T10:13:50Z</time>
      </trkpt>
      <trkpt lat="44.65358" lon="5.12605">
        <ele>451.839447</ele>
        <time>2015-06-21T10:13:51Z</time>
      </trkpt>
      <trkpt lat="44.65357" lon="5.12595">
        <ele>450.293823</ele>
        <time>2015-06-21T10:13:52Z</time>
      </trkpt>
      <trkpt lat="44.65355" lon="5.12585">
        <ele>448.572388</ele>
        <time>2015-06-21T10:13:53Z</time>
      </trkpt>
      <trkpt lat="44.65353" lon="5.12576">
        <ele>446.79953</ele>
        <time>2015-06-21T10:13:54Z</time>
      </trkpt>
      <trkpt lat="44.6535" lon="5.12566">
        <ele>445.007813</ele>
        <time>2015-06-21T10:13:55Z</time>
      </trkpt>
      <trkpt lat="44.65341" lon="5.12528">
        <ele>439.335938</ele>
        <time>2015-06-21T10:13:59Z</time>
      </trkpt>
      <trkpt lat="44.65339" lon="5.12508">
        <ele>437.71524</ele>
        <time>2015-06-21T10:14:01Z</time>
      </trkpt>
      <trkpt lat="44.65339" lon="5.12498">
        <ele>437.11673</ele>
        <time>2015-06-21T10:14:02Z</time>
      </trkpt>
      <trkpt lat="44.65342" lon="5.12447">
        <ele>435.845367</ele>
        <time>2015-06-21T10:14:07Z</time>
      </trkpt>
      <trkpt lat="44.65346" lon="5.12426">
        <ele>435.721252</ele>
        <time>2015-06-21T10:14:09Z</time>
      </trkpt>
      <trkpt lat="44.65349" lon="5.12417">
        <ele>435.756622</ele>
        <time>2015-06-21T10:14:10Z</time>
      </trkpt>
      <trkpt lat="44.65353" lon="5.12409">
        <ele>435.721954</ele>
        <time>2015-06-21T10:14:11Z</time>
      </trkpt>
      <trkpt lat="44.65378" lon="5.12354">
        <ele>433.972137</ele>
        <time>2015-06-21T10:14:18Z</time>
      </trkpt>
      <trkpt lat="44.65381" lon="5.12345">
        <ele>434.31189</ele>
        <time>2015-06-21T10:14:19Z</time>
      </trkpt>
      <trkpt lat="44.65383" lon="5.12335">
        <ele>434.457031</ele>
        <time>2015-06-21T10:14:20Z</time>
      </trkpt>
      <trkpt lat="44.65384" lon="5.12326">
        <ele>434.28949</ele>
        <time>2015-06-21T10:14:21Z</time>
      </trkpt>
      <trkpt lat="44.65385" lon="5.12316">
        <ele>433.908356</ele>
        <time>2015-06-21T10:14:22Z</time>
      </trkpt>
      <trkpt lat="44.65384" lon="5.12277">
        <ele>432.161102</ele>
        <time>2015-06-21T10:14:26Z</time>
      </trkpt>
      <trkpt lat="44.65387" lon="5.12214">
        <ele>431.496979</ele>
        <time>2015-06-21T10:14:32Z</time>
      </trkpt>
      <trkpt lat="44.65398" lon="5.12167">
        <ele>431.393524</ele>
        <time>2015-06-21T10:14:37Z</time>
      </trkpt>
      <trkpt lat="44.65412" lon="5.12131">
        <ele>430.968262</ele>
        <time>2015-06-21T10:14:41Z</time>
      </trkpt>
      <trkpt lat="44.65416" lon="5.12123">
        <ele>430.685272</ele>
        <time>2015-06-21T10:14:42Z</time>
      </trkpt>
      <trkpt lat="44.65458" lon="5.12019">
        <ele>432.900879</ele>
        <time>2015-06-21T10:14:54Z</time>
      </trkpt>
      <trkpt lat="44.65474" lon="5.11961">
        <ele>430.44101</ele>
        <time>2015-06-21T10:15:00Z</time>
      </trkpt>
      <trkpt lat="44.65478" lon="5.11951">
        <ele>430.569489</ele>
        <time>2015-06-21T10:15:01Z</time>
      </trkpt>
      <trkpt lat="44.65482" lon="5.11943">
        <ele>430.980682</ele>
        <time>2015-06-21T10:15:02Z</time>
      </trkpt>
      <trkpt lat="44.65492" lon="5.11928">
        <ele>432.071167</ele>
        <time>2015-06-21T10:15:04Z</time>
      </trkpt>
      <trkpt lat="44.65497" lon="5.1192">
        <ele>432.574219</ele>
        <time>2015-06-21T10:15:05Z</time>
      </trkpt>
      <trkpt lat="44.65502" lon="5.11912">
        <ele>432.709503</ele>
        <time>2015-06-21T10:15:06Z</time>
      </trkpt>
      <trkpt lat="44.65505" lon="5.11903">
        <ele>432.260468</ele>
        <time>2015-06-21T10:15:07Z</time>
      </trkpt>
      <trkpt lat="44.65507" lon="5.11892">
        <ele>431.302277</ele>
        <time>2015-06-21T10:15:08Z</time>
      </trkpt>
      <trkpt lat="44.65508" lon="5.11882">
        <ele>429.908356</ele>
        <time>2015-06-21T10:15:09Z</time>
      </trkpt>
      <trkpt lat="44.65508" lon="5.1187">
        <ele>428.239807</ele>
        <time>2015-06-21T10:15:10Z</time>
      </trkpt>
      <trkpt lat="44.65507" lon="5.11859">
        <ele>426.734436</ele>
        <time>2015-06-21T10:15:11Z</time>
      </trkpt>
      <trkpt lat="44.65504" lon="5.11849">
        <ele>425.839264</ele>
        <time>2015-06-21T10:15:12Z</time>
      </trkpt>
      <trkpt lat="44.65502" lon="5.11838">
        <ele>425.138428</ele>
        <time>2015-06-21T10:15:13Z</time>
      </trkpt>
      <trkpt lat="44.65501" lon="5.11827">
        <ele>424.58905</ele>
        <time>2015-06-21T10:15:14Z</time>
      </trkpt>
      <trkpt lat="44.65501" lon="5.11815">
        <ele>424.106537</ele>
        <time>2015-06-21T10:15:15Z</time>
      </trkpt>
      <trkpt lat="44.65502" lon="5.11803">
        <ele>423.581696</ele>
        <time>2015-06-21T10:15:16Z</time>
      </trkpt>
      <trkpt lat="44.65504" lon="5.11792">
        <ele>423.537201</ele>
        <time>2015-06-21T10:15:17Z</time>
      </trkpt>
      <trkpt lat="44.65507" lon="5.11782">
        <ele>423.546478</ele>
        <time>2015-06-21T10:15:18Z</time>
      </trkpt>
      <trkpt lat="44.6551" lon="5.11772">
        <ele>423.318665</ele>
        <time>2015-06-21T10:15:19Z</time>
      </trkpt>
      <trkpt lat="44.65531" lon="5.11706">
        <ele>420.653748</ele>
        <time>2015-06-21T10:15:26Z</time>
      </trkpt>
      <trkpt lat="44.6556" lon="5.11599">
        <ele>419.936584</ele>
        <time>2015-06-21T10:15:38Z</time>
      </trkpt>
      <trkpt lat="44.6559" lon="5.11448">
        <ele>419.941895</ele>
        <time>2015-06-21T10:15:54Z</time>
      </trkpt>
      <trkpt lat="44.65616" lon="5.1132">
        <ele>420.837616</ele>
        <time>2015-06-21T10:16:08Z</time>
      </trkpt>
      <trkpt lat="44.65646" lon="5.11223">
        <ele>417.374481</ele>
        <time>2015-06-21T10:16:19Z</time>
      </trkpt>
      <trkpt lat="44.65657" lon="5.11189">
        <ele>415.703278</ele>
        <time>2015-06-21T10:16:23Z</time>
      </trkpt>
      <trkpt lat="44.65692" lon="5.11066">
        <ele>408.506226</ele>
        <time>2015-06-21T10:16:37Z</time>
      </trkpt>
      <trkpt lat="44.65692" lon="5.11004">
        <ele>407.234985</ele>
        <time>2015-06-21T10:16:44Z</time>
      </trkpt>
      <trkpt lat="44.65692" lon="5.10996">
        <ele>407.105011</ele>
        <time>2015-06-21T10:16:45Z</time>
      </trkpt>
      <trkpt lat="44.65692" lon="5.10964">
        <ele>406.179993</ele>
        <time>2015-06-21T10:16:50Z</time>
      </trkpt>
      <trkpt lat="44.65694" lon="5.1096">
        <ele>406.07251</ele>
        <time>2015-06-21T10:16:51Z</time>
      </trkpt>
      <trkpt lat="44.65697" lon="5.10959">
        <ele>406.035004</ele>
        <time>2015-06-21T10:16:52Z</time>
      </trkpt>
      <trkpt lat="44.65701" lon="5.1096">
        <ele>406.059998</ele>
        <time>2015-06-21T10:16:53Z</time>
      </trkpt>
      <trkpt lat="44.65705" lon="5.10961">
        <ele>406.075012</ele>
        <time>2015-06-21T10:16:54Z</time>
      </trkpt>
      <trkpt lat="44.65707" lon="5.10961">
        <ele>406.070007</ele>
        <time>2015-06-21T10:16:55Z</time>
      </trkpt>
      <trkpt lat="44.65714" lon="5.10963">
        <ele>406.122498</ele>
        <time>2015-06-21T10:17:04Z</time>
      </trkpt>
      <trkpt lat="44.65712" lon="5.10962">
        <ele>406.109985</ele>
        <time>2015-06-21T10:17:27Z</time>
      </trkpt>
      <trkpt lat="44.65713" lon="5.10962">
        <ele>406.107513</ele>
        <time>2015-06-21T10:17:54Z</time>
      </trkpt>
      <trkpt lat="44.65714" lon="5.10962">
        <ele>406.100006</ele>
        <time>2015-06-21T10:18:26Z</time>
      </trkpt>
      <trkpt lat="44.65714" lon="5.10961">
        <ele>406.067505</ele>
        <time>2015-06-21T10:19:01Z</time>
      </trkpt>
      <trkpt lat="44.65713" lon="5.10962">
        <ele>406.109985</ele>
        <time>2015-06-21T10:19:18Z</time>
      </trkpt>
      <trkpt lat="44.65711" lon="5.10962">
        <ele>406.109985</ele>
        <time>2015-06-21T10:19:52Z</time>
      </trkpt>
      <trkpt lat="44.65713" lon="5.10963">
        <ele>406.11499</ele>
        <time>2015-06-21T10:20:05Z</time>
      </trkpt>
      <trkpt lat="44.65713" lon="5.10963">
        <ele>406.11499</ele>
        <time>2015-06-21T10:20:10Z</time>
      </trkpt>
      <trkpt lat="44.65713" lon="5.10963">
        <ele>406.11499</ele>
        <time>2015-06-21T10:20:13Z</time>
      </trkpt>
      <trkpt lat="44.65713" lon="5.10963">
        <ele>406.112488</ele>
        <time>2015-06-21T10:20:14Z</time>
      </trkpt>
      <trkpt lat="44.65714" lon="5.10962">
        <ele>406.107513</ele>
        <time>2015-06-21T10:20:17Z</time>
      </trkpt>
      <trkpt lat="44.65714" lon="5.10962">
        <ele>406.105011</ele>
        <time>2015-06-21T10:20:18Z</time>
      </trkpt>
      <trkpt lat="44.65715" lon="5.10963">
        <ele>406.122498</ele>
        <time>2015-06-21T10:20:22Z</time>
      </trkpt>
      <trkpt lat="44.65717" lon="5.10963">
        <ele>406.130005</ele>
        <time>2015-06-21T10:20:23Z</time>
      </trkpt>
      <trkpt lat="44.65715" lon="5.10957">
        <ele>406</ele>
        <time>2015-05-24T08:46:40Z</time>
      </trkpt>
      <trkpt lat="44.65749" lon="5.10967">
        <ele>407</ele>
        <time>2015-05-24T08:46:52Z</time>
      </trkpt>
      <trkpt lat="44.65764" lon="5.10965">
        <ele>408</ele>
        <time>2015-05-24T08:46:58Z</time>
      </trkpt>
      <trkpt lat="44.65771" lon="5.10957">
        <ele>409</ele>
        <time>2015-05-24T08:47:02Z</time>
      </trkpt>
      <trkpt lat="44.65778" lon="5.10948">
        <ele>409</ele>
        <time>2015-05-24T08:47:11Z</time>
      </trkpt>
      <trkpt lat="44.65778" lon="5.10948">
        <ele>409</ele>
        <time>2015-05-24T08:47:12Z</time>
      </trkpt>
      <trkpt lat="44.65778" lon="5.10947">
        <ele>409</ele>
        <time>2015-05-24T08:47:17Z</time>
      </trkpt>
      <trkpt lat="44.65778" lon="5.10947">
        <ele>409</ele>
        <time>2015-05-24T08:47:18Z</time>
      </trkpt>
      <trkpt lat="44.65778" lon="5.10947">
        <ele>409</ele>
        <time>2015-05-24T08:47:20Z</time>
      </trkpt>
      <trkpt lat="44.65778" lon="5.10947">
        <ele>409</ele>
        <time>2015-05-24T08:47:21Z</time>
      </trkpt>
      <trkpt lat="44.65778" lon="5.10947">
        <ele>409</ele>
        <time>2015-05-24T08:47:22Z</time>
      </trkpt>
      <trkpt lat="44.65778" lon="5.10947">
        <ele>409</ele>
        <time>2015-05-24T08:47:23Z</time>
      </trkpt>
      <trkpt lat="44.65778" lon="5.10947">
        <ele>409</ele>
        <time>2015-05-24T08:47:28Z</time>
      </trkpt>
      <trkpt lat="44.65778" lon="5.10947">
        <ele>409</ele>
        <time>2015-05-24T08:47:29Z</time>
      </trkpt>
      <trkpt lat="44.65778" lon="5.10947">
        <ele>409</ele>
        <time>2015-05-24T08:47:30Z</time>
      </trkpt>
      <trkpt lat="44.65778" lon="5.10947">
        <ele>409</ele>
        <time>2015-05-24T08:47:31Z</time>
      </trkpt>
      <trkpt lat="44.65778" lon="5.10947">
        <ele>409</ele>
        <time>2015-05-24T08:47:32Z</time>
      </trkpt>
      <trkpt lat="44.65778" lon="5.10947">
        <ele>409</ele>
        <time>2015-05-24T08:47:33Z</time>
      </trkpt>
      <trkpt lat="44.65781" lon="5.10941">
        <ele>409</ele>
        <time>2015-05-24T08:47:35Z</time>
      </trkpt>
      <trkpt lat="44.65788" lon="5.10922">
        <ele>410</ele>
        <time>2015-05-24T08:47:39Z</time>
      </trkpt>
      <trkpt lat="44.6579" lon="5.10917">
        <ele>410</ele>
        <time>2015-05-24T08:47:40Z</time>
      </trkpt>
      <trkpt lat="44.6581" lon="5.10853">
        <ele>410</ele>
        <time>2015-05-24T08:47:51Z</time>
      </trkpt>
      <trkpt lat="44.65811" lon="5.10847">
        <ele>410</ele>
        <time>2015-05-24T08:47:52Z</time>
      </trkpt>
      <trkpt lat="44.65813" lon="5.10841">
        <ele>410</ele>
        <time>2015-05-24T08:47:53Z</time>
      </trkpt>
      <trkpt lat="44.65814" lon="5.10836">
        <ele>410</ele>
        <time>2015-05-24T08:47:54Z</time>
      </trkpt>
      <trkpt lat="44.65816" lon="5.10831">
        <ele>410</ele>
        <time>2015-05-24T08:47:55Z</time>
      </trkpt>
      <trkpt lat="44.65817" lon="5.10828">
        <ele>410</ele>
        <time>2015-05-24T08:47:56Z</time>
      </trkpt>
      <trkpt lat="44.65834" lon="5.10773">
        <ele>410</ele>
        <time>2015-05-24T08:48:09Z</time>
      </trkpt>
      <trkpt lat="44.65851" lon="5.10723">
        <ele>411</ele>
        <time>2015-05-24T08:48:23Z</time>
      </trkpt>
      <trkpt lat="44.65857" lon="5.10684">
        <ele>410</ele>
        <time>2015-05-24T08:48:34Z</time>
      </trkpt>
      <trkpt lat="44.6587" lon="5.10636">
        <ele>411</ele>
        <time>2015-05-24T08:48:48Z</time>
      </trkpt>
      <trkpt lat="44.65889" lon="5.10611">
        <ele>414</ele>
        <time>2015-05-24T08:48:58Z</time>
      </trkpt>
      <trkpt lat="44.65907" lon="5.10582">
        <ele>415</ele>
        <time>2015-05-24T08:49:10Z</time>
      </trkpt>
      <trkpt lat="44.65929" lon="5.10549">
        <ele>416</ele>
        <time>2015-05-24T08:49:21Z</time>
      </trkpt>
      <trkpt lat="44.65945" lon="5.1052">
        <ele>416</ele>
        <time>2015-05-24T08:49:31Z</time>
      </trkpt>
      <trkpt lat="44.65946" lon="5.10518">
        <ele>416</ele>
        <time>2015-05-24T08:49:32Z</time>
      </trkpt>
      <trkpt lat="44.65947" lon="5.10515">
        <ele>416</ele>
        <time>2015-05-24T08:49:33Z</time>
      </trkpt>
      <trkpt lat="44.65949" lon="5.10509">
        <ele>415</ele>
        <time>2015-05-24T08:49:35Z</time>
      </trkpt>
      <trkpt lat="44.6595" lon="5.10506">
        <ele>415</ele>
        <time>2015-05-24T08:49:36Z</time>
      </trkpt>
      <trkpt lat="44.65953" lon="5.10501">
        <ele>415</ele>
        <time>2015-05-24T08:49:38Z</time>
      </trkpt>
      <trkpt lat="44.65971" lon="5.10474">
        <ele>418</ele>
        <time>2015-05-24T08:49:49Z</time>
      </trkpt>
      <trkpt lat="44.65988" lon="5.10449">
        <ele>420</ele>
        <time>2015-05-24T08:49:59Z</time>
      </trkpt>
      <trkpt lat="44.66005" lon="5.1043">
        <ele>423</ele>
        <time>2015-05-24T08:50:09Z</time>
      </trkpt>
      <trkpt lat="44.66009" lon="5.10422">
        <ele>424</ele>
        <time>2015-05-24T08:50:12Z</time>
      </trkpt>
      <trkpt lat="44.66013" lon="5.10414">
        <ele>426</ele>
        <time>2015-05-24T08:50:14Z</time>
      </trkpt>
      <trkpt lat="44.66014" lon="5.10411">
        <ele>426</ele>
        <time>2015-05-24T08:50:15Z</time>
      </trkpt>
      <trkpt lat="44.66016" lon="5.10406">
        <ele>426</ele>
        <time>2015-05-24T08:50:17Z</time>
      </trkpt>
      <trkpt lat="44.66018" lon="5.10403">
        <ele>427</ele>
        <time>2015-05-24T08:50:18Z</time>
      </trkpt>
      <trkpt lat="44.66019" lon="5.104">
        <ele>427</ele>
        <time>2015-05-24T08:50:19Z</time>
      </trkpt>
      <trkpt lat="44.66021" lon="5.10396">
        <ele>428</ele>
        <time>2015-05-24T08:50:20Z</time>
      </trkpt>
      <trkpt lat="44.66024" lon="5.10388">
        <ele>429</ele>
        <time>2015-05-24T08:50:23Z</time>
      </trkpt>
      <trkpt lat="44.66025" lon="5.10386">
        <ele>429</ele>
        <time>2015-05-24T08:50:24Z</time>
      </trkpt>
      <trkpt lat="44.66027" lon="5.10384">
        <ele>430</ele>
        <time>2015-05-24T08:50:25Z</time>
      </trkpt>
      <trkpt lat="44.66029" lon="5.10379">
        <ele>430</ele>
        <time>2015-05-24T08:50:27Z</time>
      </trkpt>
      <trkpt lat="44.6603" lon="5.10376">
        <ele>431</ele>
        <time>2015-05-24T08:50:28Z</time>
      </trkpt>
      <trkpt lat="44.66032" lon="5.10374">
        <ele>431</ele>
        <time>2015-05-24T08:50:29Z</time>
      </trkpt>
      <trkpt lat="44.66032" lon="5.10373">
        <ele>431</ele>
        <time>2015-05-24T08:50:30Z</time>
      </trkpt>
      <trkpt lat="44.66034" lon="5.10369">
        <ele>432</ele>
        <time>2015-05-24T08:50:31Z</time>
      </trkpt>
      <trkpt lat="44.66034" lon="5.10367">
        <ele>432</ele>
        <time>2015-05-24T08:50:32Z</time>
      </trkpt>
      <trkpt lat="44.66036" lon="5.10364">
        <ele>432</ele>
        <time>2015-05-24T08:50:33Z</time>
      </trkpt>
      <trkpt lat="44.66037" lon="5.10361">
        <ele>433</ele>
        <time>2015-05-24T08:50:34Z</time>
      </trkpt>
      <trkpt lat="44.6604" lon="5.10356">
        <ele>433</ele>
        <time>2015-05-24T08:50:36Z</time>
      </trkpt>
      <trkpt lat="44.66042" lon="5.10353">
        <ele>434</ele>
        <time>2015-05-24T08:50:37Z</time>
      </trkpt>
      <trkpt lat="44.66044" lon="5.1035">
        <ele>435</ele>
        <time>2015-05-24T08:50:38Z</time>
      </trkpt>
      <trkpt lat="44.66046" lon="5.10346">
        <ele>435</ele>
        <time>2015-05-24T08:50:39Z</time>
      </trkpt>
      <trkpt lat="44.66047" lon="5.10343">
        <ele>435</ele>
        <time>2015-05-24T08:50:40Z</time>
      </trkpt>
      <trkpt lat="44.66051" lon="5.10325">
        <ele>437</ele>
        <time>2015-05-24T08:50:46Z</time>
      </trkpt>
      <trkpt lat="44.66049" lon="5.10303">
        <ele>436</ele>
        <time>2015-05-24T08:50:53Z</time>
      </trkpt>
      <trkpt lat="44.66049" lon="5.103">
        <ele>436</ele>
        <time>2015-05-24T08:50:54Z</time>
      </trkpt>
      <trkpt lat="44.66049" lon="5.10297">
        <ele>436</ele>
        <time>2015-05-24T08:50:55Z</time>
      </trkpt>
      <trkpt lat="44.66047" lon="5.10289">
        <ele>435</ele>
        <time>2015-05-24T08:50:57Z</time>
      </trkpt>
      <trkpt lat="44.66047" lon="5.10286">
        <ele>435</ele>
        <time>2015-05-24T08:50:58Z</time>
      </trkpt>
      <trkpt lat="44.66044" lon="5.10272">
        <ele>434</ele>
        <time>2015-05-24T08:51:03Z</time>
      </trkpt>
      <trkpt lat="44.66043" lon="5.10269">
        <ele>433</ele>
        <time>2015-05-24T08:51:04Z</time>
      </trkpt>
      <trkpt lat="44.66042" lon="5.10266">
        <ele>433</ele>
        <time>2015-05-24T08:51:05Z</time>
      </trkpt>
      <trkpt lat="44.66044" lon="5.10232">
        <ele>431</ele>
        <time>2015-05-24T08:51:16Z</time>
      </trkpt>
      <trkpt lat="44.66045" lon="5.1023">
        <ele>431</ele>
        <time>2015-05-24T08:51:17Z</time>
      </trkpt>
      <trkpt lat="44.66065" lon="5.10205">
        <ele>434</ele>
        <time>2015-05-24T08:51:30Z</time>
      </trkpt>
      <trkpt lat="44.6609" lon="5.10195">
        <ele>438</ele>
        <time>2015-05-24T08:51:42Z</time>
      </trkpt>
      <trkpt lat="44.6611" lon="5.10193">
        <ele>442</ele>
        <time>2015-05-24T08:51:52Z</time>
      </trkpt>
      <trkpt lat="44.66138" lon="5.10182">
        <ele>445</ele>
        <time>2015-05-24T08:52:04Z</time>
      </trkpt>
      <trkpt lat="44.66165" lon="5.10173">
        <ele>449</ele>
        <time>2015-05-24T08:52:17Z</time>
      </trkpt>
      <trkpt lat="44.66178" lon="5.10171">
        <ele>451</ele>
        <time>2015-05-24T08:52:23Z</time>
      </trkpt>
      <trkpt lat="44.66182" lon="5.10169">
        <ele>451</ele>
        <time>2015-05-24T08:52:25Z</time>
      </trkpt>
      <trkpt lat="44.66184" lon="5.10168">
        <ele>451</ele>
        <time>2015-05-24T08:52:26Z</time>
      </trkpt>
      <trkpt lat="44.66186" lon="5.10165">
        <ele>451</ele>
        <time>2015-05-24T08:52:27Z</time>
      </trkpt>
      <trkpt lat="44.66191" lon="5.10158">
        <ele>451</ele>
        <time>2015-05-24T08:52:30Z</time>
      </trkpt>
      <trkpt lat="44.66212" lon="5.10136">
        <ele>450</ele>
        <time>2015-05-24T08:52:41Z</time>
      </trkpt>
      <trkpt lat="44.66218" lon="5.10131">
        <ele>450</ele>
        <time>2015-05-24T08:52:45Z</time>
      </trkpt>
      <trkpt lat="44.66235" lon="5.10116">
        <ele>449</ele>
        <time>2015-05-24T08:52:55Z</time>
      </trkpt>
      <trkpt lat="44.66241" lon="5.10109">
        <ele>449</ele>
        <time>2015-05-24T08:52:59Z</time>
      </trkpt>
      <trkpt lat="44.66263" lon="5.10099">
        <ele>450</ele>
        <time>2015-05-24T08:53:09Z</time>
      </trkpt>
      <trkpt lat="44.66265" lon="5.10098">
        <ele>450</ele>
        <time>2015-05-24T08:53:10Z</time>
      </trkpt>
      <trkpt lat="44.66268" lon="5.10097">
        <ele>450</ele>
        <time>2015-05-24T08:53:11Z</time>
      </trkpt>
      <trkpt lat="44.66293" lon="5.10075">
        <ele>450</ele>
        <time>2015-05-24T08:53:24Z</time>
      </trkpt>
      <trkpt lat="44.6631" lon="5.10062">
        <ele>450</ele>
        <time>2015-05-24T08:53:33Z</time>
      </trkpt>
      <trkpt lat="44.66323" lon="5.10065">
        <ele>453</ele>
        <time>2015-05-24T08:53:39Z</time>
      </trkpt>
      <trkpt lat="44.66326" lon="5.10067">
        <ele>453</ele>
        <time>2015-05-24T08:53:40Z</time>
      </trkpt>
      <trkpt lat="44.66351" lon="5.10083">
        <ele>459</ele>
        <time>2015-05-24T08:53:52Z</time>
      </trkpt>
      <trkpt lat="44.66376" lon="5.10077">
        <ele>461</ele>
        <time>2015-05-24T08:54:03Z</time>
      </trkpt>
      <trkpt lat="44.66382" lon="5.10072">
        <ele>461</ele>
        <time>2015-05-24T08:54:06Z</time>
      </trkpt>
      <trkpt lat="44.66401" lon="5.10031">
        <ele>459</ele>
        <time>2015-05-24T08:54:21Z</time>
      </trkpt>
      <trkpt lat="44.66424" lon="5.10001">
        <ele>459</ele>
        <time>2015-05-24T08:54:34Z</time>
      </trkpt>
      <trkpt lat="44.66447" lon="5.09973">
        <ele>461</ele>
        <time>2015-05-24T08:54:47Z</time>
      </trkpt>
      <trkpt lat="44.66459" lon="5.09954">
        <ele>462</ele>
        <time>2015-05-24T08:54:55Z</time>
      </trkpt>
      <trkpt lat="44.66461" lon="5.09953">
        <ele>462</ele>
        <time>2015-05-24T08:54:56Z</time>
      </trkpt>
      <trkpt lat="44.66463" lon="5.09953">
        <ele>462</ele>
        <time>2015-05-24T08:54:57Z</time>
      </trkpt>
      <trkpt lat="44.66465" lon="5.09955">
        <ele>463</ele>
        <time>2015-05-24T08:54:58Z</time>
      </trkpt>
      <trkpt lat="44.66468" lon="5.09962">
        <ele>464</ele>
        <time>2015-05-24T08:55:01Z</time>
      </trkpt>
      <trkpt lat="44.66468" lon="5.09966">
        <ele>464</ele>
        <time>2015-05-24T08:55:02Z</time>
      </trkpt>
      <trkpt lat="44.66467" lon="5.09969">
        <ele>464</ele>
        <time>2015-05-24T08:55:03Z</time>
      </trkpt>
      <trkpt lat="44.6645" lon="5.1">
        <ele>464</ele>
        <time>2015-05-24T08:55:15Z</time>
      </trkpt>
      <trkpt lat="44.66446" lon="5.10014">
        <ele>464</ele>
        <time>2015-05-24T08:55:20Z</time>
      </trkpt>
      <trkpt lat="44.66431" lon="5.10052">
        <ele>466</ele>
        <time>2015-05-24T08:55:35Z</time>
      </trkpt>
      <trkpt lat="44.66413" lon="5.10078">
        <ele>466</ele>
        <time>2015-05-24T08:55:46Z</time>
      </trkpt>
      <trkpt lat="44.66405" lon="5.10117">
        <ele>473</ele>
        <time>2015-05-24T08:55:59Z</time>
      </trkpt>
      <trkpt lat="44.66392" lon="5.10145">
        <ele>477</ele>
        <time>2015-05-24T08:56:12Z</time>
      </trkpt>
      <trkpt lat="44.66365" lon="5.10137">
        <ele>471</ele>
        <time>2015-05-24T08:56:25Z</time>
      </trkpt>
      <trkpt lat="44.66361" lon="5.10135">
        <ele>470</ele>
        <time>2015-05-24T08:56:27Z</time>
      </trkpt>
      <trkpt lat="44.66359" lon="5.10135">
        <ele>470</ele>
        <time>2015-05-24T08:56:28Z</time>
      </trkpt>
      <trkpt lat="44.66343" lon="5.1015">
        <ele>471</ele>
        <time>2015-05-24T08:56:40Z</time>
      </trkpt>
      <trkpt lat="44.66334" lon="5.10176">
        <ele>476</ele>
        <time>2015-05-24T08:56:50Z</time>
      </trkpt>
      <trkpt lat="44.66312" lon="5.10198">
        <ele>478</ele>
        <time>2015-05-24T08:57:04Z</time>
      </trkpt>
      <trkpt lat="44.66284" lon="5.10226">
        <ele>481</ele>
        <time>2015-05-24T08:57:19Z</time>
      </trkpt>
      <trkpt lat="44.66264" lon="5.10236">
        <ele>480</ele>
        <time>2015-05-24T08:57:29Z</time>
      </trkpt>
      <trkpt lat="44.66262" lon="5.10238">
        <ele>480</ele>
        <time>2015-05-24T08:57:30Z</time>
      </trkpt>
      <trkpt lat="44.6626" lon="5.1024">
        <ele>480</ele>
        <time>2015-05-24T08:57:31Z</time>
      </trkpt>
      <trkpt lat="44.66258" lon="5.1024">
        <ele>480</ele>
        <time>2015-05-24T08:57:32Z</time>
      </trkpt>
      <trkpt lat="44.66246" lon="5.10274">
        <ele>484</ele>
        <time>2015-05-24T08:57:43Z</time>
      </trkpt>
      <trkpt lat="44.66237" lon="5.10308">
        <ele>487</ele>
        <time>2015-05-24T08:57:55Z</time>
      </trkpt>
      <trkpt lat="44.66224" lon="5.10344">
        <ele>489</ele>
        <time>2015-05-24T08:58:07Z</time>
      </trkpt>
      <trkpt lat="44.6621" lon="5.10382">
        <ele>490</ele>
        <time>2015-05-24T08:58:19Z</time>
      </trkpt>
      <trkpt lat="44.66195" lon="5.10423">
        <ele>488</ele>
        <time>2015-05-24T08:58:32Z</time>
      </trkpt>
      <trkpt lat="44.66209" lon="5.10465">
        <ele>498</ele>
        <time>2015-05-24T08:58:45Z</time>
      </trkpt>
      <trkpt lat="44.66208" lon="5.10481">
        <ele>500</ele>
        <time>2015-05-24T08:58:50Z</time>
      </trkpt>
      <trkpt lat="44.66205" lon="5.10485">
        <ele>499</ele>
        <time>2015-05-24T08:58:52Z</time>
      </trkpt>
      <trkpt lat="44.66203" lon="5.10487">
        <ele>499</ele>
        <time>2015-05-24T08:58:53Z</time>
      </trkpt>
      <trkpt lat="44.66177" lon="5.10518">
        <ele>492</ele>
        <time>2015-05-24T08:59:06Z</time>
      </trkpt>
      <trkpt lat="44.6616" lon="5.10552">
        <ele>489</ele>
        <time>2015-05-24T08:59:19Z</time>
      </trkpt>
      <trkpt lat="44.66171" lon="5.10585">
        <ele>497</ele>
        <time>2015-05-24T08:59:29Z</time>
      </trkpt>
      <trkpt lat="44.66178" lon="5.10626">
        <ele>501</ele>
        <time>2015-05-24T08:59:41Z</time>
      </trkpt>
      <trkpt lat="44.66176" lon="5.10662">
        <ele>500</ele>
        <time>2015-05-24T08:59:53Z</time>
      </trkpt>
      <trkpt lat="44.66172" lon="5.10703">
        <ele>499</ele>
        <time>2015-05-24T09:00:05Z</time>
      </trkpt>
      <trkpt lat="44.66164" lon="5.10746">
        <ele>502</ele>
        <time>2015-05-24T09:00:16Z</time>
      </trkpt>
      <trkpt lat="44.66145" lon="5.10784">
        <ele>503</ele>
        <time>2015-05-24T09:00:29Z</time>
      </trkpt>
      <trkpt lat="44.66116" lon="5.10804">
        <ele>499</ele>
        <time>2015-05-24T09:00:41Z</time>
      </trkpt>
      <trkpt lat="44.66086" lon="5.10813">
        <ele>491</ele>
        <time>2015-05-24T09:00:53Z</time>
      </trkpt>
      <trkpt lat="44.66071" lon="5.10845">
        <ele>489</ele>
        <time>2015-05-24T09:01:05Z</time>
      </trkpt>
      <trkpt lat="44.66086" lon="5.10869">
        <ele>498</ele>
        <time>2015-05-24T09:01:16Z</time>
      </trkpt>
      <trkpt lat="44.66089" lon="5.10876">
        <ele>500</ele>
        <time>2015-05-24T09:01:19Z</time>
      </trkpt>
      <trkpt lat="44.66089" lon="5.10878">
        <ele>500</ele>
        <time>2015-05-24T09:01:20Z</time>
      </trkpt>
      <trkpt lat="44.6609" lon="5.10881">
        <ele>501</ele>
        <time>2015-05-24T09:01:21Z</time>
      </trkpt>
      <trkpt lat="44.66091" lon="5.10884">
        <ele>502</ele>
        <time>2015-05-24T09:01:22Z</time>
      </trkpt>
      <trkpt lat="44.66091" lon="5.10887">
        <ele>502</ele>
        <time>2015-05-24T09:01:23Z</time>
      </trkpt>
      <trkpt lat="44.66091" lon="5.1089">
        <ele>502</ele>
        <time>2015-05-24T09:01:24Z</time>
      </trkpt>
      <trkpt lat="44.66091" lon="5.10893">
        <ele>502</ele>
        <time>2015-05-24T09:01:25Z</time>
      </trkpt>
      <trkpt lat="44.66091" lon="5.10895">
        <ele>502</ele>
        <time>2015-05-24T09:01:26Z</time>
      </trkpt>
      <trkpt lat="44.66092" lon="5.10899">
        <ele>503</ele>
        <time>2015-05-24T09:01:27Z</time>
      </trkpt>
      <trkpt lat="44.66093" lon="5.10911">
        <ele>503</ele>
        <time>2015-05-24T09:01:31Z</time>
      </trkpt>
      <trkpt lat="44.66092" lon="5.10914">
        <ele>503</ele>
        <time>2015-05-24T09:01:32Z</time>
      </trkpt>
      <trkpt lat="44.66092" lon="5.10917">
        <ele>503</ele>
        <time>2015-05-24T09:01:33Z</time>
      </trkpt>
      <trkpt lat="44.66092" lon="5.1092">
        <ele>503</ele>
        <time>2015-05-24T09:01:34Z</time>
      </trkpt>
      <trkpt lat="44.66092" lon="5.10923">
        <ele>503</ele>
        <time>2015-05-24T09:01:35Z</time>
      </trkpt>
      <trkpt lat="44.66093" lon="5.10944">
        <ele>505</ele>
        <time>2015-05-24T09:01:41Z</time>
      </trkpt>
      <trkpt lat="44.66072" lon="5.10968">
        <ele>502</ele>
        <time>2015-05-24T09:01:53Z</time>
      </trkpt>
      <trkpt lat="44.66045" lon="5.10993">
        <ele>497</ele>
        <time>2015-05-24T09:02:06Z</time>
      </trkpt>
      <trkpt lat="44.66027" lon="5.11038">
        <ele>498</ele>
        <time>2015-05-24T09:02:21Z</time>
      </trkpt>
      <trkpt lat="44.66034" lon="5.11075">
        <ele>506</ele>
        <time>2015-05-24T09:02:33Z</time>
      </trkpt>
      <trkpt lat="44.66035" lon="5.11078">
        <ele>508</ele>
        <time>2015-05-24T09:02:34Z</time>
      </trkpt>
      <trkpt lat="44.66036" lon="5.11081">
        <ele>509</ele>
        <time>2015-05-24T09:02:35Z</time>
      </trkpt>
      <trkpt lat="44.66038" lon="5.11101">
        <ele>514</ele>
        <time>2015-05-24T09:02:42Z</time>
      </trkpt>
      <trkpt lat="44.66037" lon="5.11104">
        <ele>514</ele>
        <time>2015-05-24T09:02:43Z</time>
      </trkpt>
      <trkpt lat="44.66036" lon="5.11107">
        <ele>514</ele>
        <time>2015-05-24T09:02:44Z</time>
      </trkpt>
      <trkpt lat="44.66034" lon="5.11109">
        <ele>514</ele>
        <time>2015-05-24T09:02:45Z</time>
      </trkpt>
      <trkpt lat="44.66032" lon="5.11111">
        <ele>513</ele>
        <time>2015-05-24T09:02:46Z</time>
      </trkpt>
      <trkpt lat="44.66031" lon="5.11113">
        <ele>513</ele>
        <time>2015-05-24T09:02:47Z</time>
      </trkpt>
      <trkpt lat="44.66028" lon="5.11114">
        <ele>513</ele>
        <time>2015-05-24T09:02:48Z</time>
      </trkpt>
      <trkpt lat="44.66026" lon="5.11116">
        <ele>512</ele>
        <time>2015-05-24T09:02:49Z</time>
      </trkpt>
      <trkpt lat="44.66024" lon="5.11117">
        <ele>512</ele>
        <time>2015-05-24T09:02:50Z</time>
      </trkpt>
      <trkpt lat="44.66012" lon="5.11125">
        <ele>509</ele>
        <time>2015-05-24T09:02:56Z</time>
      </trkpt>
      <trkpt lat="44.66011" lon="5.11126">
        <ele>509</ele>
        <time>2015-05-24T09:02:57Z</time>
      </trkpt>
      <trkpt lat="44.66009" lon="5.11128">
        <ele>509</ele>
        <time>2015-05-24T09:02:58Z</time>
      </trkpt>
      <trkpt lat="44.66007" lon="5.11129">
        <ele>509</ele>
        <time>2015-05-24T09:02:59Z</time>
      </trkpt>
      <trkpt lat="44.66004" lon="5.1113">
        <ele>508</ele>
        <time>2015-05-24T09:03:00Z</time>
      </trkpt>
      <trkpt lat="44.65976" lon="5.11141">
        <ele>502</ele>
        <time>2015-05-24T09:03:13Z</time>
      </trkpt>
      <trkpt lat="44.65961" lon="5.11149">
        <ele>499</ele>
        <time>2015-05-24T09:03:20Z</time>
      </trkpt>
      <trkpt lat="44.6596" lon="5.11152">
        <ele>499</ele>
        <time>2015-05-24T09:03:21Z</time>
      </trkpt>
      <trkpt lat="44.65959" lon="5.11156">
        <ele>499</ele>
        <time>2015-05-24T09:03:22Z</time>
      </trkpt>
      <trkpt lat="44.65958" lon="5.11159">
        <ele>499</ele>
        <time>2015-05-24T09:03:23Z</time>
      </trkpt>
      <trkpt lat="44.65958" lon="5.11163">
        <ele>500</ele>
        <time>2015-05-24T09:03:24Z</time>
      </trkpt>
      <trkpt lat="44.65959" lon="5.11166">
        <ele>500</ele>
        <time>2015-05-24T09:03:25Z</time>
      </trkpt>
      <trkpt lat="44.6596" lon="5.11169">
        <ele>501</ele>
        <time>2015-05-24T09:03:26Z</time>
      </trkpt>
      <trkpt lat="44.65961" lon="5.11172">
        <ele>502</ele>
        <time>2015-05-24T09:03:27Z</time>
      </trkpt>
      <trkpt lat="44.65963" lon="5.11175">
        <ele>503</ele>
        <time>2015-05-24T09:03:28Z</time>
      </trkpt>
      <trkpt lat="44.65964" lon="5.11177">
        <ele>504</ele>
        <time>2015-05-24T09:03:29Z</time>
      </trkpt>
      <trkpt lat="44.65966" lon="5.11179">
        <ele>505</ele>
        <time>2015-05-24T09:03:30Z</time>
      </trkpt>
      <trkpt lat="44.65968" lon="5.11181">
        <ele>506</ele>
        <time>2015-05-24T09:03:31Z</time>
      </trkpt>
      <trkpt lat="44.65969" lon="5.11183">
        <ele>507</ele>
        <time>2015-05-24T09:03:32Z</time>
      </trkpt>
      <trkpt lat="44.65983" lon="5.11211">
        <ele>513</ele>
        <time>2015-05-24T09:03:43Z</time>
      </trkpt>
      <trkpt lat="44.65996" lon="5.11248">
        <ele>515</ele>
        <time>2015-05-24T09:03:56Z</time>
      </trkpt>
      <trkpt lat="44.6601" lon="5.11283">
        <ele>521</ele>
        <time>2015-05-24T09:04:08Z</time>
      </trkpt>
      <trkpt lat="44.66024" lon="5.11319">
        <ele>524</ele>
        <time>2015-05-24T09:04:20Z</time>
      </trkpt>
      <trkpt lat="44.66007" lon="5.11349">
        <ele>520</ele>
        <time>2015-05-24T09:04:31Z</time>
      </trkpt>
      <trkpt lat="44.65987" lon="5.11385">
        <ele>517</ele>
        <time>2015-05-24T09:04:43Z</time>
      </trkpt>
      <trkpt lat="44.65988" lon="5.1142">
        <ele>526</ele>
        <time>2015-05-24T09:04:54Z</time>
      </trkpt>
      <trkpt lat="44.65986" lon="5.11421">
        <ele>525</ele>
        <time>2015-05-24T09:04:55Z</time>
      </trkpt>
      <trkpt lat="44.65984" lon="5.11422">
        <ele>524</ele>
        <time>2015-05-24T09:04:56Z</time>
      </trkpt>
      <trkpt lat="44.65983" lon="5.11422">
        <ele>524</ele>
        <time>2015-05-24T09:04:57Z</time>
      </trkpt>
      <trkpt lat="44.65981" lon="5.11422">
        <ele>523</ele>
        <time>2015-05-24T09:04:58Z</time>
      </trkpt>
      <trkpt lat="44.65979" lon="5.11421">
        <ele>523</ele>
        <time>2015-05-24T09:04:59Z</time>
      </trkpt>
      <trkpt lat="44.65942" lon="5.11413">
        <ele>516</ele>
        <time>2015-05-24T09:05:11Z</time>
      </trkpt>
      <trkpt lat="44.65916" lon="5.11427">
        <ele>514</ele>
        <time>2015-05-24T09:05:22Z</time>
      </trkpt>
      <trkpt lat="44.65911" lon="5.11465">
        <ele>517</ele>
        <time>2015-05-24T09:05:34Z</time>
      </trkpt>
      <trkpt lat="44.6592" lon="5.11497">
        <ele>521</ele>
        <time>2015-05-24T09:05:44Z</time>
      </trkpt>
      <trkpt lat="44.65938" lon="5.11525">
        <ele>530</ele>
        <time>2015-05-24T09:05:55Z</time>
      </trkpt>
      <trkpt lat="44.65944" lon="5.11539">
        <ele>534</ele>
        <time>2015-05-24T09:06:00Z</time>
      </trkpt>
      <trkpt lat="44.65942" lon="5.11559">
        <ele>534</ele>
        <time>2015-05-24T09:06:07Z</time>
      </trkpt>
      <trkpt lat="44.65936" lon="5.11568">
        <ele>531</ele>
        <time>2015-05-24T09:06:11Z</time>
      </trkpt>
      <trkpt lat="44.65911" lon="5.1159">
        <ele>531</ele>
        <time>2015-05-24T09:06:24Z</time>
      </trkpt>
      <trkpt lat="44.6589" lon="5.11619">
        <ele>536</ele>
        <time>2015-05-24T09:06:38Z</time>
      </trkpt>
      <trkpt lat="44.6587" lon="5.11637">
        <ele>535</ele>
        <time>2015-05-24T09:06:50Z</time>
      </trkpt>
      <trkpt lat="44.65847" lon="5.11658">
        <ele>534</ele>
        <time>2015-05-24T09:07:03Z</time>
      </trkpt>
      <trkpt lat="44.65846" lon="5.1166">
        <ele>534</ele>
        <time>2015-05-24T09:07:04Z</time>
      </trkpt>
      <trkpt lat="44.65822" lon="5.11689">
        <ele>534</ele>
        <time>2015-05-24T09:07:20Z</time>
      </trkpt>
      <trkpt lat="44.65804" lon="5.11719">
        <ele>536</ele>
        <time>2015-05-24T09:07:35Z</time>
      </trkpt>
      <trkpt lat="44.6579" lon="5.11749">
        <ele>539</ele>
        <time>2015-05-24T09:07:49Z</time>
      </trkpt>
      <trkpt lat="44.65789" lon="5.11787">
        <ele>540</ele>
        <time>2015-05-24T09:08:03Z</time>
      </trkpt>
      <trkpt lat="44.65802" lon="5.11814">
        <ele>551</ele>
        <time>2015-05-24T09:08:17Z</time>
      </trkpt>
      <trkpt lat="44.65811" lon="5.11843">
        <ele>565</ele>
        <time>2015-05-24T09:08:30Z</time>
      </trkpt>
      <trkpt lat="44.65797" lon="5.11873">
        <ele>564</ele>
        <time>2015-05-24T09:08:43Z</time>
      </trkpt>
      <trkpt lat="44.65776" lon="5.11882">
        <ele>556</ele>
        <time>2015-05-24T09:08:55Z</time>
      </trkpt>
      <trkpt lat="44.65757" lon="5.11908">
        <ele>551</ele>
        <time>2015-05-24T09:09:11Z</time>
      </trkpt>
      <trkpt lat="44.65757" lon="5.11927">
        <ele>555</ele>
        <time>2015-05-24T09:09:19Z</time>
      </trkpt>
      <trkpt lat="44.65757" lon="5.11929">
        <ele>555</ele>
        <time>2015-05-24T09:09:20Z</time>
      </trkpt>
      <trkpt lat="44.65757" lon="5.11932">
        <ele>556</ele>
        <time>2015-05-24T09:09:21Z</time>
      </trkpt>
      <trkpt lat="44.65758" lon="5.11934">
        <ele>557</ele>
        <time>2015-05-24T09:09:22Z</time>
      </trkpt>
      <trkpt lat="44.65759" lon="5.11936">
        <ele>558</ele>
        <time>2015-05-24T09:09:23Z</time>
      </trkpt>
      <trkpt lat="44.65761" lon="5.11937">
        <ele>559</ele>
        <time>2015-05-24T09:09:24Z</time>
      </trkpt>
      <trkpt lat="44.65762" lon="5.1194">
        <ele>560</ele>
        <time>2015-05-24T09:09:25Z</time>
      </trkpt>
      <trkpt lat="44.65762" lon="5.11942">
        <ele>560</ele>
        <time>2015-05-24T09:09:26Z</time>
      </trkpt>
      <trkpt lat="44.65763" lon="5.11945">
        <ele>561</ele>
        <time>2015-05-24T09:09:27Z</time>
      </trkpt>
      <trkpt lat="44.65764" lon="5.11947">
        <ele>561</ele>
        <time>2015-05-24T09:09:28Z</time>
      </trkpt>
      <trkpt lat="44.65778" lon="5.11971">
        <ele>568</ele>
        <time>2015-05-24T09:09:42Z</time>
      </trkpt>
      <trkpt lat="44.6578" lon="5.11972">
        <ele>569</ele>
        <time>2015-05-24T09:09:43Z</time>
      </trkpt>
      <trkpt lat="44.65781" lon="5.11973">
        <ele>569</ele>
        <time>2015-05-24T09:09:44Z</time>
      </trkpt>
      <trkpt lat="44.65783" lon="5.11974">
        <ele>570</ele>
        <time>2015-05-24T09:09:45Z</time>
      </trkpt>
      <trkpt lat="44.65784" lon="5.11975">
        <ele>571</ele>
        <time>2015-05-24T09:09:46Z</time>
      </trkpt>
      <trkpt lat="44.65785" lon="5.11976">
        <ele>572</ele>
        <time>2015-05-24T09:09:47Z</time>
      </trkpt>
      <trkpt lat="44.65793" lon="5.11981">
        <ele>576</ele>
        <time>2015-05-24T09:09:52Z</time>
      </trkpt>
      <trkpt lat="44.65794" lon="5.11983">
        <ele>576</ele>
        <time>2015-05-24T09:09:53Z</time>
      </trkpt>
      <trkpt lat="44.65788" lon="5.12013">
        <ele>573</ele>
        <time>2015-05-24T09:10:07Z</time>
      </trkpt>
      <trkpt lat="44.65781" lon="5.12023">
        <ele>574</ele>
        <time>2015-05-24T09:10:12Z</time>
      </trkpt>
      <trkpt lat="44.6578" lon="5.12024">
        <ele>574</ele>
        <time>2015-05-24T09:10:13Z</time>
      </trkpt>
      <trkpt lat="44.65779" lon="5.12026">
        <ele>574</ele>
        <time>2015-05-24T09:10:14Z</time>
      </trkpt>
      <trkpt lat="44.65777" lon="5.12028">
        <ele>574</ele>
        <time>2015-05-24T09:10:15Z</time>
      </trkpt>
      <trkpt lat="44.65776" lon="5.12029">
        <ele>574</ele>
        <time>2015-05-24T09:10:16Z</time>
      </trkpt>
      <trkpt lat="44.65774" lon="5.1203">
        <ele>573</ele>
        <time>2015-05-24T09:10:17Z</time>
      </trkpt>
      <trkpt lat="44.65756" lon="5.12049">
        <ele>572</ele>
        <time>2015-05-24T09:10:30Z</time>
      </trkpt>
      <trkpt lat="44.65742" lon="5.12073">
        <ele>573</ele>
        <time>2015-05-24T09:10:42Z</time>
      </trkpt>
      <trkpt lat="44.65743" lon="5.12073">
        <ele>573</ele>
        <time>2015-05-24T09:10:53Z</time>
      </trkpt>
      <trkpt lat="44.65741" lon="5.12074">
        <ele>572</ele>
        <time>2015-05-24T09:11:11Z</time>
      </trkpt>
      <trkpt lat="44.65733" lon="5.12091">
        <ele>571</ele>
        <time>2015-05-24T09:11:23Z</time>
      </trkpt>
      <trkpt lat="44.65733" lon="5.12092">
        <ele>571</ele>
        <time>2015-05-24T09:11:43Z</time>
      </trkpt>
      <trkpt lat="44.65732" lon="5.12106">
        <ele>573</ele>
        <time>2015-05-24T09:12:03Z</time>
      </trkpt>
      <trkpt lat="44.65733" lon="5.12111">
        <ele>574</ele>
        <time>2015-05-24T09:12:05Z</time>
      </trkpt>
      <trkpt lat="44.65733" lon="5.12114">
        <ele>575</ele>
        <time>2015-05-24T09:12:06Z</time>
      </trkpt>
      <trkpt lat="44.65734" lon="5.12116">
        <ele>575</ele>
        <time>2015-05-24T09:12:07Z</time>
      </trkpt>
      <trkpt lat="44.65735" lon="5.12119">
        <ele>576</ele>
        <time>2015-05-24T09:12:08Z</time>
      </trkpt>
      <trkpt lat="44.65735" lon="5.12121">
        <ele>577</ele>
        <time>2015-05-24T09:12:09Z</time>
      </trkpt>
      <trkpt lat="44.65736" lon="5.12123">
        <ele>578</ele>
        <time>2015-05-24T09:12:10Z</time>
      </trkpt>
      <trkpt lat="44.65737" lon="5.12126">
        <ele>579</ele>
        <time>2015-05-24T09:12:11Z</time>
      </trkpt>
      <trkpt lat="44.6575" lon="5.12156">
        <ele>588</ele>
        <time>2015-05-24T09:12:25Z</time>
      </trkpt>
      <trkpt lat="44.65752" lon="5.12188">
        <ele>590</ele>
        <time>2015-05-24T09:12:38Z</time>
      </trkpt>
      <trkpt lat="44.65738" lon="5.12215">
        <ele>586</ele>
        <time>2015-05-24T09:12:50Z</time>
      </trkpt>
      <trkpt lat="44.65736" lon="5.12221">
        <ele>586</ele>
        <time>2015-05-24T09:12:53Z</time>
      </trkpt>
      <trkpt lat="44.65732" lon="5.12233">
        <ele>587</ele>
        <time>2015-05-24T09:12:58Z</time>
      </trkpt>
      <trkpt lat="44.65731" lon="5.12235">
        <ele>587</ele>
        <time>2015-05-24T09:12:59Z</time>
      </trkpt>
      <trkpt lat="44.6573" lon="5.12237">
        <ele>586</ele>
        <time>2015-05-24T09:13:00Z</time>
      </trkpt>
      <trkpt lat="44.65724" lon="5.12251">
        <ele>586</ele>
        <time>2015-05-24T09:13:06Z</time>
      </trkpt>
      <trkpt lat="44.65723" lon="5.12253">
        <ele>586</ele>
        <time>2015-05-24T09:13:07Z</time>
      </trkpt>
      <trkpt lat="44.65721" lon="5.1226">
        <ele>584</ele>
        <time>2015-05-24T09:13:10Z</time>
      </trkpt>
      <trkpt lat="44.6572" lon="5.12267">
        <ele>584</ele>
        <time>2015-05-24T09:13:13Z</time>
      </trkpt>
      <trkpt lat="44.65721" lon="5.12269">
        <ele>584</ele>
        <time>2015-05-24T09:13:14Z</time>
      </trkpt>
      <trkpt lat="44.65721" lon="5.12273">
        <ele>584</ele>
        <time>2015-05-24T09:13:16Z</time>
      </trkpt>
      <trkpt lat="44.65731" lon="5.12302">
        <ele>587</ele>
        <time>2015-05-24T09:13:29Z</time>
      </trkpt>
      <trkpt lat="44.65733" lon="5.12306">
        <ele>588</ele>
        <time>2015-05-24T09:13:31Z</time>
      </trkpt>
      <trkpt lat="44.65735" lon="5.1231">
        <ele>589</ele>
        <time>2015-05-24T09:13:33Z</time>
      </trkpt>
      <trkpt lat="44.65736" lon="5.12312">
        <ele>589</ele>
        <time>2015-05-24T09:13:34Z</time>
      </trkpt>
      <trkpt lat="44.65737" lon="5.12314">
        <ele>590</ele>
        <time>2015-05-24T09:13:35Z</time>
      </trkpt>
      <trkpt lat="44.65738" lon="5.12316">
        <ele>590</ele>
        <time>2015-05-24T09:13:36Z</time>
      </trkpt>
      <trkpt lat="44.65739" lon="5.12318">
        <ele>591</ele>
        <time>2015-05-24T09:13:37Z</time>
      </trkpt>
      <trkpt lat="44.65739" lon="5.1232">
        <ele>591</ele>
        <time>2015-05-24T09:13:38Z</time>
      </trkpt>
      <trkpt lat="44.6574" lon="5.12322">
        <ele>592</ele>
        <time>2015-05-24T09:13:39Z</time>
      </trkpt>
      <trkpt lat="44.65741" lon="5.12324">
        <ele>592</ele>
        <time>2015-05-24T09:13:40Z</time>
      </trkpt>
      <trkpt lat="44.65742" lon="5.12326">
        <ele>593</ele>
        <time>2015-05-24T09:13:41Z</time>
      </trkpt>
      <trkpt lat="44.65745" lon="5.12334">
        <ele>594</ele>
        <time>2015-05-24T09:13:45Z</time>
      </trkpt>
      <trkpt lat="44.65746" lon="5.12336">
        <ele>595</ele>
        <time>2015-05-24T09:13:46Z</time>
      </trkpt>
      <trkpt lat="44.65747" lon="5.12338">
        <ele>595</ele>
        <time>2015-05-24T09:13:47Z</time>
      </trkpt>
      <trkpt lat="44.65749" lon="5.12339">
        <ele>596</ele>
        <time>2015-05-24T09:13:48Z</time>
      </trkpt>
      <trkpt lat="44.6575" lon="5.12341">
        <ele>597</ele>
        <time>2015-05-24T09:13:49Z</time>
      </trkpt>
      <trkpt lat="44.65751" lon="5.12343">
        <ele>597</ele>
        <time>2015-05-24T09:13:50Z</time>
      </trkpt>
      <trkpt lat="44.65752" lon="5.12345">
        <ele>598</ele>
        <time>2015-05-24T09:13:51Z</time>
      </trkpt>
      <trkpt lat="44.65753" lon="5.12347">
        <ele>598</ele>
        <time>2015-05-24T09:13:52Z</time>
      </trkpt>
      <trkpt lat="44.65754" lon="5.12349">
        <ele>599</ele>
        <time>2015-05-24T09:13:53Z</time>
      </trkpt>
      <trkpt lat="44.65755" lon="5.12351">
        <ele>600</ele>
        <time>2015-05-24T09:13:54Z</time>
      </trkpt>
      <trkpt lat="44.65765" lon="5.12361">
        <ele>606</ele>
        <time>2015-05-24T09:14:01Z</time>
      </trkpt>
      <trkpt lat="44.65766" lon="5.12362">
        <ele>607</ele>
        <time>2015-05-24T09:14:02Z</time>
      </trkpt>
      <trkpt lat="44.65768" lon="5.12364">
        <ele>607</ele>
        <time>2015-05-24T09:14:03Z</time>
      </trkpt>
      <trkpt lat="44.65769" lon="5.12365">
        <ele>608</ele>
        <time>2015-05-24T09:14:04Z</time>
      </trkpt>
      <trkpt lat="44.6577" lon="5.12366">
        <ele>609</ele>
        <time>2015-05-24T09:14:05Z</time>
      </trkpt>
      <trkpt lat="44.65771" lon="5.12368">
        <ele>609</ele>
        <time>2015-05-24T09:14:06Z</time>
      </trkpt>
      <trkpt lat="44.65766" lon="5.12395">
        <ele>610</ele>
        <time>2015-05-24T09:14:18Z</time>
      </trkpt>
      <trkpt lat="44.65743" lon="5.12415">
        <ele>605</ele>
        <time>2015-05-24T09:14:32Z</time>
      </trkpt>
      <trkpt lat="44.65723" lon="5.12447">
        <ele>609</ele>
        <time>2015-05-24T09:14:46Z</time>
      </trkpt>
      <trkpt lat="44.65704" lon="5.12466">
        <ele>608</ele>
        <time>2015-05-24T09:14:59Z</time>
      </trkpt>
      <trkpt lat="44.65687" lon="5.12489">
        <ele>607</ele>
        <time>2015-05-24T09:15:12Z</time>
      </trkpt>
      <trkpt lat="44.65686" lon="5.12491">
        <ele>606</ele>
        <time>2015-05-24T09:15:13Z</time>
      </trkpt>
      <trkpt lat="44.65684" lon="5.12492">
        <ele>606</ele>
        <time>2015-05-24T09:15:14Z</time>
      </trkpt>
      <trkpt lat="44.65682" lon="5.12494">
        <ele>606</ele>
        <time>2015-05-24T09:15:15Z</time>
      </trkpt>
      <trkpt lat="44.65681" lon="5.12496">
        <ele>606</ele>
        <time>2015-05-24T09:15:16Z</time>
      </trkpt>
      <trkpt lat="44.65681" lon="5.12497">
        <ele>606</ele>
        <time>2015-05-24T09:15:17Z</time>
      </trkpt>
      <trkpt lat="44.6568" lon="5.12499">
        <ele>606</ele>
        <time>2015-05-24T09:15:18Z</time>
      </trkpt>
      <trkpt lat="44.65678" lon="5.12503">
        <ele>606</ele>
        <time>2015-05-24T09:15:20Z</time>
      </trkpt>
      <trkpt lat="44.65677" lon="5.12506">
        <ele>605</ele>
        <time>2015-05-24T09:15:21Z</time>
      </trkpt>
      <trkpt lat="44.65676" lon="5.12508">
        <ele>605</ele>
        <time>2015-05-24T09:15:22Z</time>
      </trkpt>
      <trkpt lat="44.65675" lon="5.12511">
        <ele>605</ele>
        <time>2015-05-24T09:15:23Z</time>
      </trkpt>
      <trkpt lat="44.65675" lon="5.12514">
        <ele>605</ele>
        <time>2015-05-24T09:15:24Z</time>
      </trkpt>
      <trkpt lat="44.65673" lon="5.12561">
        <ele>605</ele>
        <time>2015-05-24T09:15:39Z</time>
      </trkpt>
      <trkpt lat="44.65673" lon="5.12563">
        <ele>605</ele>
        <time>2015-05-24T09:15:40Z</time>
      </trkpt>
      <trkpt lat="44.65674" lon="5.12566">
        <ele>606</ele>
        <time>2015-05-24T09:15:41Z</time>
      </trkpt>
      <trkpt lat="44.65674" lon="5.1257">
        <ele>605</ele>
        <time>2015-05-24T09:15:42Z</time>
      </trkpt>
      <trkpt lat="44.65683" lon="5.12613">
        <ele>606</ele>
        <time>2015-05-24T09:15:56Z</time>
      </trkpt>
      <trkpt lat="44.65698" lon="5.12652">
        <ele>610</ele>
        <time>2015-05-24T09:16:09Z</time>
      </trkpt>
      <trkpt lat="44.65714" lon="5.12684">
        <ele>613</ele>
        <time>2015-05-24T09:16:21Z</time>
      </trkpt>
      <trkpt lat="44.65727" lon="5.12705">
        <ele>621</ele>
        <time>2015-05-24T09:16:29Z</time>
      </trkpt>
      <trkpt lat="44.65727" lon="5.12712">
        <ele>622</ele>
        <time>2015-05-24T09:16:31Z</time>
      </trkpt>
      <trkpt lat="44.6571" lon="5.12738">
        <ele>619</ele>
        <time>2015-05-24T09:16:42Z</time>
      </trkpt>
      <trkpt lat="44.65688" lon="5.12781">
        <ele>622</ele>
        <time>2015-05-24T09:16:56Z</time>
      </trkpt>
      <trkpt lat="44.65667" lon="5.1281">
        <ele>622</ele>
        <time>2015-05-24T09:17:11Z</time>
      </trkpt>
      <trkpt lat="44.65654" lon="5.12836">
        <ele>618</ele>
        <time>2015-05-24T09:17:22Z</time>
      </trkpt>
      <trkpt lat="44.65652" lon="5.12871">
        <ele>616</ele>
        <time>2015-05-24T09:17:34Z</time>
      </trkpt>
      <trkpt lat="44.65653" lon="5.12874">
        <ele>617</ele>
        <time>2015-05-24T09:17:35Z</time>
      </trkpt>
      <trkpt lat="44.65655" lon="5.12876">
        <ele>618</ele>
        <time>2015-05-24T09:17:36Z</time>
      </trkpt>
      <trkpt lat="44.65656" lon="5.12878">
        <ele>618</ele>
        <time>2015-05-24T09:17:37Z</time>
      </trkpt>
      <trkpt lat="44.65677" lon="5.12897">
        <ele>626</ele>
        <time>2015-05-24T09:17:49Z</time>
      </trkpt>
      <trkpt lat="44.6569" lon="5.12926">
        <ele>632</ele>
        <time>2015-05-24T09:18:00Z</time>
      </trkpt>
      <trkpt lat="44.65677" lon="5.12972">
        <ele>620</ele>
        <time>2015-05-24T09:18:14Z</time>
      </trkpt>
      <trkpt lat="44.65689" lon="5.13025">
        <ele>631</ele>
        <time>2015-05-24T09:18:30Z</time>
      </trkpt>
      <trkpt lat="44.65694" lon="5.1306">
        <ele>638</ele>
        <time>2015-05-24T09:18:42Z</time>
      </trkpt>
      <trkpt lat="44.65692" lon="5.13061">
        <ele>637</ele>
        <time>2015-05-24T09:18:43Z</time>
      </trkpt>
      <trkpt lat="44.6566" lon="5.13073">
        <ele>630</ele>
        <time>2015-05-24T09:18:58Z</time>
      </trkpt>
      <trkpt lat="44.65638" lon="5.1309">
        <ele>628</ele>
        <time>2015-05-24T09:19:10Z</time>
      </trkpt>
      <trkpt lat="44.6562" lon="5.13123">
        <ele>629</ele>
        <time>2015-05-24T09:19:22Z</time>
      </trkpt>
      <trkpt lat="44.65619" lon="5.13153">
        <ele>629</ele>
        <time>2015-05-24T09:19:32Z</time>
      </trkpt>
      <trkpt lat="44.65626" lon="5.13204">
        <ele>636</ele>
        <time>2015-05-24T09:19:48Z</time>
      </trkpt>
      <trkpt lat="44.65628" lon="5.13246">
        <ele>643</ele>
        <time>2015-05-24T09:20:00Z</time>
      </trkpt>
      <trkpt lat="44.65609" lon="5.13264">
        <ele>639</ele>
        <time>2015-05-24T09:20:11Z</time>
      </trkpt>
      <trkpt lat="44.65588" lon="5.13289">
        <ele>639</ele>
        <time>2015-05-24T09:20:23Z</time>
      </trkpt>
      <trkpt lat="44.65565" lon="5.13329">
        <ele>638</ele>
        <time>2015-05-24T09:20:38Z</time>
      </trkpt>
      <trkpt lat="44.65565" lon="5.1338">
        <ele>638</ele>
        <time>2015-05-24T09:20:53Z</time>
      </trkpt>
      <trkpt lat="44.65582" lon="5.13414">
        <ele>640</ele>
        <time>2015-05-24T09:21:07Z</time>
      </trkpt>
      <trkpt lat="44.65607" lon="5.13441">
        <ele>647</ele>
        <time>2015-05-24T09:21:22Z</time>
      </trkpt>
      <trkpt lat="44.65621" lon="5.13459">
        <ele>650</ele>
        <time>2015-05-24T09:21:32Z</time>
      </trkpt>
      <trkpt lat="44.65622" lon="5.13461">
        <ele>650</ele>
        <time>2015-05-24T09:21:33Z</time>
      </trkpt>
      <trkpt lat="44.6564" lon="5.13486">
        <ele>653</ele>
        <time>2015-05-24T09:21:46Z</time>
      </trkpt>
      <trkpt lat="44.65662" lon="5.1351">
        <ele>658</ele>
        <time>2015-05-24T09:22:00Z</time>
      </trkpt>
      <trkpt lat="44.65678" lon="5.13527">
        <ele>669</ele>
        <time>2015-05-24T09:22:11Z</time>
      </trkpt>
      <trkpt lat="44.65675" lon="5.13547">
        <ele>670</ele>
        <time>2015-05-24T09:22:19Z</time>
      </trkpt>
      <trkpt lat="44.65652" lon="5.13573">
        <ele>664</ele>
        <time>2015-05-24T09:22:34Z</time>
      </trkpt>
      <trkpt lat="44.65636" lon="5.13597">
        <ele>663</ele>
        <time>2015-05-24T09:22:46Z</time>
      </trkpt>
      <trkpt lat="44.65629" lon="5.13632">
        <ele>666</ele>
        <time>2015-05-24T09:23:00Z</time>
      </trkpt>
      <trkpt lat="44.65626" lon="5.13672">
        <ele>667</ele>
        <time>2015-05-24T09:23:14Z</time>
      </trkpt>
      <trkpt lat="44.65625" lon="5.13703">
        <ele>669</ele>
        <time>2015-05-24T09:23:26Z</time>
      </trkpt>
      <trkpt lat="44.6562" lon="5.13743">
        <ele>671</ele>
        <time>2015-05-24T09:23:41Z</time>
      </trkpt>
      <trkpt lat="44.65623" lon="5.13778">
        <ele>681</ele>
        <time>2015-05-24T09:23:54Z</time>
      </trkpt>
      <trkpt lat="44.65625" lon="5.13785">
        <ele>684</ele>
        <time>2015-05-24T09:23:57Z</time>
      </trkpt>
      <trkpt lat="44.65614" lon="5.13807">
        <ele>687</ele>
        <time>2015-05-24T09:24:09Z</time>
      </trkpt>
      <trkpt lat="44.65588" lon="5.13805">
        <ele>685</ele>
        <time>2015-05-24T09:24:23Z</time>
      </trkpt>
      <trkpt lat="44.65583" lon="5.13803">
        <ele>684</ele>
        <time>2015-05-24T09:24:26Z</time>
      </trkpt>
      <trkpt lat="44.65565" lon="5.13797">
        <ele>682</ele>
        <time>2015-05-24T09:24:36Z</time>
      </trkpt>
      <trkpt lat="44.65563" lon="5.13796">
        <ele>682</ele>
        <time>2015-05-24T09:24:37Z</time>
      </trkpt>
      <trkpt lat="44.65561" lon="5.13795">
        <ele>681</ele>
        <time>2015-05-24T09:24:38Z</time>
      </trkpt>
      <trkpt lat="44.65559" lon="5.13794">
        <ele>681</ele>
        <time>2015-05-24T09:24:39Z</time>
      </trkpt>
      <trkpt lat="44.65558" lon="5.13794">
        <ele>680</ele>
        <time>2015-05-24T09:24:40Z</time>
      </trkpt>
      <trkpt lat="44.65555" lon="5.13793">
        <ele>680</ele>
        <time>2015-05-24T09:24:41Z</time>
      </trkpt>
      <trkpt lat="44.65553" lon="5.13792">
        <ele>680</ele>
        <time>2015-05-24T09:24:42Z</time>
      </trkpt>
      <trkpt lat="44.65551" lon="5.13791">
        <ele>679</ele>
        <time>2015-05-24T09:24:43Z</time>
      </trkpt>
      <trkpt lat="44.6553" lon="5.13799">
        <ele>679</ele>
        <time>2015-05-24T09:24:55Z</time>
      </trkpt>
      <trkpt lat="44.65523" lon="5.13828">
        <ele>683</ele>
        <time>2015-05-24T09:25:07Z</time>
      </trkpt>
      <trkpt lat="44.65521" lon="5.13869">
        <ele>686</ele>
        <time>2015-05-24T09:25:22Z</time>
      </trkpt>
      <trkpt lat="44.65534" lon="5.13906">
        <ele>690</ele>
        <time>2015-05-24T09:25:37Z</time>
      </trkpt>
      <trkpt lat="44.65537" lon="5.13913">
        <ele>691</ele>
        <time>2015-05-24T09:25:40Z</time>
      </trkpt>
      <trkpt lat="44.65554" lon="5.13944">
        <ele>696</ele>
        <time>2015-05-24T09:25:54Z</time>
      </trkpt>
      <trkpt lat="44.65557" lon="5.1395">
        <ele>697</ele>
        <time>2015-05-24T09:25:57Z</time>
      </trkpt>
      <trkpt lat="44.65559" lon="5.13951">
        <ele>698</ele>
        <time>2015-05-24T09:25:58Z</time>
      </trkpt>
      <trkpt lat="44.65578" lon="5.13982">
        <ele>700</ele>
        <time>2015-05-24T09:26:13Z</time>
      </trkpt>
      <trkpt lat="44.65582" lon="5.13989">
        <ele>701</ele>
        <time>2015-05-24T09:26:17Z</time>
      </trkpt>
      <trkpt lat="44.65586" lon="5.13998">
        <ele>701</ele>
        <time>2015-05-24T09:26:21Z</time>
      </trkpt>
      <trkpt lat="44.65587" lon="5.14">
        <ele>701</ele>
        <time>2015-05-24T09:26:22Z</time>
      </trkpt>
      <trkpt lat="44.65588" lon="5.14002">
        <ele>701</ele>
        <time>2015-05-24T09:26:23Z</time>
      </trkpt>
      <trkpt lat="44.65589" lon="5.14004">
        <ele>701</ele>
        <time>2015-05-24T09:26:24Z</time>
      </trkpt>
      <trkpt lat="44.65591" lon="5.14007">
        <ele>702</ele>
        <time>2015-05-24T09:26:25Z</time>
      </trkpt>
      <trkpt lat="44.65592" lon="5.14009">
        <ele>702</ele>
        <time>2015-05-24T09:26:26Z</time>
      </trkpt>
      <trkpt lat="44.656" lon="5.1404">
        <ele>707</ele>
        <time>2015-05-24T09:26:38Z</time>
      </trkpt>
      <trkpt lat="44.656" lon="5.14042">
        <ele>708</ele>
        <time>2015-05-24T09:26:39Z</time>
      </trkpt>
      <trkpt lat="44.656" lon="5.14044">
        <ele>708</ele>
        <time>2015-05-24T09:26:40Z</time>
      </trkpt>
      <trkpt lat="44.65599" lon="5.14047">
        <ele>707</ele>
        <time>2015-05-24T09:26:41Z</time>
      </trkpt>
      <trkpt lat="44.65598" lon="5.1405">
        <ele>707</ele>
        <time>2015-05-24T09:26:42Z</time>
      </trkpt>
      <trkpt lat="44.65597" lon="5.14052">
        <ele>707</ele>
        <time>2015-05-24T09:26:43Z</time>
      </trkpt>
      <trkpt lat="44.65597" lon="5.14055">
        <ele>707</ele>
        <time>2015-05-24T09:26:44Z</time>
      </trkpt>
      <trkpt lat="44.65596" lon="5.14058">
        <ele>706</ele>
        <time>2015-05-24T09:26:45Z</time>
      </trkpt>
      <trkpt lat="44.6559" lon="5.14096">
        <ele>711</ele>
        <time>2015-05-24T09:27:00Z</time>
      </trkpt>
      <trkpt lat="44.65574" lon="5.1413">
        <ele>714</ele>
        <time>2015-05-24T09:27:14Z</time>
      </trkpt>
      <trkpt lat="44.65564" lon="5.14143">
        <ele>713</ele>
        <time>2015-05-24T09:27:21Z</time>
      </trkpt>
      <trkpt lat="44.65562" lon="5.14144">
        <ele>713</ele>
        <time>2015-05-24T09:27:22Z</time>
      </trkpt>
      <trkpt lat="44.65561" lon="5.14145">
        <ele>713</ele>
        <time>2015-05-24T09:27:23Z</time>
      </trkpt>
      <trkpt lat="44.65559" lon="5.14147">
        <ele>713</ele>
        <time>2015-05-24T09:27:24Z</time>
      </trkpt>
      <trkpt lat="44.65558" lon="5.14148">
        <ele>713</ele>
        <time>2015-05-24T09:27:25Z</time>
      </trkpt>
      <trkpt lat="44.65556" lon="5.1415">
        <ele>712</ele>
        <time>2015-05-24T09:27:26Z</time>
      </trkpt>
      <trkpt lat="44.65539" lon="5.14165">
        <ele>713</ele>
        <time>2015-05-24T09:27:37Z</time>
      </trkpt>
      <trkpt lat="44.65523" lon="5.14175">
        <ele>711</ele>
        <time>2015-05-24T09:27:47Z</time>
      </trkpt>
      <trkpt lat="44.65522" lon="5.14176">
        <ele>711</ele>
        <time>2015-05-24T09:27:48Z</time>
      </trkpt>
      <trkpt lat="44.6552" lon="5.14178">
        <ele>712</ele>
        <time>2015-05-24T09:27:49Z</time>
      </trkpt>
      <trkpt lat="44.65519" lon="5.1418">
        <ele>712</ele>
        <time>2015-05-24T09:27:50Z</time>
      </trkpt>
      <trkpt lat="44.65517" lon="5.14182">
        <ele>712</ele>
        <time>2015-05-24T09:27:51Z</time>
      </trkpt>
      <trkpt lat="44.65515" lon="5.14183">
        <ele>712</ele>
        <time>2015-05-24T09:27:52Z</time>
      </trkpt>
      <trkpt lat="44.65513" lon="5.14184">
        <ele>712</ele>
        <time>2015-05-24T09:27:53Z</time>
      </trkpt>
      <trkpt lat="44.65512" lon="5.14186">
        <ele>712</ele>
        <time>2015-05-24T09:27:54Z</time>
      </trkpt>
      <trkpt lat="44.6551" lon="5.14188">
        <ele>712</ele>
        <time>2015-05-24T09:27:55Z</time>
      </trkpt>
      <trkpt lat="44.65498" lon="5.14212">
        <ele>710</ele>
        <time>2015-05-24T09:28:06Z</time>
      </trkpt>
      <trkpt lat="44.65501" lon="5.14235">
        <ele>711</ele>
        <time>2015-05-24T09:28:16Z</time>
      </trkpt>
      <trkpt lat="44.65502" lon="5.14236">
        <ele>711</ele>
        <time>2015-05-24T09:28:17Z</time>
      </trkpt>
      <trkpt lat="44.65504" lon="5.14238">
        <ele>712</ele>
        <time>2015-05-24T09:28:18Z</time>
      </trkpt>
      <trkpt lat="44.65505" lon="5.1424">
        <ele>712</ele>
        <time>2015-05-24T09:28:19Z</time>
      </trkpt>
      <trkpt lat="44.65506" lon="5.14242">
        <ele>713</ele>
        <time>2015-05-24T09:28:20Z</time>
      </trkpt>
      <trkpt lat="44.65507" lon="5.14243">
        <ele>714</ele>
        <time>2015-05-24T09:28:21Z</time>
      </trkpt>
      <trkpt lat="44.65524" lon="5.14266">
        <ele>719</ele>
        <time>2015-05-24T09:28:34Z</time>
      </trkpt>
      <trkpt lat="44.65546" lon="5.14291">
        <ele>723</ele>
        <time>2015-05-24T09:28:49Z</time>
      </trkpt>
      <trkpt lat="44.65568" lon="5.14312">
        <ele>728</ele>
        <time>2015-05-24T09:29:02Z</time>
      </trkpt>
      <trkpt lat="44.65585" lon="5.14335">
        <ele>730</ele>
        <time>2015-05-24T09:29:14Z</time>
      </trkpt>
      <trkpt lat="44.65587" lon="5.14337">
        <ele>730</ele>
        <time>2015-05-24T09:29:15Z</time>
      </trkpt>
      <trkpt lat="44.65593" lon="5.14346">
        <ele>730</ele>
        <time>2015-05-24T09:29:20Z</time>
      </trkpt>
      <trkpt lat="44.65618" lon="5.14376">
        <ele>732</ele>
        <time>2015-05-24T09:29:36Z</time>
      </trkpt>
      <trkpt lat="44.65636" lon="5.14403">
        <ele>732</ele>
        <time>2015-05-24T09:29:49Z</time>
      </trkpt>
      <trkpt lat="44.65659" lon="5.14433">
        <ele>733</ele>
        <time>2015-05-24T09:30:04Z</time>
      </trkpt>
      <trkpt lat="44.65685" lon="5.14458">
        <ele>736</ele>
        <time>2015-05-24T09:30:19Z</time>
      </trkpt>
      <trkpt lat="44.65709" lon="5.1448">
        <ele>742</ele>
        <time>2015-05-24T09:30:33Z</time>
      </trkpt>
      <trkpt lat="44.65725" lon="5.14505">
        <ele>741</ele>
        <time>2015-05-24T09:30:46Z</time>
      </trkpt>
      <trkpt lat="44.65734" lon="5.14523">
        <ele>740</ele>
        <time>2015-05-24T09:30:55Z</time>
      </trkpt>
      <trkpt lat="44.65736" lon="5.1453">
        <ele>741</ele>
        <time>2015-05-24T09:30:58Z</time>
      </trkpt>
      <trkpt lat="44.65738" lon="5.14541">
        <ele>743</ele>
        <time>2015-05-24T09:31:02Z</time>
      </trkpt>
      <trkpt lat="44.6574" lon="5.14543">
        <ele>743</ele>
        <time>2015-05-24T09:31:03Z</time>
      </trkpt>
      <trkpt lat="44.65745" lon="5.14577">
        <ele>746</ele>
        <time>2015-05-24T09:31:15Z</time>
      </trkpt>
      <trkpt lat="44.65751" lon="5.14597">
        <ele>753</ele>
        <time>2015-05-24T09:31:23Z</time>
      </trkpt>
      <trkpt lat="44.65751" lon="5.146">
        <ele>754</ele>
        <time>2015-05-24T09:31:24Z</time>
      </trkpt>
      <trkpt lat="44.65751" lon="5.14602">
        <ele>754</ele>
        <time>2015-05-24T09:31:25Z</time>
      </trkpt>
      <trkpt lat="44.65751" lon="5.14605">
        <ele>755</ele>
        <time>2015-05-24T09:31:26Z</time>
      </trkpt>
      <trkpt lat="44.65751" lon="5.14607">
        <ele>756</ele>
        <time>2015-05-24T09:31:27Z</time>
      </trkpt>
      <trkpt lat="44.6575" lon="5.14609">
        <ele>756</ele>
        <time>2015-05-24T09:31:28Z</time>
      </trkpt>
      <trkpt lat="44.65738" lon="5.14631">
        <ele>756</ele>
        <time>2015-05-24T09:31:39Z</time>
      </trkpt>
      <trkpt lat="44.65728" lon="5.14653">
        <ele>757</ele>
        <time>2015-05-24T09:31:49Z</time>
      </trkpt>
      <trkpt lat="44.65724" lon="5.1467">
        <ele>759</ele>
        <time>2015-05-24T09:31:59Z</time>
      </trkpt>
      <trkpt lat="44.6572" lon="5.14684">
        <ele>760</ele>
        <time>2015-05-24T09:32:04Z</time>
      </trkpt>
      <trkpt lat="44.6572" lon="5.14687">
        <ele>760</ele>
        <time>2015-05-24T09:32:05Z</time>
      </trkpt>
      <trkpt lat="44.65716" lon="5.14708">
        <ele>762</ele>
        <time>2015-05-24T09:32:15Z</time>
      </trkpt>
      <trkpt lat="44.65713" lon="5.14737">
        <ele>767</ele>
        <time>2015-05-24T09:32:27Z</time>
      </trkpt>
      <trkpt lat="44.6571" lon="5.14757">
        <ele>771</ele>
        <time>2015-05-24T09:32:36Z</time>
      </trkpt>
      <trkpt lat="44.6571" lon="5.14762">
        <ele>772</ele>
        <time>2015-05-24T09:32:39Z</time>
      </trkpt>
      <trkpt lat="44.65705" lon="5.14778">
        <ele>774</ele>
        <time>2015-05-24T09:32:45Z</time>
      </trkpt>
      <trkpt lat="44.65695" lon="5.14791">
        <ele>774</ele>
        <time>2015-05-24T09:32:54Z</time>
      </trkpt>
      <trkpt lat="44.65682" lon="5.14804">
        <ele>772</ele>
        <time>2015-05-24T09:33:05Z</time>
      </trkpt>
      <trkpt lat="44.65681" lon="5.14807">
        <ele>772</ele>
        <time>2015-05-24T09:33:07Z</time>
      </trkpt>
      <trkpt lat="44.65676" lon="5.14819">
        <ele>775</ele>
        <time>2015-05-24T09:33:13Z</time>
      </trkpt>
      <trkpt lat="44.65675" lon="5.14821">
        <ele>775</ele>
        <time>2015-05-24T09:33:14Z</time>
      </trkpt>
      <trkpt lat="44.65664" lon="5.14845">
        <ele>777</ele>
        <time>2015-05-24T09:33:26Z</time>
      </trkpt>
      <trkpt lat="44.65663" lon="5.14847">
        <ele>777</ele>
        <time>2015-05-24T09:33:27Z</time>
      </trkpt>
      <trkpt lat="44.65662" lon="5.14849">
        <ele>777</ele>
        <time>2015-05-24T09:33:28Z</time>
      </trkpt>
      <trkpt lat="44.65661" lon="5.14851">
        <ele>777</ele>
        <time>2015-05-24T09:33:29Z</time>
      </trkpt>
      <trkpt lat="44.6566" lon="5.14853">
        <ele>777</ele>
        <time>2015-05-24T09:33:30Z</time>
      </trkpt>
      <trkpt lat="44.65659" lon="5.14855">
        <ele>778</ele>
        <time>2015-05-24T09:33:31Z</time>
      </trkpt>
      <trkpt lat="44.65651" lon="5.14879">
        <ele>781</ele>
        <time>2015-05-24T09:33:43Z</time>
      </trkpt>
      <trkpt lat="44.6564" lon="5.14905">
        <ele>783</ele>
        <time>2015-05-24T09:33:56Z</time>
      </trkpt>
      <trkpt lat="44.65636" lon="5.14928">
        <ele>789</ele>
        <time>2015-05-24T09:34:07Z</time>
      </trkpt>
      <trkpt lat="44.65634" lon="5.14936">
        <ele>791</ele>
        <time>2015-05-24T09:34:11Z</time>
      </trkpt>
      <trkpt lat="44.65628" lon="5.14945">
        <ele>791</ele>
        <time>2015-05-24T09:34:16Z</time>
      </trkpt>
      <trkpt lat="44.6561" lon="5.14952">
        <ele>787</ele>
        <time>2015-05-24T09:34:30Z</time>
      </trkpt>
      <trkpt lat="44.65601" lon="5.14957">
        <ele>786</ele>
        <time>2015-05-24T09:34:37Z</time>
      </trkpt>
      <trkpt lat="44.65596" lon="5.14959">
        <ele>785</ele>
        <time>2015-05-24T09:34:40Z</time>
      </trkpt>
      <trkpt lat="44.65595" lon="5.14961">
        <ele>785</ele>
        <time>2015-05-24T09:34:41Z</time>
      </trkpt>
      <trkpt lat="44.65578" lon="5.14982">
        <ele>787</ele>
        <time>2015-05-24T09:34:55Z</time>
      </trkpt>
      <trkpt lat="44.6557" lon="5.15008">
        <ele>792</ele>
        <time>2015-05-24T09:35:07Z</time>
      </trkpt>
      <trkpt lat="44.6556" lon="5.15028">
        <ele>795</ele>
        <time>2015-05-24T09:35:17Z</time>
      </trkpt>
      <trkpt lat="44.65559" lon="5.15029">
        <ele>794</ele>
        <time>2015-05-24T09:35:18Z</time>
      </trkpt>
      <trkpt lat="44.65558" lon="5.1503">
        <ele>794</ele>
        <time>2015-05-24T09:35:19Z</time>
      </trkpt>
      <trkpt lat="44.65545" lon="5.15047">
        <ele>793</ele>
        <time>2015-05-24T09:35:31Z</time>
      </trkpt>
      <trkpt lat="44.65529" lon="5.15075">
        <ele>793</ele>
        <time>2015-05-24T09:35:45Z</time>
      </trkpt>
      <trkpt lat="44.65522" lon="5.15107">
        <ele>792</ele>
        <time>2015-05-24T09:36:01Z</time>
      </trkpt>
      <trkpt lat="44.65523" lon="5.15115">
        <ele>793</ele>
        <time>2015-05-24T09:36:05Z</time>
      </trkpt>
      <trkpt lat="44.65524" lon="5.15117">
        <ele>793</ele>
        <time>2015-05-24T09:36:06Z</time>
      </trkpt>
      <trkpt lat="44.65534" lon="5.15146">
        <ele>801</ele>
        <time>2015-05-24T09:36:20Z</time>
      </trkpt>
      <trkpt lat="44.65539" lon="5.15159">
        <ele>805</ele>
        <time>2015-05-24T09:36:27Z</time>
      </trkpt>
      <trkpt lat="44.65539" lon="5.15161">
        <ele>805</ele>
        <time>2015-05-24T09:36:28Z</time>
      </trkpt>
      <trkpt lat="44.6554" lon="5.15163">
        <ele>805</ele>
        <time>2015-05-24T09:36:29Z</time>
      </trkpt>
      <trkpt lat="44.6554" lon="5.15165">
        <ele>806</ele>
        <time>2015-05-24T09:36:30Z</time>
      </trkpt>
      <trkpt lat="44.65541" lon="5.15167">
        <ele>807</ele>
        <time>2015-05-24T09:36:31Z</time>
      </trkpt>
      <trkpt lat="44.65542" lon="5.15169">
        <ele>807</ele>
        <time>2015-05-24T09:36:32Z</time>
      </trkpt>
      <trkpt lat="44.65543" lon="5.1517">
        <ele>808</ele>
        <time>2015-05-24T09:36:33Z</time>
      </trkpt>
      <trkpt lat="44.65543" lon="5.15172">
        <ele>808</ele>
        <time>2015-05-24T09:36:34Z</time>
      </trkpt>
      <trkpt lat="44.65544" lon="5.15174">
        <ele>809</ele>
        <time>2015-05-24T09:36:35Z</time>
      </trkpt>
      <trkpt lat="44.65545" lon="5.15175">
        <ele>810</ele>
        <time>2015-05-24T09:36:36Z</time>
      </trkpt>
      <trkpt lat="44.65546" lon="5.15177">
        <ele>810</ele>
        <time>2015-05-24T09:36:37Z</time>
      </trkpt>
      <trkpt lat="44.65552" lon="5.15206">
        <ele>815</ele>
        <time>2015-05-24T09:36:50Z</time>
      </trkpt>
      <trkpt lat="44.65538" lon="5.15229">
        <ele>812</ele>
        <time>2015-05-24T09:37:02Z</time>
      </trkpt>
      <trkpt lat="44.65536" lon="5.1523">
        <ele>811</ele>
        <time>2015-05-24T09:37:03Z</time>
      </trkpt>
      <trkpt lat="44.65533" lon="5.15231">
        <ele>809</ele>
        <time>2015-05-24T09:37:05Z</time>
      </trkpt>
      <trkpt lat="44.65531" lon="5.15232">
        <ele>808</ele>
        <time>2015-05-24T09:37:06Z</time>
      </trkpt>
      <trkpt lat="44.6553" lon="5.15233">
        <ele>808</ele>
        <time>2015-05-24T09:37:07Z</time>
      </trkpt>
      <trkpt lat="44.65523" lon="5.15253">
        <ele>808</ele>
        <time>2015-05-24T09:37:16Z</time>
      </trkpt>
      <trkpt lat="44.65522" lon="5.15256">
        <ele>809</ele>
        <time>2015-05-24T09:37:17Z</time>
      </trkpt>
      <trkpt lat="44.6552" lon="5.15277">
        <ele>811</ele>
        <time>2015-05-24T09:37:27Z</time>
      </trkpt>
      <trkpt lat="44.6552" lon="5.1528">
        <ele>811</ele>
        <time>2015-05-24T09:37:28Z</time>
      </trkpt>
      <trkpt lat="44.65519" lon="5.15282">
        <ele>811</ele>
        <time>2015-05-24T09:37:29Z</time>
      </trkpt>
      <trkpt lat="44.6552" lon="5.15295">
        <ele>813</ele>
        <time>2015-05-24T09:37:36Z</time>
      </trkpt>
      <trkpt lat="44.6552" lon="5.15297">
        <ele>813</ele>
        <time>2015-05-24T09:37:37Z</time>
      </trkpt>
      <trkpt lat="44.6552" lon="5.15299">
        <ele>813</ele>
        <time>2015-05-24T09:37:38Z</time>
      </trkpt>
      <trkpt lat="44.6552" lon="5.15301">
        <ele>813</ele>
        <time>2015-05-24T09:37:39Z</time>
      </trkpt>
      <trkpt lat="44.6552" lon="5.15303">
        <ele>814</ele>
        <time>2015-05-24T09:37:40Z</time>
      </trkpt>
      <trkpt lat="44.6552" lon="5.15311">
        <ele>815</ele>
        <time>2015-05-24T09:37:44Z</time>
      </trkpt>
      <trkpt lat="44.65525" lon="5.15338">
        <ele>822</ele>
        <time>2015-05-24T09:37:58Z</time>
      </trkpt>
      <trkpt lat="44.65527" lon="5.1537">
        <ele>831</ele>
        <time>2015-05-24T09:38:14Z</time>
      </trkpt>
      <trkpt lat="44.65525" lon="5.15381">
        <ele>832</ele>
        <time>2015-05-24T09:38:20Z</time>
      </trkpt>
      <trkpt lat="44.65524" lon="5.15383">
        <ele>832</ele>
        <time>2015-05-24T09:38:21Z</time>
      </trkpt>
      <trkpt lat="44.65523" lon="5.15385">
        <ele>832</ele>
        <time>2015-05-24T09:38:22Z</time>
      </trkpt>
      <trkpt lat="44.65522" lon="5.15387">
        <ele>831</ele>
        <time>2015-05-24T09:38:23Z</time>
      </trkpt>
      <trkpt lat="44.65521" lon="5.15389">
        <ele>831</ele>
        <time>2015-05-24T09:38:24Z</time>
      </trkpt>
      <trkpt lat="44.65517" lon="5.1539">
        <ele>831</ele>
        <time>2015-05-24T09:38:28Z</time>
      </trkpt>
      <trkpt lat="44.65515" lon="5.15391">
        <ele>831</ele>
        <time>2015-05-24T09:38:30Z</time>
      </trkpt>
      <trkpt lat="44.65507" lon="5.15393">
        <ele>829</ele>
        <time>2015-05-24T09:38:36Z</time>
      </trkpt>
      <trkpt lat="44.65489" lon="5.154">
        <ele>829</ele>
        <time>2015-05-24T09:38:49Z</time>
      </trkpt>
      <trkpt lat="44.65476" lon="5.15402">
        <ele>827</ele>
        <time>2015-05-24T09:38:57Z</time>
      </trkpt>
      <trkpt lat="44.65455" lon="5.15409">
        <ele>824</ele>
        <time>2015-05-24T09:39:11Z</time>
      </trkpt>
      <trkpt lat="44.65451" lon="5.1541">
        <ele>823</ele>
        <time>2015-05-24T09:39:13Z</time>
      </trkpt>
      <trkpt lat="44.6545" lon="5.15411">
        <ele>823</ele>
        <time>2015-05-24T09:39:14Z</time>
      </trkpt>
      <trkpt lat="44.65438" lon="5.15435">
        <ele>829</ele>
        <time>2015-05-24T09:39:25Z</time>
      </trkpt>
      <trkpt lat="44.65437" lon="5.15437">
        <ele>829</ele>
        <time>2015-05-24T09:39:26Z</time>
      </trkpt>
      <trkpt lat="44.65436" lon="5.15441">
        <ele>830</ele>
        <time>2015-05-24T09:39:27Z</time>
      </trkpt>
      <trkpt lat="44.6543" lon="5.15476">
        <ele>837</ele>
        <time>2015-05-24T09:39:39Z</time>
      </trkpt>
      <trkpt lat="44.65426" lon="5.15506">
        <ele>841</ele>
        <time>2015-05-24T09:39:49Z</time>
      </trkpt>
      <trkpt lat="44.65426" lon="5.15508">
        <ele>842</ele>
        <time>2015-05-24T09:39:50Z</time>
      </trkpt>
      <trkpt lat="44.65426" lon="5.15511">
        <ele>843</ele>
        <time>2015-05-24T09:39:51Z</time>
      </trkpt>
      <trkpt lat="44.65424" lon="5.1552">
        <ele>843</ele>
        <time>2015-05-24T09:39:54Z</time>
      </trkpt>
      <trkpt lat="44.65412" lon="5.15556">
        <ele>845</ele>
        <time>2015-05-24T09:40:07Z</time>
      </trkpt>
      <trkpt lat="44.65398" lon="5.15583">
        <ele>843</ele>
        <time>2015-05-24T09:40:17Z</time>
      </trkpt>
      <trkpt lat="44.65396" lon="5.15585">
        <ele>843</ele>
        <time>2015-05-24T09:40:18Z</time>
      </trkpt>
      <trkpt lat="44.65383" lon="5.15612">
        <ele>844</ele>
        <time>2015-05-24T09:40:29Z</time>
      </trkpt>
      <trkpt lat="44.65372" lon="5.15645">
        <ele>845</ele>
        <time>2015-05-24T09:40:42Z</time>
      </trkpt>
      <trkpt lat="44.65366" lon="5.15677">
        <ele>843</ele>
        <time>2015-05-24T09:40:54Z</time>
      </trkpt>
      <trkpt lat="44.65368" lon="5.15708">
        <ele>846</ele>
        <time>2015-05-24T09:41:08Z</time>
      </trkpt>
      <trkpt lat="44.65369" lon="5.1571">
        <ele>847</ele>
        <time>2015-05-24T09:41:09Z</time>
      </trkpt>
      <trkpt lat="44.65369" lon="5.15712">
        <ele>847</ele>
        <time>2015-05-24T09:41:10Z</time>
      </trkpt>
      <trkpt lat="44.6537" lon="5.15714">
        <ele>848</ele>
        <time>2015-05-24T09:41:11Z</time>
      </trkpt>
      <trkpt lat="44.6537" lon="5.15715">
        <ele>848</ele>
        <time>2015-05-24T09:41:12Z</time>
      </trkpt>
      <trkpt lat="44.65371" lon="5.15718">
        <ele>849</ele>
        <time>2015-05-24T09:41:13Z</time>
      </trkpt>
      <trkpt lat="44.65371" lon="5.1572">
        <ele>849</ele>
        <time>2015-05-24T09:41:14Z</time>
      </trkpt>
      <trkpt lat="44.65372" lon="5.15722">
        <ele>850</ele>
        <time>2015-05-24T09:41:15Z</time>
      </trkpt>
      <trkpt lat="44.65374" lon="5.1573">
        <ele>851</ele>
        <time>2015-05-24T09:41:19Z</time>
      </trkpt>
      <trkpt lat="44.65375" lon="5.15732">
        <ele>852</ele>
        <time>2015-05-24T09:41:20Z</time>
      </trkpt>
      <trkpt lat="44.65378" lon="5.15735">
        <ele>853</ele>
        <time>2015-05-24T09:41:22Z</time>
      </trkpt>
      <trkpt lat="44.6538" lon="5.15741">
        <ele>855</ele>
        <time>2015-05-24T09:41:25Z</time>
      </trkpt>
      <trkpt lat="44.65381" lon="5.15743">
        <ele>855</ele>
        <time>2015-05-24T09:41:26Z</time>
      </trkpt>
      <trkpt lat="44.65383" lon="5.15746">
        <ele>856</ele>
        <time>2015-05-24T09:41:28Z</time>
      </trkpt>
      <trkpt lat="44.65395" lon="5.1576">
        <ele>862</ele>
        <time>2015-05-24T09:41:39Z</time>
      </trkpt>
      <trkpt lat="44.65396" lon="5.15766">
        <ele>862</ele>
        <time>2015-05-24T09:41:43Z</time>
      </trkpt>
      <trkpt lat="44.65395" lon="5.15771">
        <ele>863</ele>
        <time>2015-05-24T09:41:46Z</time>
      </trkpt>
      <trkpt lat="44.65395" lon="5.15773">
        <ele>863</ele>
        <time>2015-05-24T09:41:47Z</time>
      </trkpt>
      <trkpt lat="44.65385" lon="5.15789">
        <ele>865</ele>
        <time>2015-05-24T09:42:00Z</time>
      </trkpt>
      <trkpt lat="44.65374" lon="5.15798">
        <ele>865</ele>
        <time>2015-05-24T09:42:11Z</time>
      </trkpt>
      <trkpt lat="44.65358" lon="5.15813">
        <ele>867</ele>
        <time>2015-05-24T09:42:23Z</time>
      </trkpt>
      <trkpt lat="44.65351" lon="5.15819">
        <ele>868</ele>
        <time>2015-05-24T09:42:28Z</time>
      </trkpt>
      <trkpt lat="44.6535" lon="5.1582">
        <ele>869</ele>
        <time>2015-05-24T09:42:29Z</time>
      </trkpt>
      <trkpt lat="44.65343" lon="5.15825">
        <ele>870</ele>
        <time>2015-05-24T09:42:33Z</time>
      </trkpt>
      <trkpt lat="44.65335" lon="5.15831">
        <ele>870</ele>
        <time>2015-05-24T09:42:40Z</time>
      </trkpt>
      <trkpt lat="44.65321" lon="5.1584">
        <ele>870</ele>
        <time>2015-05-24T09:42:51Z</time>
      </trkpt>
      <trkpt lat="44.653" lon="5.15858">
        <ele>868</ele>
        <time>2015-05-24T09:43:04Z</time>
      </trkpt>
      <trkpt lat="44.65299" lon="5.15885">
        <ele>872</ele>
        <time>2015-05-24T09:43:17Z</time>
      </trkpt>
      <trkpt lat="44.653" lon="5.15888">
        <ele>873</ele>
        <time>2015-05-24T09:43:19Z</time>
      </trkpt>
      <trkpt lat="44.65301" lon="5.1589">
        <ele>873</ele>
        <time>2015-05-24T09:43:20Z</time>
      </trkpt>
      <trkpt lat="44.65302" lon="5.15892">
        <ele>873</ele>
        <time>2015-05-24T09:43:22Z</time>
      </trkpt>
      <trkpt lat="44.65309" lon="5.15908">
        <ele>874</ele>
        <time>2015-05-24T09:43:31Z</time>
      </trkpt>
      <trkpt lat="44.6531" lon="5.15909">
        <ele>875</ele>
        <time>2015-05-24T09:43:32Z</time>
      </trkpt>
      <trkpt lat="44.65322" lon="5.15932">
        <ele>879</ele>
        <time>2015-05-24T09:43:47Z</time>
      </trkpt>
      <trkpt lat="44.65331" lon="5.15958">
        <ele>881</ele>
        <time>2015-05-24T09:44:02Z</time>
      </trkpt>
      <trkpt lat="44.65331" lon="5.15961">
        <ele>881</ele>
        <time>2015-05-24T09:44:04Z</time>
      </trkpt>
      <trkpt lat="44.65331" lon="5.15963">
        <ele>881</ele>
        <time>2015-05-24T09:44:05Z</time>
      </trkpt>
      <trkpt lat="44.65338" lon="5.1598">
        <ele>882</ele>
        <time>2015-05-24T09:44:15Z</time>
      </trkpt>
      <trkpt lat="44.65339" lon="5.15982">
        <ele>882</ele>
        <time>2015-05-24T09:44:16Z</time>
      </trkpt>
      <trkpt lat="44.6534" lon="5.15983">
        <ele>882</ele>
        <time>2015-05-24T09:44:17Z</time>
      </trkpt>
      <trkpt lat="44.65342" lon="5.15991">
        <ele>882</ele>
        <time>2015-05-24T09:44:22Z</time>
      </trkpt>
      <trkpt lat="44.65344" lon="5.15996">
        <ele>883</ele>
        <time>2015-05-24T09:44:25Z</time>
      </trkpt>
      <trkpt lat="44.65345" lon="5.15997">
        <ele>883</ele>
        <time>2015-05-24T09:44:26Z</time>
      </trkpt>
      <trkpt lat="44.65351" lon="5.16004">
        <ele>886</ele>
        <time>2015-05-24T09:44:32Z</time>
      </trkpt>
      <trkpt lat="44.65365" lon="5.16014">
        <ele>894</ele>
        <time>2015-05-24T09:44:45Z</time>
      </trkpt>
      <trkpt lat="44.65372" lon="5.1603">
        <ele>901</ele>
        <time>2015-05-24T09:44:56Z</time>
      </trkpt>
      <trkpt lat="44.65372" lon="5.16034">
        <ele>902</ele>
        <time>2015-05-24T09:44:59Z</time>
      </trkpt>
      <trkpt lat="44.65362" lon="5.16046">
        <ele>900</ele>
        <time>2015-05-24T09:45:11Z</time>
      </trkpt>
      <trkpt lat="44.65351" lon="5.16055">
        <ele>897</ele>
        <time>2015-05-24T09:45:20Z</time>
      </trkpt>
      <trkpt lat="44.65333" lon="5.16076">
        <ele>896</ele>
        <time>2015-05-24T09:45:36Z</time>
      </trkpt>
      <trkpt lat="44.65314" lon="5.16087">
        <ele>896</ele>
        <time>2015-05-24T09:45:50Z</time>
      </trkpt>
      <trkpt lat="44.65296" lon="5.16104">
        <ele>899</ele>
        <time>2015-05-24T09:46:04Z</time>
      </trkpt>
      <trkpt lat="44.6529" lon="5.16113">
        <ele>901</ele>
        <time>2015-05-24T09:46:09Z</time>
      </trkpt>
      <trkpt lat="44.65288" lon="5.16114">
        <ele>901</ele>
        <time>2015-05-24T09:46:10Z</time>
      </trkpt>
      <trkpt lat="44.65287" lon="5.16115">
        <ele>901</ele>
        <time>2015-05-24T09:46:11Z</time>
      </trkpt>
      <trkpt lat="44.65282" lon="5.16119">
        <ele>901</ele>
        <time>2015-05-24T09:46:16Z</time>
      </trkpt>
      <trkpt lat="44.65272" lon="5.16132">
        <ele>903</ele>
        <time>2015-05-24T09:46:26Z</time>
      </trkpt>
      <trkpt lat="44.65256" lon="5.16159">
        <ele>903</ele>
        <time>2015-05-24T09:46:39Z</time>
      </trkpt>
      <trkpt lat="44.65251" lon="5.16164">
        <ele>902</ele>
        <time>2015-05-24T09:46:43Z</time>
      </trkpt>
      <trkpt lat="44.6525" lon="5.16167">
        <ele>902</ele>
        <time>2015-05-24T09:46:44Z</time>
      </trkpt>
      <trkpt lat="44.65243" lon="5.16192">
        <ele>903</ele>
        <time>2015-05-24T09:46:56Z</time>
      </trkpt>
      <trkpt lat="44.65243" lon="5.16194">
        <ele>903</ele>
        <time>2015-05-24T09:46:57Z</time>
      </trkpt>
      <trkpt lat="44.65242" lon="5.16197">
        <ele>903</ele>
        <time>2015-05-24T09:46:58Z</time>
      </trkpt>
      <trkpt lat="44.65242" lon="5.16199">
        <ele>903</ele>
        <time>2015-05-24T09:46:59Z</time>
      </trkpt>
      <trkpt lat="44.65242" lon="5.16202">
        <ele>903</ele>
        <time>2015-05-24T09:47:00Z</time>
      </trkpt>
      <trkpt lat="44.65242" lon="5.16204">
        <ele>903</ele>
        <time>2015-05-24T09:47:01Z</time>
      </trkpt>
      <trkpt lat="44.65242" lon="5.16206">
        <ele>903</ele>
        <time>2015-05-24T09:47:02Z</time>
      </trkpt>
      <trkpt lat="44.65242" lon="5.16209">
        <ele>903</ele>
        <time>2015-05-24T09:47:03Z</time>
      </trkpt>
      <trkpt lat="44.65241" lon="5.16211">
        <ele>902</ele>
        <time>2015-05-24T09:47:04Z</time>
      </trkpt>
      <trkpt lat="44.65245" lon="5.16234">
        <ele>903</ele>
        <time>2015-05-24T09:47:16Z</time>
      </trkpt>
      <trkpt lat="44.65245" lon="5.16235">
        <ele>903</ele>
        <time>2015-05-24T09:47:17Z</time>
      </trkpt>
      <trkpt lat="44.6525" lon="5.16253">
        <ele>904</ele>
        <time>2015-05-24T09:47:27Z</time>
      </trkpt>
      <trkpt lat="44.6525" lon="5.16254">
        <ele>905</ele>
        <time>2015-05-24T09:47:28Z</time>
      </trkpt>
      <trkpt lat="44.65259" lon="5.16274">
        <ele>910</ele>
        <time>2015-05-24T09:47:40Z</time>
      </trkpt>
      <trkpt lat="44.65264" lon="5.16289">
        <ele>914</ele>
        <time>2015-05-24T09:47:48Z</time>
      </trkpt>
      <trkpt lat="44.65272" lon="5.16303">
        <ele>916</ele>
        <time>2015-05-24T09:47:58Z</time>
      </trkpt>
      <trkpt lat="44.65273" lon="5.16305">
        <ele>916</ele>
        <time>2015-05-24T09:47:59Z</time>
      </trkpt>
      <trkpt lat="44.65274" lon="5.16307">
        <ele>917</ele>
        <time>2015-05-24T09:48:00Z</time>
      </trkpt>
      <trkpt lat="44.65276" lon="5.16324">
        <ele>918</ele>
        <time>2015-05-24T09:48:09Z</time>
      </trkpt>
      <trkpt lat="44.65271" lon="5.16329">
        <ele>917</ele>
        <time>2015-05-24T09:48:14Z</time>
      </trkpt>
      <trkpt lat="44.65268" lon="5.1633">
        <ele>917</ele>
        <time>2015-05-24T09:48:17Z</time>
      </trkpt>
      <trkpt lat="44.65263" lon="5.16332">
        <ele>918</ele>
        <time>2015-05-24T09:48:20Z</time>
      </trkpt>
      <trkpt lat="44.65262" lon="5.16333">
        <ele>918</ele>
        <time>2015-05-24T09:48:21Z</time>
      </trkpt>
      <trkpt lat="44.65251" lon="5.16334">
        <ele>919</ele>
        <time>2015-05-24T09:48:31Z</time>
      </trkpt>
      <trkpt lat="44.65251" lon="5.16335">
        <ele>919</ele>
        <time>2015-05-24T09:48:56Z</time>
      </trkpt>
      <trkpt lat="44.65251" lon="5.16334">
        <ele>919</ele>
        <time>2015-05-24T09:49:24Z</time>
      </trkpt>
      <trkpt lat="44.65246" lon="5.16339">
        <ele>921</ele>
        <time>2015-05-24T09:49:53Z</time>
      </trkpt>
      <trkpt lat="44.65245" lon="5.16339">
        <ele>921</ele>
        <time>2015-05-24T09:50:13Z</time>
      </trkpt>
      <trkpt lat="44.65244" lon="5.16338">
        <ele>920</ele>
        <time>2015-05-24T09:50:40Z</time>
      </trkpt>
      <trkpt lat="44.65244" lon="5.16337">
        <ele>920</ele>
        <time>2015-05-24T09:51:16Z</time>
      </trkpt>
      <trkpt lat="44.65244" lon="5.16338">
        <ele>921</ele>
        <time>2015-05-24T09:51:41Z</time>
      </trkpt>
      <trkpt lat="44.65244" lon="5.16337">
        <ele>920</ele>
        <time>2015-05-24T09:52:12Z</time>
      </trkpt>
      <trkpt lat="44.65243" lon="5.16336">
        <ele>920</ele>
        <time>2015-05-24T09:52:44Z</time>
      </trkpt>
      <trkpt lat="44.65243" lon="5.16336">
        <ele>920</ele>
        <time>2015-05-24T09:53:04Z</time>
      </trkpt>
      <trkpt lat="44.65239" lon="5.16338">
        <ele>921</ele>
        <time>2015-05-24T09:53:30Z</time>
      </trkpt>
      <trkpt lat="44.65217" lon="5.16339">
        <ele>922</ele>
        <time>2015-05-24T09:53:46Z</time>
      </trkpt>
      <trkpt lat="44.65197" lon="5.16338">
        <ele>924</ele>
        <time>2015-05-24T09:53:59Z</time>
      </trkpt>
      <trkpt lat="44.6518" lon="5.16338">
        <ele>926</ele>
        <time>2015-05-24T09:54:13Z</time>
      </trkpt>
      <trkpt lat="44.65176" lon="5.16339">
        <ele>927</ele>
        <time>2015-05-24T09:54:15Z</time>
      </trkpt>
      <trkpt lat="44.65175" lon="5.16339">
        <ele>927</ele>
        <time>2015-05-24T09:54:16Z</time>
      </trkpt>
      <trkpt lat="44.65173" lon="5.16339">
        <ele>927</ele>
        <time>2015-05-24T09:54:17Z</time>
      </trkpt>
      <trkpt lat="44.65148" lon="5.16344">
        <ele>930</ele>
        <time>2015-05-24T09:54:32Z</time>
      </trkpt>
      <trkpt lat="44.65126" lon="5.16347">
        <ele>931</ele>
        <time>2015-05-24T09:54:45Z</time>
      </trkpt>
      <trkpt lat="44.65124" lon="5.16347">
        <ele>931</ele>
        <time>2015-05-24T09:54:47Z</time>
      </trkpt>
      <trkpt lat="44.65122" lon="5.16348">
        <ele>930</ele>
        <time>2015-05-24T09:54:48Z</time>
      </trkpt>
      <trkpt lat="44.65099" lon="5.16348">
        <ele>928</ele>
        <time>2015-05-24T09:55:00Z</time>
      </trkpt>
      <trkpt lat="44.65094" lon="5.16371">
        <ele>930</ele>
        <time>2015-05-24T09:55:12Z</time>
      </trkpt>
      <trkpt lat="44.65097" lon="5.16401">
        <ele>931</ele>
        <time>2015-05-24T09:55:26Z</time>
      </trkpt>
      <trkpt lat="44.65107" lon="5.16426">
        <ele>934</ele>
        <time>2015-05-24T09:55:40Z</time>
      </trkpt>
      <trkpt lat="44.65114" lon="5.1644">
        <ele>936</ele>
        <time>2015-05-24T09:55:49Z</time>
      </trkpt>
      <trkpt lat="44.65115" lon="5.16441">
        <ele>936</ele>
        <time>2015-05-24T09:55:50Z</time>
      </trkpt>
      <trkpt lat="44.65128" lon="5.16455">
        <ele>938</ele>
        <time>2015-05-24T09:56:03Z</time>
      </trkpt>
      <trkpt lat="44.65141" lon="5.16467">
        <ele>941</ele>
        <time>2015-05-24T09:56:15Z</time>
      </trkpt>
      <trkpt lat="44.65151" lon="5.16474">
        <ele>943</ele>
        <time>2015-05-24T09:56:24Z</time>
      </trkpt>
      <trkpt lat="44.65165" lon="5.1649">
        <ele>947</ele>
        <time>2015-05-24T09:56:37Z</time>
      </trkpt>
      <trkpt lat="44.65172" lon="5.16504">
        <ele>948</ele>
        <time>2015-05-24T09:56:46Z</time>
      </trkpt>
      <trkpt lat="44.65173" lon="5.16506">
        <ele>948</ele>
        <time>2015-05-24T09:56:48Z</time>
      </trkpt>
      <trkpt lat="44.65176" lon="5.16514">
        <ele>949</ele>
        <time>2015-05-24T09:56:53Z</time>
      </trkpt>
      <trkpt lat="44.65184" lon="5.16529">
        <ele>951</ele>
        <time>2015-05-24T09:57:03Z</time>
      </trkpt>
      <trkpt lat="44.65185" lon="5.16531">
        <ele>951</ele>
        <time>2015-05-24T09:57:04Z</time>
      </trkpt>
      <trkpt lat="44.65198" lon="5.16557">
        <ele>956</ele>
        <time>2015-05-24T09:57:19Z</time>
      </trkpt>
      <trkpt lat="44.65204" lon="5.16572">
        <ele>958</ele>
        <time>2015-05-24T09:57:27Z</time>
      </trkpt>
      <trkpt lat="44.65211" lon="5.16591">
        <ele>962</ele>
        <time>2015-05-24T09:57:38Z</time>
      </trkpt>
      <trkpt lat="44.65212" lon="5.16593">
        <ele>962</ele>
        <time>2015-05-24T09:57:39Z</time>
      </trkpt>
      <trkpt lat="44.65212" lon="5.16595">
        <ele>962</ele>
        <time>2015-05-24T09:57:40Z</time>
      </trkpt>
      <trkpt lat="44.65219" lon="5.16622">
        <ele>965</ele>
        <time>2015-05-24T09:57:55Z</time>
      </trkpt>
      <trkpt lat="44.65229" lon="5.1665">
        <ele>969</ele>
        <time>2015-05-24T09:58:10Z</time>
      </trkpt>
      <trkpt lat="44.65229" lon="5.16651">
        <ele>969</ele>
        <time>2015-05-24T09:58:11Z</time>
      </trkpt>
      <trkpt lat="44.65231" lon="5.16659">
        <ele>970</ele>
        <time>2015-05-24T09:58:15Z</time>
      </trkpt>
      <trkpt lat="44.65232" lon="5.1666">
        <ele>970</ele>
        <time>2015-05-24T09:58:16Z</time>
      </trkpt>
      <trkpt lat="44.65233" lon="5.16662">
        <ele>970</ele>
        <time>2015-05-24T09:58:17Z</time>
      </trkpt>
      <trkpt lat="44.65237" lon="5.16677">
        <ele>971</ele>
        <time>2015-05-24T09:58:25Z</time>
      </trkpt>
      <trkpt lat="44.65237" lon="5.16679">
        <ele>971</ele>
        <time>2015-05-24T09:58:26Z</time>
      </trkpt>
      <trkpt lat="44.65237" lon="5.1668">
        <ele>971</ele>
        <time>2015-05-24T09:58:27Z</time>
      </trkpt>
      <trkpt lat="44.65238" lon="5.16682">
        <ele>971</ele>
        <time>2015-05-24T09:58:28Z</time>
      </trkpt>
      <trkpt lat="44.65239" lon="5.16684">
        <ele>971</ele>
        <time>2015-05-24T09:58:29Z</time>
      </trkpt>
      <trkpt lat="44.65248" lon="5.16709">
        <ele>974</ele>
        <time>2015-05-24T09:58:44Z</time>
      </trkpt>
      <trkpt lat="44.65252" lon="5.16715">
        <ele>976</ele>
        <time>2015-05-24T09:58:48Z</time>
      </trkpt>
      <trkpt lat="44.65257" lon="5.16725">
        <ele>977</ele>
        <time>2015-05-24T09:58:54Z</time>
      </trkpt>
      <trkpt lat="44.65268" lon="5.16744">
        <ele>981</ele>
        <time>2015-05-24T09:59:09Z</time>
      </trkpt>
      <trkpt lat="44.65272" lon="5.16748">
        <ele>982</ele>
        <time>2015-05-24T09:59:13Z</time>
      </trkpt>
      <trkpt lat="44.65285" lon="5.16759">
        <ele>986</ele>
        <time>2015-05-24T09:59:24Z</time>
      </trkpt>
      <trkpt lat="44.65287" lon="5.16763">
        <ele>986</ele>
        <time>2015-05-24T09:59:26Z</time>
      </trkpt>
      <trkpt lat="44.65293" lon="5.1677">
        <ele>987</ele>
        <time>2015-05-24T09:59:31Z</time>
      </trkpt>
      <trkpt lat="44.65289" lon="5.16786">
        <ele>990</ele>
        <time>2015-05-24T09:59:41Z</time>
      </trkpt>
      <trkpt lat="44.65287" lon="5.16787">
        <ele>990</ele>
        <time>2015-05-24T09:59:42Z</time>
      </trkpt>
      <trkpt lat="44.65275" lon="5.1679">
        <ele>989</ele>
        <time>2015-05-24T09:59:49Z</time>
      </trkpt>
      <trkpt lat="44.65254" lon="5.16791">
        <ele>990</ele>
        <time>2015-05-24T10:00:03Z</time>
      </trkpt>
      <trkpt lat="44.65227" lon="5.16794">
        <ele>994</ele>
        <time>2015-05-24T10:00:19Z</time>
      </trkpt>
      <trkpt lat="44.65223" lon="5.16793">
        <ele>995</ele>
        <time>2015-05-24T10:00:22Z</time>
      </trkpt>
      <trkpt lat="44.65221" lon="5.16793">
        <ele>995</ele>
        <time>2015-05-24T10:00:23Z</time>
      </trkpt>
      <trkpt lat="44.65211" lon="5.16791">
        <ele>996</ele>
        <time>2015-05-24T10:00:30Z</time>
      </trkpt>
      <trkpt lat="44.6521" lon="5.16791">
        <ele>996</ele>
        <time>2015-05-24T10:00:31Z</time>
      </trkpt>
      <trkpt lat="44.65209" lon="5.16791">
        <ele>997</ele>
        <time>2015-05-24T10:00:32Z</time>
      </trkpt>
      <trkpt lat="44.65207" lon="5.16791">
        <ele>997</ele>
        <time>2015-05-24T10:00:33Z</time>
      </trkpt>
      <trkpt lat="44.65206" lon="5.16791">
        <ele>997</ele>
        <time>2015-05-24T10:00:34Z</time>
      </trkpt>
      <trkpt lat="44.65205" lon="5.16791">
        <ele>997</ele>
        <time>2015-05-24T10:00:35Z</time>
      </trkpt>
      <trkpt lat="44.65204" lon="5.16792">
        <ele>998</ele>
        <time>2015-05-24T10:00:36Z</time>
      </trkpt>
      <trkpt lat="44.65195" lon="5.16794">
        <ele>1000</ele>
        <time>2015-05-24T10:00:42Z</time>
      </trkpt>
      <trkpt lat="44.65193" lon="5.16794">
        <ele>1001</ele>
        <time>2015-05-24T10:00:43Z</time>
      </trkpt>
      <trkpt lat="44.65192" lon="5.16794">
        <ele>1001</ele>
        <time>2015-05-24T10:00:44Z</time>
      </trkpt>
      <trkpt lat="44.65191" lon="5.16794">
        <ele>1001</ele>
        <time>2015-05-24T10:00:45Z</time>
      </trkpt>
      <trkpt lat="44.65189" lon="5.16794">
        <ele>1002</ele>
        <time>2015-05-24T10:00:46Z</time>
      </trkpt>
      <trkpt lat="44.65188" lon="5.16795">
        <ele>1002</ele>
        <time>2015-05-24T10:00:47Z</time>
      </trkpt>
      <trkpt lat="44.65186" lon="5.16795">
        <ele>1002</ele>
        <time>2015-05-24T10:00:48Z</time>
      </trkpt>
      <trkpt lat="44.65184" lon="5.16795">
        <ele>1003</ele>
        <time>2015-05-24T10:00:49Z</time>
      </trkpt>
      <trkpt lat="44.65183" lon="5.16795">
        <ele>1003</ele>
        <time>2015-05-24T10:00:50Z</time>
      </trkpt>
      <trkpt lat="44.65181" lon="5.16795">
        <ele>1003</ele>
        <time>2015-05-24T10:00:51Z</time>
      </trkpt>
      <trkpt lat="44.65179" lon="5.16794">
        <ele>1003</ele>
        <time>2015-05-24T10:00:52Z</time>
      </trkpt>
      <trkpt lat="44.65175" lon="5.16794">
        <ele>1004</ele>
        <time>2015-05-24T10:00:55Z</time>
      </trkpt>
      <trkpt lat="44.65173" lon="5.16793">
        <ele>1004</ele>
        <time>2015-05-24T10:00:56Z</time>
      </trkpt>
      <trkpt lat="44.65172" lon="5.16792">
        <ele>1004</ele>
        <time>2015-05-24T10:00:57Z</time>
      </trkpt>
      <trkpt lat="44.65171" lon="5.16791">
        <ele>1004</ele>
        <time>2015-05-24T10:00:58Z</time>
      </trkpt>
      <trkpt lat="44.65169" lon="5.16791">
        <ele>1004</ele>
        <time>2015-05-24T10:00:59Z</time>
      </trkpt>
      <trkpt lat="44.65168" lon="5.1679">
        <ele>1004</ele>
        <time>2015-05-24T10:01:00Z</time>
      </trkpt>
      <trkpt lat="44.65166" lon="5.16789">
        <ele>1004</ele>
        <time>2015-05-24T10:01:01Z</time>
      </trkpt>
      <trkpt lat="44.65164" lon="5.16788">
        <ele>1003</ele>
        <time>2015-05-24T10:01:02Z</time>
      </trkpt>
      <trkpt lat="44.65152" lon="5.16777">
        <ele>1001</ele>
        <time>2015-05-24T10:01:11Z</time>
      </trkpt>
      <trkpt lat="44.6515" lon="5.16776">
        <ele>1001</ele>
        <time>2015-05-24T10:01:12Z</time>
      </trkpt>
      <trkpt lat="44.65149" lon="5.16775">
        <ele>1001</ele>
        <time>2015-05-24T10:01:13Z</time>
      </trkpt>
      <trkpt lat="44.65147" lon="5.16774">
        <ele>1001</ele>
        <time>2015-05-24T10:01:14Z</time>
      </trkpt>
      <trkpt lat="44.65146" lon="5.16773">
        <ele>1000</ele>
        <time>2015-05-24T10:01:15Z</time>
      </trkpt>
      <trkpt lat="44.65144" lon="5.16772">
        <ele>1000</ele>
        <time>2015-05-24T10:01:16Z</time>
      </trkpt>
      <trkpt lat="44.65142" lon="5.16771">
        <ele>1000</ele>
        <time>2015-05-24T10:01:17Z</time>
      </trkpt>
      <trkpt lat="44.65141" lon="5.16771">
        <ele>1000</ele>
        <time>2015-05-24T10:01:18Z</time>
      </trkpt>
      <trkpt lat="44.65139" lon="5.16772">
        <ele>1000</ele>
        <time>2015-05-24T10:01:19Z</time>
      </trkpt>
      <trkpt lat="44.65137" lon="5.16772">
        <ele>1001</ele>
        <time>2015-05-24T10:01:20Z</time>
      </trkpt>
      <trkpt lat="44.65136" lon="5.16774">
        <ele>1001</ele>
        <time>2015-05-24T10:01:21Z</time>
      </trkpt>
      <trkpt lat="44.65134" lon="5.16775">
        <ele>1001</ele>
        <time>2015-05-24T10:01:22Z</time>
      </trkpt>
      <trkpt lat="44.65133" lon="5.16776">
        <ele>1001</ele>
        <time>2015-05-24T10:01:23Z</time>
      </trkpt>
      <trkpt lat="44.65128" lon="5.16789">
        <ele>1002</ele>
        <time>2015-05-24T10:01:29Z</time>
      </trkpt>
      <trkpt lat="44.65129" lon="5.16791">
        <ele>1002</ele>
        <time>2015-05-24T10:01:30Z</time>
      </trkpt>
      <trkpt lat="44.65129" lon="5.16816">
        <ele>1005</ele>
        <time>2015-05-24T10:01:43Z</time>
      </trkpt>
      <trkpt lat="44.65129" lon="5.16827">
        <ele>1006</ele>
        <time>2015-05-24T10:01:48Z</time>
      </trkpt>
      <trkpt lat="44.65129" lon="5.16829">
        <ele>1006</ele>
        <time>2015-05-24T10:01:49Z</time>
      </trkpt>
      <trkpt lat="44.6513" lon="5.16831">
        <ele>1006</ele>
        <time>2015-05-24T10:01:50Z</time>
      </trkpt>
      <trkpt lat="44.65129" lon="5.16833">
        <ele>1006</ele>
        <time>2015-05-24T10:01:51Z</time>
      </trkpt>
      <trkpt lat="44.65129" lon="5.16835">
        <ele>1006</ele>
        <time>2015-05-24T10:01:52Z</time>
      </trkpt>
      <trkpt lat="44.65126" lon="5.16859">
        <ele>1005</ele>
        <time>2015-05-24T10:02:03Z</time>
      </trkpt>
      <trkpt lat="44.65125" lon="5.16882">
        <ele>1006</ele>
        <time>2015-05-24T10:02:13Z</time>
      </trkpt>
      <trkpt lat="44.65126" lon="5.16885">
        <ele>1006</ele>
        <time>2015-05-24T10:02:14Z</time>
      </trkpt>
      <trkpt lat="44.65127" lon="5.16893">
        <ele>1006</ele>
        <time>2015-05-24T10:02:18Z</time>
      </trkpt>
      <trkpt lat="44.65128" lon="5.16894">
        <ele>1007</ele>
        <time>2015-05-24T10:02:19Z</time>
      </trkpt>
      <trkpt lat="44.65129" lon="5.16896">
        <ele>1007</ele>
        <time>2015-05-24T10:02:20Z</time>
      </trkpt>
      <trkpt lat="44.65129" lon="5.16898">
        <ele>1007</ele>
        <time>2015-05-24T10:02:21Z</time>
      </trkpt>
      <trkpt lat="44.6513" lon="5.16899">
        <ele>1007</ele>
        <time>2015-05-24T10:02:22Z</time>
      </trkpt>
      <trkpt lat="44.6513" lon="5.16901">
        <ele>1008</ele>
        <time>2015-05-24T10:02:23Z</time>
      </trkpt>
      <trkpt lat="44.65131" lon="5.16903">
        <ele>1008</ele>
        <time>2015-05-24T10:02:24Z</time>
      </trkpt>
      <trkpt lat="44.65141" lon="5.16933">
        <ele>1014</ele>
        <time>2015-05-24T10:02:39Z</time>
      </trkpt>
      <trkpt lat="44.65142" lon="5.16935">
        <ele>1014</ele>
        <time>2015-05-24T10:02:40Z</time>
      </trkpt>
      <trkpt lat="44.65142" lon="5.16937">
        <ele>1015</ele>
        <time>2015-05-24T10:02:41Z</time>
      </trkpt>
      <trkpt lat="44.65142" lon="5.16939">
        <ele>1015</ele>
        <time>2015-05-24T10:02:42Z</time>
      </trkpt>
      <trkpt lat="44.65142" lon="5.16941">
        <ele>1015</ele>
        <time>2015-05-24T10:02:43Z</time>
      </trkpt>
      <trkpt lat="44.65142" lon="5.16943">
        <ele>1015</ele>
        <time>2015-05-24T10:02:44Z</time>
      </trkpt>
      <trkpt lat="44.65142" lon="5.16945">
        <ele>1015</ele>
        <time>2015-05-24T10:02:45Z</time>
      </trkpt>
      <trkpt lat="44.65142" lon="5.16977">
        <ele>1017</ele>
        <time>2015-05-24T10:03:00Z</time>
      </trkpt>
      <trkpt lat="44.65144" lon="5.17004">
        <ele>1020</ele>
        <time>2015-05-24T10:03:12Z</time>
      </trkpt>
      <trkpt lat="44.65145" lon="5.17007">
        <ele>1020</ele>
        <time>2015-05-24T10:03:13Z</time>
      </trkpt>
      <trkpt lat="44.65145" lon="5.17009">
        <ele>1021</ele>
        <time>2015-05-24T10:03:14Z</time>
      </trkpt>
      <trkpt lat="44.65146" lon="5.17011">
        <ele>1021</ele>
        <time>2015-05-24T10:03:15Z</time>
      </trkpt>
      <trkpt lat="44.65146" lon="5.17014">
        <ele>1022</ele>
        <time>2015-05-24T10:03:16Z</time>
      </trkpt>
      <trkpt lat="44.65147" lon="5.17016">
        <ele>1022</ele>
        <time>2015-05-24T10:03:17Z</time>
      </trkpt>
      <trkpt lat="44.65148" lon="5.1702">
        <ele>1023</ele>
        <time>2015-05-24T10:03:18Z</time>
      </trkpt>
      <trkpt lat="44.65148" lon="5.17022">
        <ele>1023</ele>
        <time>2015-05-24T10:03:19Z</time>
      </trkpt>
      <trkpt lat="44.65152" lon="5.17051">
        <ele>1026</ele>
        <time>2015-05-24T10:03:30Z</time>
      </trkpt>
      <trkpt lat="44.65153" lon="5.17052">
        <ele>1027</ele>
        <time>2015-05-24T10:03:31Z</time>
      </trkpt>
      <trkpt lat="44.65162" lon="5.17081">
        <ele>1030</ele>
        <time>2015-05-24T10:03:44Z</time>
      </trkpt>
      <trkpt lat="44.65161" lon="5.17083">
        <ele>1030</ele>
        <time>2015-05-24T10:03:45Z</time>
      </trkpt>
      <trkpt lat="44.65162" lon="5.17085">
        <ele>1031</ele>
        <time>2015-05-24T10:03:46Z</time>
      </trkpt>
      <trkpt lat="44.6517" lon="5.17121">
        <ele>1035</ele>
        <time>2015-05-24T10:04:00Z</time>
      </trkpt>
      <trkpt lat="44.65169" lon="5.17137">
        <ele>1035</ele>
        <time>2015-05-24T10:04:07Z</time>
      </trkpt>
      <trkpt lat="44.65168" lon="5.17139">
        <ele>1034</ele>
        <time>2015-05-24T10:04:09Z</time>
      </trkpt>
      <trkpt lat="44.65166" lon="5.17138">
        <ele>1034</ele>
        <time>2015-05-24T10:04:10Z</time>
      </trkpt>
      <trkpt lat="44.65164" lon="5.17137">
        <ele>1033</ele>
        <time>2015-05-24T10:04:11Z</time>
      </trkpt>
      <trkpt lat="44.65163" lon="5.17136">
        <ele>1032</ele>
        <time>2015-05-24T10:04:12Z</time>
      </trkpt>
      <trkpt lat="44.65161" lon="5.17135">
        <ele>1032</ele>
        <time>2015-05-24T10:04:13Z</time>
      </trkpt>
      <trkpt lat="44.65159" lon="5.17133">
        <ele>1032</ele>
        <time>2015-05-24T10:04:14Z</time>
      </trkpt>
      <trkpt lat="44.65158" lon="5.17132">
        <ele>1032</ele>
        <time>2015-05-24T10:04:15Z</time>
      </trkpt>
      <trkpt lat="44.6513" lon="5.17116">
        <ele>1030</ele>
        <time>2015-05-24T10:04:30Z</time>
      </trkpt>
      <trkpt lat="44.65101" lon="5.17106">
        <ele>1033</ele>
        <time>2015-05-24T10:04:45Z</time>
      </trkpt>
      <trkpt lat="44.65076" lon="5.17096">
        <ele>1037</ele>
        <time>2015-05-24T10:04:59Z</time>
      </trkpt>
      <trkpt lat="44.65061" lon="5.17085">
        <ele>1038</ele>
        <time>2015-05-24T10:05:09Z</time>
      </trkpt>
      <trkpt lat="44.65059" lon="5.17083">
        <ele>1038</ele>
        <time>2015-05-24T10:05:10Z</time>
      </trkpt>
      <trkpt lat="44.65058" lon="5.17081">
        <ele>1037</ele>
        <time>2015-05-24T10:05:11Z</time>
      </trkpt>
      <trkpt lat="44.65056" lon="5.17078">
        <ele>1037</ele>
        <time>2015-05-24T10:05:12Z</time>
      </trkpt>
      <trkpt lat="44.65055" lon="5.17076">
        <ele>1037</ele>
        <time>2015-05-24T10:05:13Z</time>
      </trkpt>
      <trkpt lat="44.65054" lon="5.17075">
        <ele>1037</ele>
        <time>2015-05-24T10:05:14Z</time>
      </trkpt>
      <trkpt lat="44.65052" lon="5.17073">
        <ele>1037</ele>
        <time>2015-05-24T10:05:15Z</time>
      </trkpt>
      <trkpt lat="44.6505" lon="5.17071">
        <ele>1036</ele>
        <time>2015-05-24T10:05:16Z</time>
      </trkpt>
      <trkpt lat="44.65031" lon="5.17056">
        <ele>1037</ele>
        <time>2015-05-24T10:05:28Z</time>
      </trkpt>
      <trkpt lat="44.65009" lon="5.17047">
        <ele>1042</ele>
        <time>2015-05-24T10:05:40Z</time>
      </trkpt>
      <trkpt lat="44.64982" lon="5.1703">
        <ele>1045</ele>
        <time>2015-05-24T10:05:53Z</time>
      </trkpt>
      <trkpt lat="44.64958" lon="5.17011">
        <ele>1047</ele>
        <time>2015-05-24T10:06:07Z</time>
      </trkpt>
      <trkpt lat="44.64934" lon="5.16991">
        <ele>1049</ele>
        <time>2015-05-24T10:06:21Z</time>
      </trkpt>
      <trkpt lat="44.6492" lon="5.1698">
        <ele>1050</ele>
        <time>2015-05-24T10:06:29Z</time>
      </trkpt>
      <trkpt lat="44.64918" lon="5.16979">
        <ele>1050</ele>
        <time>2015-05-24T10:06:30Z</time>
      </trkpt>
      <trkpt lat="44.64916" lon="5.16978">
        <ele>1051</ele>
        <time>2015-05-24T10:06:31Z</time>
      </trkpt>
      <trkpt lat="44.64914" lon="5.16977">
        <ele>1051</ele>
        <time>2015-05-24T10:06:32Z</time>
      </trkpt>
      <trkpt lat="44.64912" lon="5.16976">
        <ele>1051</ele>
        <time>2015-05-24T10:06:33Z</time>
      </trkpt>
      <trkpt lat="44.64887" lon="5.16963">
        <ele>1055</ele>
        <time>2015-05-24T10:06:47Z</time>
      </trkpt>
      <trkpt lat="44.64866" lon="5.16946">
        <ele>1057</ele>
        <time>2015-05-24T10:06:59Z</time>
      </trkpt>
      <trkpt lat="44.64854" lon="5.16937">
        <ele>1058</ele>
        <time>2015-05-24T10:07:06Z</time>
      </trkpt>
      <trkpt lat="44.64852" lon="5.16936">
        <ele>1058</ele>
        <time>2015-05-24T10:07:07Z</time>
      </trkpt>
      <trkpt lat="44.64851" lon="5.16934">
        <ele>1058</ele>
        <time>2015-05-24T10:07:08Z</time>
      </trkpt>
      <trkpt lat="44.6485" lon="5.16932">
        <ele>1057</ele>
        <time>2015-05-24T10:07:09Z</time>
      </trkpt>
      <trkpt lat="44.64848" lon="5.1693">
        <ele>1057</ele>
        <time>2015-05-24T10:07:10Z</time>
      </trkpt>
      <trkpt lat="44.64847" lon="5.16929">
        <ele>1057</ele>
        <time>2015-05-24T10:07:11Z</time>
      </trkpt>
      <trkpt lat="44.64845" lon="5.16927">
        <ele>1057</ele>
        <time>2015-05-24T10:07:12Z</time>
      </trkpt>
      <trkpt lat="44.64844" lon="5.16926">
        <ele>1057</ele>
        <time>2015-05-24T10:07:13Z</time>
      </trkpt>
      <trkpt lat="44.64842" lon="5.16924">
        <ele>1058</ele>
        <time>2015-05-24T10:07:14Z</time>
      </trkpt>
      <trkpt lat="44.64823" lon="5.16906">
        <ele>1058</ele>
        <time>2015-05-24T10:07:25Z</time>
      </trkpt>
      <trkpt lat="44.64819" lon="5.16902">
        <ele>1058</ele>
        <time>2015-05-24T10:07:28Z</time>
      </trkpt>
      <trkpt lat="44.64818" lon="5.169">
        <ele>1058</ele>
        <time>2015-05-24T10:07:29Z</time>
      </trkpt>
      <trkpt lat="44.64816" lon="5.16898">
        <ele>1058</ele>
        <time>2015-05-24T10:07:30Z</time>
      </trkpt>
      <trkpt lat="44.64813" lon="5.16897">
        <ele>1059</ele>
        <time>2015-05-24T10:07:31Z</time>
      </trkpt>
      <trkpt lat="44.64812" lon="5.16896">
        <ele>1059</ele>
        <time>2015-05-24T10:07:32Z</time>
      </trkpt>
      <trkpt lat="44.6481" lon="5.16895">
        <ele>1059</ele>
        <time>2015-05-24T10:07:33Z</time>
      </trkpt>
      <trkpt lat="44.64808" lon="5.16894">
        <ele>1060</ele>
        <time>2015-05-24T10:07:34Z</time>
      </trkpt>
      <trkpt lat="44.64806" lon="5.16893">
        <ele>1060</ele>
        <time>2015-05-24T10:07:35Z</time>
      </trkpt>
      <trkpt lat="44.64804" lon="5.16891">
        <ele>1060</ele>
        <time>2015-05-24T10:07:36Z</time>
      </trkpt>
      <trkpt lat="44.64802" lon="5.1689">
        <ele>1060</ele>
        <time>2015-05-24T10:07:37Z</time>
      </trkpt>
      <trkpt lat="44.648" lon="5.16888">
        <ele>1060</ele>
        <time>2015-05-24T10:07:38Z</time>
      </trkpt>
      <trkpt lat="44.64799" lon="5.16887">
        <ele>1060</ele>
        <time>2015-05-24T10:07:39Z</time>
      </trkpt>
      <trkpt lat="44.64797" lon="5.16886">
        <ele>1060</ele>
        <time>2015-05-24T10:07:40Z</time>
      </trkpt>
      <trkpt lat="44.64795" lon="5.16885">
        <ele>1060</ele>
        <time>2015-05-24T10:07:41Z</time>
      </trkpt>
      <trkpt lat="44.64794" lon="5.16885">
        <ele>1060</ele>
        <time>2015-05-24T10:07:42Z</time>
      </trkpt>
      <trkpt lat="44.64792" lon="5.16885">
        <ele>1060</ele>
        <time>2015-05-24T10:07:43Z</time>
      </trkpt>
      <trkpt lat="44.6479" lon="5.16885">
        <ele>1061</ele>
        <time>2015-05-24T10:07:44Z</time>
      </trkpt>
      <trkpt lat="44.64788" lon="5.16885">
        <ele>1061</ele>
        <time>2015-05-24T10:07:45Z</time>
      </trkpt>
      <trkpt lat="44.64786" lon="5.16885">
        <ele>1061</ele>
        <time>2015-05-24T10:07:46Z</time>
      </trkpt>
      <trkpt lat="44.64784" lon="5.16884">
        <ele>1062</ele>
        <time>2015-05-24T10:07:47Z</time>
      </trkpt>
      <trkpt lat="44.64782" lon="5.16884">
        <ele>1062</ele>
        <time>2015-05-24T10:07:48Z</time>
      </trkpt>
      <trkpt lat="44.64781" lon="5.16883">
        <ele>1062</ele>
        <time>2015-05-24T10:07:49Z</time>
      </trkpt>
      <trkpt lat="44.64779" lon="5.16883">
        <ele>1062</ele>
        <time>2015-05-24T10:07:50Z</time>
      </trkpt>
      <trkpt lat="44.64768" lon="5.16883">
        <ele>1064</ele>
        <time>2015-05-24T10:07:56Z</time>
      </trkpt>
      <trkpt lat="44.64765" lon="5.16883">
        <ele>1065</ele>
        <time>2015-05-24T10:07:57Z</time>
      </trkpt>
      <trkpt lat="44.64741" lon="5.16888">
        <ele>1065</ele>
        <time>2015-05-24T10:08:10Z</time>
      </trkpt>
      <trkpt lat="44.64715" lon="5.16901">
        <ele>1067</ele>
        <time>2015-05-24T10:08:25Z</time>
      </trkpt>
      <trkpt lat="44.64713" lon="5.16902">
        <ele>1067</ele>
        <time>2015-05-24T10:08:26Z</time>
      </trkpt>
      <trkpt lat="44.6471" lon="5.16904">
        <ele>1067</ele>
        <time>2015-05-24T10:08:27Z</time>
      </trkpt>
      <trkpt lat="44.6469" lon="5.16918">
        <ele>1067</ele>
        <time>2015-05-24T10:08:38Z</time>
      </trkpt>
      <trkpt lat="44.64675" lon="5.1693">
        <ele>1068</ele>
        <time>2015-05-24T10:08:47Z</time>
      </trkpt>
      <trkpt lat="44.64658" lon="5.16949">
        <ele>1069</ele>
        <time>2015-05-24T10:08:57Z</time>
      </trkpt>
      <trkpt lat="44.64639" lon="5.1697">
        <ele>1070</ele>
        <time>2015-05-24T10:09:10Z</time>
      </trkpt>
      <trkpt lat="44.6462" lon="5.16993">
        <ele>1071</ele>
        <time>2015-05-24T10:09:22Z</time>
      </trkpt>
      <trkpt lat="44.64598" lon="5.17024">
        <ele>1071</ele>
        <time>2015-05-24T10:09:36Z</time>
      </trkpt>
      <trkpt lat="44.64582" lon="5.17059">
        <ele>1071</ele>
        <time>2015-05-24T10:09:50Z</time>
      </trkpt>
      <trkpt lat="44.6458" lon="5.17068">
        <ele>1071</ele>
        <time>2015-05-24T10:09:53Z</time>
      </trkpt>
      <trkpt lat="44.6458" lon="5.17071">
        <ele>1071</ele>
        <time>2015-05-24T10:09:54Z</time>
      </trkpt>
      <trkpt lat="44.6458" lon="5.17074">
        <ele>1071</ele>
        <time>2015-05-24T10:09:55Z</time>
      </trkpt>
      <trkpt lat="44.6458" lon="5.17078">
        <ele>1071</ele>
        <time>2015-05-24T10:09:56Z</time>
      </trkpt>
      <trkpt lat="44.64581" lon="5.17081">
        <ele>1071</ele>
        <time>2015-05-24T10:09:57Z</time>
      </trkpt>
      <trkpt lat="44.64581" lon="5.17084">
        <ele>1072</ele>
        <time>2015-05-24T10:09:58Z</time>
      </trkpt>
      <trkpt lat="44.64588" lon="5.17126">
        <ele>1074</ele>
        <time>2015-05-24T10:10:11Z</time>
      </trkpt>
      <trkpt lat="44.64589" lon="5.17131">
        <ele>1073</ele>
        <time>2015-05-24T10:10:13Z</time>
      </trkpt>
      <trkpt lat="44.6459" lon="5.17133">
        <ele>1074</ele>
        <time>2015-05-24T10:10:14Z</time>
      </trkpt>
      <trkpt lat="44.64591" lon="5.17136">
        <ele>1074</ele>
        <time>2015-05-24T10:10:15Z</time>
      </trkpt>
      <trkpt lat="44.64591" lon="5.17138">
        <ele>1074</ele>
        <time>2015-05-24T10:10:16Z</time>
      </trkpt>
      <trkpt lat="44.64592" lon="5.17141">
        <ele>1073</ele>
        <time>2015-05-24T10:10:17Z</time>
      </trkpt>
      <trkpt lat="44.64592" lon="5.17144">
        <ele>1073</ele>
        <time>2015-05-24T10:10:18Z</time>
      </trkpt>
      <trkpt lat="44.64593" lon="5.17147">
        <ele>1073</ele>
        <time>2015-05-24T10:10:19Z</time>
      </trkpt>
      <trkpt lat="44.64594" lon="5.1715">
        <ele>1073</ele>
        <time>2015-05-24T10:10:20Z</time>
      </trkpt>
      <trkpt lat="44.64594" lon="5.17153">
        <ele>1073</ele>
        <time>2015-05-24T10:10:21Z</time>
      </trkpt>
      <trkpt lat="44.64595" lon="5.17155">
        <ele>1074</ele>
        <time>2015-05-24T10:10:22Z</time>
      </trkpt>
      <trkpt lat="44.64598" lon="5.17163">
        <ele>1074</ele>
        <time>2015-05-24T10:10:25Z</time>
      </trkpt>
      <trkpt lat="44.64599" lon="5.17165">
        <ele>1074</ele>
        <time>2015-05-24T10:10:26Z</time>
      </trkpt>
      <trkpt lat="44.64604" lon="5.17176">
        <ele>1075</ele>
        <time>2015-05-24T10:10:32Z</time>
      </trkpt>
      <trkpt lat="44.64606" lon="5.17178">
        <ele>1076</ele>
        <time>2015-05-24T10:10:33Z</time>
      </trkpt>
      <trkpt lat="44.64626" lon="5.17196">
        <ele>1079</ele>
        <time>2015-05-24T10:10:47Z</time>
      </trkpt>
      <trkpt lat="44.64653" lon="5.17205">
        <ele>1085</ele>
        <time>2015-05-24T10:10:58Z</time>
      </trkpt>
      <trkpt lat="44.64658" lon="5.17208">
        <ele>1086</ele>
        <time>2015-05-24T10:11:01Z</time>
      </trkpt>
      <trkpt lat="44.6466" lon="5.17209">
        <ele>1086</ele>
        <time>2015-05-24T10:11:02Z</time>
      </trkpt>
      <trkpt lat="44.64663" lon="5.1721">
        <ele>1087</ele>
        <time>2015-05-24T10:11:03Z</time>
      </trkpt>
      <trkpt lat="44.64674" lon="5.17218">
        <ele>1088</ele>
        <time>2015-05-24T10:11:10Z</time>
      </trkpt>
      <trkpt lat="44.64676" lon="5.1722">
        <ele>1088</ele>
        <time>2015-05-24T10:11:11Z</time>
      </trkpt>
      <trkpt lat="44.64677" lon="5.17222">
        <ele>1089</ele>
        <time>2015-05-24T10:11:12Z</time>
      </trkpt>
      <trkpt lat="44.64679" lon="5.17224">
        <ele>1089</ele>
        <time>2015-05-24T10:11:13Z</time>
      </trkpt>
      <trkpt lat="44.64681" lon="5.17225">
        <ele>1089</ele>
        <time>2015-05-24T10:11:14Z</time>
      </trkpt>
      <trkpt lat="44.64682" lon="5.17228">
        <ele>1089</ele>
        <time>2015-05-24T10:11:15Z</time>
      </trkpt>
      <trkpt lat="44.64684" lon="5.1723">
        <ele>1089</ele>
        <time>2015-05-24T10:11:16Z</time>
      </trkpt>
      <trkpt lat="44.64687" lon="5.17234">
        <ele>1090</ele>
        <time>2015-05-24T10:11:19Z</time>
      </trkpt>
      <trkpt lat="44.64688" lon="5.17235">
        <ele>1090</ele>
        <time>2015-05-24T10:11:20Z</time>
      </trkpt>
      <trkpt lat="44.64694" lon="5.17241">
        <ele>1091</ele>
        <time>2015-05-24T10:11:24Z</time>
      </trkpt>
      <trkpt lat="44.64713" lon="5.17264">
        <ele>1092</ele>
        <time>2015-05-24T10:11:37Z</time>
      </trkpt>
      <trkpt lat="44.64732" lon="5.17286">
        <ele>1093</ele>
        <time>2015-05-24T10:11:49Z</time>
      </trkpt>
      <trkpt lat="44.64734" lon="5.17289">
        <ele>1094</ele>
        <time>2015-05-24T10:11:51Z</time>
      </trkpt>
      <trkpt lat="44.64737" lon="5.17292">
        <ele>1094</ele>
        <time>2015-05-24T10:11:53Z</time>
      </trkpt>
      <trkpt lat="44.6474" lon="5.17295">
        <ele>1094</ele>
        <time>2015-05-24T10:11:55Z</time>
      </trkpt>
      <trkpt lat="44.64741" lon="5.17297">
        <ele>1095</ele>
        <time>2015-05-24T10:11:56Z</time>
      </trkpt>
      <trkpt lat="44.64742" lon="5.17299">
        <ele>1095</ele>
        <time>2015-05-24T10:11:57Z</time>
      </trkpt>
      <trkpt lat="44.64744" lon="5.17301">
        <ele>1095</ele>
        <time>2015-05-24T10:11:58Z</time>
      </trkpt>
      <trkpt lat="44.64746" lon="5.17303">
        <ele>1095</ele>
        <time>2015-05-24T10:11:59Z</time>
      </trkpt>
      <trkpt lat="44.64747" lon="5.17305">
        <ele>1096</ele>
        <time>2015-05-24T10:12:00Z</time>
      </trkpt>
      <trkpt lat="44.64761" lon="5.17321">
        <ele>1096</ele>
        <time>2015-05-24T10:12:10Z</time>
      </trkpt>
      <trkpt lat="44.6477" lon="5.17329">
        <ele>1097</ele>
        <time>2015-05-24T10:12:17Z</time>
      </trkpt>
      <trkpt lat="44.64771" lon="5.17331">
        <ele>1097</ele>
        <time>2015-05-24T10:12:18Z</time>
      </trkpt>
      <trkpt lat="44.64772" lon="5.17333">
        <ele>1097</ele>
        <time>2015-05-24T10:12:19Z</time>
      </trkpt>
      <trkpt lat="44.64774" lon="5.17334">
        <ele>1097</ele>
        <time>2015-05-24T10:12:20Z</time>
      </trkpt>
      <trkpt lat="44.64775" lon="5.17336">
        <ele>1097</ele>
        <time>2015-05-24T10:12:21Z</time>
      </trkpt>
      <trkpt lat="44.64776" lon="5.17337">
        <ele>1097</ele>
        <time>2015-05-24T10:12:22Z</time>
      </trkpt>
      <trkpt lat="44.64779" lon="5.1734">
        <ele>1098</ele>
        <time>2015-05-24T10:12:24Z</time>
      </trkpt>
      <trkpt lat="44.64783" lon="5.17342">
        <ele>1099</ele>
        <time>2015-05-24T10:12:25Z</time>
      </trkpt>
      <trkpt lat="44.64787" lon="5.17344">
        <ele>1099</ele>
        <time>2015-05-24T10:12:26Z</time>
      </trkpt>
      <trkpt lat="44.64789" lon="5.17346">
        <ele>1100</ele>
        <time>2015-05-24T10:12:27Z</time>
      </trkpt>
      <trkpt lat="44.64791" lon="5.17348">
        <ele>1100</ele>
        <time>2015-05-24T10:12:28Z</time>
      </trkpt>
      <trkpt lat="44.64793" lon="5.1735">
        <ele>1101</ele>
        <time>2015-05-24T10:12:29Z</time>
      </trkpt>
      <trkpt lat="44.64795" lon="5.17352">
        <ele>1101</ele>
        <time>2015-05-24T10:12:30Z</time>
      </trkpt>
      <trkpt lat="44.64797" lon="5.17354">
        <ele>1101</ele>
        <time>2015-05-24T10:12:31Z</time>
      </trkpt>
      <trkpt lat="44.64798" lon="5.17355">
        <ele>1101</ele>
        <time>2015-05-24T10:12:32Z</time>
      </trkpt>
      <trkpt lat="44.648" lon="5.17356">
        <ele>1102</ele>
        <time>2015-05-24T10:12:33Z</time>
      </trkpt>
      <trkpt lat="44.64801" lon="5.17357">
        <ele>1102</ele>
        <time>2015-05-24T10:12:34Z</time>
      </trkpt>
      <trkpt lat="44.64803" lon="5.17359">
        <ele>1102</ele>
        <time>2015-05-24T10:12:35Z</time>
      </trkpt>
      <trkpt lat="44.64819" lon="5.17376">
        <ele>1104</ele>
        <time>2015-05-24T10:12:46Z</time>
      </trkpt>
      <trkpt lat="44.64824" lon="5.17379">
        <ele>1105</ele>
        <time>2015-05-24T10:12:49Z</time>
      </trkpt>
      <trkpt lat="44.64826" lon="5.1738">
        <ele>1105</ele>
        <time>2015-05-24T10:12:50Z</time>
      </trkpt>
      <trkpt lat="44.64828" lon="5.17381">
        <ele>1105</ele>
        <time>2015-05-24T10:12:51Z</time>
      </trkpt>
      <trkpt lat="44.6483" lon="5.17382">
        <ele>1105</ele>
        <time>2015-05-24T10:12:52Z</time>
      </trkpt>
      <trkpt lat="44.64832" lon="5.17383">
        <ele>1106</ele>
        <time>2015-05-24T10:12:53Z</time>
      </trkpt>
      <trkpt lat="44.64847" lon="5.17393">
        <ele>1108</ele>
        <time>2015-05-24T10:13:05Z</time>
      </trkpt>
      <trkpt lat="44.64851" lon="5.17397">
        <ele>1108</ele>
        <time>2015-05-24T10:13:08Z</time>
      </trkpt>
      <trkpt lat="44.64853" lon="5.174">
        <ele>1108</ele>
        <time>2015-05-24T10:13:09Z</time>
      </trkpt>
      <trkpt lat="44.64873" lon="5.17431">
        <ele>1111</ele>
        <time>2015-05-24T10:13:22Z</time>
      </trkpt>
      <trkpt lat="44.64879" lon="5.17461">
        <ele>1113</ele>
        <time>2015-05-24T10:13:34Z</time>
      </trkpt>
      <trkpt lat="44.64877" lon="5.17483">
        <ele>1113</ele>
        <time>2015-05-24T10:13:46Z</time>
      </trkpt>
      <trkpt lat="44.64873" lon="5.17514">
        <ele>1112</ele>
        <time>2015-05-24T10:13:59Z</time>
      </trkpt>
      <trkpt lat="44.64868" lon="5.17552">
        <ele>1111</ele>
        <time>2015-05-24T10:14:12Z</time>
      </trkpt>
      <trkpt lat="44.64866" lon="5.17573">
        <ele>1110</ele>
        <time>2015-05-24T10:14:20Z</time>
      </trkpt>
      <trkpt lat="44.64866" lon="5.17576">
        <ele>1110</ele>
        <time>2015-05-24T10:14:21Z</time>
      </trkpt>
      <trkpt lat="44.64866" lon="5.17578">
        <ele>1110</ele>
        <time>2015-05-24T10:14:22Z</time>
      </trkpt>
      <trkpt lat="44.6487" lon="5.17605">
        <ele>1110</ele>
        <time>2015-05-24T10:14:32Z</time>
      </trkpt>
      <trkpt lat="44.64871" lon="5.17608">
        <ele>1111</ele>
        <time>2015-05-24T10:14:34Z</time>
      </trkpt>
      <trkpt lat="44.64877" lon="5.17616">
        <ele>1114</ele>
        <time>2015-05-24T10:14:39Z</time>
      </trkpt>
      <trkpt lat="44.64878" lon="5.17617">
        <ele>1114</ele>
        <time>2015-05-24T10:14:40Z</time>
      </trkpt>
      <trkpt lat="44.64879" lon="5.1762">
        <ele>1115</ele>
        <time>2015-05-24T10:14:41Z</time>
      </trkpt>
      <trkpt lat="44.6488" lon="5.17622">
        <ele>1115</ele>
        <time>2015-05-24T10:14:42Z</time>
      </trkpt>
      <trkpt lat="44.64882" lon="5.17624">
        <ele>1116</ele>
        <time>2015-05-24T10:14:43Z</time>
      </trkpt>
      <trkpt lat="44.64882" lon="5.17626">
        <ele>1116</ele>
        <time>2015-05-24T10:14:44Z</time>
      </trkpt>
      <trkpt lat="44.64888" lon="5.17647">
        <ele>1117</ele>
        <time>2015-05-24T10:14:55Z</time>
      </trkpt>
      <trkpt lat="44.64888" lon="5.1765">
        <ele>1117</ele>
        <time>2015-05-24T10:14:56Z</time>
      </trkpt>
      <trkpt lat="44.64887" lon="5.17654">
        <ele>1116</ele>
        <time>2015-05-24T10:14:58Z</time>
      </trkpt>
      <trkpt lat="44.64887" lon="5.17656">
        <ele>1116</ele>
        <time>2015-05-24T10:14:59Z</time>
      </trkpt>
      <trkpt lat="44.64886" lon="5.1766">
        <ele>1116</ele>
        <time>2015-05-24T10:15:01Z</time>
      </trkpt>
      <trkpt lat="44.64887" lon="5.17662">
        <ele>1115</ele>
        <time>2015-05-24T10:15:02Z</time>
      </trkpt>
      <trkpt lat="44.64887" lon="5.17671">
        <ele>1115</ele>
        <time>2015-05-24T10:15:07Z</time>
      </trkpt>
      <trkpt lat="44.64888" lon="5.17673">
        <ele>1115</ele>
        <time>2015-05-24T10:15:08Z</time>
      </trkpt>
      <trkpt lat="44.64889" lon="5.17675">
        <ele>1115</ele>
        <time>2015-05-24T10:15:09Z</time>
      </trkpt>
      <trkpt lat="44.6489" lon="5.17678">
        <ele>1115</ele>
        <time>2015-05-24T10:15:10Z</time>
      </trkpt>
      <trkpt lat="44.6489" lon="5.17681">
        <ele>1115</ele>
        <time>2015-05-24T10:15:11Z</time>
      </trkpt>
      <trkpt lat="44.6489" lon="5.17684">
        <ele>1115</ele>
        <time>2015-05-24T10:15:12Z</time>
      </trkpt>
      <trkpt lat="44.64891" lon="5.17687">
        <ele>1116</ele>
        <time>2015-05-24T10:15:13Z</time>
      </trkpt>
      <trkpt lat="44.64892" lon="5.17689">
        <ele>1116</ele>
        <time>2015-05-24T10:15:14Z</time>
      </trkpt>
      <trkpt lat="44.64893" lon="5.17691">
        <ele>1116</ele>
        <time>2015-05-24T10:15:15Z</time>
      </trkpt>
      <trkpt lat="44.64895" lon="5.17692">
        <ele>1117</ele>
        <time>2015-05-24T10:15:16Z</time>
      </trkpt>
      <trkpt lat="44.649" lon="5.17702">
        <ele>1118</ele>
        <time>2015-05-24T10:15:21Z</time>
      </trkpt>
      <trkpt lat="44.64902" lon="5.17704">
        <ele>1119</ele>
        <time>2015-05-24T10:15:22Z</time>
      </trkpt>
      <trkpt lat="44.64904" lon="5.17705">
        <ele>1119</ele>
        <time>2015-05-24T10:15:23Z</time>
      </trkpt>
      <trkpt lat="44.64914" lon="5.17718">
        <ele>1123</ele>
        <time>2015-05-24T10:15:31Z</time>
      </trkpt>
      <trkpt lat="44.64928" lon="5.17738">
        <ele>1126</ele>
        <time>2015-05-24T10:15:41Z</time>
      </trkpt>
      <trkpt lat="44.64932" lon="5.17742">
        <ele>1127</ele>
        <time>2015-05-24T10:15:43Z</time>
      </trkpt>
      <trkpt lat="44.64933" lon="5.17744">
        <ele>1127</ele>
        <time>2015-05-24T10:15:44Z</time>
      </trkpt>
      <trkpt lat="44.64934" lon="5.17746">
        <ele>1127</ele>
        <time>2015-05-24T10:15:45Z</time>
      </trkpt>
      <trkpt lat="44.64935" lon="5.17748">
        <ele>1127</ele>
        <time>2015-05-24T10:15:46Z</time>
      </trkpt>
      <trkpt lat="44.64935" lon="5.1775">
        <ele>1127</ele>
        <time>2015-05-24T10:15:47Z</time>
      </trkpt>
      <trkpt lat="44.64936" lon="5.17752">
        <ele>1127</ele>
        <time>2015-05-24T10:15:48Z</time>
      </trkpt>
      <trkpt lat="44.64937" lon="5.17754">
        <ele>1127</ele>
        <time>2015-05-24T10:15:49Z</time>
      </trkpt>
      <trkpt lat="44.64938" lon="5.17757">
        <ele>1127</ele>
        <time>2015-05-24T10:15:50Z</time>
      </trkpt>
      <trkpt lat="44.64938" lon="5.17758">
        <ele>1127</ele>
        <time>2015-05-24T10:15:51Z</time>
      </trkpt>
      <trkpt lat="44.6494" lon="5.1776">
        <ele>1127</ele>
        <time>2015-05-24T10:15:52Z</time>
      </trkpt>
      <trkpt lat="44.64941" lon="5.17763">
        <ele>1128</ele>
        <time>2015-05-24T10:15:53Z</time>
      </trkpt>
      <trkpt lat="44.64942" lon="5.17765">
        <ele>1128</ele>
        <time>2015-05-24T10:15:54Z</time>
      </trkpt>
      <trkpt lat="44.64943" lon="5.17767">
        <ele>1128</ele>
        <time>2015-05-24T10:15:55Z</time>
      </trkpt>
      <trkpt lat="44.64944" lon="5.1777">
        <ele>1128</ele>
        <time>2015-05-24T10:15:56Z</time>
      </trkpt>
      <trkpt lat="44.64947" lon="5.17773">
        <ele>1129</ele>
        <time>2015-05-24T10:15:57Z</time>
      </trkpt>
      <trkpt lat="44.64951" lon="5.1778">
        <ele>1130</ele>
        <time>2015-05-24T10:16:00Z</time>
      </trkpt>
      <trkpt lat="44.64953" lon="5.17783">
        <ele>1131</ele>
        <time>2015-05-24T10:16:01Z</time>
      </trkpt>
      <trkpt lat="44.6496" lon="5.17797">
        <ele>1132</ele>
        <time>2015-05-24T10:16:08Z</time>
      </trkpt>
      <trkpt lat="44.64961" lon="5.17799">
        <ele>1132</ele>
        <time>2015-05-24T10:16:09Z</time>
      </trkpt>
      <trkpt lat="44.64961" lon="5.17801">
        <ele>1132</ele>
        <time>2015-05-24T10:16:10Z</time>
      </trkpt>
      <trkpt lat="44.64962" lon="5.17803">
        <ele>1132</ele>
        <time>2015-05-24T10:16:11Z</time>
      </trkpt>
      <trkpt lat="44.64962" lon="5.17806">
        <ele>1132</ele>
        <time>2015-05-24T10:16:12Z</time>
      </trkpt>
      <trkpt lat="44.64963" lon="5.17808">
        <ele>1133</ele>
        <time>2015-05-24T10:16:13Z</time>
      </trkpt>
      <trkpt lat="44.64963" lon="5.1781">
        <ele>1133</ele>
        <time>2015-05-24T10:16:14Z</time>
      </trkpt>
      <trkpt lat="44.6497" lon="5.17828">
        <ele>1134</ele>
        <time>2015-05-24T10:16:22Z</time>
      </trkpt>
      <trkpt lat="44.6497" lon="5.1783">
        <ele>1133</ele>
        <time>2015-05-24T10:16:23Z</time>
      </trkpt>
      <trkpt lat="44.6497" lon="5.17833">
        <ele>1133</ele>
        <time>2015-05-24T10:16:24Z</time>
      </trkpt>
      <trkpt lat="44.64971" lon="5.17835">
        <ele>1133</ele>
        <time>2015-05-24T10:16:25Z</time>
      </trkpt>
      <trkpt lat="44.64971" lon="5.17838">
        <ele>1133</ele>
        <time>2015-05-24T10:16:26Z</time>
      </trkpt>
      <trkpt lat="44.64971" lon="5.17841">
        <ele>1133</ele>
        <time>2015-05-24T10:16:27Z</time>
      </trkpt>
      <trkpt lat="44.64971" lon="5.17843">
        <ele>1133</ele>
        <time>2015-05-24T10:16:28Z</time>
      </trkpt>
      <trkpt lat="44.64972" lon="5.17845">
        <ele>1133</ele>
        <time>2015-05-24T10:16:29Z</time>
      </trkpt>
      <trkpt lat="44.64972" lon="5.17848">
        <ele>1133</ele>
        <time>2015-05-24T10:16:30Z</time>
      </trkpt>
      <trkpt lat="44.64972" lon="5.1785">
        <ele>1133</ele>
        <time>2015-05-24T10:16:31Z</time>
      </trkpt>
      <trkpt lat="44.64973" lon="5.17853">
        <ele>1133</ele>
        <time>2015-05-24T10:16:32Z</time>
      </trkpt>
      <trkpt lat="44.64974" lon="5.17855">
        <ele>1133</ele>
        <time>2015-05-24T10:16:33Z</time>
      </trkpt>
      <trkpt lat="44.64975" lon="5.17857">
        <ele>1133</ele>
        <time>2015-05-24T10:16:34Z</time>
      </trkpt>
      <trkpt lat="44.64979" lon="5.17867">
        <ele>1133</ele>
        <time>2015-05-24T10:16:39Z</time>
      </trkpt>
      <trkpt lat="44.64979" lon="5.17869">
        <ele>1133</ele>
        <time>2015-05-24T10:16:40Z</time>
      </trkpt>
      <trkpt lat="44.64993" lon="5.17891">
        <ele>1136</ele>
        <time>2015-05-24T10:16:51Z</time>
      </trkpt>
      <trkpt lat="44.65007" lon="5.17919">
        <ele>1138</ele>
        <time>2015-05-24T10:17:05Z</time>
      </trkpt>
      <trkpt lat="44.6502" lon="5.17943">
        <ele>1140</ele>
        <time>2015-05-24T10:17:18Z</time>
      </trkpt>
      <trkpt lat="44.65023" lon="5.17958">
        <ele>1141</ele>
        <time>2015-05-24T10:17:30Z</time>
      </trkpt>
      <trkpt lat="44.65025" lon="5.1796">
        <ele>1142</ele>
        <time>2015-05-24T10:17:31Z</time>
      </trkpt>
      <trkpt lat="44.65027" lon="5.17963">
        <ele>1142</ele>
        <time>2015-05-24T10:17:32Z</time>
      </trkpt>
      <trkpt lat="44.65035" lon="5.17974">
        <ele>1145</ele>
        <time>2015-05-24T10:17:37Z</time>
      </trkpt>
      <trkpt lat="44.65036" lon="5.17977">
        <ele>1146</ele>
        <time>2015-05-24T10:17:38Z</time>
      </trkpt>
      <trkpt lat="44.65037" lon="5.1798">
        <ele>1146</ele>
        <time>2015-05-24T10:17:39Z</time>
      </trkpt>
      <trkpt lat="44.65056" lon="5.18007">
        <ele>1151</ele>
        <time>2015-05-24T10:17:51Z</time>
      </trkpt>
      <trkpt lat="44.65064" lon="5.18034">
        <ele>1154</ele>
        <time>2015-05-24T10:18:04Z</time>
      </trkpt>
      <trkpt lat="44.65059" lon="5.18043">
        <ele>1154</ele>
        <time>2015-05-24T10:18:13Z</time>
      </trkpt>
      <trkpt lat="44.65055" lon="5.18038">
        <ele>1151</ele>
        <time>2015-05-24T10:18:20Z</time>
      </trkpt>
      <trkpt lat="44.65045" lon="5.18048">
        <ele>1151</ele>
        <time>2015-05-24T10:18:23Z</time>
      </trkpt>
      <trkpt lat="44.6502" lon="5.18066">
        <ele>1155</ele>
        <time>2015-05-24T10:18:32Z</time>
      </trkpt>
      <trkpt lat="44.65016" lon="5.1807">
        <ele>1156</ele>
        <time>2015-05-24T10:18:33Z</time>
      </trkpt>
      <trkpt lat="44.65012" lon="5.18072">
        <ele>1157</ele>
        <time>2015-05-24T10:18:34Z</time>
      </trkpt>
      <trkpt lat="44.64991" lon="5.18056">
        <ele>1156</ele>
        <time>2015-05-24T10:18:45Z</time>
      </trkpt>
      <trkpt lat="44.64987" lon="5.18053">
        <ele>1156</ele>
        <time>2015-05-24T10:18:47Z</time>
      </trkpt>
      <trkpt lat="44.64964" lon="5.18032">
        <ele>1153</ele>
        <time>2015-05-24T10:19:00Z</time>
      </trkpt>
      <trkpt lat="44.64934" lon="5.18034">
        <ele>1157</ele>
        <time>2015-05-24T10:19:15Z</time>
      </trkpt>
      <trkpt lat="44.64912" lon="5.1805">
        <ele>1163</ele>
        <time>2015-05-24T10:19:29Z</time>
      </trkpt>
      <trkpt lat="44.64888" lon="5.18045">
        <ele>1166</ele>
        <time>2015-05-24T10:19:42Z</time>
      </trkpt>
      <trkpt lat="44.6488" lon="5.18033">
        <ele>1165</ele>
        <time>2015-05-24T10:19:49Z</time>
      </trkpt>
      <trkpt lat="44.64877" lon="5.18021">
        <ele>1162</ele>
        <time>2015-05-24T10:19:54Z</time>
      </trkpt>
      <trkpt lat="44.64874" lon="5.18011">
        <ele>1160</ele>
        <time>2015-05-24T10:19:58Z</time>
      </trkpt>
      <trkpt lat="44.64871" lon="5.17997">
        <ele>1157</ele>
        <time>2015-05-24T10:20:04Z</time>
      </trkpt>
      <trkpt lat="44.64869" lon="5.17989">
        <ele>1156</ele>
        <time>2015-05-24T10:20:07Z</time>
      </trkpt>
      <trkpt lat="44.64857" lon="5.17976">
        <ele>1157</ele>
        <time>2015-05-24T10:20:12Z</time>
      </trkpt>
      <trkpt lat="44.64846" lon="5.17968">
        <ele>1159</ele>
        <time>2015-05-24T10:20:18Z</time>
      </trkpt>
      <trkpt lat="44.64839" lon="5.17969">
        <ele>1161</ele>
        <time>2015-05-24T10:20:23Z</time>
      </trkpt>
      <trkpt lat="44.64833" lon="5.17969">
        <ele>1163</ele>
        <time>2015-05-24T10:20:27Z</time>
      </trkpt>
      <trkpt lat="44.64814" lon="5.17969">
        <ele>1168</ele>
        <time>2015-05-24T10:20:39Z</time>
      </trkpt>
      <trkpt lat="44.64803" lon="5.17967">
        <ele>1169</ele>
        <time>2015-05-24T10:20:48Z</time>
      </trkpt>
      <trkpt lat="44.64783" lon="5.17969">
        <ele>1174</ele>
        <time>2015-05-24T10:21:03Z</time>
      </trkpt>
      <trkpt lat="44.64768" lon="5.17969">
        <ele>1176</ele>
        <time>2015-05-24T10:21:14Z</time>
      </trkpt>
      <trkpt lat="44.64748" lon="5.17971">
        <ele>1179</ele>
        <time>2015-05-24T10:21:26Z</time>
      </trkpt>
      <trkpt lat="44.6474" lon="5.17973">
        <ele>1180</ele>
        <time>2015-05-24T10:21:31Z</time>
      </trkpt>
      <trkpt lat="44.64736" lon="5.17972">
        <ele>1181</ele>
        <time>2015-05-24T10:21:35Z</time>
      </trkpt>
      <trkpt lat="44.64715" lon="5.17977">
        <ele>1183</ele>
        <time>2015-05-24T10:21:47Z</time>
      </trkpt>
      <trkpt lat="44.64696" lon="5.17974">
        <ele>1185</ele>
        <time>2015-05-24T10:22:00Z</time>
      </trkpt>
      <trkpt lat="44.64686" lon="5.1797">
        <ele>1185</ele>
        <time>2015-05-24T10:22:08Z</time>
      </trkpt>
      <trkpt lat="44.64667" lon="5.17959">
        <ele>1185</ele>
        <time>2015-05-24T10:22:21Z</time>
      </trkpt>
      <trkpt lat="44.64652" lon="5.17938">
        <ele>1185</ele>
        <time>2015-05-24T10:22:35Z</time>
      </trkpt>
      <trkpt lat="44.64646" lon="5.17933">
        <ele>1185</ele>
        <time>2015-05-24T10:22:41Z</time>
      </trkpt>
      <trkpt lat="44.64632" lon="5.17918">
        <ele>1185</ele>
        <time>2015-05-24T10:22:54Z</time>
      </trkpt>
      <trkpt lat="44.64622" lon="5.17907">
        <ele>1185</ele>
        <time>2015-05-24T10:23:04Z</time>
      </trkpt>
      <trkpt lat="44.64605" lon="5.17897">
        <ele>1187</ele>
        <time>2015-05-24T10:23:17Z</time>
      </trkpt>
      <trkpt lat="44.64588" lon="5.17891">
        <ele>1188</ele>
        <time>2015-05-24T10:23:30Z</time>
      </trkpt>
      <trkpt lat="44.64574" lon="5.17885">
        <ele>1188</ele>
        <time>2015-05-24T10:23:41Z</time>
      </trkpt>
      <trkpt lat="44.6456" lon="5.17882">
        <ele>1189</ele>
        <time>2015-05-24T10:23:51Z</time>
      </trkpt>
      <trkpt lat="44.64532" lon="5.17891">
        <ele>1188</ele>
        <time>2015-05-24T10:24:06Z</time>
      </trkpt>
      <trkpt lat="44.64516" lon="5.17917">
        <ele>1187</ele>
        <time>2015-05-24T10:24:20Z</time>
      </trkpt>
      <trkpt lat="44.64518" lon="5.17941">
        <ele>1188</ele>
        <time>2015-05-24T10:24:28Z</time>
      </trkpt>
      <trkpt lat="44.64525" lon="5.17955">
        <ele>1190</ele>
        <time>2015-05-24T10:24:34Z</time>
      </trkpt>
      <trkpt lat="44.64527" lon="5.1796">
        <ele>1192</ele>
        <time>2015-05-24T10:24:36Z</time>
      </trkpt>
      <trkpt lat="44.64533" lon="5.17971">
        <ele>1194</ele>
        <time>2015-05-24T10:24:42Z</time>
      </trkpt>
      <trkpt lat="44.64553" lon="5.18006">
        <ele>1201</ele>
        <time>2015-05-24T10:24:56Z</time>
      </trkpt>
      <trkpt lat="44.64557" lon="5.18055">
        <ele>1197</ele>
        <time>2015-05-24T10:25:11Z</time>
      </trkpt>
      <trkpt lat="44.64557" lon="5.18081">
        <ele>1195</ele>
        <time>2015-05-24T10:25:23Z</time>
      </trkpt>
      <trkpt lat="44.64556" lon="5.18129">
        <ele>1193</ele>
        <time>2015-05-24T10:25:36Z</time>
      </trkpt>
      <trkpt lat="44.64552" lon="5.18199">
        <ele>1196</ele>
        <time>2015-05-24T10:25:51Z</time>
      </trkpt>
      <trkpt lat="44.64543" lon="5.18253">
        <ele>1194</ele>
        <time>2015-05-24T10:26:04Z</time>
      </trkpt>
      <trkpt lat="44.64527" lon="5.18299">
        <ele>1185</ele>
        <time>2015-05-24T10:26:17Z</time>
      </trkpt>
      <trkpt lat="44.64526" lon="5.1831">
        <ele>1184</ele>
        <time>2015-05-24T10:26:26Z</time>
      </trkpt>
      <trkpt lat="44.64524" lon="5.18315">
        <ele>1181</ele>
        <time>2015-05-24T10:26:40Z</time>
      </trkpt>
      <trkpt lat="44.64525" lon="5.18315">
        <ele>1181</ele>
        <time>2015-05-24T10:27:17Z</time>
      </trkpt>
      <trkpt lat="44.64525" lon="5.18317">
        <ele>1181</ele>
        <time>2015-05-24T10:28:00Z</time>
      </trkpt>
      <trkpt lat="44.64525" lon="5.18317">
        <ele>1181</ele>
        <time>2015-05-24T10:28:38Z</time>
      </trkpt>
      <trkpt lat="44.64525" lon="5.18316">
        <ele>1181</ele>
        <time>2015-05-24T10:29:07Z</time>
      </trkpt>
      <trkpt lat="44.64525" lon="5.18316">
        <ele>1182</ele>
        <time>2015-05-24T10:29:31Z</time>
      </trkpt>
      <trkpt lat="44.64525" lon="5.18315">
        <ele>1182</ele>
        <time>2015-05-24T10:30:03Z</time>
      </trkpt>
      <trkpt lat="44.64525" lon="5.18314">
        <ele>1182</ele>
        <time>2015-05-24T10:30:43Z</time>
      </trkpt>
      <trkpt lat="44.64526" lon="5.18313">
        <ele>1183</ele>
        <time>2015-05-24T10:31:18Z</time>
      </trkpt>
      <trkpt lat="44.64526" lon="5.18313">
        <ele>1183</ele>
        <time>2015-05-24T10:31:51Z</time>
      </trkpt>
      <trkpt lat="44.64525" lon="5.18315">
        <ele>1182</ele>
        <time>2015-05-24T10:32:26Z</time>
      </trkpt>
      <trkpt lat="44.64526" lon="5.18315">
        <ele>1183</ele>
        <time>2015-05-24T10:33:04Z</time>
      </trkpt>
      <trkpt lat="44.64526" lon="5.18315">
        <ele>1182</ele>
        <time>2015-05-24T10:33:38Z</time>
      </trkpt>
      <trkpt lat="44.64524" lon="5.18317">
        <ele>1181</ele>
        <time>2015-05-24T10:34:19Z</time>
      </trkpt>
      <trkpt lat="44.64525" lon="5.18315">
        <ele>1182</ele>
        <time>2015-05-24T10:34:58Z</time>
      </trkpt>
      <trkpt lat="44.64525" lon="5.18314">
        <ele>1182</ele>
        <time>2015-05-24T10:35:29Z</time>
      </trkpt>
      <trkpt lat="44.64525" lon="5.18313">
        <ele>1182</ele>
        <time>2015-05-24T10:35:58Z</time>
      </trkpt>
      <trkpt lat="44.64525" lon="5.18314">
        <ele>1182</ele>
        <time>2015-05-24T10:36:19Z</time>
      </trkpt>
      <trkpt lat="44.64537" lon="5.18355">
        <ele>1183</ele>
        <time>2015-05-24T10:36:31Z</time>
      </trkpt>
      <trkpt lat="44.64558" lon="5.18386">
        <ele>1189</ele>
        <time>2015-05-24T10:36:37Z</time>
      </trkpt>
      <trkpt lat="44.6456" lon="5.18394">
        <ele>1189</ele>
        <time>2015-05-24T10:36:38Z</time>
      </trkpt>
      <trkpt lat="44.64562" lon="5.18401">
        <ele>1188</ele>
        <time>2015-05-24T10:36:39Z</time>
      </trkpt>
      <trkpt lat="44.64562" lon="5.18408">
        <ele>1187</ele>
        <time>2015-05-24T10:36:40Z</time>
      </trkpt>
      <trkpt lat="44.64562" lon="5.18414">
        <ele>1186</ele>
        <time>2015-05-24T10:36:41Z</time>
      </trkpt>
      <trkpt lat="44.64563" lon="5.18433">
        <ele>1183</ele>
        <time>2015-05-24T10:36:49Z</time>
      </trkpt>
      <trkpt lat="44.64566" lon="5.18437">
        <ele>1185</ele>
        <time>2015-05-24T10:37:08Z</time>
      </trkpt>
      <trkpt lat="44.64565" lon="5.1844">
        <ele>1184</ele>
        <time>2015-05-24T10:37:26Z</time>
      </trkpt>
      <trkpt lat="44.64565" lon="5.1844">
        <ele>1184</ele>
        <time>2015-05-24T10:37:27Z</time>
      </trkpt>
      <trkpt lat="44.64565" lon="5.1844">
        <ele>1185</ele>
        <time>2015-05-24T10:37:39Z</time>
      </trkpt>
      <trkpt lat="44.64565" lon="5.1844">
        <ele>1185</ele>
        <time>2015-05-24T10:37:40Z</time>
      </trkpt>
      <trkpt lat="44.64565" lon="5.1844">
        <ele>1185</ele>
        <time>2015-05-24T10:37:41Z</time>
      </trkpt>
      <trkpt lat="44.64565" lon="5.1844">
        <ele>1185</ele>
        <time>2015-05-24T10:37:42Z</time>
      </trkpt>
      <trkpt lat="44.64565" lon="5.1844">
        <ele>1185</ele>
        <time>2015-05-24T10:37:43Z</time>
      </trkpt>
      <trkpt lat="44.64565" lon="5.1844">
        <ele>1185</ele>
        <time>2015-05-24T10:37:44Z</time>
      </trkpt>
      <trkpt lat="44.64565" lon="5.1844">
        <ele>1185</ele>
        <time>2015-05-24T10:37:47Z</time>
      </trkpt>
      <trkpt lat="44.64565" lon="5.18441">
        <ele>1185</ele>
        <time>2015-05-24T10:37:48Z</time>
      </trkpt>
      <trkpt lat="44.64566" lon="5.18442">
        <ele>1185</ele>
        <time>2015-05-24T10:37:59Z</time>
      </trkpt>
      <trkpt lat="44.64566" lon="5.18442">
        <ele>1185</ele>
        <time>2015-05-24T10:38:00Z</time>
      </trkpt>
      <trkpt lat="44.64566" lon="5.18443">
        <ele>1186</ele>
        <time>2015-05-24T10:38:03Z</time>
      </trkpt>
      <trkpt lat="44.64566" lon="5.18443">
        <ele>1186</ele>
        <time>2015-05-24T10:38:04Z</time>
      </trkpt>
      <trkpt lat="44.64566" lon="5.18443">
        <ele>1186</ele>
        <time>2015-05-24T10:38:08Z</time>
      </trkpt>
      <trkpt lat="44.64566" lon="5.18443">
        <ele>1186</ele>
        <time>2015-05-24T10:38:09Z</time>
      </trkpt>
      <trkpt lat="44.64566" lon="5.18443">
        <ele>1185</ele>
        <time>2015-05-24T10:38:15Z</time>
      </trkpt>
      <trkpt lat="44.64565" lon="5.18444">
        <ele>1185</ele>
        <time>2015-05-24T10:38:16Z</time>
      </trkpt>
      <trkpt lat="44.64563" lon="5.18446">
        <ele>1184</ele>
        <time>2015-05-24T10:38:17Z</time>
      </trkpt>
      <trkpt lat="44.64562" lon="5.18447">
        <ele>1184</ele>
        <time>2015-05-24T10:38:18Z</time>
      </trkpt>
      <trkpt lat="44.64561" lon="5.18449">
        <ele>1184</ele>
        <time>2015-05-24T10:38:19Z</time>
      </trkpt>
      <trkpt lat="44.6456" lon="5.18451">
        <ele>1183</ele>
        <time>2015-05-24T10:38:20Z</time>
      </trkpt>
      <trkpt lat="44.64558" lon="5.18452">
        <ele>1183</ele>
        <time>2015-05-24T10:38:21Z</time>
      </trkpt>
      <trkpt lat="44.64557" lon="5.18454">
        <ele>1182</ele>
        <time>2015-05-24T10:38:22Z</time>
      </trkpt>
      <trkpt lat="44.64556" lon="5.18456">
        <ele>1182</ele>
        <time>2015-05-24T10:38:23Z</time>
      </trkpt>
      <trkpt lat="44.64554" lon="5.18459">
        <ele>1181</ele>
        <time>2015-05-24T10:38:24Z</time>
      </trkpt>
      <trkpt lat="44.64552" lon="5.18463">
        <ele>1181</ele>
        <time>2015-05-24T10:38:25Z</time>
      </trkpt>
      <trkpt lat="44.64542" lon="5.18488">
        <ele>1178</ele>
        <time>2015-05-24T10:38:30Z</time>
      </trkpt>
      <trkpt lat="44.64539" lon="5.18494">
        <ele>1177</ele>
        <time>2015-05-24T10:38:31Z</time>
      </trkpt>
      <trkpt lat="44.64536" lon="5.18501">
        <ele>1177</ele>
        <time>2015-05-24T10:38:32Z</time>
      </trkpt>
      <trkpt lat="44.64534" lon="5.18507">
        <ele>1177</ele>
        <time>2015-05-24T10:38:33Z</time>
      </trkpt>
      <trkpt lat="44.6451" lon="5.18576">
        <ele>1171</ele>
        <time>2015-05-24T10:38:42Z</time>
      </trkpt>
      <trkpt lat="44.64507" lon="5.18586">
        <ele>1170</ele>
        <time>2015-05-24T10:38:43Z</time>
      </trkpt>
      <trkpt lat="44.64503" lon="5.18604">
        <ele>1170</ele>
        <time>2015-05-24T10:38:45Z</time>
      </trkpt>
      <trkpt lat="44.645" lon="5.18631">
        <ele>1171</ele>
        <time>2015-05-24T10:38:48Z</time>
      </trkpt>
      <trkpt lat="44.64496" lon="5.18695">
        <ele>1170</ele>
        <time>2015-05-24T10:38:58Z</time>
      </trkpt>
      <trkpt lat="44.64497" lon="5.18737">
        <ele>1172</ele>
        <time>2015-05-24T10:39:09Z</time>
      </trkpt>
      <trkpt lat="44.64504" lon="5.18776">
        <ele>1182</ele>
        <time>2015-05-24T10:39:20Z</time>
      </trkpt>
      <trkpt lat="44.64504" lon="5.1879">
        <ele>1184</ele>
        <time>2015-05-24T10:39:23Z</time>
      </trkpt>
      <trkpt lat="44.64499" lon="5.18799">
        <ele>1184</ele>
        <time>2015-05-24T10:39:26Z</time>
      </trkpt>
      <trkpt lat="44.64495" lon="5.18797">
        <ele>1183</ele>
        <time>2015-05-24T10:39:29Z</time>
      </trkpt>
      <trkpt lat="44.64475" lon="5.18782">
        <ele>1184</ele>
        <time>2015-05-24T10:39:41Z</time>
      </trkpt>
      <trkpt lat="44.64468" lon="5.18771">
        <ele>1184</ele>
        <time>2015-05-24T10:39:51Z</time>
      </trkpt>
      <trkpt lat="44.64457" lon="5.18761">
        <ele>1185</ele>
        <time>2015-05-24T10:39:58Z</time>
      </trkpt>
      <trkpt lat="44.64428" lon="5.18736">
        <ele>1190</ele>
        <time>2015-05-24T10:40:12Z</time>
      </trkpt>
      <trkpt lat="44.64426" lon="5.18735">
        <ele>1190</ele>
        <time>2015-05-24T10:40:13Z</time>
      </trkpt>
      <trkpt lat="44.64407" lon="5.18709">
        <ele>1192</ele>
        <time>2015-05-24T10:40:23Z</time>
      </trkpt>
      <trkpt lat="44.64402" lon="5.18703">
        <ele>1193</ele>
        <time>2015-05-24T10:40:27Z</time>
      </trkpt>
      <trkpt lat="44.64373" lon="5.18661">
        <ele>1194</ele>
        <time>2015-05-24T10:40:40Z</time>
      </trkpt>
      <trkpt lat="44.6437" lon="5.18653">
        <ele>1193</ele>
        <time>2015-05-24T10:40:44Z</time>
      </trkpt>
      <trkpt lat="44.64351" lon="5.18628">
        <ele>1194</ele>
        <time>2015-05-24T10:40:54Z</time>
      </trkpt>
      <trkpt lat="44.64333" lon="5.18605">
        <ele>1193</ele>
        <time>2015-05-24T10:41:06Z</time>
      </trkpt>
      <trkpt lat="44.64325" lon="5.186">
        <ele>1194</ele>
        <time>2015-05-24T10:41:10Z</time>
      </trkpt>
      <trkpt lat="44.64295" lon="5.18587">
        <ele>1199</ele>
        <time>2015-05-24T10:41:22Z</time>
      </trkpt>
      <trkpt lat="44.64267" lon="5.18571">
        <ele>1202</ele>
        <time>2015-05-24T10:41:34Z</time>
      </trkpt>
      <trkpt lat="44.6424" lon="5.18562">
        <ele>1206</ele>
        <time>2015-05-24T10:41:45Z</time>
      </trkpt>
      <trkpt lat="44.64213" lon="5.18546">
        <ele>1205</ele>
        <time>2015-05-24T10:41:57Z</time>
      </trkpt>
      <trkpt lat="44.64198" lon="5.18527">
        <ele>1200</ele>
        <time>2015-05-24T10:42:06Z</time>
      </trkpt>
      <trkpt lat="44.64195" lon="5.18521">
        <ele>1199</ele>
        <time>2015-05-24T10:42:09Z</time>
      </trkpt>
      <trkpt lat="44.64189" lon="5.18511">
        <ele>1198</ele>
        <time>2015-05-24T10:42:13Z</time>
      </trkpt>
      <trkpt lat="44.6417" lon="5.18496">
        <ele>1197</ele>
        <time>2015-05-24T10:42:19Z</time>
      </trkpt>
      <trkpt lat="44.64154" lon="5.18507">
        <ele>1197</ele>
        <time>2015-05-24T10:42:26Z</time>
      </trkpt>
      <trkpt lat="44.64166" lon="5.18551">
        <ele>1201</ele>
        <time>2015-05-24T10:42:38Z</time>
      </trkpt>
      <trkpt lat="44.64162" lon="5.18607">
        <ele>1199</ele>
        <time>2015-05-24T10:42:50Z</time>
      </trkpt>
      <trkpt lat="44.64149" lon="5.18666">
        <ele>1192</ele>
        <time>2015-05-24T10:43:02Z</time>
      </trkpt>
      <trkpt lat="44.64141" lon="5.18712">
        <ele>1192</ele>
        <time>2015-05-24T10:43:13Z</time>
      </trkpt>
      <trkpt lat="44.64135" lon="5.18743">
        <ele>1191</ele>
        <time>2015-05-24T10:43:21Z</time>
      </trkpt>
      <trkpt lat="44.64134" lon="5.18785">
        <ele>1194</ele>
        <time>2015-05-24T10:43:33Z</time>
      </trkpt>
      <trkpt lat="44.64122" lon="5.1883">
        <ele>1198</ele>
        <time>2015-05-24T10:43:45Z</time>
      </trkpt>
      <trkpt lat="44.64116" lon="5.18842">
        <ele>1199</ele>
        <time>2015-05-24T10:43:48Z</time>
      </trkpt>
      <trkpt lat="44.64094" lon="5.18881">
        <ele>1202</ele>
        <time>2015-05-24T10:43:59Z</time>
      </trkpt>
      <trkpt lat="44.64086" lon="5.18885">
        <ele>1201</ele>
        <time>2015-05-24T10:44:01Z</time>
      </trkpt>
      <trkpt lat="44.64079" lon="5.18891">
        <ele>1204</ele>
        <time>2015-05-24T10:44:03Z</time>
      </trkpt>
      <trkpt lat="44.64072" lon="5.18897">
        <ele>1209</ele>
        <time>2015-05-24T10:44:05Z</time>
      </trkpt>
      <trkpt lat="44.64059" lon="5.18912">
        <ele>1221</ele>
        <time>2015-05-24T10:44:12Z</time>
      </trkpt>
      <trkpt lat="44.64064" lon="5.18901">
        <ele>1215</ele>
        <time>2015-05-24T10:44:17Z</time>
      </trkpt>
      <trkpt lat="44.64061" lon="5.18858">
        <ele>1210</ele>
        <time>2015-05-24T10:44:29Z</time>
      </trkpt>
      <trkpt lat="44.64061" lon="5.18853">
        <ele>1209</ele>
        <time>2015-05-24T10:44:30Z</time>
      </trkpt>
      <trkpt lat="44.64046" lon="5.18814">
        <ele>1210</ele>
        <time>2015-05-24T10:44:36Z</time>
      </trkpt>
      <trkpt lat="44.64024" lon="5.18759">
        <ele>1208</ele>
        <time>2015-05-24T10:44:43Z</time>
      </trkpt>
      <trkpt lat="44.6402" lon="5.18753">
        <ele>1208</ele>
        <time>2015-05-24T10:44:44Z</time>
      </trkpt>
      <trkpt lat="44.64017" lon="5.18746">
        <ele>1208</ele>
        <time>2015-05-24T10:44:45Z</time>
      </trkpt>
      <trkpt lat="44.64015" lon="5.1874">
        <ele>1207</ele>
        <time>2015-05-24T10:44:46Z</time>
      </trkpt>
      <trkpt lat="44.64013" lon="5.18735">
        <ele>1206</ele>
        <time>2015-05-24T10:44:47Z</time>
      </trkpt>
      <trkpt lat="44.64006" lon="5.18715">
        <ele>1203</ele>
        <time>2015-05-24T10:44:51Z</time>
      </trkpt>
      <trkpt lat="44.64004" lon="5.1871">
        <ele>1202</ele>
        <time>2015-05-24T10:44:52Z</time>
      </trkpt>
      <trkpt lat="44.64" lon="5.18705">
        <ele>1202</ele>
        <time>2015-05-24T10:44:53Z</time>
      </trkpt>
      <trkpt lat="44.63995" lon="5.18701">
        <ele>1203</ele>
        <time>2015-05-24T10:44:54Z</time>
      </trkpt>
      <trkpt lat="44.63989" lon="5.18697">
        <ele>1202</ele>
        <time>2015-05-24T10:44:55Z</time>
      </trkpt>
      <trkpt lat="44.63983" lon="5.18693">
        <ele>1202</ele>
        <time>2015-05-24T10:44:56Z</time>
      </trkpt>
      <trkpt lat="44.63977" lon="5.1869">
        <ele>1202</ele>
        <time>2015-05-24T10:44:57Z</time>
      </trkpt>
      <trkpt lat="44.6397" lon="5.18688">
        <ele>1203</ele>
        <time>2015-05-24T10:44:58Z</time>
      </trkpt>
      <trkpt lat="44.63964" lon="5.18686">
        <ele>1203</ele>
        <time>2015-05-24T10:44:59Z</time>
      </trkpt>
      <trkpt lat="44.63934" lon="5.18679">
        <ele>1205</ele>
        <time>2015-05-24T10:45:04Z</time>
      </trkpt>
      <trkpt lat="44.63905" lon="5.18668">
        <ele>1203</ele>
        <time>2015-05-24T10:45:09Z</time>
      </trkpt>
      <trkpt lat="44.63899" lon="5.18665">
        <ele>1202</ele>
        <time>2015-05-24T10:45:10Z</time>
      </trkpt>
      <trkpt lat="44.63881" lon="5.18658">
        <ele>1201</ele>
        <time>2015-05-24T10:45:13Z</time>
      </trkpt>
      <trkpt lat="44.63863" lon="5.18656">
        <ele>1202</ele>
        <time>2015-05-24T10:45:16Z</time>
      </trkpt>
      <trkpt lat="44.63857" lon="5.18657">
        <ele>1201</ele>
        <time>2015-05-24T10:45:17Z</time>
      </trkpt>
      <trkpt lat="44.6385" lon="5.18659">
        <ele>1201</ele>
        <time>2015-05-24T10:45:18Z</time>
      </trkpt>
      <trkpt lat="44.63844" lon="5.18663">
        <ele>1201</ele>
        <time>2015-05-24T10:45:19Z</time>
      </trkpt>
      <trkpt lat="44.63839" lon="5.18667">
        <ele>1202</ele>
        <time>2015-05-24T10:45:20Z</time>
      </trkpt>
      <trkpt lat="44.63833" lon="5.18671">
        <ele>1202</ele>
        <time>2015-05-24T10:45:21Z</time>
      </trkpt>
      <trkpt lat="44.63822" lon="5.18681">
        <ele>1203</ele>
        <time>2015-05-24T10:45:23Z</time>
      </trkpt>
      <trkpt lat="44.63769" lon="5.18769">
        <ele>1206</ele>
        <time>2015-05-24T10:45:36Z</time>
      </trkpt>
      <trkpt lat="44.63703" lon="5.18871">
        <ele>1200</ele>
        <time>2015-05-24T10:45:51Z</time>
      </trkpt>
      <trkpt lat="44.63674" lon="5.18908">
        <ele>1198</ele>
        <time>2015-05-24T10:45:57Z</time>
      </trkpt>
      <trkpt lat="44.63669" lon="5.18913">
        <ele>1200</ele>
        <time>2015-05-24T10:45:58Z</time>
      </trkpt>
      <trkpt lat="44.63664" lon="5.1892">
        <ele>1201</ele>
        <time>2015-05-24T10:45:59Z</time>
      </trkpt>
      <trkpt lat="44.63641" lon="5.18951">
        <ele>1203</ele>
        <time>2015-05-24T10:46:04Z</time>
      </trkpt>
      <trkpt lat="44.63636" lon="5.18955">
        <ele>1203</ele>
        <time>2015-05-24T10:46:05Z</time>
      </trkpt>
      <trkpt lat="44.63631" lon="5.18958">
        <ele>1203</ele>
        <time>2015-05-24T10:46:06Z</time>
      </trkpt>
      <trkpt lat="44.63626" lon="5.18958">
        <ele>1205</ele>
        <time>2015-05-24T10:46:07Z</time>
      </trkpt>
      <trkpt lat="44.63621" lon="5.18954">
        <ele>1207</ele>
        <time>2015-05-24T10:46:08Z</time>
      </trkpt>
      <trkpt lat="44.63617" lon="5.18948">
        <ele>1209</ele>
        <time>2015-05-24T10:46:09Z</time>
      </trkpt>
      <trkpt lat="44.63615" lon="5.1894">
        <ele>1210</ele>
        <time>2015-05-24T10:46:10Z</time>
      </trkpt>
      <trkpt lat="44.63613" lon="5.18931">
        <ele>1210</ele>
        <time>2015-05-24T10:46:11Z</time>
      </trkpt>
      <trkpt lat="44.63612" lon="5.18922">
        <ele>1210</ele>
        <time>2015-05-24T10:46:12Z</time>
      </trkpt>
      <trkpt lat="44.63609" lon="5.18894">
        <ele>1211</ele>
        <time>2015-05-24T10:46:15Z</time>
      </trkpt>
      <trkpt lat="44.63609" lon="5.18884">
        <ele>1211</ele>
        <time>2015-05-24T10:46:16Z</time>
      </trkpt>
      <trkpt lat="44.6361" lon="5.18873">
        <ele>1211</ele>
        <time>2015-05-24T10:46:17Z</time>
      </trkpt>
      <trkpt lat="44.63616" lon="5.18772">
        <ele>1208</ele>
        <time>2015-05-24T10:46:27Z</time>
      </trkpt>
      <trkpt lat="44.63616" lon="5.18762">
        <ele>1208</ele>
        <time>2015-05-24T10:46:28Z</time>
      </trkpt>
      <trkpt lat="44.63619" lon="5.18713">
        <ele>1206</ele>
        <time>2015-05-24T10:46:33Z</time>
      </trkpt>
      <trkpt lat="44.63619" lon="5.18703">
        <ele>1206</ele>
        <time>2015-05-24T10:46:34Z</time>
      </trkpt>
      <trkpt lat="44.63611" lon="5.18595">
        <ele>1215</ele>
        <time>2015-05-24T10:46:45Z</time>
      </trkpt>
      <trkpt lat="44.63612" lon="5.18586">
        <ele>1215</ele>
        <time>2015-05-24T10:46:46Z</time>
      </trkpt>
      <trkpt lat="44.63614" lon="5.18578">
        <ele>1215</ele>
        <time>2015-05-24T10:46:47Z</time>
      </trkpt>
      <trkpt lat="44.63622" lon="5.18566">
        <ele>1212</ele>
        <time>2015-05-24T10:46:49Z</time>
      </trkpt>
      <trkpt lat="44.63634" lon="5.18552">
        <ele>1207</ele>
        <time>2015-05-24T10:46:51Z</time>
      </trkpt>
      <trkpt lat="44.63644" lon="5.18537">
        <ele>1205</ele>
        <time>2015-05-24T10:46:53Z</time>
      </trkpt>
      <trkpt lat="44.63691" lon="5.18424">
        <ele>1203</ele>
        <time>2015-05-24T10:47:05Z</time>
      </trkpt>
      <trkpt lat="44.637" lon="5.18407">
        <ele>1201</ele>
        <time>2015-05-24T10:47:07Z</time>
      </trkpt>
      <trkpt lat="44.63737" lon="5.18339">
        <ele>1192</ele>
        <time>2015-05-24T10:47:16Z</time>
      </trkpt>
      <trkpt lat="44.63739" lon="5.18329">
        <ele>1192</ele>
        <time>2015-05-24T10:47:17Z</time>
      </trkpt>
      <trkpt lat="44.63741" lon="5.18319">
        <ele>1192</ele>
        <time>2015-05-24T10:47:18Z</time>
      </trkpt>
      <trkpt lat="44.63749" lon="5.18279">
        <ele>1188</ele>
        <time>2015-05-24T10:47:22Z</time>
      </trkpt>
      <trkpt lat="44.63753" lon="5.18261">
        <ele>1186</ele>
        <time>2015-05-24T10:47:24Z</time>
      </trkpt>
      <trkpt lat="44.63754" lon="5.18252">
        <ele>1186</ele>
        <time>2015-05-24T10:47:25Z</time>
      </trkpt>
      <trkpt lat="44.63757" lon="5.18204">
        <ele>1185</ele>
        <time>2015-05-24T10:47:30Z</time>
      </trkpt>
      <trkpt lat="44.63759" lon="5.18168">
        <ele>1186</ele>
        <time>2015-05-24T10:47:33Z</time>
      </trkpt>
      <trkpt lat="44.63761" lon="5.18156">
        <ele>1185</ele>
        <time>2015-05-24T10:47:34Z</time>
      </trkpt>
      <trkpt lat="44.63769" lon="5.18109">
        <ele>1180</ele>
        <time>2015-05-24T10:47:38Z</time>
      </trkpt>
      <trkpt lat="44.63776" lon="5.18086">
        <ele>1176</ele>
        <time>2015-05-24T10:47:40Z</time>
      </trkpt>
      <trkpt lat="44.63797" lon="5.18015">
        <ele>1167</ele>
        <time>2015-05-24T10:47:47Z</time>
      </trkpt>
      <trkpt lat="44.63797" lon="5.18007">
        <ele>1165</ele>
        <time>2015-05-24T10:47:48Z</time>
      </trkpt>
      <trkpt lat="44.63795" lon="5.18001">
        <ele>1164</ele>
        <time>2015-05-24T10:47:49Z</time>
      </trkpt>
      <trkpt lat="44.63791" lon="5.17995">
        <ele>1164</ele>
        <time>2015-05-24T10:47:50Z</time>
      </trkpt>
      <trkpt lat="44.63784" lon="5.1799">
        <ele>1163</ele>
        <time>2015-05-24T10:47:51Z</time>
      </trkpt>
      <trkpt lat="44.63778" lon="5.17986">
        <ele>1163</ele>
        <time>2015-05-24T10:47:52Z</time>
      </trkpt>
      <trkpt lat="44.63754" lon="5.17973">
        <ele>1163</ele>
        <time>2015-05-24T10:47:56Z</time>
      </trkpt>
      <trkpt lat="44.63708" lon="5.17953">
        <ele>1160</ele>
        <time>2015-05-24T10:48:03Z</time>
      </trkpt>
      <trkpt lat="44.63678" lon="5.1795">
        <ele>1159</ele>
        <time>2015-05-24T10:48:07Z</time>
      </trkpt>
      <trkpt lat="44.63662" lon="5.17953">
        <ele>1159</ele>
        <time>2015-05-24T10:48:09Z</time>
      </trkpt>
      <trkpt lat="44.63654" lon="5.17954">
        <ele>1159</ele>
        <time>2015-05-24T10:48:10Z</time>
      </trkpt>
      <trkpt lat="44.63647" lon="5.17954">
        <ele>1160</ele>
        <time>2015-05-24T10:48:11Z</time>
      </trkpt>
      <trkpt lat="44.6364" lon="5.17952">
        <ele>1160</ele>
        <time>2015-05-24T10:48:12Z</time>
      </trkpt>
      <trkpt lat="44.63634" lon="5.17947">
        <ele>1158</ele>
        <time>2015-05-24T10:48:13Z</time>
      </trkpt>
      <trkpt lat="44.63628" lon="5.1794">
        <ele>1157</ele>
        <time>2015-05-24T10:48:14Z</time>
      </trkpt>
      <trkpt lat="44.63624" lon="5.17932">
        <ele>1155</ele>
        <time>2015-05-24T10:48:15Z</time>
      </trkpt>
      <trkpt lat="44.6362" lon="5.17923">
        <ele>1154</ele>
        <time>2015-05-24T10:48:16Z</time>
      </trkpt>
      <trkpt lat="44.63616" lon="5.17915">
        <ele>1152</ele>
        <time>2015-05-24T10:48:17Z</time>
      </trkpt>
      <trkpt lat="44.63612" lon="5.17906">
        <ele>1151</ele>
        <time>2015-05-24T10:48:18Z</time>
      </trkpt>
      <trkpt lat="44.63607" lon="5.17898">
        <ele>1151</ele>
        <time>2015-05-24T10:48:19Z</time>
      </trkpt>
      <trkpt lat="44.63599" lon="5.17883">
        <ele>1151</ele>
        <time>2015-05-24T10:48:21Z</time>
      </trkpt>
      <trkpt lat="44.63595" lon="5.17878">
        <ele>1151</ele>
        <time>2015-05-24T10:48:22Z</time>
      </trkpt>
      <trkpt lat="44.63591" lon="5.17874">
        <ele>1152</ele>
        <time>2015-05-24T10:48:23Z</time>
      </trkpt>
      <trkpt lat="44.63573" lon="5.1786">
        <ele>1155</ele>
        <time>2015-05-24T10:48:27Z</time>
      </trkpt>
      <trkpt lat="44.63555" lon="5.17827">
        <ele>1156</ele>
        <time>2015-05-24T10:48:38Z</time>
      </trkpt>
      <trkpt lat="44.63556" lon="5.17824">
        <ele>1155</ele>
        <time>2015-05-24T10:48:39Z</time>
      </trkpt>
      <trkpt lat="44.63557" lon="5.17822">
        <ele>1155</ele>
        <time>2015-05-24T10:48:40Z</time>
      </trkpt>
      <trkpt lat="44.63558" lon="5.17819">
        <ele>1154</ele>
        <time>2015-05-24T10:48:41Z</time>
      </trkpt>
      <trkpt lat="44.6356" lon="5.17816">
        <ele>1153</ele>
        <time>2015-05-24T10:48:42Z</time>
      </trkpt>
      <trkpt lat="44.63561" lon="5.17814">
        <ele>1154</ele>
        <time>2015-05-24T10:48:43Z</time>
      </trkpt>
      <trkpt lat="44.63564" lon="5.17809">
        <ele>1155</ele>
        <time>2015-05-24T10:48:45Z</time>
      </trkpt>
      <trkpt lat="44.63595" lon="5.1779">
        <ele>1154</ele>
        <time>2015-05-24T10:48:55Z</time>
      </trkpt>
      <trkpt lat="44.63599" lon="5.17788">
        <ele>1154</ele>
        <time>2015-05-24T10:48:56Z</time>
      </trkpt>
      <trkpt lat="44.63604" lon="5.17785">
        <ele>1154</ele>
        <time>2015-05-24T10:48:57Z</time>
      </trkpt>
      <trkpt lat="44.63613" lon="5.1778">
        <ele>1154</ele>
        <time>2015-05-24T10:48:59Z</time>
      </trkpt>
      <trkpt lat="44.63664" lon="5.17754">
        <ele>1148</ele>
        <time>2015-05-24T10:49:10Z</time>
      </trkpt>
      <trkpt lat="44.63668" lon="5.17751">
        <ele>1148</ele>
        <time>2015-05-24T10:49:11Z</time>
      </trkpt>
      <trkpt lat="44.63693" lon="5.1773">
        <ele>1149</ele>
        <time>2015-05-24T10:49:16Z</time>
      </trkpt>
      <trkpt lat="44.63748" lon="5.1769">
        <ele>1147</ele>
        <time>2015-05-24T10:49:27Z</time>
      </trkpt>
      <trkpt lat="44.63757" lon="5.17685">
        <ele>1146</ele>
        <time>2015-05-24T10:49:29Z</time>
      </trkpt>
      <trkpt lat="44.63761" lon="5.17683">
        <ele>1146</ele>
        <time>2015-05-24T10:49:30Z</time>
      </trkpt>
      <trkpt lat="44.63769" lon="5.17678">
        <ele>1144</ele>
        <time>2015-05-24T10:49:32Z</time>
      </trkpt>
      <trkpt lat="44.63778" lon="5.17674">
        <ele>1143</ele>
        <time>2015-05-24T10:49:34Z</time>
      </trkpt>
      <trkpt lat="44.63794" lon="5.17663">
        <ele>1142</ele>
        <time>2015-05-24T10:49:37Z</time>
      </trkpt>
      <trkpt lat="44.63805" lon="5.17655">
        <ele>1141</ele>
        <time>2015-05-24T10:49:39Z</time>
      </trkpt>
      <trkpt lat="44.63835" lon="5.17631">
        <ele>1138</ele>
        <time>2015-05-24T10:49:44Z</time>
      </trkpt>
      <trkpt lat="44.63841" lon="5.17625">
        <ele>1138</ele>
        <time>2015-05-24T10:49:45Z</time>
      </trkpt>
      <trkpt lat="44.63854" lon="5.17613">
        <ele>1137</ele>
        <time>2015-05-24T10:49:47Z</time>
      </trkpt>
      <trkpt lat="44.63901" lon="5.17574">
        <ele>1125</ele>
        <time>2015-05-24T10:49:54Z</time>
      </trkpt>
      <trkpt lat="44.63922" lon="5.17553">
        <ele>1118</ele>
        <time>2015-05-24T10:49:57Z</time>
      </trkpt>
      <trkpt lat="44.63936" lon="5.17537">
        <ele>1113</ele>
        <time>2015-05-24T10:49:59Z</time>
      </trkpt>
      <trkpt lat="44.63961" lon="5.17504">
        <ele>1105</ele>
        <time>2015-05-24T10:50:03Z</time>
      </trkpt>
      <trkpt lat="44.63979" lon="5.17464">
        <ele>1104</ele>
        <time>2015-05-24T10:50:09Z</time>
      </trkpt>
      <trkpt lat="44.63981" lon="5.17461">
        <ele>1104</ele>
        <time>2015-05-24T10:50:10Z</time>
      </trkpt>
      <trkpt lat="44.63998" lon="5.17426">
        <ele>1103</ele>
        <time>2015-05-24T10:50:20Z</time>
      </trkpt>
      <trkpt lat="44.63999" lon="5.1742">
        <ele>1104</ele>
        <time>2015-05-24T10:50:21Z</time>
      </trkpt>
      <trkpt lat="44.64001" lon="5.17414">
        <ele>1105</ele>
        <time>2015-05-24T10:50:22Z</time>
      </trkpt>
      <trkpt lat="44.64002" lon="5.17407">
        <ele>1106</ele>
        <time>2015-05-24T10:50:23Z</time>
      </trkpt>
      <trkpt lat="44.64003" lon="5.17401">
        <ele>1108</ele>
        <time>2015-05-24T10:50:24Z</time>
      </trkpt>
      <trkpt lat="44.64005" lon="5.17395">
        <ele>1109</ele>
        <time>2015-05-24T10:50:25Z</time>
      </trkpt>
      <trkpt lat="44.64006" lon="5.17374">
        <ele>1115</ele>
        <time>2015-05-24T10:50:28Z</time>
      </trkpt>
      <trkpt lat="44.64005" lon="5.17349">
        <ele>1123</ele>
        <time>2015-05-24T10:50:31Z</time>
      </trkpt>
      <trkpt lat="44.64008" lon="5.17337">
        <ele>1124</ele>
        <time>2015-05-24T10:50:33Z</time>
      </trkpt>
      <trkpt lat="44.6401" lon="5.1733">
        <ele>1125</ele>
        <time>2015-05-24T10:50:34Z</time>
      </trkpt>
      <trkpt lat="44.64015" lon="5.17318">
        <ele>1122</ele>
        <time>2015-05-24T10:50:36Z</time>
      </trkpt>
      <trkpt lat="44.64018" lon="5.17312">
        <ele>1121</ele>
        <time>2015-05-24T10:50:37Z</time>
      </trkpt>
      <trkpt lat="44.64039" lon="5.17259">
        <ele>1114</ele>
        <time>2015-05-24T10:50:45Z</time>
      </trkpt>
      <trkpt lat="44.64042" lon="5.17243">
        <ele>1113</ele>
        <time>2015-05-24T10:50:47Z</time>
      </trkpt>
      <trkpt lat="44.64042" lon="5.17235">
        <ele>1113</ele>
        <time>2015-05-24T10:50:48Z</time>
      </trkpt>
      <trkpt lat="44.64043" lon="5.17228">
        <ele>1112</ele>
        <time>2015-05-24T10:50:49Z</time>
      </trkpt>
      <trkpt lat="44.64044" lon="5.17222">
        <ele>1112</ele>
        <time>2015-05-24T10:50:50Z</time>
      </trkpt>
      <trkpt lat="44.64044" lon="5.17216">
        <ele>1112</ele>
        <time>2015-05-24T10:50:51Z</time>
      </trkpt>
      <trkpt lat="44.64043" lon="5.1721">
        <ele>1112</ele>
        <time>2015-05-24T10:50:52Z</time>
      </trkpt>
      <trkpt lat="44.64042" lon="5.17205">
        <ele>1111</ele>
        <time>2015-05-24T10:50:53Z</time>
      </trkpt>
      <trkpt lat="44.6404" lon="5.17198">
        <ele>1111</ele>
        <time>2015-05-24T10:50:54Z</time>
      </trkpt>
      <trkpt lat="44.64038" lon="5.17192">
        <ele>1111</ele>
        <time>2015-05-24T10:50:55Z</time>
      </trkpt>
      <trkpt lat="44.64029" lon="5.17171">
        <ele>1111</ele>
        <time>2015-05-24T10:50:58Z</time>
      </trkpt>
      <trkpt lat="44.6402" lon="5.17146">
        <ele>1112</ele>
        <time>2015-05-24T10:51:01Z</time>
      </trkpt>
      <trkpt lat="44.64015" lon="5.17138">
        <ele>1112</ele>
        <time>2015-05-24T10:51:02Z</time>
      </trkpt>
      <trkpt lat="44.64009" lon="5.17131">
        <ele>1113</ele>
        <time>2015-05-24T10:51:03Z</time>
      </trkpt>
      <trkpt lat="44.64004" lon="5.17124">
        <ele>1114</ele>
        <time>2015-05-24T10:51:04Z</time>
      </trkpt>
      <trkpt lat="44.63999" lon="5.17118">
        <ele>1115</ele>
        <time>2015-05-24T10:51:05Z</time>
      </trkpt>
      <trkpt lat="44.63993" lon="5.17112">
        <ele>1117</ele>
        <time>2015-05-24T10:51:06Z</time>
      </trkpt>
      <trkpt lat="44.63982" lon="5.171">
        <ele>1120</ele>
        <time>2015-05-24T10:51:08Z</time>
      </trkpt>
      <trkpt lat="44.63971" lon="5.17084">
        <ele>1122</ele>
        <time>2015-05-24T10:51:10Z</time>
      </trkpt>
      <trkpt lat="44.63966" lon="5.17075">
        <ele>1122</ele>
        <time>2015-05-24T10:51:11Z</time>
      </trkpt>
      <trkpt lat="44.63963" lon="5.17065">
        <ele>1121</ele>
        <time>2015-05-24T10:51:12Z</time>
      </trkpt>
      <trkpt lat="44.63963" lon="5.17055">
        <ele>1118</ele>
        <time>2015-05-24T10:51:13Z</time>
      </trkpt>
      <trkpt lat="44.63963" lon="5.17045">
        <ele>1115</ele>
        <time>2015-05-24T10:51:14Z</time>
      </trkpt>
      <trkpt lat="44.6396" lon="5.17004">
        <ele>1109</ele>
        <time>2015-05-24T10:51:18Z</time>
      </trkpt>
      <trkpt lat="44.63957" lon="5.16938">
        <ele>1106</ele>
        <time>2015-05-24T10:51:24Z</time>
      </trkpt>
      <trkpt lat="44.63954" lon="5.16904">
        <ele>1108</ele>
        <time>2015-05-24T10:51:27Z</time>
      </trkpt>
      <trkpt lat="44.63954" lon="5.16846">
        <ele>1102</ele>
        <time>2015-05-24T10:51:32Z</time>
      </trkpt>
      <trkpt lat="44.63955" lon="5.16829">
        <ele>1100</ele>
        <time>2015-05-24T10:51:33Z</time>
      </trkpt>
      <trkpt lat="44.63954" lon="5.16792">
        <ele>1099</ele>
        <time>2015-05-24T10:51:36Z</time>
      </trkpt>
      <trkpt lat="44.63951" lon="5.16749">
        <ele>1098</ele>
        <time>2015-05-24T10:51:40Z</time>
      </trkpt>
      <trkpt lat="44.63948" lon="5.16739">
        <ele>1098</ele>
        <time>2015-05-24T10:51:41Z</time>
      </trkpt>
      <trkpt lat="44.63945" lon="5.16731">
        <ele>1098</ele>
        <time>2015-05-24T10:51:42Z</time>
      </trkpt>
      <trkpt lat="44.63942" lon="5.16724">
        <ele>1098</ele>
        <time>2015-05-24T10:51:43Z</time>
      </trkpt>
      <trkpt lat="44.63939" lon="5.16718">
        <ele>1099</ele>
        <time>2015-05-24T10:51:44Z</time>
      </trkpt>
      <trkpt lat="44.63924" lon="5.16699">
        <ele>1099</ele>
        <time>2015-05-24T10:51:47Z</time>
      </trkpt>
      <trkpt lat="44.63912" lon="5.16686">
        <ele>1098</ele>
        <time>2015-05-24T10:51:49Z</time>
      </trkpt>
      <trkpt lat="44.63897" lon="5.16671">
        <ele>1097</ele>
        <time>2015-05-24T10:51:51Z</time>
      </trkpt>
      <trkpt lat="44.63891" lon="5.16663">
        <ele>1095</ele>
        <time>2015-05-24T10:51:52Z</time>
      </trkpt>
      <trkpt lat="44.63885" lon="5.16653">
        <ele>1093</ele>
        <time>2015-05-24T10:51:53Z</time>
      </trkpt>
      <trkpt lat="44.63881" lon="5.16642">
        <ele>1091</ele>
        <time>2015-05-24T10:51:54Z</time>
      </trkpt>
      <trkpt lat="44.63877" lon="5.1663">
        <ele>1087</ele>
        <time>2015-05-24T10:51:55Z</time>
      </trkpt>
      <trkpt lat="44.6387" lon="5.16605">
        <ele>1079</ele>
        <time>2015-05-24T10:51:57Z</time>
      </trkpt>
      <trkpt lat="44.63862" lon="5.16576">
        <ele>1072</ele>
        <time>2015-05-24T10:51:59Z</time>
      </trkpt>
      <trkpt lat="44.63853" lon="5.16527">
        <ele>1068</ele>
        <time>2015-05-24T10:52:02Z</time>
      </trkpt>
      <trkpt lat="44.6385" lon="5.16503">
        <ele>1066</ele>
        <time>2015-05-24T10:52:04Z</time>
      </trkpt>
      <trkpt lat="44.63844" lon="5.16443">
        <ele>1062</ele>
        <time>2015-05-24T10:52:08Z</time>
      </trkpt>
      <trkpt lat="44.63839" lon="5.16421">
        <ele>1060</ele>
        <time>2015-05-24T10:52:10Z</time>
      </trkpt>
      <trkpt lat="44.63835" lon="5.16411">
        <ele>1059</ele>
        <time>2015-05-24T10:52:11Z</time>
      </trkpt>
      <trkpt lat="44.63831" lon="5.16404">
        <ele>1059</ele>
        <time>2015-05-24T10:52:12Z</time>
      </trkpt>
      <trkpt lat="44.63824" lon="5.16396">
        <ele>1060</ele>
        <time>2015-05-24T10:52:13Z</time>
      </trkpt>
      <trkpt lat="44.63817" lon="5.1639">
        <ele>1061</ele>
        <time>2015-05-24T10:52:14Z</time>
      </trkpt>
      <trkpt lat="44.63809" lon="5.16385">
        <ele>1062</ele>
        <time>2015-05-24T10:52:15Z</time>
      </trkpt>
      <trkpt lat="44.6379" lon="5.16371">
        <ele>1063</ele>
        <time>2015-05-24T10:52:18Z</time>
      </trkpt>
      <trkpt lat="44.63779" lon="5.16364">
        <ele>1064</ele>
        <time>2015-05-24T10:52:19Z</time>
      </trkpt>
      <trkpt lat="44.63773" lon="5.16357">
        <ele>1063</ele>
        <time>2015-05-24T10:52:20Z</time>
      </trkpt>
      <trkpt lat="44.63767" lon="5.16347">
        <ele>1061</ele>
        <time>2015-05-24T10:52:21Z</time>
      </trkpt>
      <trkpt lat="44.63748" lon="5.16305">
        <ele>1051</ele>
        <time>2015-05-24T10:52:25Z</time>
      </trkpt>
      <trkpt lat="44.63729" lon="5.16241">
        <ele>1039</ele>
        <time>2015-05-24T10:52:30Z</time>
      </trkpt>
      <trkpt lat="44.63712" lon="5.16176">
        <ele>1035</ele>
        <time>2015-05-24T10:52:35Z</time>
      </trkpt>
      <trkpt lat="44.63708" lon="5.16166">
        <ele>1036</ele>
        <time>2015-05-24T10:52:36Z</time>
      </trkpt>
      <trkpt lat="44.63704" lon="5.16155">
        <ele>1038</ele>
        <time>2015-05-24T10:52:37Z</time>
      </trkpt>
      <trkpt lat="44.63695" lon="5.16136">
        <ele>1039</ele>
        <time>2015-05-24T10:52:39Z</time>
      </trkpt>
      <trkpt lat="44.6369" lon="5.1613">
        <ele>1039</ele>
        <time>2015-05-24T10:52:40Z</time>
      </trkpt>
      <trkpt lat="44.63653" lon="5.16114">
        <ele>1043</ele>
        <time>2015-05-24T10:52:49Z</time>
      </trkpt>
      <trkpt lat="44.63653" lon="5.16114">
        <ele>1043</ele>
        <time>2015-05-24T10:53:05Z</time>
      </trkpt>
      <trkpt lat="44.63655" lon="5.16112">
        <ele>1044</ele>
        <time>2015-05-24T10:53:46Z</time>
      </trkpt>
      <trkpt lat="44.63655" lon="5.16112">
        <ele>1044</ele>
        <time>2015-05-24T10:54:25Z</time>
      </trkpt>
      <trkpt lat="44.63655" lon="5.16113">
        <ele>1044</ele>
        <time>2015-05-24T10:54:57Z</time>
      </trkpt>
      <trkpt lat="44.63655" lon="5.16113">
        <ele>1044</ele>
        <time>2015-05-24T10:55:00Z</time>
      </trkpt>
      <trkpt lat="44.63655" lon="5.16113">
        <ele>1044</ele>
        <time>2015-05-24T10:55:01Z</time>
      </trkpt>
      <trkpt lat="44.63655" lon="5.16113">
        <ele>1044</ele>
        <time>2015-05-24T10:55:07Z</time>
      </trkpt>
      <trkpt lat="44.63655" lon="5.16113">
        <ele>1044</ele>
        <time>2015-05-24T10:55:08Z</time>
      </trkpt>
      <trkpt lat="44.63654" lon="5.16114">
        <ele>1044</ele>
        <time>2015-05-24T10:55:11Z</time>
      </trkpt>
      <trkpt lat="44.63654" lon="5.16114">
        <ele>1044</ele>
        <time>2015-05-24T10:55:12Z</time>
      </trkpt>
      <trkpt lat="44.63654" lon="5.16114">
        <ele>1044</ele>
        <time>2015-05-24T10:55:14Z</time>
      </trkpt>
      <trkpt lat="44.63654" lon="5.16114">
        <ele>1044</ele>
        <time>2015-05-24T10:55:15Z</time>
      </trkpt>
      <trkpt lat="44.63654" lon="5.16114">
        <ele>1044</ele>
        <time>2015-05-24T10:55:16Z</time>
      </trkpt>
      <trkpt lat="44.63654" lon="5.16115">
        <ele>1044</ele>
        <time>2015-05-24T10:55:17Z</time>
      </trkpt>
      <trkpt lat="44.63654" lon="5.16115">
        <ele>1044</ele>
        <time>2015-05-24T10:55:18Z</time>
      </trkpt>
      <trkpt lat="44.63655" lon="5.16116">
        <ele>1044</ele>
        <time>2015-05-24T10:55:50Z</time>
      </trkpt>
      <trkpt lat="44.63655" lon="5.16116">
        <ele>1044</ele>
        <time>2015-05-24T10:56:25Z</time>
      </trkpt>
      <trkpt lat="44.63654" lon="5.16116">
        <ele>1044</ele>
        <time>2015-05-24T10:56:33Z</time>
      </trkpt>
      <trkpt lat="44.63653" lon="5.16114">
        <ele>1043</ele>
        <time>2015-05-24T10:57:15Z</time>
      </trkpt>
      <trkpt lat="44.63653" lon="5.16115">
        <ele>1043</ele>
        <time>2015-05-24T10:57:56Z</time>
      </trkpt>
      <trkpt lat="44.63654" lon="5.16114">
        <ele>1043</ele>
        <time>2015-05-24T10:58:33Z</time>
      </trkpt>
      <trkpt lat="44.63655" lon="5.16114">
        <ele>1044</ele>
        <time>2015-05-24T10:58:52Z</time>
      </trkpt>
      <trkpt lat="44.63656" lon="5.16115">
        <ele>1044</ele>
        <time>2015-05-24T10:58:54Z</time>
      </trkpt>
      <trkpt lat="44.63657" lon="5.16117">
        <ele>1045</ele>
        <time>2015-05-24T10:58:55Z</time>
      </trkpt>
      <trkpt lat="44.63658" lon="5.16118">
        <ele>1046</ele>
        <time>2015-05-24T10:58:56Z</time>
      </trkpt>
      <trkpt lat="44.63659" lon="5.1612">
        <ele>1046</ele>
        <time>2015-05-24T10:58:57Z</time>
      </trkpt>
      <trkpt lat="44.6366" lon="5.16121">
        <ele>1046</ele>
        <time>2015-05-24T10:58:58Z</time>
      </trkpt>
      <trkpt lat="44.63661" lon="5.16122">
        <ele>1046</ele>
        <time>2015-05-24T10:58:59Z</time>
      </trkpt>
      <trkpt lat="44.63663" lon="5.16122">
        <ele>1045</ele>
        <time>2015-05-24T10:59:00Z</time>
      </trkpt>
      <trkpt lat="44.63663" lon="5.16124">
        <ele>1045</ele>
        <time>2015-05-24T10:59:01Z</time>
      </trkpt>
      <trkpt lat="44.63663" lon="5.16125">
        <ele>1045</ele>
        <time>2015-05-24T10:59:02Z</time>
      </trkpt>
      <trkpt lat="44.63662" lon="5.16126">
        <ele>1046</ele>
        <time>2015-05-24T10:59:03Z</time>
      </trkpt>
      <trkpt lat="44.63661" lon="5.16125">
        <ele>1046</ele>
        <time>2015-05-24T10:59:04Z</time>
      </trkpt>
      <trkpt lat="44.6366" lon="5.16123">
        <ele>1046</ele>
        <time>2015-05-24T10:59:05Z</time>
      </trkpt>
      <trkpt lat="44.6366" lon="5.1612">
        <ele>1046</ele>
        <time>2015-05-24T10:59:06Z</time>
      </trkpt>
      <trkpt lat="44.63659" lon="5.16117">
        <ele>1046</ele>
        <time>2015-05-24T10:59:07Z</time>
      </trkpt>
      <trkpt lat="44.63658" lon="5.16114">
        <ele>1046</ele>
        <time>2015-05-24T10:59:08Z</time>
      </trkpt>
      <trkpt lat="44.63657" lon="5.16105">
        <ele>1045</ele>
        <time>2015-05-24T10:59:11Z</time>
      </trkpt>
      <trkpt lat="44.63658" lon="5.16103">
        <ele>1045</ele>
        <time>2015-05-24T10:59:12Z</time>
      </trkpt>
      <trkpt lat="44.6366" lon="5.16103">
        <ele>1046</ele>
        <time>2015-05-24T10:59:13Z</time>
      </trkpt>
      <trkpt lat="44.63661" lon="5.16105">
        <ele>1045</ele>
        <time>2015-05-24T10:59:14Z</time>
      </trkpt>
      <trkpt lat="44.63661" lon="5.16107">
        <ele>1045</ele>
        <time>2015-05-24T10:59:15Z</time>
      </trkpt>
      <trkpt lat="44.6366" lon="5.16109">
        <ele>1046</ele>
        <time>2015-05-24T10:59:16Z</time>
      </trkpt>
      <trkpt lat="44.63659" lon="5.1611">
        <ele>1046</ele>
        <time>2015-05-24T10:59:17Z</time>
      </trkpt>
      <trkpt lat="44.63658" lon="5.16111">
        <ele>1045</ele>
        <time>2015-05-24T10:59:18Z</time>
      </trkpt>
      <trkpt lat="44.63655" lon="5.16115">
        <ele>1044</ele>
        <time>2015-05-24T10:59:21Z</time>
      </trkpt>
      <trkpt lat="44.63655" lon="5.16117">
        <ele>1044</ele>
        <time>2015-05-24T10:59:22Z</time>
      </trkpt>
      <trkpt lat="44.63654" lon="5.1612">
        <ele>1044</ele>
        <time>2015-05-24T10:59:23Z</time>
      </trkpt>
      <trkpt lat="44.63654" lon="5.16122">
        <ele>1044</ele>
        <time>2015-05-24T10:59:24Z</time>
      </trkpt>
      <trkpt lat="44.63654" lon="5.16124">
        <ele>1044</ele>
        <time>2015-05-24T10:59:25Z</time>
      </trkpt>
      <trkpt lat="44.63655" lon="5.16138">
        <ele>1046</ele>
        <time>2015-05-24T10:59:34Z</time>
      </trkpt>
      <trkpt lat="44.63655" lon="5.1614">
        <ele>1046</ele>
        <time>2015-05-24T10:59:35Z</time>
      </trkpt>
      <trkpt lat="44.63655" lon="5.16147">
        <ele>1047</ele>
        <time>2015-05-24T10:59:40Z</time>
      </trkpt>
      <trkpt lat="44.63656" lon="5.16149">
        <ele>1047</ele>
        <time>2015-05-24T10:59:41Z</time>
      </trkpt>
      <trkpt lat="44.63657" lon="5.16151">
        <ele>1048</ele>
        <time>2015-05-24T10:59:42Z</time>
      </trkpt>
      <trkpt lat="44.63658" lon="5.16153">
        <ele>1048</ele>
        <time>2015-05-24T10:59:43Z</time>
      </trkpt>
      <trkpt lat="44.63659" lon="5.16156">
        <ele>1048</ele>
        <time>2015-05-24T10:59:44Z</time>
      </trkpt>
      <trkpt lat="44.6366" lon="5.16173">
        <ele>1049</ele>
        <time>2015-05-24T10:59:54Z</time>
      </trkpt>
      <trkpt lat="44.63658" lon="5.1618">
        <ele>1050</ele>
        <time>2015-05-24T11:00:01Z</time>
      </trkpt>
      <trkpt lat="44.63654" lon="5.16188">
        <ele>1050</ele>
        <time>2015-05-24T11:00:14Z</time>
      </trkpt>
      <trkpt lat="44.63653" lon="5.16198">
        <ele>1052</ele>
        <time>2015-05-24T11:00:27Z</time>
      </trkpt>
      <trkpt lat="44.63654" lon="5.16201">
        <ele>1053</ele>
        <time>2015-05-24T11:00:42Z</time>
      </trkpt>
      <trkpt lat="44.63656" lon="5.16206">
        <ele>1054</ele>
        <time>2015-05-24T11:00:54Z</time>
      </trkpt>
      <trkpt lat="44.63662" lon="5.16226">
        <ele>1057</ele>
        <time>2015-05-24T11:01:05Z</time>
      </trkpt>
      <trkpt lat="44.63663" lon="5.16235">
        <ele>1058</ele>
        <time>2015-05-24T11:01:10Z</time>
      </trkpt>
      <trkpt lat="44.63663" lon="5.16237">
        <ele>1059</ele>
        <time>2015-05-24T11:01:11Z</time>
      </trkpt>
      <trkpt lat="44.63664" lon="5.16238">
        <ele>1059</ele>
        <time>2015-05-24T11:01:12Z</time>
      </trkpt>
      <trkpt lat="44.63666" lon="5.16245">
        <ele>1059</ele>
        <time>2015-05-24T11:01:15Z</time>
      </trkpt>
      <trkpt lat="44.63667" lon="5.16254">
        <ele>1062</ele>
        <time>2015-05-24T11:01:20Z</time>
      </trkpt>
      <trkpt lat="44.6367" lon="5.16263">
        <ele>1065</ele>
        <time>2015-05-24T11:01:27Z</time>
      </trkpt>
      <trkpt lat="44.63672" lon="5.16273">
        <ele>1068</ele>
        <time>2015-05-24T11:01:34Z</time>
      </trkpt>
      <trkpt lat="44.63674" lon="5.16294">
        <ele>1074</ele>
        <time>2015-05-24T11:01:47Z</time>
      </trkpt>
      <trkpt lat="44.63675" lon="5.16298">
        <ele>1075</ele>
        <time>2015-05-24T11:01:59Z</time>
      </trkpt>
      <trkpt lat="44.63676" lon="5.16297">
        <ele>1074</ele>
        <time>2015-05-24T11:02:17Z</time>
      </trkpt>
      <trkpt lat="44.63676" lon="5.16279">
        <ele>1068</ele>
        <time>2015-05-24T11:02:23Z</time>
      </trkpt>
      <trkpt lat="44.63674" lon="5.16268">
        <ele>1065</ele>
        <time>2015-05-24T11:02:26Z</time>
      </trkpt>
      <trkpt lat="44.63671" lon="5.16241">
        <ele>1058</ele>
        <time>2015-05-24T11:02:32Z</time>
      </trkpt>
      <trkpt lat="44.63667" lon="5.16225">
        <ele>1056</ele>
        <time>2015-05-24T11:02:35Z</time>
      </trkpt>
      <trkpt lat="44.63661" lon="5.16197">
        <ele>1052</ele>
        <time>2015-05-24T11:02:42Z</time>
      </trkpt>
      <trkpt lat="44.63661" lon="5.16174">
        <ele>1049</ele>
        <time>2015-05-24T11:02:46Z</time>
      </trkpt>
      <trkpt lat="44.63658" lon="5.16149">
        <ele>1048</ele>
        <time>2015-05-24T11:02:50Z</time>
      </trkpt>
      <trkpt lat="44.63656" lon="5.16133">
        <ele>1046</ele>
        <time>2015-05-24T11:02:53Z</time>
      </trkpt>
      <trkpt lat="44.63656" lon="5.16114">
        <ele>1045</ele>
        <time>2015-05-24T11:02:57Z</time>
      </trkpt>
      <trkpt lat="44.63657" lon="5.16111">
        <ele>1045</ele>
        <time>2015-05-24T11:03:07Z</time>
      </trkpt>
      <trkpt lat="44.63657" lon="5.16112">
        <ele>1045</ele>
        <time>2015-05-24T11:03:50Z</time>
      </trkpt>
      <trkpt lat="44.63658" lon="5.16112">
        <ele>1045</ele>
        <time>2015-05-24T11:04:36Z</time>
      </trkpt>
      <trkpt lat="44.63658" lon="5.16113">
        <ele>1045</ele>
        <time>2015-05-24T11:05:14Z</time>
      </trkpt>
      <trkpt lat="44.63658" lon="5.16112">
        <ele>1045</ele>
        <time>2015-05-24T11:05:58Z</time>
      </trkpt>
      <trkpt lat="44.63659" lon="5.16115">
        <ele>1046</ele>
        <time>2015-05-24T11:06:42Z</time>
      </trkpt>
      <trkpt lat="44.63658" lon="5.16113">
        <ele>1045</ele>
        <time>2015-05-24T11:07:20Z</time>
      </trkpt>
      <trkpt lat="44.63658" lon="5.16113">
        <ele>1046</ele>
        <time>2015-05-24T11:08:01Z</time>
      </trkpt>
      <trkpt lat="44.63659" lon="5.16114">
        <ele>1046</ele>
        <time>2015-05-24T11:08:45Z</time>
      </trkpt>
      <trkpt lat="44.63658" lon="5.16114">
        <ele>1046</ele>
        <time>2015-05-24T11:09:29Z</time>
      </trkpt>
      <trkpt lat="44.6366" lon="5.16114">
        <ele>1046</ele>
        <time>2015-05-24T11:10:07Z</time>
      </trkpt>
      <trkpt lat="44.6366" lon="5.16113">
        <ele>1046</ele>
        <time>2015-05-24T11:10:44Z</time>
      </trkpt>
      <trkpt lat="44.63659" lon="5.16114">
        <ele>1046</ele>
        <time>2015-05-24T11:11:21Z</time>
      </trkpt>
      <trkpt lat="44.63659" lon="5.16115">
        <ele>1046</ele>
        <time>2015-05-24T11:12:00Z</time>
      </trkpt>
      <trkpt lat="44.63659" lon="5.16114">
        <ele>1046</ele>
        <time>2015-05-24T11:12:38Z</time>
      </trkpt>
      <trkpt lat="44.63658" lon="5.16114">
        <ele>1046</ele>
        <time>2015-05-24T11:12:56Z</time>
      </trkpt>
      <trkpt lat="44.63658" lon="5.16114">
        <ele>1046</ele>
        <time>2015-05-24T11:12:59Z</time>
      </trkpt>
      <trkpt lat="44.63658" lon="5.16111">
        <ele>1045</ele>
        <time>2015-05-24T11:13:35Z</time>
      </trkpt>
      <trkpt lat="44.6366" lon="5.1611">
        <ele>1046</ele>
        <time>2015-05-24T11:13:45Z</time>
      </trkpt>
      <trkpt lat="44.63659" lon="5.16108">
        <ele>1046</ele>
        <time>2015-05-24T11:14:13Z</time>
      </trkpt>
      <trkpt lat="44.63659" lon="5.16109">
        <ele>1046</ele>
        <time>2015-05-24T11:14:16Z</time>
      </trkpt>
      <trkpt lat="44.63659" lon="5.16109">
        <ele>1046</ele>
        <time>2015-05-24T11:14:17Z</time>
      </trkpt>
      <trkpt lat="44.63659" lon="5.16109">
        <ele>1046</ele>
        <time>2015-05-24T11:14:18Z</time>
      </trkpt>
      <trkpt lat="44.63658" lon="5.16109">
        <ele>1045</ele>
        <time>2015-05-24T11:14:38Z</time>
      </trkpt>
      <trkpt lat="44.63661" lon="5.16109">
        <ele>1045</ele>
        <time>2015-05-24T11:14:40Z</time>
      </trkpt>
      <trkpt lat="44.63678" lon="5.16136">
        <ele>1043</ele>
        <time>2015-05-24T11:14:50Z</time>
      </trkpt>
      <trkpt lat="44.63682" lon="5.16145">
        <ele>1042</ele>
        <time>2015-05-24T11:14:52Z</time>
      </trkpt>
      <trkpt lat="44.63705" lon="5.16193">
        <ele>1040</ele>
        <time>2015-05-24T11:15:03Z</time>
      </trkpt>
      <trkpt lat="44.6373" lon="5.1625">
        <ele>1040</ele>
        <time>2015-05-24T11:15:13Z</time>
      </trkpt>
      <trkpt lat="44.63747" lon="5.1628">
        <ele>1043</ele>
        <time>2015-05-24T11:15:18Z</time>
      </trkpt>
      <trkpt lat="44.63752" lon="5.16284">
        <ele>1043</ele>
        <time>2015-05-24T11:15:19Z</time>
      </trkpt>
      <trkpt lat="44.63756" lon="5.16287">
        <ele>1042</ele>
        <time>2015-05-24T11:15:20Z</time>
      </trkpt>
      <trkpt lat="44.63771" lon="5.16293">
        <ele>1040</ele>
        <time>2015-05-24T11:15:23Z</time>
      </trkpt>
      <trkpt lat="44.63782" lon="5.16293">
        <ele>1036</ele>
        <time>2015-05-24T11:15:25Z</time>
      </trkpt>
      <trkpt lat="44.63794" lon="5.16292">
        <ele>1032</ele>
        <time>2015-05-24T11:15:27Z</time>
      </trkpt>
      <trkpt lat="44.63799" lon="5.16292">
        <ele>1031</ele>
        <time>2015-05-24T11:15:28Z</time>
      </trkpt>
      <trkpt lat="44.63816" lon="5.16294">
        <ele>1028</ele>
        <time>2015-05-24T11:15:31Z</time>
      </trkpt>
      <trkpt lat="44.63821" lon="5.16297">
        <ele>1028</ele>
        <time>2015-05-24T11:15:32Z</time>
      </trkpt>
      <trkpt lat="44.63836" lon="5.16306">
        <ele>1028</ele>
        <time>2015-05-24T11:15:35Z</time>
      </trkpt>
      <trkpt lat="44.63854" lon="5.16322">
        <ele>1029</ele>
        <time>2015-05-24T11:15:38Z</time>
      </trkpt>
      <trkpt lat="44.63858" lon="5.16327">
        <ele>1029</ele>
        <time>2015-05-24T11:15:39Z</time>
      </trkpt>
      <trkpt lat="44.63863" lon="5.16333">
        <ele>1029</ele>
        <time>2015-05-24T11:15:40Z</time>
      </trkpt>
      <trkpt lat="44.63868" lon="5.1634">
        <ele>1029</ele>
        <time>2015-05-24T11:15:41Z</time>
      </trkpt>
      <trkpt lat="44.63873" lon="5.16347">
        <ele>1029</ele>
        <time>2015-05-24T11:15:42Z</time>
      </trkpt>
      <trkpt lat="44.63877" lon="5.16355">
        <ele>1030</ele>
        <time>2015-05-24T11:15:43Z</time>
      </trkpt>
      <trkpt lat="44.6388" lon="5.16364">
        <ele>1031</ele>
        <time>2015-05-24T11:15:44Z</time>
      </trkpt>
      <trkpt lat="44.63882" lon="5.16373">
        <ele>1032</ele>
        <time>2015-05-24T11:15:45Z</time>
      </trkpt>
      <trkpt lat="44.63885" lon="5.16383">
        <ele>1032</ele>
        <time>2015-05-24T11:15:46Z</time>
      </trkpt>
      <trkpt lat="44.63888" lon="5.16392">
        <ele>1032</ele>
        <time>2015-05-24T11:15:47Z</time>
      </trkpt>
      <trkpt lat="44.63904" lon="5.16487">
        <ele>1035</ele>
        <time>2015-05-24T11:15:57Z</time>
      </trkpt>
      <trkpt lat="44.63907" lon="5.16501">
        <ele>1035</ele>
        <time>2015-05-24T11:15:59Z</time>
      </trkpt>
      <trkpt lat="44.63911" lon="5.16506">
        <ele>1034</ele>
        <time>2015-05-24T11:16:00Z</time>
      </trkpt>
      <trkpt lat="44.63915" lon="5.16509">
        <ele>1032</ele>
        <time>2015-05-24T11:16:01Z</time>
      </trkpt>
      <trkpt lat="44.6392" lon="5.16511">
        <ele>1030</ele>
        <time>2015-05-24T11:16:02Z</time>
      </trkpt>
      <trkpt lat="44.63925" lon="5.16512">
        <ele>1030</ele>
        <time>2015-05-24T11:16:03Z</time>
      </trkpt>
      <trkpt lat="44.63931" lon="5.16513">
        <ele>1030</ele>
        <time>2015-05-24T11:16:04Z</time>
      </trkpt>
      <trkpt lat="44.63937" lon="5.16513">
        <ele>1029</ele>
        <time>2015-05-24T11:16:05Z</time>
      </trkpt>
      <trkpt lat="44.63943" lon="5.16512">
        <ele>1028</ele>
        <time>2015-05-24T11:16:06Z</time>
      </trkpt>
      <trkpt lat="44.6395" lon="5.16509">
        <ele>1027</ele>
        <time>2015-05-24T11:16:07Z</time>
      </trkpt>
      <trkpt lat="44.63963" lon="5.16504">
        <ele>1024</ele>
        <time>2015-05-24T11:16:09Z</time>
      </trkpt>
      <trkpt lat="44.63969" lon="5.165">
        <ele>1023</ele>
        <time>2015-05-24T11:16:10Z</time>
      </trkpt>
      <trkpt lat="44.63988" lon="5.16495">
        <ele>1021</ele>
        <time>2015-05-24T11:16:12Z</time>
      </trkpt>
      <trkpt lat="44.64021" lon="5.16486">
        <ele>1017</ele>
        <time>2015-05-24T11:16:16Z</time>
      </trkpt>
      <trkpt lat="44.64051" lon="5.16485">
        <ele>1016</ele>
        <time>2015-05-24T11:16:19Z</time>
      </trkpt>
      <trkpt lat="44.64055" lon="5.16483">
        <ele>1015</ele>
        <time>2015-05-24T11:16:20Z</time>
      </trkpt>
      <trkpt lat="44.64059" lon="5.16482">
        <ele>1013</ele>
        <time>2015-05-24T11:16:21Z</time>
      </trkpt>
      <trkpt lat="44.64062" lon="5.16482">
        <ele>1013</ele>
        <time>2015-05-24T11:16:26Z</time>
      </trkpt>
      <trkpt lat="44.64062" lon="5.16483">
        <ele>1013</ele>
        <time>2015-05-24T11:16:27Z</time>
      </trkpt>
      <trkpt lat="44.64062" lon="5.16483">
        <ele>1013</ele>
        <time>2015-05-24T11:16:28Z</time>
      </trkpt>
      <trkpt lat="44.64062" lon="5.16483">
        <ele>1013</ele>
        <time>2015-05-24T11:16:29Z</time>
      </trkpt>
      <trkpt lat="44.64062" lon="5.16484">
        <ele>1013</ele>
        <time>2015-05-24T11:16:35Z</time>
      </trkpt>
      <trkpt lat="44.64062" lon="5.16483">
        <ele>1013</ele>
        <time>2015-05-24T11:16:36Z</time>
      </trkpt>
      <trkpt lat="44.64062" lon="5.16483">
        <ele>1013</ele>
        <time>2015-05-24T11:16:37Z</time>
      </trkpt>
      <trkpt lat="44.64062" lon="5.16483">
        <ele>1013</ele>
        <time>2015-05-24T11:16:38Z</time>
      </trkpt>
      <trkpt lat="44.64063" lon="5.16482">
        <ele>1013</ele>
        <time>2015-05-24T11:16:41Z</time>
      </trkpt>
      <trkpt lat="44.64063" lon="5.16482">
        <ele>1013</ele>
        <time>2015-05-24T11:16:42Z</time>
      </trkpt>
      <trkpt lat="44.64063" lon="5.16482">
        <ele>1013</ele>
        <time>2015-05-24T11:16:43Z</time>
      </trkpt>
      <trkpt lat="44.64064" lon="5.16482">
        <ele>1013</ele>
        <time>2015-05-24T11:16:44Z</time>
      </trkpt>
      <trkpt lat="44.64064" lon="5.16482">
        <ele>1012</ele>
        <time>2015-05-24T11:16:45Z</time>
      </trkpt>
      <trkpt lat="44.64064" lon="5.16484">
        <ele>1013</ele>
        <time>2015-05-24T11:17:03Z</time>
      </trkpt>
      <trkpt lat="44.64065" lon="5.16484">
        <ele>1013</ele>
        <time>2015-05-24T11:17:06Z</time>
      </trkpt>
      <trkpt lat="44.64065" lon="5.16485">
        <ele>1013</ele>
        <time>2015-05-24T11:17:07Z</time>
      </trkpt>
      <trkpt lat="44.64066" lon="5.16485">
        <ele>1013</ele>
        <time>2015-05-24T11:17:11Z</time>
      </trkpt>
      <trkpt lat="44.64066" lon="5.16485">
        <ele>1013</ele>
        <time>2015-05-24T11:17:12Z</time>
      </trkpt>
      <trkpt lat="44.64066" lon="5.16485">
        <ele>1013</ele>
        <time>2015-05-24T11:17:13Z</time>
      </trkpt>
      <trkpt lat="44.64066" lon="5.16486">
        <ele>1013</ele>
        <time>2015-05-24T11:17:14Z</time>
      </trkpt>
      <trkpt lat="44.64066" lon="5.16486">
        <ele>1013</ele>
        <time>2015-05-24T11:17:15Z</time>
      </trkpt>
      <trkpt lat="44.64066" lon="5.16486">
        <ele>1014</ele>
        <time>2015-05-24T11:17:16Z</time>
      </trkpt>
      <trkpt lat="44.64066" lon="5.16486">
        <ele>1014</ele>
        <time>2015-05-24T11:17:17Z</time>
      </trkpt>
      <trkpt lat="44.64066" lon="5.16486">
        <ele>1014</ele>
        <time>2015-05-24T11:17:18Z</time>
      </trkpt>
      <trkpt lat="44.64066" lon="5.16486">
        <ele>1014</ele>
        <time>2015-05-24T11:17:19Z</time>
      </trkpt>
      <trkpt lat="44.64066" lon="5.16486">
        <ele>1014</ele>
        <time>2015-05-24T11:17:21Z</time>
      </trkpt>
      <trkpt lat="44.64066" lon="5.16486">
        <ele>1013</ele>
        <time>2015-05-24T11:17:22Z</time>
      </trkpt>
      <trkpt lat="44.64066" lon="5.16486">
        <ele>1013</ele>
        <time>2015-05-24T11:17:23Z</time>
      </trkpt>
      <trkpt lat="44.64066" lon="5.16486">
        <ele>1013</ele>
        <time>2015-05-24T11:17:24Z</time>
      </trkpt>
      <trkpt lat="44.64066" lon="5.16486">
        <ele>1014</ele>
        <time>2015-05-24T11:17:33Z</time>
      </trkpt>
      <trkpt lat="44.64065" lon="5.16486">
        <ele>1014</ele>
        <time>2015-05-24T11:17:34Z</time>
      </trkpt>
      <trkpt lat="44.64063" lon="5.16486">
        <ele>1014</ele>
        <time>2015-05-24T11:17:35Z</time>
      </trkpt>
      <trkpt lat="44.64061" lon="5.16487">
        <ele>1015</ele>
        <time>2015-05-24T11:17:36Z</time>
      </trkpt>
      <trkpt lat="44.64058" lon="5.16487">
        <ele>1016</ele>
        <time>2015-05-24T11:17:37Z</time>
      </trkpt>
      <trkpt lat="44.64055" lon="5.16486">
        <ele>1016</ele>
        <time>2015-05-24T11:17:38Z</time>
      </trkpt>
      <trkpt lat="44.64052" lon="5.16487">
        <ele>1016</ele>
        <time>2015-05-24T11:17:39Z</time>
      </trkpt>
      <trkpt lat="44.64048" lon="5.16487">
        <ele>1017</ele>
        <time>2015-05-24T11:17:40Z</time>
      </trkpt>
      <trkpt lat="44.64044" lon="5.16487">
        <ele>1017</ele>
        <time>2015-05-24T11:17:41Z</time>
      </trkpt>
      <trkpt lat="44.64039" lon="5.16488">
        <ele>1017</ele>
        <time>2015-05-24T11:17:42Z</time>
      </trkpt>
      <trkpt lat="44.64034" lon="5.16489">
        <ele>1018</ele>
        <time>2015-05-24T11:17:43Z</time>
      </trkpt>
      <trkpt lat="44.63993" lon="5.16501">
        <ele>1023</ele>
        <time>2015-05-24T11:17:53Z</time>
      </trkpt>
      <trkpt lat="44.6399" lon="5.165">
        <ele>1023</ele>
        <time>2015-05-24T11:17:54Z</time>
      </trkpt>
      <trkpt lat="44.63989" lon="5.16499">
        <ele>1022</ele>
        <time>2015-05-24T11:17:55Z</time>
      </trkpt>
      <trkpt lat="44.63991" lon="5.16482">
        <ele>1016</ele>
        <time>2015-05-24T11:17:59Z</time>
      </trkpt>
      <trkpt lat="44.63991" lon="5.16476">
        <ele>1014</ele>
        <time>2015-05-24T11:18:00Z</time>
      </trkpt>
      <trkpt lat="44.63992" lon="5.16455">
        <ele>1006</ele>
        <time>2015-05-24T11:18:03Z</time>
      </trkpt>
      <trkpt lat="44.63987" lon="5.16442">
        <ele>1002</ele>
        <time>2015-05-24T11:18:04Z</time>
      </trkpt>
      <trkpt lat="44.63986" lon="5.16433">
        <ele>1000</ele>
        <time>2015-05-24T11:18:05Z</time>
      </trkpt>
      <trkpt lat="44.63947" lon="5.16376">
        <ele>1002</ele>
        <time>2015-05-24T11:18:06Z</time>
      </trkpt>
      <trkpt lat="44.63932" lon="5.16312">
        <ele>998</ele>
        <time>2015-05-24T11:18:14Z</time>
      </trkpt>
      <trkpt lat="44.63913" lon="5.16284">
        <ele>998</ele>
        <time>2015-05-24T11:18:18Z</time>
      </trkpt>
      <trkpt lat="44.63866" lon="5.16232">
        <ele>995</ele>
        <time>2015-05-24T11:18:28Z</time>
      </trkpt>
      <trkpt lat="44.63856" lon="5.16227">
        <ele>996</ele>
        <time>2015-05-24T11:18:30Z</time>
      </trkpt>
      <trkpt lat="44.63845" lon="5.16225">
        <ele>997</ele>
        <time>2015-05-24T11:18:32Z</time>
      </trkpt>
      <trkpt lat="44.6384" lon="5.16225">
        <ele>998</ele>
        <time>2015-05-24T11:18:33Z</time>
      </trkpt>
      <trkpt lat="44.63835" lon="5.16225">
        <ele>1000</ele>
        <time>2015-05-24T11:18:34Z</time>
      </trkpt>
      <trkpt lat="44.63821" lon="5.16224">
        <ele>1003</ele>
        <time>2015-05-24T11:18:37Z</time>
      </trkpt>
      <trkpt lat="44.63818" lon="5.16221">
        <ele>1003</ele>
        <time>2015-05-24T11:18:38Z</time>
      </trkpt>
      <trkpt lat="44.63816" lon="5.16217">
        <ele>1002</ele>
        <time>2015-05-24T11:18:39Z</time>
      </trkpt>
      <trkpt lat="44.63814" lon="5.16212">
        <ele>1001</ele>
        <time>2015-05-24T11:18:40Z</time>
      </trkpt>
      <trkpt lat="44.63813" lon="5.16206">
        <ele>1000</ele>
        <time>2015-05-24T11:18:41Z</time>
      </trkpt>
      <trkpt lat="44.63804" lon="5.16157">
        <ele>993</ele>
        <time>2015-05-24T11:18:48Z</time>
      </trkpt>
      <trkpt lat="44.63803" lon="5.1615">
        <ele>993</ele>
        <time>2015-05-24T11:18:49Z</time>
      </trkpt>
      <trkpt lat="44.63802" lon="5.1613">
        <ele>992</ele>
        <time>2015-05-24T11:18:52Z</time>
      </trkpt>
      <trkpt lat="44.638" lon="5.16119">
        <ele>992</ele>
        <time>2015-05-24T11:18:53Z</time>
      </trkpt>
      <trkpt lat="44.638" lon="5.16109">
        <ele>993</ele>
        <time>2015-05-24T11:18:54Z</time>
      </trkpt>
      <trkpt lat="44.638" lon="5.16099">
        <ele>993</ele>
        <time>2015-05-24T11:18:55Z</time>
      </trkpt>
      <trkpt lat="44.638" lon="5.16089">
        <ele>994</ele>
        <time>2015-05-24T11:18:56Z</time>
      </trkpt>
      <trkpt lat="44.63801" lon="5.16079">
        <ele>994</ele>
        <time>2015-05-24T11:18:57Z</time>
      </trkpt>
      <trkpt lat="44.63801" lon="5.16071">
        <ele>994</ele>
        <time>2015-05-24T11:18:58Z</time>
      </trkpt>
      <trkpt lat="44.638" lon="5.16062">
        <ele>995</ele>
        <time>2015-05-24T11:18:59Z</time>
      </trkpt>
      <trkpt lat="44.63801" lon="5.16054">
        <ele>996</ele>
        <time>2015-05-24T11:19:00Z</time>
      </trkpt>
      <trkpt lat="44.63802" lon="5.16044">
        <ele>997</ele>
        <time>2015-05-24T11:19:01Z</time>
      </trkpt>
      <trkpt lat="44.63805" lon="5.1603">
        <ele>998</ele>
        <time>2015-05-24T11:19:03Z</time>
      </trkpt>
      <trkpt lat="44.63811" lon="5.16017">
        <ele>998</ele>
        <time>2015-05-24T11:19:05Z</time>
      </trkpt>
      <trkpt lat="44.6383" lon="5.15983">
        <ele>997</ele>
        <time>2015-05-24T11:19:11Z</time>
      </trkpt>
      <trkpt lat="44.63847" lon="5.15948">
        <ele>997</ele>
        <time>2015-05-24T11:19:16Z</time>
      </trkpt>
      <trkpt lat="44.63878" lon="5.1591">
        <ele>989</ele>
        <time>2015-05-24T11:19:22Z</time>
      </trkpt>
      <trkpt lat="44.63896" lon="5.15884">
        <ele>984</ele>
        <time>2015-05-24T11:19:25Z</time>
      </trkpt>
      <trkpt lat="44.63902" lon="5.15872">
        <ele>983</ele>
        <time>2015-05-24T11:19:26Z</time>
      </trkpt>
      <trkpt lat="44.63925" lon="5.15827">
        <ele>977</ele>
        <time>2015-05-24T11:19:30Z</time>
      </trkpt>
      <trkpt lat="44.63932" lon="5.15817">
        <ele>974</ele>
        <time>2015-05-24T11:19:31Z</time>
      </trkpt>
      <trkpt lat="44.6394" lon="5.15808">
        <ele>972</ele>
        <time>2015-05-24T11:19:32Z</time>
      </trkpt>
      <trkpt lat="44.63957" lon="5.15792">
        <ele>968</ele>
        <time>2015-05-24T11:19:34Z</time>
      </trkpt>
      <trkpt lat="44.63997" lon="5.15762">
        <ele>960</ele>
        <time>2015-05-24T11:19:38Z</time>
      </trkpt>
      <trkpt lat="44.64016" lon="5.15748">
        <ele>957</ele>
        <time>2015-05-24T11:19:40Z</time>
      </trkpt>
      <trkpt lat="44.64042" lon="5.15726">
        <ele>952</ele>
        <time>2015-05-24T11:19:43Z</time>
      </trkpt>
      <trkpt lat="44.64067" lon="5.15697">
        <ele>948</ele>
        <time>2015-05-24T11:19:46Z</time>
      </trkpt>
      <trkpt lat="44.6409" lon="5.15668">
        <ele>944</ele>
        <time>2015-05-24T11:19:49Z</time>
      </trkpt>
      <trkpt lat="44.64096" lon="5.15659">
        <ele>943</ele>
        <time>2015-05-24T11:19:50Z</time>
      </trkpt>
      <trkpt lat="44.64124" lon="5.15618">
        <ele>938</ele>
        <time>2015-05-24T11:19:54Z</time>
      </trkpt>
      <trkpt lat="44.64144" lon="5.15591">
        <ele>933</ele>
        <time>2015-05-24T11:19:57Z</time>
      </trkpt>
      <trkpt lat="44.64162" lon="5.15567">
        <ele>928</ele>
        <time>2015-05-24T11:20:00Z</time>
      </trkpt>
      <trkpt lat="44.64168" lon="5.15558">
        <ele>927</ele>
        <time>2015-05-24T11:20:01Z</time>
      </trkpt>
      <trkpt lat="44.64176" lon="5.15537">
        <ele>926</ele>
        <time>2015-05-24T11:20:03Z</time>
      </trkpt>
      <trkpt lat="44.64176" lon="5.15525">
        <ele>928</ele>
        <time>2015-05-24T11:20:04Z</time>
      </trkpt>
      <trkpt lat="44.64177" lon="5.15505">
        <ele>928</ele>
        <time>2015-05-24T11:20:06Z</time>
      </trkpt>
      <trkpt lat="44.64173" lon="5.15481">
        <ele>927</ele>
        <time>2015-05-24T11:20:08Z</time>
      </trkpt>
      <trkpt lat="44.64168" lon="5.15447">
        <ele>925</ele>
        <time>2015-05-24T11:20:11Z</time>
      </trkpt>
      <trkpt lat="44.64164" lon="5.15412">
        <ele>918</ele>
        <time>2015-05-24T11:20:14Z</time>
      </trkpt>
      <trkpt lat="44.64164" lon="5.15371">
        <ele>908</ele>
        <time>2015-05-24T11:20:17Z</time>
      </trkpt>
      <trkpt lat="44.64163" lon="5.1534">
        <ele>902</ele>
        <time>2015-05-24T11:20:19Z</time>
      </trkpt>
      <trkpt lat="44.64159" lon="5.15306">
        <ele>898</ele>
        <time>2015-05-24T11:20:21Z</time>
      </trkpt>
      <trkpt lat="44.64152" lon="5.15249">
        <ele>896</ele>
        <time>2015-05-24T11:20:26Z</time>
      </trkpt>
      <trkpt lat="44.64149" lon="5.15228">
        <ele>897</ele>
        <time>2015-05-24T11:20:28Z</time>
      </trkpt>
      <trkpt lat="44.64151" lon="5.1522">
        <ele>897</ele>
        <time>2015-05-24T11:20:29Z</time>
      </trkpt>
      <trkpt lat="44.64154" lon="5.152">
        <ele>896</ele>
        <time>2015-05-24T11:20:31Z</time>
      </trkpt>
      <trkpt lat="44.64157" lon="5.15191">
        <ele>896</ele>
        <time>2015-05-24T11:20:32Z</time>
      </trkpt>
      <trkpt lat="44.64161" lon="5.15184">
        <ele>895</ele>
        <time>2015-05-24T11:20:33Z</time>
      </trkpt>
      <trkpt lat="44.64166" lon="5.15177">
        <ele>894</ele>
        <time>2015-05-24T11:20:34Z</time>
      </trkpt>
      <trkpt lat="44.64171" lon="5.1517">
        <ele>893</ele>
        <time>2015-05-24T11:20:35Z</time>
      </trkpt>
      <trkpt lat="44.64177" lon="5.15163">
        <ele>891</ele>
        <time>2015-05-24T11:20:36Z</time>
      </trkpt>
      <trkpt lat="44.64202" lon="5.15134">
        <ele>886</ele>
        <time>2015-05-24T11:20:40Z</time>
      </trkpt>
      <trkpt lat="44.64224" lon="5.15101">
        <ele>882</ele>
        <time>2015-05-24T11:20:44Z</time>
      </trkpt>
      <trkpt lat="44.64241" lon="5.15051">
        <ele>879</ele>
        <time>2015-05-24T11:20:49Z</time>
      </trkpt>
      <trkpt lat="44.64248" lon="5.15018">
        <ele>875</ele>
        <time>2015-05-24T11:20:52Z</time>
      </trkpt>
      <trkpt lat="44.64253" lon="5.14982">
        <ele>871</ele>
        <time>2015-05-24T11:20:55Z</time>
      </trkpt>
      <trkpt lat="44.64253" lon="5.1497">
        <ele>870</ele>
        <time>2015-05-24T11:20:56Z</time>
      </trkpt>
      <trkpt lat="44.64252" lon="5.14958">
        <ele>869</ele>
        <time>2015-05-24T11:20:57Z</time>
      </trkpt>
      <trkpt lat="44.6425" lon="5.14945">
        <ele>869</ele>
        <time>2015-05-24T11:20:58Z</time>
      </trkpt>
      <trkpt lat="44.64247" lon="5.14933">
        <ele>868</ele>
        <time>2015-05-24T11:20:59Z</time>
      </trkpt>
      <trkpt lat="44.64242" lon="5.14921">
        <ele>867</ele>
        <time>2015-05-24T11:21:00Z</time>
      </trkpt>
      <trkpt lat="44.64238" lon="5.1491">
        <ele>866</ele>
        <time>2015-05-24T11:21:01Z</time>
      </trkpt>
      <trkpt lat="44.64225" lon="5.14877">
        <ele>864</ele>
        <time>2015-05-24T11:21:04Z</time>
      </trkpt>
      <trkpt lat="44.64213" lon="5.14843">
        <ele>861</ele>
        <time>2015-05-24T11:21:07Z</time>
      </trkpt>
      <trkpt lat="44.6421" lon="5.14832">
        <ele>860</ele>
        <time>2015-05-24T11:21:08Z</time>
      </trkpt>
      <trkpt lat="44.64206" lon="5.14813">
        <ele>859</ele>
        <time>2015-05-24T11:21:10Z</time>
      </trkpt>
      <trkpt lat="44.64195" lon="5.14788">
        <ele>863</ele>
        <time>2015-05-24T11:21:16Z</time>
      </trkpt>
      <trkpt lat="44.64191" lon="5.14785">
        <ele>865</ele>
        <time>2015-05-24T11:21:31Z</time>
      </trkpt>
      <trkpt lat="44.64183" lon="5.14786">
        <ele>870</ele>
        <time>2015-05-24T11:22:05Z</time>
      </trkpt>
      <trkpt lat="44.64177" lon="5.14788">
        <ele>875</ele>
        <time>2015-05-24T11:22:39Z</time>
      </trkpt>
      <trkpt lat="44.6417" lon="5.1479">
        <ele>880</ele>
        <time>2015-05-24T11:23:13Z</time>
      </trkpt>
      <trkpt lat="44.64171" lon="5.1479">
        <ele>879</ele>
        <time>2015-05-24T11:23:42Z</time>
      </trkpt>
      <trkpt lat="44.6417" lon="5.14787">
        <ele>880</ele>
        <time>2015-05-24T11:24:12Z</time>
      </trkpt>
      <trkpt lat="44.6417" lon="5.14786">
        <ele>880</ele>
        <time>2015-05-24T11:24:14Z</time>
      </trkpt>
      <trkpt lat="44.6417" lon="5.14786">
        <ele>880</ele>
        <time>2015-05-24T11:24:15Z</time>
      </trkpt>
      <trkpt lat="44.6417" lon="5.14785">
        <ele>880</ele>
        <time>2015-05-24T11:24:23Z</time>
      </trkpt>
      <trkpt lat="44.6417" lon="5.14785">
        <ele>880</ele>
        <time>2015-05-24T11:24:24Z</time>
      </trkpt>
      <trkpt lat="44.6417" lon="5.14785">
        <ele>880</ele>
        <time>2015-05-24T11:24:27Z</time>
      </trkpt>
      <trkpt lat="44.6417" lon="5.14785">
        <ele>880</ele>
        <time>2015-05-24T11:24:28Z</time>
      </trkpt>
      <trkpt lat="44.6417" lon="5.14785">
        <ele>880</ele>
        <time>2015-05-24T11:24:29Z</time>
      </trkpt>
      <trkpt lat="44.6417" lon="5.14785">
        <ele>880</ele>
        <time>2015-05-24T11:24:30Z</time>
      </trkpt>
      <trkpt lat="44.6417" lon="5.14785">
        <ele>880</ele>
        <time>2015-05-24T11:24:31Z</time>
      </trkpt>
      <trkpt lat="44.6417" lon="5.14785">
        <ele>880</ele>
        <time>2015-05-24T11:24:34Z</time>
      </trkpt>
      <trkpt lat="44.6417" lon="5.14784">
        <ele>880</ele>
        <time>2015-05-24T11:24:35Z</time>
      </trkpt>
      <trkpt lat="44.6417" lon="5.14784">
        <ele>880</ele>
        <time>2015-05-24T11:24:36Z</time>
      </trkpt>
      <trkpt lat="44.6417" lon="5.14784">
        <ele>880</ele>
        <time>2015-05-24T11:24:37Z</time>
      </trkpt>
      <trkpt lat="44.6417" lon="5.14784">
        <ele>880</ele>
        <time>2015-05-24T11:24:38Z</time>
      </trkpt>
      <trkpt lat="44.6417" lon="5.14784">
        <ele>880</ele>
        <time>2015-05-24T11:24:39Z</time>
      </trkpt>
      <trkpt lat="44.6417" lon="5.14784">
        <ele>879</ele>
        <time>2015-05-24T11:24:40Z</time>
      </trkpt>
      <trkpt lat="44.6417" lon="5.14784">
        <ele>879</ele>
        <time>2015-05-24T11:24:41Z</time>
      </trkpt>
      <trkpt lat="44.64173" lon="5.14781">
        <ele>877</ele>
        <time>2015-05-24T11:24:59Z</time>
      </trkpt>
      <trkpt lat="44.64173" lon="5.14779">
        <ele>877</ele>
        <time>2015-05-24T11:25:00Z</time>
      </trkpt>
      <trkpt lat="44.64174" lon="5.14776">
        <ele>876</ele>
        <time>2015-05-24T11:25:01Z</time>
      </trkpt>
      <trkpt lat="44.64175" lon="5.14773">
        <ele>875</ele>
        <time>2015-05-24T11:25:02Z</time>
      </trkpt>
      <trkpt lat="44.64176" lon="5.1477">
        <ele>874</ele>
        <time>2015-05-24T11:25:03Z</time>
      </trkpt>
      <trkpt lat="44.64178" lon="5.14767">
        <ele>872</ele>
        <time>2015-05-24T11:25:04Z</time>
      </trkpt>
      <trkpt lat="44.6418" lon="5.14764">
        <ele>871</ele>
        <time>2015-05-24T11:25:05Z</time>
      </trkpt>
      <trkpt lat="44.64182" lon="5.1476">
        <ele>869</ele>
        <time>2015-05-24T11:25:06Z</time>
      </trkpt>
      <trkpt lat="44.64185" lon="5.14755">
        <ele>868</ele>
        <time>2015-05-24T11:25:07Z</time>
      </trkpt>
      <trkpt lat="44.64187" lon="5.1475">
        <ele>867</ele>
        <time>2015-05-24T11:25:08Z</time>
      </trkpt>
      <trkpt lat="44.64189" lon="5.14745">
        <ele>866</ele>
        <time>2015-05-24T11:25:09Z</time>
      </trkpt>
      <trkpt lat="44.64191" lon="5.14739">
        <ele>866</ele>
        <time>2015-05-24T11:25:10Z</time>
      </trkpt>
      <trkpt lat="44.64193" lon="5.14734">
        <ele>866</ele>
        <time>2015-05-24T11:25:11Z</time>
      </trkpt>
      <trkpt lat="44.64195" lon="5.14727">
        <ele>865</ele>
        <time>2015-05-24T11:25:12Z</time>
      </trkpt>
      <trkpt lat="44.64197" lon="5.14721">
        <ele>865</ele>
        <time>2015-05-24T11:25:13Z</time>
      </trkpt>
      <trkpt lat="44.64199" lon="5.14714">
        <ele>865</ele>
        <time>2015-05-24T11:25:14Z</time>
      </trkpt>
      <trkpt lat="44.64202" lon="5.147">
        <ele>865</ele>
        <time>2015-05-24T11:25:16Z</time>
      </trkpt>
      <trkpt lat="44.64204" lon="5.14693">
        <ele>865</ele>
        <time>2015-05-24T11:25:17Z</time>
      </trkpt>
      <trkpt lat="44.64206" lon="5.14688">
        <ele>865</ele>
        <time>2015-05-24T11:25:18Z</time>
      </trkpt>
      <trkpt lat="44.64207" lon="5.14683">
        <ele>864</ele>
        <time>2015-05-24T11:25:19Z</time>
      </trkpt>
      <trkpt lat="44.64209" lon="5.14679">
        <ele>864</ele>
        <time>2015-05-24T11:25:20Z</time>
      </trkpt>
      <trkpt lat="44.64214" lon="5.14664">
        <ele>862</ele>
        <time>2015-05-24T11:25:22Z</time>
      </trkpt>
      <trkpt lat="44.64225" lon="5.14636">
        <ele>859</ele>
        <time>2015-05-24T11:25:26Z</time>
      </trkpt>
      <trkpt lat="44.64236" lon="5.14609">
        <ele>852</ele>
        <time>2015-05-24T11:25:30Z</time>
      </trkpt>
      <trkpt lat="44.64239" lon="5.14585">
        <ele>850</ele>
        <time>2015-05-24T11:25:33Z</time>
      </trkpt>
      <trkpt lat="44.64241" lon="5.1456">
        <ele>848</ele>
        <time>2015-05-24T11:25:36Z</time>
      </trkpt>
      <trkpt lat="44.6424" lon="5.14519">
        <ele>846</ele>
        <time>2015-05-24T11:25:40Z</time>
      </trkpt>
      <trkpt lat="44.64241" lon="5.14507">
        <ele>845</ele>
        <time>2015-05-24T11:25:41Z</time>
      </trkpt>
      <trkpt lat="44.64243" lon="5.14495">
        <ele>844</ele>
        <time>2015-05-24T11:25:42Z</time>
      </trkpt>
      <trkpt lat="44.64246" lon="5.14483">
        <ele>842</ele>
        <time>2015-05-24T11:25:43Z</time>
      </trkpt>
      <trkpt lat="44.64251" lon="5.14471">
        <ele>840</ele>
        <time>2015-05-24T11:25:44Z</time>
      </trkpt>
      <trkpt lat="44.64256" lon="5.14459">
        <ele>836</ele>
        <time>2015-05-24T11:25:45Z</time>
      </trkpt>
      <trkpt lat="44.64262" lon="5.14446">
        <ele>833</ele>
        <time>2015-05-24T11:25:46Z</time>
      </trkpt>
      <trkpt lat="44.64284" lon="5.14398">
        <ele>825</ele>
        <time>2015-05-24T11:25:50Z</time>
      </trkpt>
      <trkpt lat="44.64298" lon="5.14363">
        <ele>819</ele>
        <time>2015-05-24T11:25:53Z</time>
      </trkpt>
      <trkpt lat="44.64299" lon="5.14352">
        <ele>819</ele>
        <time>2015-05-24T11:25:54Z</time>
      </trkpt>
      <trkpt lat="44.643" lon="5.14342">
        <ele>819</ele>
        <time>2015-05-24T11:25:55Z</time>
      </trkpt>
      <trkpt lat="44.64301" lon="5.14332">
        <ele>819</ele>
        <time>2015-05-24T11:25:56Z</time>
      </trkpt>
      <trkpt lat="44.643" lon="5.14324">
        <ele>820</ele>
        <time>2015-05-24T11:25:57Z</time>
      </trkpt>
      <trkpt lat="44.64298" lon="5.14315">
        <ele>822</ele>
        <time>2015-05-24T11:25:58Z</time>
      </trkpt>
      <trkpt lat="44.64297" lon="5.14306">
        <ele>824</ele>
        <time>2015-05-24T11:25:59Z</time>
      </trkpt>
      <trkpt lat="44.64297" lon="5.14297">
        <ele>825</ele>
        <time>2015-05-24T11:26:00Z</time>
      </trkpt>
      <trkpt lat="44.64298" lon="5.14288">
        <ele>826</ele>
        <time>2015-05-24T11:26:01Z</time>
      </trkpt>
      <trkpt lat="44.64299" lon="5.14281">
        <ele>826</ele>
        <time>2015-05-24T11:26:02Z</time>
      </trkpt>
      <trkpt lat="44.64305" lon="5.14256">
        <ele>827</ele>
        <time>2015-05-24T11:26:05Z</time>
      </trkpt>
      <trkpt lat="44.64308" lon="5.1425">
        <ele>826</ele>
        <time>2015-05-24T11:26:06Z</time>
      </trkpt>
      <trkpt lat="44.64312" lon="5.14245">
        <ele>825</ele>
        <time>2015-05-24T11:26:07Z</time>
      </trkpt>
      <trkpt lat="44.64316" lon="5.1424">
        <ele>824</ele>
        <time>2015-05-24T11:26:08Z</time>
      </trkpt>
      <trkpt lat="44.64332" lon="5.14214">
        <ele>820</ele>
        <time>2015-05-24T11:26:12Z</time>
      </trkpt>
      <trkpt lat="44.64345" lon="5.14194">
        <ele>817</ele>
        <time>2015-05-24T11:26:15Z</time>
      </trkpt>
      <trkpt lat="44.64366" lon="5.14158">
        <ele>811</ele>
        <time>2015-05-24T11:26:20Z</time>
      </trkpt>
      <trkpt lat="44.64372" lon="5.14145">
        <ele>809</ele>
        <time>2015-05-24T11:26:22Z</time>
      </trkpt>
      <trkpt lat="44.64377" lon="5.14134">
        <ele>808</ele>
        <time>2015-05-24T11:26:24Z</time>
      </trkpt>
      <trkpt lat="44.64389" lon="5.14103">
        <ele>803</ele>
        <time>2015-05-24T11:26:29Z</time>
      </trkpt>
      <trkpt lat="44.64405" lon="5.1408">
        <ele>795</ele>
        <time>2015-05-24T11:26:33Z</time>
      </trkpt>
      <trkpt lat="44.64409" lon="5.14075">
        <ele>793</ele>
        <time>2015-05-24T11:26:34Z</time>
      </trkpt>
      <trkpt lat="44.64412" lon="5.14071">
        <ele>791</ele>
        <time>2015-05-24T11:26:35Z</time>
      </trkpt>
      <trkpt lat="44.64414" lon="5.14068">
        <ele>790</ele>
        <time>2015-05-24T11:26:36Z</time>
      </trkpt>
      <trkpt lat="44.64417" lon="5.14065">
        <ele>788</ele>
        <time>2015-05-24T11:26:37Z</time>
      </trkpt>
      <trkpt lat="44.6442" lon="5.14062">
        <ele>786</ele>
        <time>2015-05-24T11:26:38Z</time>
      </trkpt>
      <trkpt lat="44.64423" lon="5.14058">
        <ele>784</ele>
        <time>2015-05-24T11:26:39Z</time>
      </trkpt>
      <trkpt lat="44.64427" lon="5.14052">
        <ele>782</ele>
        <time>2015-05-24T11:26:40Z</time>
      </trkpt>
      <trkpt lat="44.6443" lon="5.14046">
        <ele>780</ele>
        <time>2015-05-24T11:26:41Z</time>
      </trkpt>
      <trkpt lat="44.64433" lon="5.14038">
        <ele>778</ele>
        <time>2015-05-24T11:26:42Z</time>
      </trkpt>
      <trkpt lat="44.64444" lon="5.14015">
        <ele>773</ele>
        <time>2015-05-24T11:26:45Z</time>
      </trkpt>
      <trkpt lat="44.64451" lon="5.14">
        <ele>769</ele>
        <time>2015-05-24T11:26:47Z</time>
      </trkpt>
      <trkpt lat="44.64463" lon="5.13977">
        <ele>763</ele>
        <time>2015-05-24T11:26:50Z</time>
      </trkpt>
      <trkpt lat="44.64472" lon="5.13959">
        <ele>757</ele>
        <time>2015-05-24T11:26:52Z</time>
      </trkpt>
      <trkpt lat="44.64484" lon="5.13925">
        <ele>748</ele>
        <time>2015-05-24T11:26:56Z</time>
      </trkpt>
      <trkpt lat="44.64488" lon="5.13909">
        <ele>743</ele>
        <time>2015-05-24T11:26:58Z</time>
      </trkpt>
      <trkpt lat="44.64498" lon="5.13876">
        <ele>734</ele>
        <time>2015-05-24T11:27:02Z</time>
      </trkpt>
      <trkpt lat="44.64504" lon="5.1385">
        <ele>729</ele>
        <time>2015-05-24T11:27:05Z</time>
      </trkpt>
      <trkpt lat="44.64506" lon="5.13841">
        <ele>728</ele>
        <time>2015-05-24T11:27:06Z</time>
      </trkpt>
      <trkpt lat="44.64511" lon="5.13819">
        <ele>725</ele>
        <time>2015-05-24T11:27:09Z</time>
      </trkpt>
      <trkpt lat="44.64512" lon="5.13812">
        <ele>724</ele>
        <time>2015-05-24T11:27:10Z</time>
      </trkpt>
      <trkpt lat="44.64517" lon="5.1379">
        <ele>723</ele>
        <time>2015-05-24T11:27:13Z</time>
      </trkpt>
      <trkpt lat="44.6452" lon="5.1378">
        <ele>721</ele>
        <time>2015-05-24T11:27:14Z</time>
      </trkpt>
      <trkpt lat="44.64523" lon="5.13769">
        <ele>720</ele>
        <time>2015-05-24T11:27:15Z</time>
      </trkpt>
      <trkpt lat="44.64532" lon="5.13743">
        <ele>714</ele>
        <time>2015-05-24T11:27:18Z</time>
      </trkpt>
      <trkpt lat="44.64541" lon="5.13716">
        <ele>708</ele>
        <time>2015-05-24T11:27:21Z</time>
      </trkpt>
      <trkpt lat="44.64544" lon="5.13695">
        <ele>705</ele>
        <time>2015-05-24T11:27:23Z</time>
      </trkpt>
      <trkpt lat="44.64552" lon="5.13662">
        <ele>698</ele>
        <time>2015-05-24T11:27:26Z</time>
      </trkpt>
      <trkpt lat="44.64558" lon="5.1363">
        <ele>692</ele>
        <time>2015-05-24T11:27:29Z</time>
      </trkpt>
      <trkpt lat="44.64554" lon="5.13612">
        <ele>693</ele>
        <time>2015-05-24T11:27:30Z</time>
      </trkpt>
      <trkpt lat="44.64554" lon="5.13602">
        <ele>692</ele>
        <time>2015-05-24T11:27:31Z</time>
      </trkpt>
      <trkpt lat="44.64555" lon="5.13592">
        <ele>691</ele>
        <time>2015-05-24T11:27:32Z</time>
      </trkpt>
      <trkpt lat="44.64555" lon="5.13584">
        <ele>691</ele>
        <time>2015-05-24T11:27:33Z</time>
      </trkpt>
      <trkpt lat="44.6455" lon="5.13565">
        <ele>692</ele>
        <time>2015-05-24T11:27:34Z</time>
      </trkpt>
      <trkpt lat="44.6455" lon="5.13541">
        <ele>692</ele>
        <time>2015-05-24T11:27:36Z</time>
      </trkpt>
      <trkpt lat="44.64553" lon="5.13494">
        <ele>688</ele>
        <time>2015-05-24T11:27:40Z</time>
      </trkpt>
      <trkpt lat="44.64553" lon="5.13472">
        <ele>687</ele>
        <time>2015-05-24T11:27:42Z</time>
      </trkpt>
      <trkpt lat="44.64556" lon="5.13443">
        <ele>684</ele>
        <time>2015-05-24T11:27:45Z</time>
      </trkpt>
      <trkpt lat="44.64558" lon="5.13434">
        <ele>683</ele>
        <time>2015-05-24T11:27:46Z</time>
      </trkpt>
      <trkpt lat="44.6456" lon="5.13426">
        <ele>681</ele>
        <time>2015-05-24T11:27:47Z</time>
      </trkpt>
      <trkpt lat="44.64562" lon="5.13416">
        <ele>680</ele>
        <time>2015-05-24T11:27:48Z</time>
      </trkpt>
      <trkpt lat="44.64565" lon="5.13406">
        <ele>678</ele>
        <time>2015-05-24T11:27:49Z</time>
      </trkpt>
      <trkpt lat="44.64566" lon="5.13394">
        <ele>677</ele>
        <time>2015-05-24T11:27:50Z</time>
      </trkpt>
      <trkpt lat="44.64568" lon="5.13381">
        <ele>676</ele>
        <time>2015-05-24T11:27:51Z</time>
      </trkpt>
      <trkpt lat="44.64569" lon="5.1337">
        <ele>675</ele>
        <time>2015-05-24T11:27:52Z</time>
      </trkpt>
      <trkpt lat="44.64569" lon="5.13359">
        <ele>674</ele>
        <time>2015-05-24T11:27:53Z</time>
      </trkpt>
      <trkpt lat="44.64569" lon="5.1335">
        <ele>674</ele>
        <time>2015-05-24T11:27:54Z</time>
      </trkpt>
      <trkpt lat="44.64568" lon="5.1334">
        <ele>674</ele>
        <time>2015-05-24T11:27:55Z</time>
      </trkpt>
      <trkpt lat="44.64566" lon="5.13327">
        <ele>675</ele>
        <time>2015-05-24T11:27:56Z</time>
      </trkpt>
      <trkpt lat="44.64565" lon="5.13316">
        <ele>675</ele>
        <time>2015-05-24T11:27:57Z</time>
      </trkpt>
      <trkpt lat="44.64564" lon="5.13307">
        <ele>675</ele>
        <time>2015-05-24T11:27:58Z</time>
      </trkpt>
      <trkpt lat="44.64564" lon="5.13302">
        <ele>675</ele>
        <time>2015-05-24T11:27:59Z</time>
      </trkpt>
      <trkpt lat="44.64563" lon="5.13299">
        <ele>676</ele>
        <time>2015-05-24T11:28:00Z</time>
      </trkpt>
      <trkpt lat="44.64555" lon="5.13306">
        <ele>680</ele>
        <time>2015-05-24T11:28:10Z</time>
      </trkpt>
      <trkpt lat="44.64551" lon="5.13305">
        <ele>682</ele>
        <time>2015-05-24T11:28:16Z</time>
      </trkpt>
      <trkpt lat="44.64544" lon="5.13303">
        <ele>685</ele>
        <time>2015-05-24T11:28:40Z</time>
      </trkpt>
      <trkpt lat="44.64542" lon="5.13303">
        <ele>687</ele>
        <time>2015-05-24T11:28:42Z</time>
      </trkpt>
      <trkpt lat="44.64535" lon="5.13304">
        <ele>690</ele>
        <time>2015-05-24T11:28:59Z</time>
      </trkpt>
      <trkpt lat="44.64535" lon="5.13305">
        <ele>691</ele>
        <time>2015-05-24T11:29:02Z</time>
      </trkpt>
      <trkpt lat="44.64539" lon="5.1331">
        <ele>688</ele>
        <time>2015-05-24T11:29:07Z</time>
      </trkpt>
      <trkpt lat="44.64543" lon="5.13323">
        <ele>686</ele>
        <time>2015-05-24T11:29:10Z</time>
      </trkpt>
      <trkpt lat="44.64549" lon="5.13337">
        <ele>684</ele>
        <time>2015-05-24T11:29:12Z</time>
      </trkpt>
      <trkpt lat="44.64552" lon="5.13346">
        <ele>683</ele>
        <time>2015-05-24T11:29:13Z</time>
      </trkpt>
      <trkpt lat="44.64556" lon="5.13365">
        <ele>681</ele>
        <time>2015-05-24T11:29:15Z</time>
      </trkpt>
      <trkpt lat="44.64562" lon="5.1339">
        <ele>679</ele>
        <time>2015-05-24T11:29:17Z</time>
      </trkpt>
      <trkpt lat="44.64569" lon="5.13419">
        <ele>676</ele>
        <time>2015-05-24T11:29:19Z</time>
      </trkpt>
      <trkpt lat="44.64573" lon="5.13433">
        <ele>675</ele>
        <time>2015-05-24T11:29:20Z</time>
      </trkpt>
      <trkpt lat="44.64583" lon="5.13456">
        <ele>672</ele>
        <time>2015-05-24T11:29:22Z</time>
      </trkpt>
      <trkpt lat="44.64595" lon="5.13491">
        <ele>668</ele>
        <time>2015-05-24T11:29:25Z</time>
      </trkpt>
      <trkpt lat="44.64605" lon="5.13524">
        <ele>665</ele>
        <time>2015-05-24T11:29:28Z</time>
      </trkpt>
      <trkpt lat="44.64607" lon="5.13552">
        <ele>664</ele>
        <time>2015-05-24T11:29:31Z</time>
      </trkpt>
      <trkpt lat="44.6462" lon="5.13587">
        <ele>659</ele>
        <time>2015-05-24T11:29:36Z</time>
      </trkpt>
      <trkpt lat="44.64627" lon="5.13599">
        <ele>657</ele>
        <time>2015-05-24T11:29:38Z</time>
      </trkpt>
      <trkpt lat="44.64637" lon="5.13614">
        <ele>654</ele>
        <time>2015-05-24T11:29:40Z</time>
      </trkpt>
      <trkpt lat="44.64652" lon="5.13651">
        <ele>651</ele>
        <time>2015-05-24T11:29:45Z</time>
      </trkpt>
      <trkpt lat="44.64658" lon="5.13661">
        <ele>649</ele>
        <time>2015-05-24T11:29:47Z</time>
      </trkpt>
      <trkpt lat="44.64661" lon="5.13668">
        <ele>648</ele>
        <time>2015-05-24T11:29:48Z</time>
      </trkpt>
      <trkpt lat="44.64664" lon="5.13675">
        <ele>647</ele>
        <time>2015-05-24T11:29:49Z</time>
      </trkpt>
      <trkpt lat="44.64666" lon="5.13684">
        <ele>647</ele>
        <time>2015-05-24T11:29:50Z</time>
      </trkpt>
      <trkpt lat="44.64671" lon="5.13703">
        <ele>646</ele>
        <time>2015-05-24T11:29:52Z</time>
      </trkpt>
      <trkpt lat="44.64678" lon="5.13732">
        <ele>642</ele>
        <time>2015-05-24T11:29:55Z</time>
      </trkpt>
      <trkpt lat="44.64681" lon="5.13751">
        <ele>639</ele>
        <time>2015-05-24T11:29:57Z</time>
      </trkpt>
      <trkpt lat="44.64682" lon="5.13759">
        <ele>638</ele>
        <time>2015-05-24T11:29:58Z</time>
      </trkpt>
      <trkpt lat="44.64683" lon="5.13773">
        <ele>636</ele>
        <time>2015-05-24T11:30:00Z</time>
      </trkpt>
      <trkpt lat="44.64685" lon="5.13787">
        <ele>632</ele>
        <time>2015-05-24T11:30:09Z</time>
      </trkpt>
      <trkpt lat="44.64684" lon="5.13787">
        <ele>632</ele>
        <time>2015-05-24T11:30:10Z</time>
      </trkpt>
      <trkpt lat="44.6469" lon="5.13792">
        <ele>629</ele>
        <time>2015-05-24T11:30:13Z</time>
      </trkpt>
      <trkpt lat="44.64697" lon="5.13787">
        <ele>628</ele>
        <time>2015-05-24T11:30:15Z</time>
      </trkpt>
      <trkpt lat="44.64701" lon="5.13784">
        <ele>627</ele>
        <time>2015-05-24T11:30:16Z</time>
      </trkpt>
      <trkpt lat="44.64706" lon="5.13781">
        <ele>626</ele>
        <time>2015-05-24T11:30:17Z</time>
      </trkpt>
      <trkpt lat="44.64721" lon="5.13765">
        <ele>624</ele>
        <time>2015-05-24T11:30:20Z</time>
      </trkpt>
      <trkpt lat="44.64735" lon="5.13749">
        <ele>623</ele>
        <time>2015-05-24T11:30:26Z</time>
      </trkpt>
      <trkpt lat="44.64739" lon="5.13743">
        <ele>623</ele>
        <time>2015-05-24T11:30:29Z</time>
      </trkpt>
      <trkpt lat="44.6474" lon="5.1374">
        <ele>623</ele>
        <time>2015-05-24T11:30:30Z</time>
      </trkpt>
      <trkpt lat="44.6474" lon="5.13737">
        <ele>623</ele>
        <time>2015-05-24T11:30:31Z</time>
      </trkpt>
      <trkpt lat="44.64742" lon="5.1373">
        <ele>623</ele>
        <time>2015-05-24T11:30:33Z</time>
      </trkpt>
      <trkpt lat="44.64746" lon="5.13725">
        <ele>623</ele>
        <time>2015-05-24T11:30:35Z</time>
      </trkpt>
      <trkpt lat="44.64751" lon="5.1372">
        <ele>623</ele>
        <time>2015-05-24T11:30:38Z</time>
      </trkpt>
      <trkpt lat="44.64763" lon="5.13704">
        <ele>619</ele>
        <time>2015-05-24T11:30:47Z</time>
      </trkpt>
      <trkpt lat="44.64783" lon="5.13688">
        <ele>613</ele>
        <time>2015-05-24T11:30:52Z</time>
      </trkpt>
      <trkpt lat="44.6479" lon="5.13676">
        <ele>612</ele>
        <time>2015-05-24T11:30:55Z</time>
      </trkpt>
      <trkpt lat="44.64792" lon="5.13671">
        <ele>611</ele>
        <time>2015-05-24T11:30:56Z</time>
      </trkpt>
      <trkpt lat="44.64797" lon="5.13654">
        <ele>610</ele>
        <time>2015-05-24T11:31:00Z</time>
      </trkpt>
      <trkpt lat="44.64799" lon="5.13645">
        <ele>608</ele>
        <time>2015-05-24T11:31:02Z</time>
      </trkpt>
      <trkpt lat="44.64803" lon="5.13623">
        <ele>604</ele>
        <time>2015-05-24T11:31:07Z</time>
      </trkpt>
      <trkpt lat="44.64809" lon="5.13605">
        <ele>600</ele>
        <time>2015-05-24T11:31:12Z</time>
      </trkpt>
      <trkpt lat="44.64809" lon="5.13597">
        <ele>599</ele>
        <time>2015-05-24T11:31:15Z</time>
      </trkpt>
      <trkpt lat="44.64808" lon="5.13586">
        <ele>598</ele>
        <time>2015-05-24T11:31:19Z</time>
      </trkpt>
      <trkpt lat="44.6481" lon="5.13576">
        <ele>595</ele>
        <time>2015-05-24T11:31:22Z</time>
      </trkpt>
      <trkpt lat="44.64811" lon="5.13567">
        <ele>593</ele>
        <time>2015-05-24T11:31:24Z</time>
      </trkpt>
      <trkpt lat="44.64819" lon="5.13552">
        <ele>587</ele>
        <time>2015-05-24T11:31:30Z</time>
      </trkpt>
      <trkpt lat="44.64831" lon="5.13552">
        <ele>583</ele>
        <time>2015-05-24T11:31:34Z</time>
      </trkpt>
      <trkpt lat="44.64852" lon="5.13551">
        <ele>576</ele>
        <time>2015-05-24T11:31:38Z</time>
      </trkpt>
      <trkpt lat="44.64863" lon="5.13551">
        <ele>573</ele>
        <time>2015-05-24T11:31:40Z</time>
      </trkpt>
      <trkpt lat="44.64883" lon="5.13548">
        <ele>567</ele>
        <time>2015-05-24T11:31:44Z</time>
      </trkpt>
      <trkpt lat="44.64892" lon="5.13543">
        <ele>563</ele>
        <time>2015-05-24T11:31:46Z</time>
      </trkpt>
      <trkpt lat="44.64913" lon="5.1354">
        <ele>557</ele>
        <time>2015-05-24T11:31:51Z</time>
      </trkpt>
      <trkpt lat="44.64931" lon="5.13556">
        <ele>556</ele>
        <time>2015-05-24T11:31:55Z</time>
      </trkpt>
      <trkpt lat="44.64939" lon="5.13568">
        <ele>556</ele>
        <time>2015-05-24T11:31:57Z</time>
      </trkpt>
      <trkpt lat="44.64951" lon="5.13597">
        <ele>556</ele>
        <time>2015-05-24T11:32:01Z</time>
      </trkpt>
      <trkpt lat="44.64953" lon="5.13606">
        <ele>555</ele>
        <time>2015-05-24T11:32:02Z</time>
      </trkpt>
      <trkpt lat="44.64955" lon="5.13624">
        <ele>550</ele>
        <time>2015-05-24T11:32:04Z</time>
      </trkpt>
      <trkpt lat="44.64956" lon="5.13647">
        <ele>546</ele>
        <time>2015-05-24T11:32:07Z</time>
      </trkpt>
      <trkpt lat="44.64951" lon="5.1366">
        <ele>546</ele>
        <time>2015-05-24T11:32:09Z</time>
      </trkpt>
      <trkpt lat="44.64942" lon="5.13677">
        <ele>547</ele>
        <time>2015-05-24T11:32:12Z</time>
      </trkpt>
      <trkpt lat="44.64931" lon="5.13696">
        <ele>549</ele>
        <time>2015-05-24T11:32:15Z</time>
      </trkpt>
      <trkpt lat="44.64922" lon="5.13724">
        <ele>549</ele>
        <time>2015-05-24T11:32:20Z</time>
      </trkpt>
      <trkpt lat="44.64924" lon="5.13742">
        <ele>550</ele>
        <time>2015-05-24T11:32:24Z</time>
      </trkpt>
      <trkpt lat="44.64943" lon="5.13766">
        <ele>543</ele>
        <time>2015-05-24T11:32:28Z</time>
      </trkpt>
      <trkpt lat="44.64955" lon="5.13776">
        <ele>538</ele>
        <time>2015-05-24T11:32:30Z</time>
      </trkpt>
      <trkpt lat="44.64977" lon="5.13796">
        <ele>531</ele>
        <time>2015-05-24T11:32:34Z</time>
      </trkpt>
      <trkpt lat="44.64982" lon="5.138">
        <ele>529</ele>
        <time>2015-05-24T11:32:35Z</time>
      </trkpt>
      <trkpt lat="44.64992" lon="5.13824">
        <ele>526</ele>
        <time>2015-05-24T11:32:39Z</time>
      </trkpt>
      <trkpt lat="44.64996" lon="5.13849">
        <ele>527</ele>
        <time>2015-05-24T11:32:42Z</time>
      </trkpt>
      <trkpt lat="44.65002" lon="5.13875">
        <ele>521</ele>
        <time>2015-05-24T11:32:45Z</time>
      </trkpt>
      <trkpt lat="44.65006" lon="5.13893">
        <ele>517</ele>
        <time>2015-05-24T11:32:47Z</time>
      </trkpt>
      <trkpt lat="44.65019" lon="5.13917">
        <ele>508</ele>
        <time>2015-05-24T11:32:50Z</time>
      </trkpt>
      <trkpt lat="44.65022" lon="5.13923">
        <ele>505</ele>
        <time>2015-05-24T11:32:51Z</time>
      </trkpt>
      <trkpt lat="44.65025" lon="5.13932">
        <ele>502</ele>
        <time>2015-05-24T11:32:52Z</time>
      </trkpt>
      <trkpt lat="44.65026" lon="5.13941">
        <ele>501</ele>
        <time>2015-05-24T11:32:53Z</time>
      </trkpt>
      <trkpt lat="44.65025" lon="5.1395">
        <ele>500</ele>
        <time>2015-05-24T11:32:54Z</time>
      </trkpt>
      <trkpt lat="44.65024" lon="5.13955">
        <ele>500</ele>
        <time>2015-05-24T11:32:55Z</time>
      </trkpt>
      <trkpt lat="44.65026" lon="5.1399">
        <ele>496</ele>
        <time>2015-05-24T11:32:59Z</time>
      </trkpt>
      <trkpt lat="44.65029" lon="5.13995">
        <ele>496</ele>
        <time>2015-05-24T11:33:00Z</time>
      </trkpt>
      <trkpt lat="44.65032" lon="5.13998">
        <ele>495</ele>
        <time>2015-05-24T11:33:01Z</time>
      </trkpt>
      <trkpt lat="44.65039" lon="5.14003">
        <ele>493</ele>
        <time>2015-05-24T11:33:03Z</time>
      </trkpt>
      <trkpt lat="44.65042" lon="5.14005">
        <ele>492</ele>
        <time>2015-05-24T11:33:04Z</time>
      </trkpt>
      <trkpt lat="44.65049" lon="5.14009">
        <ele>491</ele>
        <time>2015-05-24T11:33:06Z</time>
      </trkpt>
      <trkpt lat="44.65062" lon="5.14006">
        <ele>486</ele>
        <time>2015-05-24T11:33:11Z</time>
      </trkpt>
      <trkpt lat="44.65066" lon="5.14004">
        <ele>485</ele>
        <time>2015-05-24T11:33:13Z</time>
      </trkpt>
      <trkpt lat="44.65072" lon="5.13991">
        <ele>483</ele>
        <time>2015-05-24T11:33:17Z</time>
      </trkpt>
      <trkpt lat="44.65077" lon="5.13978">
        <ele>482</ele>
        <time>2015-05-24T11:33:20Z</time>
      </trkpt>
      <trkpt lat="44.65083" lon="5.1396">
        <ele>480</ele>
        <time>2015-05-24T11:33:25Z</time>
      </trkpt>
      <trkpt lat="44.65086" lon="5.13927">
        <ele>478</ele>
        <time>2015-05-24T11:33:30Z</time>
      </trkpt>
      <trkpt lat="44.65087" lon="5.13896">
        <ele>476</ele>
        <time>2015-05-24T11:33:34Z</time>
      </trkpt>
      <trkpt lat="44.65087" lon="5.13886">
        <ele>476</ele>
        <time>2015-05-24T11:33:35Z</time>
      </trkpt>
      <trkpt lat="44.65088" lon="5.13876">
        <ele>475</ele>
        <time>2015-05-24T11:33:36Z</time>
      </trkpt>
      <trkpt lat="44.65089" lon="5.13867">
        <ele>475</ele>
        <time>2015-05-24T11:33:37Z</time>
      </trkpt>
      <trkpt lat="44.65088" lon="5.13856">
        <ele>475</ele>
        <time>2015-05-24T11:33:38Z</time>
      </trkpt>
      <trkpt lat="44.65088" lon="5.13845">
        <ele>474</ele>
        <time>2015-05-24T11:33:39Z</time>
      </trkpt>
      <trkpt lat="44.65087" lon="5.13834">
        <ele>474</ele>
        <time>2015-05-24T11:33:40Z</time>
      </trkpt>
      <trkpt lat="44.6508" lon="5.13732">
        <ele>475</ele>
        <time>2015-05-24T11:33:49Z</time>
      </trkpt>
      <trkpt lat="44.65079" lon="5.13701">
        <ele>474</ele>
        <time>2015-05-24T11:33:52Z</time>
      </trkpt>
      <trkpt lat="44.65076" lon="5.13672">
        <ele>474</ele>
        <time>2015-05-24T11:33:55Z</time>
      </trkpt>
      <trkpt lat="44.65077" lon="5.13643">
        <ele>475</ele>
        <time>2015-05-24T11:33:58Z</time>
      </trkpt>
      <trkpt lat="44.65079" lon="5.13633">
        <ele>476</ele>
        <time>2015-05-24T11:33:59Z</time>
      </trkpt>
      <trkpt lat="44.65091" lon="5.1357">
        <ele>475</ele>
        <time>2015-05-24T11:34:09Z</time>
      </trkpt>
      <trkpt lat="44.65088" lon="5.13569">
        <ele>476</ele>
        <time>2015-05-24T11:34:12Z</time>
      </trkpt>
      <trkpt lat="44.65087" lon="5.13565">
        <ele>476</ele>
        <time>2015-05-24T11:34:14Z</time>
      </trkpt>
      <trkpt lat="44.65086" lon="5.13563">
        <ele>477</ele>
        <time>2015-05-24T11:34:15Z</time>
      </trkpt>
      <trkpt lat="44.65086" lon="5.1356">
        <ele>477</ele>
        <time>2015-05-24T11:34:30Z</time>
      </trkpt>
      <trkpt lat="44.65087" lon="5.1356">
        <ele>476</ele>
        <time>2015-05-24T11:34:40Z</time>
      </trkpt>
      <trkpt lat="44.65087" lon="5.1356">
        <ele>477</ele>
        <time>2015-05-24T11:34:46Z</time>
      </trkpt>
      <trkpt lat="44.65088" lon="5.13561">
        <ele>476</ele>
        <time>2015-05-24T11:34:47Z</time>
      </trkpt>
      <trkpt lat="44.65089" lon="5.13562">
        <ele>476</ele>
        <time>2015-05-24T11:34:48Z</time>
      </trkpt>
      <trkpt lat="44.65093" lon="5.13564">
        <ele>475</ele>
        <time>2015-05-24T11:34:53Z</time>
      </trkpt>
      <trkpt lat="44.65094" lon="5.13565">
        <ele>475</ele>
        <time>2015-05-24T11:34:54Z</time>
      </trkpt>
      <trkpt lat="44.65101" lon="5.13572">
        <ele>473</ele>
        <time>2015-05-24T11:34:58Z</time>
      </trkpt>
      <trkpt lat="44.65104" lon="5.13574">
        <ele>473</ele>
        <time>2015-05-24T11:34:59Z</time>
      </trkpt>
      <trkpt lat="44.65106" lon="5.13575">
        <ele>472</ele>
        <time>2015-05-24T11:35:00Z</time>
      </trkpt>
      <trkpt lat="44.65108" lon="5.13577">
        <ele>472</ele>
        <time>2015-05-24T11:35:01Z</time>
      </trkpt>
      <trkpt lat="44.6511" lon="5.13578">
        <ele>471</ele>
        <time>2015-05-24T11:35:02Z</time>
      </trkpt>
      <trkpt lat="44.65127" lon="5.13589">
        <ele>470</ele>
        <time>2015-05-24T11:35:10Z</time>
      </trkpt>
      <trkpt lat="44.65129" lon="5.13589">
        <ele>470</ele>
        <time>2015-05-24T11:35:11Z</time>
      </trkpt>
      <trkpt lat="44.65132" lon="5.13589">
        <ele>470</ele>
        <time>2015-05-24T11:35:12Z</time>
      </trkpt>
      <trkpt lat="44.65135" lon="5.13588">
        <ele>470</ele>
        <time>2015-05-24T11:35:13Z</time>
      </trkpt>
      <trkpt lat="44.65139" lon="5.13588">
        <ele>470</ele>
        <time>2015-05-24T11:35:14Z</time>
      </trkpt>
      <trkpt lat="44.65142" lon="5.13588">
        <ele>470</ele>
        <time>2015-05-24T11:35:15Z</time>
      </trkpt>
      <trkpt lat="44.65148" lon="5.13586">
        <ele>470</ele>
        <time>2015-05-24T11:35:28Z</time>
      </trkpt>
      <trkpt lat="44.65148" lon="5.13588">
        <ele>470</ele>
        <time>2015-05-24T11:35:55Z</time>
      </trkpt>
      <trkpt lat="44.65149" lon="5.13586">
        <ele>470</ele>
        <time>2015-05-24T11:35:59Z</time>
      </trkpt>
      <trkpt lat="44.65151" lon="5.13584">
        <ele>470</ele>
        <time>2015-05-24T11:36:00Z</time>
      </trkpt>
      <trkpt lat="44.65152" lon="5.13583">
        <ele>470</ele>
        <time>2015-05-24T11:36:01Z</time>
      </trkpt>
      <trkpt lat="44.65154" lon="5.13582">
        <ele>470</ele>
        <time>2015-05-24T11:36:03Z</time>
      </trkpt>
      <trkpt lat="44.65157" lon="5.13583">
        <ele>471</ele>
        <time>2015-05-24T11:36:06Z</time>
      </trkpt>
      <trkpt lat="44.65157" lon="5.13585">
        <ele>471</ele>
        <time>2015-05-24T11:36:07Z</time>
      </trkpt>
      <trkpt lat="44.65156" lon="5.13584">
        <ele>471</ele>
        <time>2015-05-24T11:36:18Z</time>
      </trkpt>
      <trkpt lat="44.65157" lon="5.13584">
        <ele>471</ele>
        <time>2015-05-24T11:36:40Z</time>
      </trkpt>
      <trkpt lat="44.65152" lon="5.13577">
        <ele>470</ele>
        <time>2015-05-24T11:37:07Z</time>
      </trkpt>
      <trkpt lat="44.65158" lon="5.13574">
        <ele>470</ele>
        <time>2015-05-24T11:37:14Z</time>
      </trkpt>
      <trkpt lat="44.6516" lon="5.13573">
        <ele>470</ele>
        <time>2015-05-24T11:37:15Z</time>
      </trkpt>
      <trkpt lat="44.65161" lon="5.13571">
        <ele>470</ele>
        <time>2015-05-24T11:37:16Z</time>
      </trkpt>
      <trkpt lat="44.65169" lon="5.13534">
        <ele>470</ele>
        <time>2015-05-24T11:37:27Z</time>
      </trkpt>
      <trkpt lat="44.65183" lon="5.1349">
        <ele>471</ele>
        <time>2015-05-24T11:37:39Z</time>
      </trkpt>
      <trkpt lat="44.65193" lon="5.1345">
        <ele>471</ele>
        <time>2015-05-24T11:37:49Z</time>
      </trkpt>
      <trkpt lat="44.65194" lon="5.13437">
        <ele>471</ele>
        <time>2015-05-24T11:37:55Z</time>
      </trkpt>
      <trkpt lat="44.65195" lon="5.13435">
        <ele>471</ele>
        <time>2015-05-24T11:37:56Z</time>
      </trkpt>
      <trkpt lat="44.65196" lon="5.13432">
        <ele>471</ele>
        <time>2015-05-24T11:37:57Z</time>
      </trkpt>
      <trkpt lat="44.65196" lon="5.13429">
        <ele>471</ele>
        <time>2015-05-24T11:37:58Z</time>
      </trkpt>
      <trkpt lat="44.65197" lon="5.13426">
        <ele>471</ele>
        <time>2015-05-24T11:37:59Z</time>
      </trkpt>
      <trkpt lat="44.65197" lon="5.13422">
        <ele>471</ele>
        <time>2015-05-24T11:38:00Z</time>
      </trkpt>
      <trkpt lat="44.65201" lon="5.13374">
        <ele>469</ele>
        <time>2015-05-24T11:38:13Z</time>
      </trkpt>
      <trkpt lat="44.65196" lon="5.13368">
        <ele>467</ele>
        <time>2015-05-24T11:38:18Z</time>
      </trkpt>
      <trkpt lat="44.65189" lon="5.13369">
        <ele>466</ele>
        <time>2015-05-24T11:38:23Z</time>
      </trkpt>
      <trkpt lat="44.65167" lon="5.13362">
        <ele>462</ele>
        <time>2015-05-24T11:38:36Z</time>
      </trkpt>
      <trkpt lat="44.65161" lon="5.13359">
        <ele>463</ele>
        <time>2015-05-24T11:38:40Z</time>
      </trkpt>
      <trkpt lat="44.65154" lon="5.13358">
        <ele>464</ele>
        <time>2015-05-24T11:38:46Z</time>
      </trkpt>
      <trkpt lat="44.65138" lon="5.13342">
        <ele>465</ele>
        <time>2015-05-24T11:39:04Z</time>
      </trkpt>
      <trkpt lat="44.65138" lon="5.1334">
        <ele>465</ele>
        <time>2015-05-24T11:39:06Z</time>
      </trkpt>
      <trkpt lat="44.65132" lon="5.13334">
        <ele>465</ele>
        <time>2015-05-24T11:39:19Z</time>
      </trkpt>
      <trkpt lat="44.65131" lon="5.13332">
        <ele>465</ele>
        <time>2015-05-24T11:39:43Z</time>
      </trkpt>
      <trkpt lat="44.65129" lon="5.13333">
        <ele>466</ele>
        <time>2015-05-24T11:40:16Z</time>
      </trkpt>
      <trkpt lat="44.65128" lon="5.13333">
        <ele>466</ele>
        <time>2015-05-24T11:40:43Z</time>
      </trkpt>
      <trkpt lat="44.65127" lon="5.13333">
        <ele>466</ele>
        <time>2015-05-24T11:41:10Z</time>
      </trkpt>
      <trkpt lat="44.65127" lon="5.13333">
        <ele>466</ele>
        <time>2015-05-24T11:41:41Z</time>
      </trkpt>
      <trkpt lat="44.65127" lon="5.13333">
        <ele>466</ele>
        <time>2015-05-24T11:42:11Z</time>
      </trkpt>
      <trkpt lat="44.6513" lon="5.13332">
        <ele>466</ele>
        <time>2015-05-24T11:42:43Z</time>
      </trkpt>
      <trkpt lat="44.65132" lon="5.13331">
        <ele>465</ele>
        <time>2015-05-24T11:43:14Z</time>
      </trkpt>
      <trkpt lat="44.65134" lon="5.13333">
        <ele>465</ele>
        <time>2015-05-24T11:43:43Z</time>
      </trkpt>
      <trkpt lat="44.65134" lon="5.13333">
        <ele>465</ele>
        <time>2015-05-24T11:44:13Z</time>
      </trkpt>
      <trkpt lat="44.65134" lon="5.13333">
        <ele>465</ele>
        <time>2015-05-24T11:44:44Z</time>
      </trkpt>
      <trkpt lat="44.65133" lon="5.13334">
        <ele>465</ele>
        <time>2015-05-24T11:45:10Z</time>
      </trkpt>
      <trkpt lat="44.65133" lon="5.13333">
        <ele>465</ele>
        <time>2015-05-24T11:45:42Z</time>
      </trkpt>
      <trkpt lat="44.65132" lon="5.13333">
        <ele>465</ele>
        <time>2015-05-24T11:45:57Z</time>
      </trkpt>
      <trkpt lat="44.65134" lon="5.1333">
        <ele>465</ele>
        <time>2015-05-24T11:46:05Z</time>
      </trkpt>
      <trkpt lat="44.65135" lon="5.13327">
        <ele>465</ele>
        <time>2015-05-24T11:46:07Z</time>
      </trkpt>
      <trkpt lat="44.65139" lon="5.13301">
        <ele>463</ele>
        <time>2015-05-24T11:46:19Z</time>
      </trkpt>
      <trkpt lat="44.65139" lon="5.13274">
        <ele>463</ele>
        <time>2015-05-24T11:46:24Z</time>
      </trkpt>
      <trkpt lat="44.65135" lon="5.13233">
        <ele>463</ele>
        <time>2015-05-24T11:46:35Z</time>
      </trkpt>
      <trkpt lat="44.65128" lon="5.13226">
        <ele>464</ele>
        <time>2015-05-24T11:46:45Z</time>
      </trkpt>
      <trkpt lat="44.65127" lon="5.1322">
        <ele>464</ele>
        <time>2015-05-24T11:47:02Z</time>
      </trkpt>
      <trkpt lat="44.65128" lon="5.13219">
        <ele>464</ele>
        <time>2015-05-24T11:47:03Z</time>
      </trkpt>
      <trkpt lat="44.65138" lon="5.13198">
        <ele>462</ele>
        <time>2015-05-24T11:47:13Z</time>
      </trkpt>
      <trkpt lat="44.65145" lon="5.13182">
        <ele>461</ele>
        <time>2015-05-24T11:47:22Z</time>
      </trkpt>
      <trkpt lat="44.65153" lon="5.13163">
        <ele>460</ele>
        <time>2015-05-24T11:47:26Z</time>
      </trkpt>
      <trkpt lat="44.65167" lon="5.13129">
        <ele>457</ele>
        <time>2015-05-24T11:47:33Z</time>
      </trkpt>
      <trkpt lat="44.65193" lon="5.13104">
        <ele>456</ele>
        <time>2015-05-24T11:47:44Z</time>
      </trkpt>
      <trkpt lat="44.65205" lon="5.13106">
        <ele>457</ele>
        <time>2015-05-24T11:47:51Z</time>
      </trkpt>
      <trkpt lat="44.65209" lon="5.13098">
        <ele>457</ele>
        <time>2015-05-24T11:48:03Z</time>
      </trkpt>
      <trkpt lat="44.65208" lon="5.13095">
        <ele>457</ele>
        <time>2015-05-24T11:48:21Z</time>
      </trkpt>
      <trkpt lat="44.65209" lon="5.13095">
        <ele>457</ele>
        <time>2015-05-24T11:48:22Z</time>
      </trkpt>
      <trkpt lat="44.65214" lon="5.13096">
        <ele>457</ele>
        <time>2015-05-24T11:48:26Z</time>
      </trkpt>
      <trkpt lat="44.65215" lon="5.13104">
        <ele>458</ele>
        <time>2015-05-24T11:48:30Z</time>
      </trkpt>
      <trkpt lat="44.65216" lon="5.13107">
        <ele>458</ele>
        <time>2015-05-24T11:48:32Z</time>
      </trkpt>
      <trkpt lat="44.65226" lon="5.13099">
        <ele>460</ele>
        <time>2015-05-24T11:48:41Z</time>
      </trkpt>
      <trkpt lat="44.65223" lon="5.13074">
        <ele>456</ele>
        <time>2015-05-24T11:48:50Z</time>
      </trkpt>
      <trkpt lat="44.65217" lon="5.13042">
        <ele>453</ele>
        <time>2015-05-24T11:49:00Z</time>
      </trkpt>
      <trkpt lat="44.65214" lon="5.13026">
        <ele>453</ele>
        <time>2015-05-24T11:49:06Z</time>
      </trkpt>
      <trkpt lat="44.65212" lon="5.13022">
        <ele>453</ele>
        <time>2015-05-24T11:49:08Z</time>
      </trkpt>
      <trkpt lat="44.65212" lon="5.1302">
        <ele>453</ele>
        <time>2015-05-24T11:49:09Z</time>
      </trkpt>
      <trkpt lat="44.65206" lon="5.13">
        <ele>453</ele>
        <time>2015-05-24T11:49:20Z</time>
      </trkpt>
      <trkpt lat="44.65205" lon="5.12999">
        <ele>453</ele>
        <time>2015-05-24T11:49:50Z</time>
      </trkpt>
      <trkpt lat="44.65206" lon="5.13">
        <ele>453</ele>
        <time>2015-05-24T11:50:25Z</time>
      </trkpt>
      <trkpt lat="44.65206" lon="5.12999">
        <ele>453</ele>
        <time>2015-05-24T11:50:58Z</time>
      </trkpt>
      <trkpt lat="44.65205" lon="5.12996">
        <ele>453</ele>
        <time>2015-05-24T11:51:27Z</time>
      </trkpt>
      <trkpt lat="44.65199" lon="5.12974">
        <ele>452</ele>
        <time>2015-05-24T11:51:35Z</time>
      </trkpt>
      <trkpt lat="44.652" lon="5.12961">
        <ele>452</ele>
        <time>2015-05-24T11:51:38Z</time>
      </trkpt>
      <trkpt lat="44.65205" lon="5.12929">
        <ele>450</ele>
        <time>2015-05-24T11:51:43Z</time>
      </trkpt>
      <trkpt lat="44.65207" lon="5.12923">
        <ele>449</ele>
        <time>2015-05-24T11:51:44Z</time>
      </trkpt>
      <trkpt lat="44.65209" lon="5.12917">
        <ele>449</ele>
        <time>2015-05-24T11:51:45Z</time>
      </trkpt>
      <trkpt lat="44.65238" lon="5.12865">
        <ele>449</ele>
        <time>2015-05-24T11:51:58Z</time>
      </trkpt>
      <trkpt lat="44.6527" lon="5.1281">
        <ele>455</ele>
        <time>2015-05-24T11:52:11Z</time>
      </trkpt>
      <trkpt lat="44.65276" lon="5.12799">
        <ele>456</ele>
        <time>2015-05-24T11:52:13Z</time>
      </trkpt>
      <trkpt lat="44.65282" lon="5.12788">
        <ele>456</ele>
        <time>2015-05-24T11:52:15Z</time>
      </trkpt>
      <trkpt lat="44.65313" lon="5.12734">
        <ele>455</ele>
        <time>2015-05-24T11:52:25Z</time>
      </trkpt>
      <trkpt lat="44.65316" lon="5.12728">
        <ele>455</ele>
        <time>2015-05-24T11:52:26Z</time>
      </trkpt>
      <trkpt lat="44.65321" lon="5.12716">
        <ele>455</ele>
        <time>2015-05-24T11:52:28Z</time>
      </trkpt>
      <trkpt lat="44.65329" lon="5.127">
        <ele>455</ele>
        <time>2015-05-24T11:52:31Z</time>
      </trkpt>
      <trkpt lat="44.65337" lon="5.12685">
        <ele>455</ele>
        <time>2015-05-24T11:52:34Z</time>
      </trkpt>
      <trkpt lat="44.65339" lon="5.1268">
        <ele>455</ele>
        <time>2015-05-24T11:52:35Z</time>
      </trkpt>
      <trkpt lat="44.65344" lon="5.12666">
        <ele>455</ele>
        <time>2015-05-24T11:52:37Z</time>
      </trkpt>
      <trkpt lat="44.65348" lon="5.12651">
        <ele>454</ele>
        <time>2015-05-24T11:52:39Z</time>
      </trkpt>
      <trkpt lat="44.65359" lon="5.12622">
        <ele>454</ele>
        <time>2015-05-24T11:52:43Z</time>
      </trkpt>
      <trkpt lat="44.6536" lon="5.12613">
        <ele>454</ele>
        <time>2015-05-24T11:52:44Z</time>
      </trkpt>
      <trkpt lat="44.6536" lon="5.12604">
        <ele>453</ele>
        <time>2015-05-24T11:52:45Z</time>
      </trkpt>
      <trkpt lat="44.65359" lon="5.12595">
        <ele>451</ele>
        <time>2015-05-24T11:52:46Z</time>
      </trkpt>
      <trkpt lat="44.65358" lon="5.12586">
        <ele>450</ele>
        <time>2015-05-24T11:52:47Z</time>
      </trkpt>
      <trkpt lat="44.65355" lon="5.12577">
        <ele>448</ele>
        <time>2015-05-24T11:52:48Z</time>
      </trkpt>
      <trkpt lat="44.65353" lon="5.12568">
        <ele>446</ele>
        <time>2015-05-24T11:52:49Z</time>
      </trkpt>
      <trkpt lat="44.65351" lon="5.12559">
        <ele>445</ele>
        <time>2015-05-24T11:52:50Z</time>
      </trkpt>
      <trkpt lat="44.65348" lon="5.1255">
        <ele>443</ele>
        <time>2015-05-24T11:52:51Z</time>
      </trkpt>
      <trkpt lat="44.65344" lon="5.12531">
        <ele>440</ele>
        <time>2015-05-24T11:52:53Z</time>
      </trkpt>
      <trkpt lat="44.65343" lon="5.12521">
        <ele>439</ele>
        <time>2015-05-24T11:52:54Z</time>
      </trkpt>
      <trkpt lat="44.65342" lon="5.12511">
        <ele>438</ele>
        <time>2015-05-24T11:52:55Z</time>
      </trkpt>
      <trkpt lat="44.65343" lon="5.12443">
        <ele>436</ele>
        <time>2015-05-24T11:53:02Z</time>
      </trkpt>
      <trkpt lat="44.65345" lon="5.12434">
        <ele>436</ele>
        <time>2015-05-24T11:53:03Z</time>
      </trkpt>
      <trkpt lat="44.6535" lon="5.12417">
        <ele>436</ele>
        <time>2015-05-24T11:53:05Z</time>
      </trkpt>
      <trkpt lat="44.65355" lon="5.12409">
        <ele>436</ele>
        <time>2015-05-24T11:53:06Z</time>
      </trkpt>
      <trkpt lat="44.65382" lon="5.12353">
        <ele>435</ele>
        <time>2015-05-24T11:53:13Z</time>
      </trkpt>
      <trkpt lat="44.65385" lon="5.12344">
        <ele>435</ele>
        <time>2015-05-24T11:53:14Z</time>
      </trkpt>
      <trkpt lat="44.65386" lon="5.12334">
        <ele>435</ele>
        <time>2015-05-24T11:53:15Z</time>
      </trkpt>
      <trkpt lat="44.65387" lon="5.12324">
        <ele>435</ele>
        <time>2015-05-24T11:53:16Z</time>
      </trkpt>
      <trkpt lat="44.65387" lon="5.12314">
        <ele>434</ele>
        <time>2015-05-24T11:53:17Z</time>
      </trkpt>
      <trkpt lat="44.65389" lon="5.1223">
        <ele>432</ele>
        <time>2015-05-24T11:53:26Z</time>
      </trkpt>
      <trkpt lat="44.65394" lon="5.12201">
        <ele>432</ele>
        <time>2015-05-24T11:53:29Z</time>
      </trkpt>
      <trkpt lat="44.65397" lon="5.12192">
        <ele>432</ele>
        <time>2015-05-24T11:53:30Z</time>
      </trkpt>
      <trkpt lat="44.65408" lon="5.12148">
        <ele>431</ele>
        <time>2015-05-24T11:53:35Z</time>
      </trkpt>
      <trkpt lat="44.65449" lon="5.12055">
        <ele>433</ele>
        <time>2015-05-24T11:53:46Z</time>
      </trkpt>
      <trkpt lat="44.65479" lon="5.11962">
        <ele>432</ele>
        <time>2015-05-24T11:53:56Z</time>
      </trkpt>
      <trkpt lat="44.65486" lon="5.11945">
        <ele>432</ele>
        <time>2015-05-24T11:53:58Z</time>
      </trkpt>
      <trkpt lat="44.6549" lon="5.11937">
        <ele>433</ele>
        <time>2015-05-24T11:53:59Z</time>
      </trkpt>
      <trkpt lat="44.65504" lon="5.11915">
        <ele>434</ele>
        <time>2015-05-24T11:54:02Z</time>
      </trkpt>
      <trkpt lat="44.65508" lon="5.11906">
        <ele>433</ele>
        <time>2015-05-24T11:54:03Z</time>
      </trkpt>
      <trkpt lat="44.6551" lon="5.11897">
        <ele>432</ele>
        <time>2015-05-24T11:54:04Z</time>
      </trkpt>
      <trkpt lat="44.65511" lon="5.11886">
        <ele>431</ele>
        <time>2015-05-24T11:54:05Z</time>
      </trkpt>
      <trkpt lat="44.65511" lon="5.11876">
        <ele>429</ele>
        <time>2015-05-24T11:54:06Z</time>
      </trkpt>
      <trkpt lat="44.6551" lon="5.11866">
        <ele>428</ele>
        <time>2015-05-24T11:54:07Z</time>
      </trkpt>
      <trkpt lat="44.65509" lon="5.11855">
        <ele>427</ele>
        <time>2015-05-24T11:54:08Z</time>
      </trkpt>
      <trkpt lat="44.65507" lon="5.11845">
        <ele>426</ele>
        <time>2015-05-24T11:54:09Z</time>
      </trkpt>
      <trkpt lat="44.65505" lon="5.11835">
        <ele>425</ele>
        <time>2015-05-24T11:54:10Z</time>
      </trkpt>
      <trkpt lat="44.65504" lon="5.11824">
        <ele>424</ele>
        <time>2015-05-24T11:54:11Z</time>
      </trkpt>
      <trkpt lat="44.65504" lon="5.11813">
        <ele>424</ele>
        <time>2015-05-24T11:54:12Z</time>
      </trkpt>
      <trkpt lat="44.65505" lon="5.11801">
        <ele>423</ele>
        <time>2015-05-24T11:54:13Z</time>
      </trkpt>
      <trkpt lat="44.65507" lon="5.11791">
        <ele>423</ele>
        <time>2015-05-24T11:54:14Z</time>
      </trkpt>
      <trkpt lat="44.6551" lon="5.11781">
        <ele>423</ele>
        <time>2015-05-24T11:54:15Z</time>
      </trkpt>
      <trkpt lat="44.65513" lon="5.11771">
        <ele>423</ele>
        <time>2015-05-24T11:54:16Z</time>
      </trkpt>
      <trkpt lat="44.65516" lon="5.11762">
        <ele>422</ele>
        <time>2015-05-24T11:54:17Z</time>
      </trkpt>
      <trkpt lat="44.6555" lon="5.11643">
        <ele>421</ele>
        <time>2015-05-24T11:54:31Z</time>
      </trkpt>
      <trkpt lat="44.65576" lon="5.11524">
        <ele>418</ele>
        <time>2015-05-24T11:54:45Z</time>
      </trkpt>
      <trkpt lat="44.65598" lon="5.11404">
        <ele>421</ele>
        <time>2015-05-24T11:54:59Z</time>
      </trkpt>
      <trkpt lat="44.65622" lon="5.11298">
        <ele>419</ele>
        <time>2015-05-24T11:55:11Z</time>
      </trkpt>
      <trkpt lat="44.65656" lon="5.11191">
        <ele>416</ele>
        <time>2015-05-24T11:55:23Z</time>
      </trkpt>
      <trkpt lat="44.65686" lon="5.11094">
        <ele>409</ele>
        <time>2015-05-24T11:55:34Z</time>
      </trkpt>
      <trkpt lat="44.65694" lon="5.11056">
        <ele>408</ele>
        <time>2015-05-24T11:55:38Z</time>
      </trkpt>
      <trkpt lat="44.65694" lon="5.11025">
        <ele>408</ele>
        <time>2015-05-24T11:55:41Z</time>
      </trkpt>
      <trkpt lat="44.65686" lon="5.10912">
        <ele>405</ele>
        <time>2015-05-24T11:55:53Z</time>
      </trkpt>
      <trkpt lat="44.65683" lon="5.10871">
        <ele>406</ele>
        <time>2015-05-24T11:55:58Z</time>
      </trkpt>
      <trkpt lat="44.65683" lon="5.10863">
        <ele>406</ele>
        <time>2015-05-24T11:55:59Z</time>
      </trkpt>
      <trkpt lat="44.65676" lon="5.10809">
        <ele>408</ele>
        <time>2015-05-24T11:56:06Z</time>
      </trkpt>
      <trkpt lat="44.6567" lon="5.10785">
        <ele>410</ele>
        <time>2015-05-24T11:56:09Z</time>
      </trkpt>
      <trkpt lat="44.65662" lon="5.1074">
        <ele>413</ele>
        <time>2015-05-24T11:56:14Z</time>
      </trkpt>
      <trkpt lat="44.65662" lon="5.10731">
        <ele>413</ele>
        <time>2015-05-24T11:56:15Z</time>
      </trkpt>
      <trkpt lat="44.65663" lon="5.10713">
        <ele>413</ele>
        <time>2015-05-24T11:56:17Z</time>
      </trkpt>
      <trkpt lat="44.65676" lon="5.10629">
        <ele>406</ele>
        <time>2015-05-24T11:56:27Z</time>
      </trkpt>
      <trkpt lat="44.65677" lon="5.10613">
        <ele>405</ele>
        <time>2015-05-24T11:56:29Z</time>
      </trkpt>
      <trkpt lat="44.65685" lon="5.10541">
        <ele>401</ele>
        <time>2015-05-24T11:56:38Z</time>
      </trkpt>
      <trkpt lat="44.65685" lon="5.10533">
        <ele>401</ele>
        <time>2015-05-24T11:56:39Z</time>
      </trkpt>
      <trkpt lat="44.65679" lon="5.10451">
        <ele>405</ele>
        <time>2015-05-24T11:56:48Z</time>
      </trkpt>
      <trkpt lat="44.65679" lon="5.10441">
        <ele>404</ele>
        <time>2015-05-24T11:56:49Z</time>
      </trkpt>
      <trkpt lat="44.65682" lon="5.10358">
        <ele>400</ele>
        <time>2015-05-24T11:56:58Z</time>
      </trkpt>
      <trkpt lat="44.6568" lon="5.10341">
        <ele>400</ele>
        <time>2015-05-24T11:57:00Z</time>
      </trkpt>
      <trkpt lat="44.65674" lon="5.10316">
        <ele>400</ele>
        <time>2015-05-24T11:57:03Z</time>
      </trkpt>
      <trkpt lat="44.65671" lon="5.10308">
        <ele>400</ele>
        <time>2015-05-24T11:57:04Z</time>
      </trkpt>
      <trkpt lat="44.65657" lon="5.10275">
        <ele>401</ele>
        <time>2015-05-24T11:57:08Z</time>
      </trkpt>
      <trkpt lat="44.65654" lon="5.10265">
        <ele>400</ele>
        <time>2015-05-24T11:57:09Z</time>
      </trkpt>
      <trkpt lat="44.65652" lon="5.10255">
        <ele>399</ele>
        <time>2015-05-24T11:57:10Z</time>
      </trkpt>
      <trkpt lat="44.6565" lon="5.10244">
        <ele>399</ele>
        <time>2015-05-24T11:57:11Z</time>
      </trkpt>
      <trkpt lat="44.65649" lon="5.10233">
        <ele>399</ele>
        <time>2015-05-24T11:57:12Z</time>
      </trkpt>
      <trkpt lat="44.65644" lon="5.10131">
        <ele>397</ele>
        <time>2015-05-24T11:57:22Z</time>
      </trkpt>
      <trkpt lat="44.65643" lon="5.1011">
        <ele>396</ele>
        <time>2015-05-24T11:57:24Z</time>
      </trkpt>
      <trkpt lat="44.6564" lon="5.10054">
        <ele>395</ele>
        <time>2015-05-24T11:57:30Z</time>
      </trkpt>
      <trkpt lat="44.6564" lon="5.10045">
        <ele>394</ele>
        <time>2015-05-24T11:57:31Z</time>
      </trkpt>
      <trkpt lat="44.65657" lon="5.09956">
        <ele>390</ele>
        <time>2015-05-24T11:57:41Z</time>
      </trkpt>
      <trkpt lat="44.65659" lon="5.09928">
        <ele>390</ele>
        <time>2015-05-24T11:57:44Z</time>
      </trkpt>
      <trkpt lat="44.65658" lon="5.09919">
        <ele>390</ele>
        <time>2015-05-24T11:57:45Z</time>
      </trkpt>
      <trkpt lat="44.65657" lon="5.0991">
        <ele>391</ele>
        <time>2015-05-24T11:57:46Z</time>
      </trkpt>
      <trkpt lat="44.65644" lon="5.09861">
        <ele>392</ele>
        <time>2015-05-24T11:57:51Z</time>
      </trkpt>
      <trkpt lat="44.65641" lon="5.09852">
        <ele>392</ele>
        <time>2015-05-24T11:57:52Z</time>
      </trkpt>
      <trkpt lat="44.65617" lon="5.09789">
        <ele>392</ele>
        <time>2015-05-24T11:57:59Z</time>
      </trkpt>
      <trkpt lat="44.65574" lon="5.09697">
        <ele>388</ele>
        <time>2015-05-24T11:58:11Z</time>
      </trkpt>
      <trkpt lat="44.65569" lon="5.0969">
        <ele>388</ele>
        <time>2015-05-24T11:58:12Z</time>
      </trkpt>
      <trkpt lat="44.6551" lon="5.09604">
        <ele>385</ele>
        <time>2015-05-24T11:58:25Z</time>
      </trkpt>
      <trkpt lat="44.65506" lon="5.09596">
        <ele>384</ele>
        <time>2015-05-24T11:58:26Z</time>
      </trkpt>
      <trkpt lat="44.65498" lon="5.09573">
        <ele>385</ele>
        <time>2015-05-24T11:58:29Z</time>
      </trkpt>
      <trkpt lat="44.65477" lon="5.09514">
        <ele>390</ele>
        <time>2015-05-24T11:58:37Z</time>
      </trkpt>
      <trkpt lat="44.65477" lon="5.0951">
        <ele>390</ele>
        <time>2015-05-24T11:58:38Z</time>
      </trkpt>
      <trkpt lat="44.65475" lon="5.09503">
        <ele>391</ele>
        <time>2015-05-24T11:58:40Z</time>
      </trkpt>
      <trkpt lat="44.65474" lon="5.09499">
        <ele>391</ele>
        <time>2015-05-24T11:58:41Z</time>
      </trkpt>
      <trkpt lat="44.65472" lon="5.09496">
        <ele>391</ele>
        <time>2015-05-24T11:58:42Z</time>
      </trkpt>
      <trkpt lat="44.65467" lon="5.09488">
        <ele>391</ele>
        <time>2015-05-24T11:58:44Z</time>
      </trkpt>
      <trkpt lat="44.65464" lon="5.09483">
        <ele>390</ele>
        <time>2015-05-24T11:58:45Z</time>
      </trkpt>
      <trkpt lat="44.6546" lon="5.09478">
        <ele>388</ele>
        <time>2015-05-24T11:58:46Z</time>
      </trkpt>
      <trkpt lat="44.65461" lon="5.09462">
        <ele>385.443634</ele>
        <time>2015-05-24T11:58:47Z</time>
      </trkpt>
      <trkpt lat="44.65453" lon="5.09441">
        <ele>385.67157</ele>
        <time>2015-05-24T11:58:48Z</time>
      </trkpt>
      <trkpt lat="44.65447" lon="5.09431">
        <ele>382.242554</ele>
        <time>2015-05-24T11:58:49Z</time>
      </trkpt>
      <trkpt lat="44.65428" lon="5.09405">
        <ele>381.351685</ele>
        <time>2015-05-24T11:58:51Z</time>
      </trkpt>
      <trkpt lat="44.65417" lon="5.09388">
        <ele>381.44577</ele>
        <time>2015-05-24T11:58:52Z</time>
      </trkpt>
      <trkpt lat="44.65412" lon="5.09377">
        <ele>380.466064</ele>
        <time>2015-05-24T11:58:53Z</time>
      </trkpt>
      <trkpt lat="44.65398" lon="5.09305">
        <ele>377.489868</ele>
        <time>2015-05-24T11:58:54Z</time>
      </trkpt>
      <trkpt lat="44.65396" lon="5.09229">
        <ele>377.625244</ele>
        <time>2015-05-24T11:58:55Z</time>
      </trkpt>
      <trkpt lat="44.65382" lon="5.09156">
        <ele>373.654755</ele>
        <time>2015-05-24T11:58:56Z</time>
      </trkpt>
      <trkpt lat="44.65367" lon="5.09071">
        <ele>369.492371</ele>
        <time>2015-05-24T11:58:57Z</time>
      </trkpt>
      <trkpt lat="44.65355" lon="5.08994">
        <ele>371.536987</ele>
        <time>2015-05-24T11:59:07Z</time>
      </trkpt>
      <trkpt lat="44.65342" lon="5.08903">
        <ele>371.904388</ele>
        <time>2015-05-24T11:59:10Z</time>
      </trkpt>
      <trkpt lat="44.65333" lon="5.08858">
        <ele>370.64682</ele>
        <time>2015-05-24T11:59:11Z</time>
      </trkpt>
      <trkpt lat="44.65315" lon="5.08812">
        <ele>369.258759</ele>
        <time>2015-05-24T11:59:12Z</time>
      </trkpt>
      <trkpt lat="44.65287" lon="5.08733">
        <ele>366.830505</ele>
        <time>2015-05-24T11:59:17Z</time>
      </trkpt>
      <trkpt lat="44.65258" lon="5.08659">
        <ele>365.444183</ele>
        <time>2015-05-24T11:59:18Z</time>
      </trkpt>
      <trkpt lat="44.65243" lon="5.08596">
        <ele>365.777496</ele>
        <time>2015-05-24T11:59:21Z</time>
      </trkpt>
      <trkpt lat="44.65223" lon="5.08531">
        <ele>365.811249</ele>
        <time>2015-05-24T11:59:30Z</time>
      </trkpt>
      <trkpt lat="44.652" lon="5.08472">
        <ele>362.85025</ele>
        <time>2015-05-24T11:59:31Z</time>
      </trkpt>
      <trkpt lat="44.65186" lon="5.08403">
        <ele>362.570221</ele>
        <time>2015-05-24T11:59:32Z</time>
      </trkpt>
      <trkpt lat="44.65174" lon="5.08323">
        <ele>362.169647</ele>
        <time>2015-05-24T11:59:35Z</time>
      </trkpt>
      <trkpt lat="44.65157" lon="5.08246">
        <ele>359.895355</ele>
        <time>2015-05-24T11:59:36Z</time>
      </trkpt>
      <trkpt lat="44.65139" lon="5.08184">
        <ele>359.962036</ele>
        <time>2015-05-24T11:59:39Z</time>
      </trkpt>
      <trkpt lat="44.65115" lon="5.08109">
        <ele>360.050812</ele>
        <time>2015-05-24T11:59:41Z</time>
      </trkpt>
      <trkpt lat="44.65091" lon="5.08049">
        <ele>359.647369</ele>
        <time>2015-05-24T11:59:42Z</time>
      </trkpt>
      <trkpt lat="44.65062" lon="5.07988">
        <ele>359.188629</ele>
        <time>2015-05-24T11:59:43Z</time>
      </trkpt>
      <trkpt lat="44.65032" lon="5.07931">
        <ele>357.911255</ele>
        <time>2015-05-24T11:59:47Z</time>
      </trkpt>
      <trkpt lat="44.65003" lon="5.07871">
        <ele>357.89566</ele>
        <time>2015-05-24T11:59:48Z</time>
      </trkpt>
      <trkpt lat="44.6498" lon="5.07803">
        <ele>358.938599</ele>
        <time>2015-05-24T11:59:51Z</time>
      </trkpt>
      <trkpt lat="44.64973" lon="5.07747">
        <ele>357.332733</ele>
        <time>2015-05-24T11:59:52Z</time>
      </trkpt>
      <trkpt lat="44.64974" lon="5.07746">
        <ele>357.324371</ele>
        <time>2015-05-24T12:07:18Z</time>
      </trkpt>
      <trkpt lat="44.64962" lon="5.0764">
        <ele>355.907806</ele>
        <time>2015-05-24T12:07:19Z</time>
      </trkpt>
      <trkpt lat="44.64947" lon="5.07545">
        <ele>352.57251</ele>
        <time>2015-05-24T12:07:20Z</time>
      </trkpt>
      <trkpt lat="44.64935" lon="5.07453">
        <ele>349.022491</ele>
        <time>2015-05-24T12:07:21Z</time>
      </trkpt>
      <trkpt lat="44.64923" lon="5.07374">
        <ele>345.009491</ele>
        <time>2015-05-24T12:07:22Z</time>
      </trkpt>
      <trkpt lat="44.64899" lon="5.07305">
        <ele>341.723877</ele>
        <time>2015-05-24T12:07:26Z</time>
      </trkpt>
      <trkpt lat="44.64872" lon="5.07252">
        <ele>338.92038</ele>
        <time>2015-05-24T12:07:27Z</time>
      </trkpt>
      <trkpt lat="44.64845" lon="5.07199">
        <ele>338.230865</ele>
        <time>2015-05-24T12:07:28Z</time>
      </trkpt>
      <trkpt lat="44.64823" lon="5.07146">
        <ele>337.299438</ele>
        <time>2015-05-24T12:07:29Z</time>
      </trkpt>
      <trkpt lat="44.64808" lon="5.07085">
        <ele>337.649994</ele>
        <time>2015-05-24T12:07:32Z</time>
      </trkpt>
      <trkpt lat="44.64795" lon="5.07021">
        <ele>336.748138</ele>
        <time>2015-05-24T12:07:35Z</time>
      </trkpt>
      <trkpt lat="44.6479" lon="5.06953">
        <ele>335.974976</ele>
        <time>2015-05-24T12:07:44Z</time>
      </trkpt>
      <trkpt lat="44.64789" lon="5.06919">
        <ele>336</ele>
        <time>2015-05-24T12:07:52Z</time>
      </trkpt>
      <trkpt lat="44.6479" lon="5.06916">
        <ele>336</ele>
        <time>2015-05-24T12:07:53Z</time>
      </trkpt>
      <trkpt lat="44.64791" lon="5.06912">
        <ele>336</ele>
        <time>2015-05-24T12:07:54Z</time>
      </trkpt>
      <trkpt lat="44.64792" lon="5.06908">
        <ele>336</ele>
        <time>2015-05-24T12:07:55Z</time>
      </trkpt>
      <trkpt lat="44.64793" lon="5.06904">
        <ele>336</ele>
        <time>2015-05-24T12:07:56Z</time>
      </trkpt>
      <trkpt lat="44.64793" lon="5.06899">
        <ele>336</ele>
        <time>2015-05-24T12:07:57Z</time>
      </trkpt>
      <trkpt lat="44.64792" lon="5.06893">
        <ele>336</ele>
        <time>2015-05-24T12:07:58Z</time>
      </trkpt>
      <trkpt lat="44.64792" lon="5.06886">
        <ele>336</ele>
        <time>2015-05-24T12:07:59Z</time>
      </trkpt>
      <trkpt lat="44.64792" lon="5.0688">
        <ele>337</ele>
        <time>2015-05-24T12:08:00Z</time>
      </trkpt>
      <trkpt lat="44.64793" lon="5.06866">
        <ele>337</ele>
        <time>2015-05-24T12:08:02Z</time>
      </trkpt>
      <trkpt lat="44.64792" lon="5.0686">
        <ele>337</ele>
        <time>2015-05-24T12:08:03Z</time>
      </trkpt>
      <trkpt lat="44.64792" lon="5.06854">
        <ele>337</ele>
        <time>2015-05-24T12:08:04Z</time>
      </trkpt>
      <trkpt lat="44.64791" lon="5.06843">
        <ele>337</ele>
        <time>2015-05-24T12:08:06Z</time>
      </trkpt>
      <trkpt lat="44.64791" lon="5.06836">
        <ele>337</ele>
        <time>2015-05-24T12:08:07Z</time>
      </trkpt>
      <trkpt lat="44.64778" lon="5.06759">
        <ele>337</ele>
        <time>2015-05-24T12:08:18Z</time>
      </trkpt>
      <trkpt lat="44.64776" lon="5.06751">
        <ele>336</ele>
        <time>2015-05-24T12:08:19Z</time>
      </trkpt>
      <trkpt lat="44.64763" lon="5.06698">
        <ele>336</ele>
        <time>2015-05-24T12:08:25Z</time>
      </trkpt>
      <trkpt lat="44.64761" lon="5.06689">
        <ele>336</ele>
        <time>2015-05-24T12:08:26Z</time>
      </trkpt>
      <trkpt lat="44.64742" lon="5.06619">
        <ele>335</ele>
        <time>2015-05-24T12:08:34Z</time>
      </trkpt>
      <trkpt lat="44.64703" lon="5.06505">
        <ele>332</ele>
        <time>2015-05-24T12:08:48Z</time>
      </trkpt>
      <trkpt lat="44.64629" lon="5.06397">
        <ele>326</ele>
        <time>2015-05-24T12:09:04Z</time>
      </trkpt>
      <trkpt lat="44.64618" lon="5.06381">
        <ele>325</ele>
        <time>2015-05-24T12:09:07Z</time>
      </trkpt>
      <trkpt lat="44.64612" lon="5.06371">
        <ele>325</ele>
        <time>2015-05-24T12:09:09Z</time>
      </trkpt>
      <trkpt lat="44.64605" lon="5.06361">
        <ele>324</ele>
        <time>2015-05-24T12:09:11Z</time>
      </trkpt>
      <trkpt lat="44.64599" lon="5.0635">
        <ele>323</ele>
        <time>2015-05-24T12:09:13Z</time>
      </trkpt>
      <trkpt lat="44.64591" lon="5.0633">
        <ele>322</ele>
        <time>2015-05-24T12:09:16Z</time>
      </trkpt>
      <trkpt lat="44.64588" lon="5.06305">
        <ele>321</ele>
        <time>2015-05-24T12:09:19Z</time>
      </trkpt>
      <trkpt lat="44.64588" lon="5.06298">
        <ele>321</ele>
        <time>2015-05-24T12:09:20Z</time>
      </trkpt>
      <trkpt lat="44.64588" lon="5.06284">
        <ele>321</ele>
        <time>2015-05-24T12:09:22Z</time>
      </trkpt>
      <trkpt lat="44.64587" lon="5.06278">
        <ele>321</ele>
        <time>2015-05-24T12:09:23Z</time>
      </trkpt>
      <trkpt lat="44.64585" lon="5.06272">
        <ele>321</ele>
        <time>2015-05-24T12:09:24Z</time>
      </trkpt>
      <trkpt lat="44.64579" lon="5.06261">
        <ele>321</ele>
        <time>2015-05-24T12:09:26Z</time>
      </trkpt>
      <trkpt lat="44.64575" lon="5.06256">
        <ele>321</ele>
        <time>2015-05-24T12:09:27Z</time>
      </trkpt>
      <trkpt lat="44.64566" lon="5.06239">
        <ele>321</ele>
        <time>2015-05-24T12:09:30Z</time>
      </trkpt>
      <trkpt lat="44.64564" lon="5.06232">
        <ele>321</ele>
        <time>2015-05-24T12:09:31Z</time>
      </trkpt>
      <trkpt lat="44.64562" lon="5.0622">
        <ele>321</ele>
        <time>2015-05-24T12:09:33Z</time>
      </trkpt>
      <trkpt lat="44.64562" lon="5.06215">
        <ele>321</ele>
        <time>2015-05-24T12:09:34Z</time>
      </trkpt>
      <trkpt lat="44.64562" lon="5.0621">
        <ele>321</ele>
        <time>2015-05-24T12:09:35Z</time>
      </trkpt>
      <trkpt lat="44.64563" lon="5.06206">
        <ele>321</ele>
        <time>2015-05-24T12:09:36Z</time>
      </trkpt>
      <trkpt lat="44.64565" lon="5.06201">
        <ele>321</ele>
        <time>2015-05-24T12:09:37Z</time>
      </trkpt>
      <trkpt lat="44.64568" lon="5.06197">
        <ele>321</ele>
        <time>2015-05-24T12:09:38Z</time>
      </trkpt>
      <trkpt lat="44.6457" lon="5.06191">
        <ele>322</ele>
        <time>2015-05-24T12:09:39Z</time>
      </trkpt>
      <trkpt lat="44.64572" lon="5.06184">
        <ele>322</ele>
        <time>2015-05-24T12:09:40Z</time>
      </trkpt>
      <trkpt lat="44.64574" lon="5.06178">
        <ele>322</ele>
        <time>2015-05-24T12:09:41Z</time>
      </trkpt>
      <trkpt lat="44.64577" lon="5.06171">
        <ele>322</ele>
        <time>2015-05-24T12:09:42Z</time>
      </trkpt>
      <trkpt lat="44.64588" lon="5.06141">
        <ele>323</ele>
        <time>2015-05-24T12:09:47Z</time>
      </trkpt>
      <trkpt lat="44.64588" lon="5.06133">
        <ele>323</ele>
        <time>2015-05-24T12:09:48Z</time>
      </trkpt>
      <trkpt lat="44.64588" lon="5.06117">
        <ele>324</ele>
        <time>2015-05-24T12:09:50Z</time>
      </trkpt>
      <trkpt lat="44.64587" lon="5.06109">
        <ele>324</ele>
        <time>2015-05-24T12:09:51Z</time>
      </trkpt>
      <trkpt lat="44.64585" lon="5.06102">
        <ele>324</ele>
        <time>2015-05-24T12:09:52Z</time>
      </trkpt>
      <trkpt lat="44.6458" lon="5.06088">
        <ele>323</ele>
        <time>2015-05-24T12:09:54Z</time>
      </trkpt>
      <trkpt lat="44.64581" lon="5.06082">
        <ele>324</ele>
        <time>2015-05-24T12:09:55Z</time>
      </trkpt>
      <trkpt lat="44.64583" lon="5.06078">
        <ele>324</ele>
        <time>2015-05-24T12:09:56Z</time>
      </trkpt>
      <trkpt lat="44.64587" lon="5.06076">
        <ele>324</ele>
        <time>2015-05-24T12:09:57Z</time>
      </trkpt>
      <trkpt lat="44.64591" lon="5.06074">
        <ele>324</ele>
        <time>2015-05-24T12:09:58Z</time>
      </trkpt>
      <trkpt lat="44.64596" lon="5.06074">
        <ele>325</ele>
        <time>2015-05-24T12:09:59Z</time>
      </trkpt>
      <trkpt lat="44.64608" lon="5.06071">
        <ele>326</ele>
        <time>2015-05-24T12:10:01Z</time>
      </trkpt>
      <trkpt lat="44.64614" lon="5.06069">
        <ele>326</ele>
        <time>2015-05-24T12:10:02Z</time>
      </trkpt>
      <trkpt lat="44.64622" lon="5.06067">
        <ele>327</ele>
        <time>2015-05-24T12:10:03Z</time>
      </trkpt>
      <trkpt lat="44.64637" lon="5.0606">
        <ele>328</ele>
        <time>2015-05-24T12:10:05Z</time>
      </trkpt>
      <trkpt lat="44.64644" lon="5.06057">
        <ele>329</ele>
        <time>2015-05-24T12:10:06Z</time>
      </trkpt>
      <trkpt lat="44.6465" lon="5.06054">
        <ele>329</ele>
        <time>2015-05-24T12:10:07Z</time>
      </trkpt>
      <trkpt lat="44.64661" lon="5.06049">
        <ele>330</ele>
        <time>2015-05-24T12:10:09Z</time>
      </trkpt>
    </trkseg>
  </trk>
</gpx>